<?xml version="1.0" encoding="UTF-8" standalone="no" ?>
<gpx xmlns="http://www.topografix.com/GPX/1/1" xmlns:xsi="http://www.w3.org/2001/XMLSchema-instance" xsi:schemaLocation="http://www.topografix.com/GPX/1/1 http://www.topografix.com/GPX/1/1/gpx.xsd" version="1.1" creator="VisuGPX - https://www.visugpx.com">
  <metadata>
    <name>trail de la Vallée de Chevreuse</name>
    <desc><![CDATA[
Par Christian Bouteille]]></desc>
  </metadata>
  <trk>
    <name><![CDATA[2008-04-06 : trail de la Vallée de Chevreuse]]></name>
    <desc><![CDATA[Par Christian Bouteille]]></desc>
    <trkseg>
      <trkpt lat="48.70239" lon="1.89213">
        <ele>136.16</ele>
        <time>2008-04-06T05:17:30.000Z</time>
      </trkpt>
      <trkpt lat="48.70239" lon="1.89215">
        <ele>137.61</ele>
        <time>2008-04-06T05:17:33.000Z</time>
      </trkpt>
      <trkpt lat="48.70237" lon="1.89239">
        <ele>136.64</ele>
        <time>2008-04-06T05:17:37.000Z</time>
      </trkpt>
      <trkpt lat="48.70236" lon="1.89261">
        <ele>136.16</ele>
        <time>2008-04-06T05:17:41.000Z</time>
      </trkpt>
      <trkpt lat="48.7024" lon="1.89268">
        <ele>134.72</ele>
        <time>2008-04-06T05:17:43.000Z</time>
      </trkpt>
      <trkpt lat="48.70252" lon="1.8929">
        <ele>132.8</ele>
        <time>2008-04-06T05:17:49.000Z</time>
      </trkpt>
      <trkpt lat="48.70263" lon="1.89307">
        <ele>130.88</ele>
        <time>2008-04-06T05:17:54.000Z</time>
      </trkpt>
      <trkpt lat="48.70274" lon="1.89322">
        <ele>128.95</ele>
        <time>2008-04-06T05:17:59.000Z</time>
      </trkpt>
      <trkpt lat="48.70283" lon="1.89333">
        <ele>128.47</ele>
        <time>2008-04-06T05:18:03.000Z</time>
      </trkpt>
      <trkpt lat="48.70284" lon="1.89336">
        <ele>127.03</ele>
        <time>2008-04-06T05:18:04.000Z</time>
      </trkpt>
      <trkpt lat="48.70292" lon="1.89358">
        <ele>126.07</ele>
        <time>2008-04-06T05:18:10.000Z</time>
      </trkpt>
      <trkpt lat="48.70292" lon="1.89371">
        <ele>125.59</ele>
        <time>2008-04-06T05:18:13.000Z</time>
      </trkpt>
      <trkpt lat="48.70295" lon="1.89397">
        <ele>125.59</ele>
        <time>2008-04-06T05:18:19.000Z</time>
      </trkpt>
      <trkpt lat="48.70298" lon="1.89421">
        <ele>123.67</ele>
        <time>2008-04-06T05:18:24.000Z</time>
      </trkpt>
      <trkpt lat="48.70306" lon="1.89441">
        <ele>125.11</ele>
        <time>2008-04-06T05:18:29.000Z</time>
      </trkpt>
      <trkpt lat="48.70319" lon="1.8946">
        <ele>125.11</ele>
        <time>2008-04-06T05:18:35.000Z</time>
      </trkpt>
      <trkpt lat="48.70322" lon="1.89464">
        <ele>124.63</ele>
        <time>2008-04-06T05:18:36.000Z</time>
      </trkpt>
      <trkpt lat="48.70334" lon="1.89485">
        <ele>126.55</ele>
        <time>2008-04-06T05:18:42.000Z</time>
      </trkpt>
      <trkpt lat="48.70337" lon="1.89492">
        <ele>125.11</ele>
        <time>2008-04-06T05:18:44.000Z</time>
      </trkpt>
      <trkpt lat="48.70337" lon="1.89508">
        <ele>123.67</ele>
        <time>2008-04-06T05:18:48.000Z</time>
      </trkpt>
      <trkpt lat="48.70331" lon="1.89525">
        <ele>121.26</ele>
        <time>2008-04-06T05:18:53.000Z</time>
      </trkpt>
      <trkpt lat="48.70325" lon="1.89539">
        <ele>119.82</ele>
        <time>2008-04-06T05:18:57.000Z</time>
      </trkpt>
      <trkpt lat="48.70317" lon="1.8955">
        <ele>120.3</ele>
        <time>2008-04-06T05:19:01.000Z</time>
      </trkpt>
      <trkpt lat="48.70316" lon="1.89554">
        <ele>120.78</ele>
        <time>2008-04-06T05:19:02.000Z</time>
      </trkpt>
      <trkpt lat="48.70303" lon="1.89565">
        <ele>120.78</ele>
        <time>2008-04-06T05:19:07.000Z</time>
      </trkpt>
      <trkpt lat="48.70293" lon="1.8957">
        <ele>121.74</ele>
        <time>2008-04-06T05:19:11.000Z</time>
      </trkpt>
      <trkpt lat="48.70277" lon="1.8958">
        <ele>122.22</ele>
        <time>2008-04-06T05:19:16.000Z</time>
      </trkpt>
      <trkpt lat="48.70267" lon="1.89592">
        <ele>123.19</ele>
        <time>2008-04-06T05:19:21.000Z</time>
      </trkpt>
      <trkpt lat="48.70259" lon="1.89607">
        <ele>123.67</ele>
        <time>2008-04-06T05:19:26.000Z</time>
      </trkpt>
      <trkpt lat="48.70251" lon="1.89621">
        <ele>122.71</ele>
        <time>2008-04-06T05:19:30.000Z</time>
      </trkpt>
      <trkpt lat="48.7024" lon="1.89638">
        <ele>120.78</ele>
        <time>2008-04-06T05:19:35.000Z</time>
      </trkpt>
      <trkpt lat="48.7023" lon="1.89653">
        <ele>118.38</ele>
        <time>2008-04-06T05:19:40.000Z</time>
      </trkpt>
      <trkpt lat="48.70219" lon="1.8967">
        <ele>118.86</ele>
        <time>2008-04-06T05:19:46.000Z</time>
      </trkpt>
      <trkpt lat="48.70208" lon="1.89686">
        <ele>117.42</ele>
        <time>2008-04-06T05:19:52.000Z</time>
      </trkpt>
      <trkpt lat="48.70198" lon="1.89697">
        <ele>115.5</ele>
        <time>2008-04-06T05:19:57.000Z</time>
      </trkpt>
      <trkpt lat="48.70197" lon="1.89698">
        <ele>115.5</ele>
        <time>2008-04-06T05:19:58.000Z</time>
      </trkpt>
      <trkpt lat="48.70184" lon="1.89714">
        <ele>113.09</ele>
        <time>2008-04-06T05:20:05.000Z</time>
      </trkpt>
      <trkpt lat="48.70178" lon="1.89733">
        <ele>109.73</ele>
        <time>2008-04-06T05:20:10.000Z</time>
      </trkpt>
      <trkpt lat="48.70177" lon="1.89751">
        <ele>109.73</ele>
        <time>2008-04-06T05:20:14.000Z</time>
      </trkpt>
      <trkpt lat="48.70173" lon="1.89774">
        <ele>118.38</ele>
        <time>2008-04-06T05:20:20.000Z</time>
      </trkpt>
      <trkpt lat="48.70173" lon="1.89787">
        <ele>121.26</ele>
        <time>2008-04-06T05:20:24.000Z</time>
      </trkpt>
      <trkpt lat="48.70173" lon="1.89808">
        <ele>123.19</ele>
        <time>2008-04-06T05:20:31.000Z</time>
      </trkpt>
      <trkpt lat="48.70176" lon="1.89826">
        <ele>131.84</ele>
        <time>2008-04-06T05:20:36.000Z</time>
      </trkpt>
      <trkpt lat="48.70181" lon="1.8984">
        <ele>141.45</ele>
        <time>2008-04-06T05:20:41.000Z</time>
      </trkpt>
      <trkpt lat="48.70184" lon="1.89844">
        <ele>142.41</ele>
        <time>2008-04-06T05:20:43.000Z</time>
      </trkpt>
      <trkpt lat="48.7019" lon="1.89851">
        <ele>144.82</ele>
        <time>2008-04-06T05:20:47.000Z</time>
      </trkpt>
      <trkpt lat="48.70198" lon="1.89864">
        <ele>147.22</ele>
        <time>2008-04-06T05:20:53.000Z</time>
      </trkpt>
      <trkpt lat="48.70201" lon="1.89876">
        <ele>147.7</ele>
        <time>2008-04-06T05:20:57.000Z</time>
      </trkpt>
      <trkpt lat="48.70204" lon="1.89889">
        <ele>149.62</ele>
        <time>2008-04-06T05:21:02.000Z</time>
      </trkpt>
      <trkpt lat="48.70208" lon="1.89901">
        <ele>151.54</ele>
        <time>2008-04-06T05:21:07.000Z</time>
      </trkpt>
      <trkpt lat="48.70208" lon="1.89904">
        <ele>152.03</ele>
        <time>2008-04-06T05:21:08.000Z</time>
      </trkpt>
      <trkpt lat="48.7021" lon="1.89912">
        <ele>154.43</ele>
        <time>2008-04-06T05:21:11.000Z</time>
      </trkpt>
      <trkpt lat="48.70216" lon="1.89927">
        <ele>156.35</ele>
        <time>2008-04-06T05:21:17.000Z</time>
      </trkpt>
      <trkpt lat="48.70218" lon="1.89937">
        <ele>157.31</ele>
        <time>2008-04-06T05:21:21.000Z</time>
      </trkpt>
      <trkpt lat="48.70219" lon="1.89943">
        <ele>157.79</ele>
        <time>2008-04-06T05:21:23.000Z</time>
      </trkpt>
      <trkpt lat="48.70226" lon="1.89959">
        <ele>162.12</ele>
        <time>2008-04-06T05:21:29.000Z</time>
      </trkpt>
      <trkpt lat="48.70229" lon="1.89971">
        <ele>163.08</ele>
        <time>2008-04-06T05:21:34.000Z</time>
      </trkpt>
      <trkpt lat="48.70234" lon="1.89979">
        <ele>163.56</ele>
        <time>2008-04-06T05:21:39.000Z</time>
      </trkpt>
      <trkpt lat="48.70238" lon="1.89986">
        <ele>166.45</ele>
        <time>2008-04-06T05:21:44.000Z</time>
      </trkpt>
      <trkpt lat="48.70243" lon="1.89994">
        <ele>169.33</ele>
        <time>2008-04-06T05:21:51.000Z</time>
      </trkpt>
      <trkpt lat="48.70247" lon="1.9">
        <ele>169.33</ele>
        <time>2008-04-06T05:21:55.000Z</time>
      </trkpt>
      <trkpt lat="48.7025" lon="1.9001">
        <ele>168.85</ele>
        <time>2008-04-06T05:22:00.000Z</time>
      </trkpt>
      <trkpt lat="48.70259" lon="1.90017">
        <ele>172.69</ele>
        <time>2008-04-06T05:22:05.000Z</time>
      </trkpt>
      <trkpt lat="48.70261" lon="1.90022">
        <ele>172.21</ele>
        <time>2008-04-06T05:22:07.000Z</time>
      </trkpt>
      <trkpt lat="48.70266" lon="1.90038">
        <ele>170.77</ele>
        <time>2008-04-06T05:22:13.000Z</time>
      </trkpt>
      <trkpt lat="48.70274" lon="1.90053">
        <ele>171.25</ele>
        <time>2008-04-06T05:22:18.000Z</time>
      </trkpt>
      <trkpt lat="48.70283" lon="1.90068">
        <ele>174.14</ele>
        <time>2008-04-06T05:22:23.000Z</time>
      </trkpt>
      <trkpt lat="48.70287" lon="1.90078">
        <ele>173.66</ele>
        <time>2008-04-06T05:22:26.000Z</time>
      </trkpt>
      <trkpt lat="48.70294" lon="1.90095">
        <ele>172.21</ele>
        <time>2008-04-06T05:22:31.000Z</time>
      </trkpt>
      <trkpt lat="48.70302" lon="1.90114">
        <ele>175.1</ele>
        <time>2008-04-06T05:22:37.000Z</time>
      </trkpt>
      <trkpt lat="48.70308" lon="1.90131">
        <ele>174.62</ele>
        <time>2008-04-06T05:22:42.000Z</time>
      </trkpt>
      <trkpt lat="48.7031" lon="1.90147">
        <ele>173.17</ele>
        <time>2008-04-06T05:22:46.000Z</time>
      </trkpt>
      <trkpt lat="48.70311" lon="1.90168">
        <ele>170.29</ele>
        <time>2008-04-06T05:22:53.000Z</time>
      </trkpt>
      <trkpt lat="48.70307" lon="1.90183">
        <ele>166.93</ele>
        <time>2008-04-06T05:22:59.000Z</time>
      </trkpt>
      <trkpt lat="48.70304" lon="1.90199">
        <ele>163.08</ele>
        <time>2008-04-06T05:23:04.000Z</time>
      </trkpt>
      <trkpt lat="48.70299" lon="1.90222">
        <ele>163.08</ele>
        <time>2008-04-06T05:23:10.000Z</time>
      </trkpt>
      <trkpt lat="48.70296" lon="1.90232">
        <ele>162.12</ele>
        <time>2008-04-06T05:23:13.000Z</time>
      </trkpt>
      <trkpt lat="48.70292" lon="1.90247">
        <ele>160.68</ele>
        <time>2008-04-06T05:23:18.000Z</time>
      </trkpt>
      <trkpt lat="48.70292" lon="1.90257">
        <ele>159.72</ele>
        <time>2008-04-06T05:23:23.000Z</time>
      </trkpt>
      <trkpt lat="48.70293" lon="1.90264">
        <ele>164.04</ele>
        <time>2008-04-06T05:23:30.000Z</time>
      </trkpt>
      <trkpt lat="48.70295" lon="1.90271">
        <ele>168.85</ele>
        <time>2008-04-06T05:23:35.000Z</time>
      </trkpt>
      <trkpt lat="48.70294" lon="1.90281">
        <ele>168.85</ele>
        <time>2008-04-06T05:23:40.000Z</time>
      </trkpt>
      <trkpt lat="48.70289" lon="1.90294">
        <ele>165.48</ele>
        <time>2008-04-06T05:23:45.000Z</time>
      </trkpt>
      <trkpt lat="48.70285" lon="1.90306">
        <ele>168.37</ele>
        <time>2008-04-06T05:23:49.000Z</time>
      </trkpt>
      <trkpt lat="48.70285" lon="1.90309">
        <ele>168.37</ele>
        <time>2008-04-06T05:23:51.000Z</time>
      </trkpt>
      <trkpt lat="48.70282" lon="1.90326">
        <ele>162.6</ele>
        <time>2008-04-06T05:23:56.000Z</time>
      </trkpt>
      <trkpt lat="48.70278" lon="1.90339">
        <ele>159.72</ele>
        <time>2008-04-06T05:24:01.000Z</time>
      </trkpt>
      <trkpt lat="48.70278" lon="1.90342">
        <ele>159.24</ele>
        <time>2008-04-06T05:24:02.000Z</time>
      </trkpt>
      <trkpt lat="48.70273" lon="1.90359">
        <ele>154.43</ele>
        <time>2008-04-06T05:24:09.000Z</time>
      </trkpt>
      <trkpt lat="48.70272" lon="1.90361">
        <ele>153.95</ele>
        <time>2008-04-06T05:24:10.000Z</time>
      </trkpt>
      <trkpt lat="48.70269" lon="1.90367">
        <ele>151.54</ele>
        <time>2008-04-06T05:24:13.000Z</time>
      </trkpt>
      <trkpt lat="48.70267" lon="1.90383">
        <ele>145.78</ele>
        <time>2008-04-06T05:24:18.000Z</time>
      </trkpt>
      <trkpt lat="48.70261" lon="1.90399">
        <ele>142.41</ele>
        <time>2008-04-06T05:24:22.000Z</time>
      </trkpt>
      <trkpt lat="48.70256" lon="1.90419">
        <ele>145.78</ele>
        <time>2008-04-06T05:24:27.000Z</time>
      </trkpt>
      <trkpt lat="48.70254" lon="1.9043">
        <ele>146.26</ele>
        <time>2008-04-06T05:24:30.000Z</time>
      </trkpt>
      <trkpt lat="48.70248" lon="1.90445">
        <ele>146.26</ele>
        <time>2008-04-06T05:24:34.000Z</time>
      </trkpt>
      <trkpt lat="48.70246" lon="1.90463">
        <ele>147.7</ele>
        <time>2008-04-06T05:24:39.000Z</time>
      </trkpt>
      <trkpt lat="48.70246" lon="1.90479">
        <ele>149.14</ele>
        <time>2008-04-06T05:24:43.000Z</time>
      </trkpt>
      <trkpt lat="48.70246" lon="1.90484">
        <ele>150.1</ele>
        <time>2008-04-06T05:24:44.000Z</time>
      </trkpt>
      <trkpt lat="48.70246" lon="1.90505">
        <ele>156.35</ele>
        <time>2008-04-06T05:24:49.000Z</time>
      </trkpt>
      <trkpt lat="48.70244" lon="1.90523">
        <ele>160.2</ele>
        <time>2008-04-06T05:24:54.000Z</time>
      </trkpt>
      <trkpt lat="48.70244" lon="1.90529">
        <ele>160.68</ele>
        <time>2008-04-06T05:24:56.000Z</time>
      </trkpt>
      <trkpt lat="48.70242" lon="1.90557">
        <ele>168.37</ele>
        <time>2008-04-06T05:25:02.000Z</time>
      </trkpt>
      <trkpt lat="48.70244" lon="1.90571">
        <ele>169.81</ele>
        <time>2008-04-06T05:25:06.000Z</time>
      </trkpt>
      <trkpt lat="48.70242" lon="1.9058">
        <ele>166.93</ele>
        <time>2008-04-06T05:25:09.000Z</time>
      </trkpt>
      <trkpt lat="48.70243" lon="1.90598">
        <ele>165.96</ele>
        <time>2008-04-06T05:25:14.000Z</time>
      </trkpt>
      <trkpt lat="48.70241" lon="1.90613">
        <ele>165.96</ele>
        <time>2008-04-06T05:25:18.000Z</time>
      </trkpt>
      <trkpt lat="48.70238" lon="1.90632">
        <ele>161.64</ele>
        <time>2008-04-06T05:25:24.000Z</time>
      </trkpt>
      <trkpt lat="48.70236" lon="1.9065">
        <ele>160.2</ele>
        <time>2008-04-06T05:25:29.000Z</time>
      </trkpt>
      <trkpt lat="48.70236" lon="1.90668">
        <ele>158.27</ele>
        <time>2008-04-06T05:25:34.000Z</time>
      </trkpt>
      <trkpt lat="48.70236" lon="1.90682">
        <ele>152.99</ele>
        <time>2008-04-06T05:25:39.000Z</time>
      </trkpt>
      <trkpt lat="48.70233" lon="1.90697">
        <ele>153.95</ele>
        <time>2008-04-06T05:25:43.000Z</time>
      </trkpt>
      <trkpt lat="48.70231" lon="1.90709">
        <ele>154.43</ele>
        <time>2008-04-06T05:25:46.000Z</time>
      </trkpt>
      <trkpt lat="48.70225" lon="1.9073">
        <ele>155.39</ele>
        <time>2008-04-06T05:25:51.000Z</time>
      </trkpt>
      <trkpt lat="48.70221" lon="1.90745">
        <ele>156.83</ele>
        <time>2008-04-06T05:25:55.000Z</time>
      </trkpt>
      <trkpt lat="48.70215" lon="1.9077">
        <ele>156.83</ele>
        <time>2008-04-06T05:26:01.000Z</time>
      </trkpt>
      <trkpt lat="48.70209" lon="1.90789">
        <ele>158.75</ele>
        <time>2008-04-06T05:26:06.000Z</time>
      </trkpt>
      <trkpt lat="48.70208" lon="1.9081">
        <ele>163.08</ele>
        <time>2008-04-06T05:26:11.000Z</time>
      </trkpt>
      <trkpt lat="48.70204" lon="1.90826">
        <ele>162.6</ele>
        <time>2008-04-06T05:26:15.000Z</time>
      </trkpt>
      <trkpt lat="48.702" lon="1.9084">
        <ele>163.56</ele>
        <time>2008-04-06T05:26:19.000Z</time>
      </trkpt>
      <trkpt lat="48.70191" lon="1.90859">
        <ele>164.04</ele>
        <time>2008-04-06T05:26:25.000Z</time>
      </trkpt>
      <trkpt lat="48.70184" lon="1.90876">
        <ele>166.45</ele>
        <time>2008-04-06T05:26:30.000Z</time>
      </trkpt>
      <trkpt lat="48.70177" lon="1.90898">
        <ele>165.96</ele>
        <time>2008-04-06T05:26:36.000Z</time>
      </trkpt>
      <trkpt lat="48.70174" lon="1.90917">
        <ele>166.45</ele>
        <time>2008-04-06T05:26:41.000Z</time>
      </trkpt>
      <trkpt lat="48.70166" lon="1.90944">
        <ele>165.48</ele>
        <time>2008-04-06T05:26:48.000Z</time>
      </trkpt>
      <trkpt lat="48.70158" lon="1.90969">
        <ele>164.04</ele>
        <time>2008-04-06T05:26:55.000Z</time>
      </trkpt>
      <trkpt lat="48.70153" lon="1.90993">
        <ele>164.04</ele>
        <time>2008-04-06T05:27:01.000Z</time>
      </trkpt>
      <trkpt lat="48.70149" lon="1.91014">
        <ele>165.48</ele>
        <time>2008-04-06T05:27:06.000Z</time>
      </trkpt>
      <trkpt lat="48.70141" lon="1.9104">
        <ele>165.48</ele>
        <time>2008-04-06T05:27:13.000Z</time>
      </trkpt>
      <trkpt lat="48.7014" lon="1.91044">
        <ele>166.93</ele>
        <time>2008-04-06T05:27:14.000Z</time>
      </trkpt>
      <trkpt lat="48.70136" lon="1.91052">
        <ele>167.41</ele>
        <time>2008-04-06T05:27:19.000Z</time>
      </trkpt>
      <trkpt lat="48.70135" lon="1.91053">
        <ele>166.45</ele>
        <time>2008-04-06T05:27:20.000Z</time>
      </trkpt>
      <trkpt lat="48.70132" lon="1.91069">
        <ele>164.04</ele>
        <time>2008-04-06T05:27:25.000Z</time>
      </trkpt>
      <trkpt lat="48.70131" lon="1.91075">
        <ele>164.52</ele>
        <time>2008-04-06T05:27:27.000Z</time>
      </trkpt>
      <trkpt lat="48.70127" lon="1.91098">
        <ele>162.12</ele>
        <time>2008-04-06T05:27:34.000Z</time>
      </trkpt>
      <trkpt lat="48.70122" lon="1.91116">
        <ele>157.31</ele>
        <time>2008-04-06T05:27:39.000Z</time>
      </trkpt>
      <trkpt lat="48.70121" lon="1.91123">
        <ele>154.91</ele>
        <time>2008-04-06T05:27:41.000Z</time>
      </trkpt>
      <trkpt lat="48.70121" lon="1.9113">
        <ele>153.95</ele>
        <time>2008-04-06T05:27:43.000Z</time>
      </trkpt>
      <trkpt lat="48.70115" lon="1.91156">
        <ele>146.26</ele>
        <time>2008-04-06T05:27:50.000Z</time>
      </trkpt>
      <trkpt lat="48.70118" lon="1.91178">
        <ele>147.7</ele>
        <time>2008-04-06T05:27:55.000Z</time>
      </trkpt>
      <trkpt lat="48.70108" lon="1.91197">
        <ele>144.34</ele>
        <time>2008-04-06T05:28:02.000Z</time>
      </trkpt>
      <trkpt lat="48.70105" lon="1.91203">
        <ele>141.45</ele>
        <time>2008-04-06T05:28:04.000Z</time>
      </trkpt>
      <trkpt lat="48.70095" lon="1.91205">
        <ele>140.49</ele>
        <time>2008-04-06T05:28:08.000Z</time>
      </trkpt>
      <trkpt lat="48.70079" lon="1.91194">
        <ele>140.49</ele>
        <time>2008-04-06T05:28:14.000Z</time>
      </trkpt>
      <trkpt lat="48.70068" lon="1.91185">
        <ele>141.93</ele>
        <time>2008-04-06T05:28:19.000Z</time>
      </trkpt>
      <trkpt lat="48.70057" lon="1.91179">
        <ele>140.01</ele>
        <time>2008-04-06T05:28:23.000Z</time>
      </trkpt>
      <trkpt lat="48.70041" lon="1.91171">
        <ele>141.45</ele>
        <time>2008-04-06T05:28:29.000Z</time>
      </trkpt>
      <trkpt lat="48.70029" lon="1.91166">
        <ele>143.85</ele>
        <time>2008-04-06T05:28:34.000Z</time>
      </trkpt>
      <trkpt lat="48.70023" lon="1.91154">
        <ele>148.18</ele>
        <time>2008-04-06T05:28:39.000Z</time>
      </trkpt>
      <trkpt lat="48.70016" lon="1.91143">
        <ele>149.14</ele>
        <time>2008-04-06T05:28:43.000Z</time>
      </trkpt>
      <trkpt lat="48.70014" lon="1.91139">
        <ele>150.58</ele>
        <time>2008-04-06T05:28:45.000Z</time>
      </trkpt>
      <trkpt lat="48.70007" lon="1.91128">
        <ele>152.03</ele>
        <time>2008-04-06T05:28:50.000Z</time>
      </trkpt>
      <trkpt lat="48.7" lon="1.91116">
        <ele>152.51</ele>
        <time>2008-04-06T05:28:54.000Z</time>
      </trkpt>
      <trkpt lat="48.69999" lon="1.91113">
        <ele>152.51</ele>
        <time>2008-04-06T05:28:55.000Z</time>
      </trkpt>
      <trkpt lat="48.69992" lon="1.91096">
        <ele>152.03</ele>
        <time>2008-04-06T05:29:00.000Z</time>
      </trkpt>
      <trkpt lat="48.69991" lon="1.91081">
        <ele>150.58</ele>
        <time>2008-04-06T05:29:04.000Z</time>
      </trkpt>
      <trkpt lat="48.69987" lon="1.91067">
        <ele>149.14</ele>
        <time>2008-04-06T05:29:08.000Z</time>
      </trkpt>
      <trkpt lat="48.69985" lon="1.9106">
        <ele>147.7</ele>
        <time>2008-04-06T05:29:10.000Z</time>
      </trkpt>
      <trkpt lat="48.69972" lon="1.91046">
        <ele>144.34</ele>
        <time>2008-04-06T05:29:16.000Z</time>
      </trkpt>
      <trkpt lat="48.69962" lon="1.91035">
        <ele>141.45</ele>
        <time>2008-04-06T05:29:20.000Z</time>
      </trkpt>
      <trkpt lat="48.69952" lon="1.91015">
        <ele>138.57</ele>
        <time>2008-04-06T05:29:26.000Z</time>
      </trkpt>
      <trkpt lat="48.69942" lon="1.9102">
        <ele>132.8</ele>
        <time>2008-04-06T05:29:31.000Z</time>
      </trkpt>
      <trkpt lat="48.6994" lon="1.91032">
        <ele>129.43</ele>
        <time>2008-04-06T05:29:34.000Z</time>
      </trkpt>
      <trkpt lat="48.69935" lon="1.91066">
        <ele>123.19</ele>
        <time>2008-04-06T05:29:41.000Z</time>
      </trkpt>
      <trkpt lat="48.69933" lon="1.91089">
        <ele>122.22</ele>
        <time>2008-04-06T05:29:46.000Z</time>
      </trkpt>
      <trkpt lat="48.69931" lon="1.91113">
        <ele>122.22</ele>
        <time>2008-04-06T05:29:51.000Z</time>
      </trkpt>
      <trkpt lat="48.69936" lon="1.91134">
        <ele>116.46</ele>
        <time>2008-04-06T05:29:56.000Z</time>
      </trkpt>
      <trkpt lat="48.69938" lon="1.91154">
        <ele>112.61</ele>
        <time>2008-04-06T05:30:01.000Z</time>
      </trkpt>
      <trkpt lat="48.69943" lon="1.9117">
        <ele>116.94</ele>
        <time>2008-04-06T05:30:06.000Z</time>
      </trkpt>
      <trkpt lat="48.69949" lon="1.9118">
        <ele>120.78</ele>
        <time>2008-04-06T05:30:11.000Z</time>
      </trkpt>
      <trkpt lat="48.69958" lon="1.91189">
        <ele>127.99</ele>
        <time>2008-04-06T05:30:17.000Z</time>
      </trkpt>
      <trkpt lat="48.69971" lon="1.91196">
        <ele>137.13</ele>
        <time>2008-04-06T05:30:23.000Z</time>
      </trkpt>
      <trkpt lat="48.69976" lon="1.912">
        <ele>146.26</ele>
        <time>2008-04-06T05:30:30.000Z</time>
      </trkpt>
      <trkpt lat="48.69982" lon="1.91207">
        <ele>146.74</ele>
        <time>2008-04-06T05:30:36.000Z</time>
      </trkpt>
      <trkpt lat="48.69981" lon="1.91213">
        <ele>142.89</ele>
        <time>2008-04-06T05:30:43.000Z</time>
      </trkpt>
      <trkpt lat="48.6998" lon="1.91218">
        <ele>143.85</ele>
        <time>2008-04-06T05:30:49.000Z</time>
      </trkpt>
      <trkpt lat="48.69983" lon="1.91225">
        <ele>142.41</ele>
        <time>2008-04-06T05:30:57.000Z</time>
      </trkpt>
      <trkpt lat="48.69984" lon="1.91233">
        <ele>139.53</ele>
        <time>2008-04-06T05:31:03.000Z</time>
      </trkpt>
      <trkpt lat="48.69985" lon="1.91235">
        <ele>140.49</ele>
        <time>2008-04-06T05:31:04.000Z</time>
      </trkpt>
      <trkpt lat="48.69982" lon="1.91242">
        <ele>142.41</ele>
        <time>2008-04-06T05:31:11.000Z</time>
      </trkpt>
      <trkpt lat="48.69976" lon="1.91245">
        <ele>140.97</ele>
        <time>2008-04-06T05:31:16.000Z</time>
      </trkpt>
      <trkpt lat="48.69976" lon="1.91246">
        <ele>140.97</ele>
        <time>2008-04-06T05:31:17.000Z</time>
      </trkpt>
      <trkpt lat="48.69972" lon="1.91252">
        <ele>141.45</ele>
        <time>2008-04-06T05:31:21.000Z</time>
      </trkpt>
      <trkpt lat="48.69968" lon="1.91263">
        <ele>139.05</ele>
        <time>2008-04-06T05:31:25.000Z</time>
      </trkpt>
      <trkpt lat="48.69963" lon="1.91273">
        <ele>137.13</ele>
        <time>2008-04-06T05:31:29.000Z</time>
      </trkpt>
      <trkpt lat="48.69956" lon="1.91285">
        <ele>135.68</ele>
        <time>2008-04-06T05:31:34.000Z</time>
      </trkpt>
      <trkpt lat="48.69955" lon="1.91287">
        <ele>135.2</ele>
        <time>2008-04-06T05:31:35.000Z</time>
      </trkpt>
      <trkpt lat="48.69951" lon="1.91302">
        <ele>138.57</ele>
        <time>2008-04-06T05:31:40.000Z</time>
      </trkpt>
      <trkpt lat="48.69952" lon="1.91308">
        <ele>140.97</ele>
        <time>2008-04-06T05:31:42.000Z</time>
      </trkpt>
      <trkpt lat="48.69952" lon="1.9132">
        <ele>140.01</ele>
        <time>2008-04-06T05:31:47.000Z</time>
      </trkpt>
      <trkpt lat="48.69955" lon="1.91334">
        <ele>137.13</ele>
        <time>2008-04-06T05:31:53.000Z</time>
      </trkpt>
      <trkpt lat="48.6995" lon="1.91345">
        <ele>134.72</ele>
        <time>2008-04-06T05:31:59.000Z</time>
      </trkpt>
      <trkpt lat="48.69948" lon="1.9135">
        <ele>132.8</ele>
        <time>2008-04-06T05:32:02.000Z</time>
      </trkpt>
      <trkpt lat="48.69939" lon="1.91361">
        <ele>123.19</ele>
        <time>2008-04-06T05:32:09.000Z</time>
      </trkpt>
      <trkpt lat="48.69933" lon="1.91369">
        <ele>125.11</ele>
        <time>2008-04-06T05:32:13.000Z</time>
      </trkpt>
      <trkpt lat="48.69928" lon="1.91371">
        <ele>127.51</ele>
        <time>2008-04-06T05:32:16.000Z</time>
      </trkpt>
      <trkpt lat="48.69921" lon="1.91367">
        <ele>130.88</ele>
        <time>2008-04-06T05:32:22.000Z</time>
      </trkpt>
      <trkpt lat="48.6992" lon="1.91365">
        <ele>131.36</ele>
        <time>2008-04-06T05:32:23.000Z</time>
      </trkpt>
      <trkpt lat="48.69918" lon="1.91364">
        <ele>130.4</ele>
        <time>2008-04-06T05:32:26.000Z</time>
      </trkpt>
      <trkpt lat="48.69913" lon="1.9136">
        <ele>131.84</ele>
        <time>2008-04-06T05:32:29.000Z</time>
      </trkpt>
      <trkpt lat="48.69909" lon="1.9136">
        <ele>134.24</ele>
        <time>2008-04-06T05:32:34.000Z</time>
      </trkpt>
      <trkpt lat="48.69906" lon="1.91364">
        <ele>133.76</ele>
        <time>2008-04-06T05:32:38.000Z</time>
      </trkpt>
      <trkpt lat="48.69906" lon="1.91377">
        <ele>134.24</ele>
        <time>2008-04-06T05:32:44.000Z</time>
      </trkpt>
      <trkpt lat="48.69907" lon="1.9139">
        <ele>137.13</ele>
        <time>2008-04-06T05:32:49.000Z</time>
      </trkpt>
      <trkpt lat="48.69909" lon="1.91402">
        <ele>141.93</ele>
        <time>2008-04-06T05:32:55.000Z</time>
      </trkpt>
      <trkpt lat="48.69909" lon="1.91411">
        <ele>144.82</ele>
        <time>2008-04-06T05:32:59.000Z</time>
      </trkpt>
      <trkpt lat="48.69913" lon="1.91423">
        <ele>145.78</ele>
        <time>2008-04-06T05:33:04.000Z</time>
      </trkpt>
      <trkpt lat="48.69915" lon="1.91426">
        <ele>146.74</ele>
        <time>2008-04-06T05:33:06.000Z</time>
      </trkpt>
      <trkpt lat="48.6992" lon="1.91431">
        <ele>147.22</ele>
        <time>2008-04-06T05:33:09.000Z</time>
      </trkpt>
      <trkpt lat="48.69923" lon="1.91444">
        <ele>148.66</ele>
        <time>2008-04-06T05:33:14.000Z</time>
      </trkpt>
      <trkpt lat="48.69928" lon="1.91451">
        <ele>149.14</ele>
        <time>2008-04-06T05:33:18.000Z</time>
      </trkpt>
      <trkpt lat="48.69936" lon="1.9146">
        <ele>152.03</ele>
        <time>2008-04-06T05:33:23.000Z</time>
      </trkpt>
      <trkpt lat="48.69938" lon="1.91463">
        <ele>151.54</ele>
        <time>2008-04-06T05:33:24.000Z</time>
      </trkpt>
      <trkpt lat="48.69944" lon="1.91466">
        <ele>151.06</ele>
        <time>2008-04-06T05:33:28.000Z</time>
      </trkpt>
      <trkpt lat="48.69955" lon="1.91471">
        <ele>152.03</ele>
        <time>2008-04-06T05:33:35.000Z</time>
      </trkpt>
      <trkpt lat="48.69962" lon="1.91476">
        <ele>155.87</ele>
        <time>2008-04-06T05:33:40.000Z</time>
      </trkpt>
      <trkpt lat="48.69968" lon="1.91478">
        <ele>160.2</ele>
        <time>2008-04-06T05:33:43.000Z</time>
      </trkpt>
      <trkpt lat="48.69976" lon="1.91484">
        <ele>163.56</ele>
        <time>2008-04-06T05:33:50.000Z</time>
      </trkpt>
      <trkpt lat="48.69978" lon="1.91485">
        <ele>163.56</ele>
        <time>2008-04-06T05:33:51.000Z</time>
      </trkpt>
      <trkpt lat="48.69982" lon="1.91487">
        <ele>166.93</ele>
        <time>2008-04-06T05:33:55.000Z</time>
      </trkpt>
      <trkpt lat="48.69984" lon="1.91492">
        <ele>166.93</ele>
        <time>2008-04-06T05:34:01.000Z</time>
      </trkpt>
      <trkpt lat="48.69984" lon="1.91495">
        <ele>167.41</ele>
        <time>2008-04-06T05:34:02.000Z</time>
      </trkpt>
      <trkpt lat="48.69983" lon="1.91509">
        <ele>164.52</ele>
        <time>2008-04-06T05:34:08.000Z</time>
      </trkpt>
      <trkpt lat="48.69983" lon="1.91513">
        <ele>164.52</ele>
        <time>2008-04-06T05:34:09.000Z</time>
      </trkpt>
      <trkpt lat="48.69984" lon="1.91533">
        <ele>164.04</ele>
        <time>2008-04-06T05:34:15.000Z</time>
      </trkpt>
      <trkpt lat="48.69982" lon="1.91549">
        <ele>168.37</ele>
        <time>2008-04-06T05:34:19.000Z</time>
      </trkpt>
      <trkpt lat="48.69979" lon="1.91564">
        <ele>165.96</ele>
        <time>2008-04-06T05:34:24.000Z</time>
      </trkpt>
      <trkpt lat="48.6997" lon="1.91569">
        <ele>165.48</ele>
        <time>2008-04-06T05:34:29.000Z</time>
      </trkpt>
      <trkpt lat="48.69963" lon="1.91576">
        <ele>170.29</ele>
        <time>2008-04-06T05:34:33.000Z</time>
      </trkpt>
      <trkpt lat="48.69958" lon="1.91585">
        <ele>162.6</ele>
        <time>2008-04-06T05:34:38.000Z</time>
      </trkpt>
      <trkpt lat="48.69952" lon="1.91593">
        <ele>152.03</ele>
        <time>2008-04-06T05:34:44.000Z</time>
      </trkpt>
      <trkpt lat="48.6995" lon="1.91596">
        <ele>148.18</ele>
        <time>2008-04-06T05:34:46.000Z</time>
      </trkpt>
      <trkpt lat="48.69947" lon="1.91599">
        <ele>144.82</ele>
        <time>2008-04-06T05:34:48.000Z</time>
      </trkpt>
      <trkpt lat="48.69941" lon="1.91608">
        <ele>137.13</ele>
        <time>2008-04-06T05:34:53.000Z</time>
      </trkpt>
      <trkpt lat="48.69938" lon="1.91613">
        <ele>134.72</ele>
        <time>2008-04-06T05:34:55.000Z</time>
      </trkpt>
      <trkpt lat="48.69929" lon="1.91621">
        <ele>131.36</ele>
        <time>2008-04-06T05:34:59.000Z</time>
      </trkpt>
      <trkpt lat="48.69924" lon="1.91635">
        <ele>132.8</ele>
        <time>2008-04-06T05:35:05.000Z</time>
      </trkpt>
      <trkpt lat="48.69917" lon="1.91646">
        <ele>136.64</ele>
        <time>2008-04-06T05:35:12.000Z</time>
      </trkpt>
      <trkpt lat="48.69916" lon="1.91652">
        <ele>140.49</ele>
        <time>2008-04-06T05:35:14.000Z</time>
      </trkpt>
      <trkpt lat="48.69914" lon="1.91671">
        <ele>149.14</ele>
        <time>2008-04-06T05:35:22.000Z</time>
      </trkpt>
      <trkpt lat="48.69913" lon="1.91679">
        <ele>152.99</ele>
        <time>2008-04-06T05:35:27.000Z</time>
      </trkpt>
      <trkpt lat="48.6991" lon="1.91687">
        <ele>154.91</ele>
        <time>2008-04-06T05:35:32.000Z</time>
      </trkpt>
      <trkpt lat="48.69911" lon="1.91703">
        <ele>157.79</ele>
        <time>2008-04-06T05:35:41.000Z</time>
      </trkpt>
      <trkpt lat="48.69915" lon="1.91717">
        <ele>160.2</ele>
        <time>2008-04-06T05:35:49.000Z</time>
      </trkpt>
      <trkpt lat="48.69918" lon="1.91737">
        <ele>162.12</ele>
        <time>2008-04-06T05:35:56.000Z</time>
      </trkpt>
      <trkpt lat="48.69919" lon="1.91748">
        <ele>163.08</ele>
        <time>2008-04-06T05:35:59.000Z</time>
      </trkpt>
      <trkpt lat="48.6991" lon="1.9176">
        <ele>162.6</ele>
        <time>2008-04-06T05:36:05.000Z</time>
      </trkpt>
      <trkpt lat="48.69889" lon="1.91768">
        <ele>157.31</ele>
        <time>2008-04-06T05:36:13.000Z</time>
      </trkpt>
      <trkpt lat="48.6988" lon="1.9177">
        <ele>152.51</ele>
        <time>2008-04-06T05:36:17.000Z</time>
      </trkpt>
      <trkpt lat="48.69864" lon="1.91765">
        <ele>149.62</ele>
        <time>2008-04-06T05:36:23.000Z</time>
      </trkpt>
      <trkpt lat="48.69863" lon="1.91753">
        <ele>152.03</ele>
        <time>2008-04-06T05:36:27.000Z</time>
      </trkpt>
      <trkpt lat="48.69868" lon="1.91743">
        <ele>151.06</ele>
        <time>2008-04-06T05:36:31.000Z</time>
      </trkpt>
      <trkpt lat="48.69876" lon="1.91729">
        <ele>149.62</ele>
        <time>2008-04-06T05:36:36.000Z</time>
      </trkpt>
      <trkpt lat="48.69884" lon="1.91709">
        <ele>146.74</ele>
        <time>2008-04-06T05:36:42.000Z</time>
      </trkpt>
      <trkpt lat="48.69888" lon="1.91689">
        <ele>143.85</ele>
        <time>2008-04-06T05:36:47.000Z</time>
      </trkpt>
      <trkpt lat="48.69891" lon="1.91683">
        <ele>142.41</ele>
        <time>2008-04-06T05:36:49.000Z</time>
      </trkpt>
      <trkpt lat="48.69894" lon="1.91669">
        <ele>138.57</ele>
        <time>2008-04-06T05:36:53.000Z</time>
      </trkpt>
      <trkpt lat="48.699" lon="1.91653">
        <ele>134.24</ele>
        <time>2008-04-06T05:36:58.000Z</time>
      </trkpt>
      <trkpt lat="48.699" lon="1.91643">
        <ele>132.8</ele>
        <time>2008-04-06T05:37:00.000Z</time>
      </trkpt>
      <trkpt lat="48.69896" lon="1.91615">
        <ele>127.99</ele>
        <time>2008-04-06T05:37:06.000Z</time>
      </trkpt>
      <trkpt lat="48.69892" lon="1.91591">
        <ele>124.15</ele>
        <time>2008-04-06T05:37:11.000Z</time>
      </trkpt>
      <trkpt lat="48.69882" lon="1.91569">
        <ele>123.67</ele>
        <time>2008-04-06T05:37:16.000Z</time>
      </trkpt>
      <trkpt lat="48.6988" lon="1.91563">
        <ele>123.19</ele>
        <time>2008-04-06T05:37:18.000Z</time>
      </trkpt>
      <trkpt lat="48.6987" lon="1.91553">
        <ele>122.22</ele>
        <time>2008-04-06T05:37:22.000Z</time>
      </trkpt>
      <trkpt lat="48.69855" lon="1.91546">
        <ele>120.3</ele>
        <time>2008-04-06T05:37:27.000Z</time>
      </trkpt>
      <trkpt lat="48.69841" lon="1.9154">
        <ele>115.01</ele>
        <time>2008-04-06T05:37:33.000Z</time>
      </trkpt>
      <trkpt lat="48.69839" lon="1.91541">
        <ele>113.09</ele>
        <time>2008-04-06T05:37:34.000Z</time>
      </trkpt>
      <trkpt lat="48.69837" lon="1.91544">
        <ele>111.65</ele>
        <time>2008-04-06T05:37:37.000Z</time>
      </trkpt>
      <trkpt lat="48.69835" lon="1.91548">
        <ele>119.34</ele>
        <time>2008-04-06T05:37:45.000Z</time>
      </trkpt>
      <trkpt lat="48.69831" lon="1.91551">
        <ele>120.78</ele>
        <time>2008-04-06T05:37:50.000Z</time>
      </trkpt>
      <trkpt lat="48.69823" lon="1.91563">
        <ele>122.71</ele>
        <time>2008-04-06T05:37:56.000Z</time>
      </trkpt>
      <trkpt lat="48.69814" lon="1.91563">
        <ele>128.95</ele>
        <time>2008-04-06T05:38:05.000Z</time>
      </trkpt>
      <trkpt lat="48.6981" lon="1.91562">
        <ele>134.24</ele>
        <time>2008-04-06T05:38:12.000Z</time>
      </trkpt>
      <trkpt lat="48.69812" lon="1.91563">
        <ele>135.2</ele>
        <time>2008-04-06T05:38:15.000Z</time>
      </trkpt>
      <trkpt lat="48.6981" lon="1.91565">
        <ele>135.24</ele>
        <time>2008-04-06T05:38:16.000Z</time>
      </trkpt>
      <trkpt lat="48.69119" lon="1.92403">
        <ele>160.68</ele>
        <time>2008-04-06T05:50:40.000Z</time>
      </trkpt>
      <trkpt lat="48.69121" lon="1.92413">
        <ele>161.64</ele>
        <time>2008-04-06T05:50:43.000Z</time>
      </trkpt>
      <trkpt lat="48.69128" lon="1.92429">
        <ele>162.12</ele>
        <time>2008-04-06T05:50:48.000Z</time>
      </trkpt>
      <trkpt lat="48.69139" lon="1.92441">
        <ele>162.12</ele>
        <time>2008-04-06T05:50:54.000Z</time>
      </trkpt>
      <trkpt lat="48.69146" lon="1.92448">
        <ele>162.6</ele>
        <time>2008-04-06T05:50:58.000Z</time>
      </trkpt>
      <trkpt lat="48.69158" lon="1.92452">
        <ele>163.56</ele>
        <time>2008-04-06T05:51:04.000Z</time>
      </trkpt>
      <trkpt lat="48.6917" lon="1.9245">
        <ele>164.04</ele>
        <time>2008-04-06T05:51:08.000Z</time>
      </trkpt>
      <trkpt lat="48.69184" lon="1.92451">
        <ele>163.56</ele>
        <time>2008-04-06T05:51:15.000Z</time>
      </trkpt>
      <trkpt lat="48.69199" lon="1.92448">
        <ele>167.41</ele>
        <time>2008-04-06T05:51:20.000Z</time>
      </trkpt>
      <trkpt lat="48.69211" lon="1.92436">
        <ele>166.93</ele>
        <time>2008-04-06T05:51:24.000Z</time>
      </trkpt>
      <trkpt lat="48.69214" lon="1.92429">
        <ele>167.41</ele>
        <time>2008-04-06T05:51:26.000Z</time>
      </trkpt>
      <trkpt lat="48.69222" lon="1.92415">
        <ele>165.96</ele>
        <time>2008-04-06T05:51:31.000Z</time>
      </trkpt>
      <trkpt lat="48.69231" lon="1.92412">
        <ele>165</ele>
        <time>2008-04-06T05:51:35.000Z</time>
      </trkpt>
      <trkpt lat="48.69235" lon="1.92416">
        <ele>164.04</ele>
        <time>2008-04-06T05:51:37.000Z</time>
      </trkpt>
      <trkpt lat="48.69242" lon="1.92432">
        <ele>160.68</ele>
        <time>2008-04-06T05:51:43.000Z</time>
      </trkpt>
      <trkpt lat="48.69248" lon="1.92445">
        <ele>160.2</ele>
        <time>2008-04-06T05:51:47.000Z</time>
      </trkpt>
      <trkpt lat="48.69249" lon="1.92469">
        <ele>161.16</ele>
        <time>2008-04-06T05:51:53.000Z</time>
      </trkpt>
      <trkpt lat="48.69252" lon="1.92485">
        <ele>164.04</ele>
        <time>2008-04-06T05:51:57.000Z</time>
      </trkpt>
      <trkpt lat="48.69257" lon="1.92498">
        <ele>166.45</ele>
        <time>2008-04-06T05:52:01.000Z</time>
      </trkpt>
      <trkpt lat="48.69267" lon="1.92524">
        <ele>169.81</ele>
        <time>2008-04-06T05:52:08.000Z</time>
      </trkpt>
      <trkpt lat="48.69277" lon="1.92542">
        <ele>169.81</ele>
        <time>2008-04-06T05:52:13.000Z</time>
      </trkpt>
      <trkpt lat="48.69283" lon="1.92554">
        <ele>171.73</ele>
        <time>2008-04-06T05:52:16.000Z</time>
      </trkpt>
      <trkpt lat="48.69288" lon="1.9258">
        <ele>171.25</ele>
        <time>2008-04-06T05:52:22.000Z</time>
      </trkpt>
      <trkpt lat="48.69298" lon="1.92593">
        <ele>171.25</ele>
        <time>2008-04-06T05:52:27.000Z</time>
      </trkpt>
      <trkpt lat="48.69308" lon="1.92601">
        <ele>169.81</ele>
        <time>2008-04-06T05:52:31.000Z</time>
      </trkpt>
      <trkpt lat="48.69317" lon="1.92616">
        <ele>169.33</ele>
        <time>2008-04-06T05:52:35.000Z</time>
      </trkpt>
      <trkpt lat="48.6932" lon="1.92632">
        <ele>167.89</ele>
        <time>2008-04-06T05:52:39.000Z</time>
      </trkpt>
      <trkpt lat="48.69322" lon="1.92649">
        <ele>164.04</ele>
        <time>2008-04-06T05:52:44.000Z</time>
      </trkpt>
      <trkpt lat="48.69322" lon="1.92652">
        <ele>163.08</ele>
        <time>2008-04-06T05:52:45.000Z</time>
      </trkpt>
      <trkpt lat="48.69326" lon="1.92673">
        <ele>165.48</ele>
        <time>2008-04-06T05:52:51.000Z</time>
      </trkpt>
      <trkpt lat="48.6933" lon="1.92683">
        <ele>165.48</ele>
        <time>2008-04-06T05:52:54.000Z</time>
      </trkpt>
      <trkpt lat="48.6933" lon="1.92713">
        <ele>161.16</ele>
        <time>2008-04-06T05:53:01.000Z</time>
      </trkpt>
      <trkpt lat="48.69331" lon="1.92722">
        <ele>160.2</ele>
        <time>2008-04-06T05:53:03.000Z</time>
      </trkpt>
      <trkpt lat="48.69324" lon="1.92738">
        <ele>157.79</ele>
        <time>2008-04-06T05:53:07.000Z</time>
      </trkpt>
      <trkpt lat="48.69322" lon="1.92747">
        <ele>155.87</ele>
        <time>2008-04-06T05:53:10.000Z</time>
      </trkpt>
      <trkpt lat="48.69315" lon="1.92754">
        <ele>145.3</ele>
        <time>2008-04-06T05:53:15.000Z</time>
      </trkpt>
      <trkpt lat="48.6931" lon="1.92767">
        <ele>139.53</ele>
        <time>2008-04-06T05:53:20.000Z</time>
      </trkpt>
      <trkpt lat="48.69308" lon="1.92774">
        <ele>138.57</ele>
        <time>2008-04-06T05:53:23.000Z</time>
      </trkpt>
      <trkpt lat="48.69297" lon="1.92794">
        <ele>131.36</ele>
        <time>2008-04-06T05:53:30.000Z</time>
      </trkpt>
      <trkpt lat="48.69296" lon="1.92797">
        <ele>131.84</ele>
        <time>2008-04-06T05:53:31.000Z</time>
      </trkpt>
      <trkpt lat="48.69289" lon="1.92804">
        <ele>129.92</ele>
        <time>2008-04-06T05:53:35.000Z</time>
      </trkpt>
      <trkpt lat="48.69287" lon="1.92813">
        <ele>127.99</ele>
        <time>2008-04-06T05:53:39.000Z</time>
      </trkpt>
      <trkpt lat="48.69284" lon="1.92819">
        <ele>136.64</ele>
        <time>2008-04-06T05:53:42.000Z</time>
      </trkpt>
      <trkpt lat="48.69277" lon="1.92825">
        <ele>135.68</ele>
        <time>2008-04-06T05:53:47.000Z</time>
      </trkpt>
      <trkpt lat="48.69264" lon="1.92838">
        <ele>129.43</ele>
        <time>2008-04-06T05:53:54.000Z</time>
      </trkpt>
      <trkpt lat="48.69258" lon="1.92854">
        <ele>125.59</ele>
        <time>2008-04-06T05:53:59.000Z</time>
      </trkpt>
      <trkpt lat="48.69252" lon="1.92872">
        <ele>125.59</ele>
        <time>2008-04-06T05:54:04.000Z</time>
      </trkpt>
      <trkpt lat="48.69248" lon="1.92878">
        <ele>126.55</ele>
        <time>2008-04-06T05:54:06.000Z</time>
      </trkpt>
      <trkpt lat="48.69241" lon="1.92894">
        <ele>130.4</ele>
        <time>2008-04-06T05:54:11.000Z</time>
      </trkpt>
      <trkpt lat="48.69234" lon="1.92907">
        <ele>130.88</ele>
        <time>2008-04-06T05:54:15.000Z</time>
      </trkpt>
      <trkpt lat="48.69228" lon="1.92919">
        <ele>130.88</ele>
        <time>2008-04-06T05:54:18.000Z</time>
      </trkpt>
      <trkpt lat="48.69225" lon="1.92942">
        <ele>133.76</ele>
        <time>2008-04-06T05:54:23.000Z</time>
      </trkpt>
      <trkpt lat="48.69212" lon="1.92964">
        <ele>135.2</ele>
        <time>2008-04-06T05:54:30.000Z</time>
      </trkpt>
      <trkpt lat="48.69204" lon="1.92973">
        <ele>135.68</ele>
        <time>2008-04-06T05:54:34.000Z</time>
      </trkpt>
      <trkpt lat="48.69201" lon="1.92976">
        <ele>135.68</ele>
        <time>2008-04-06T05:54:35.000Z</time>
      </trkpt>
      <trkpt lat="48.69186" lon="1.9298">
        <ele>134.24</ele>
        <time>2008-04-06T05:54:41.000Z</time>
      </trkpt>
      <trkpt lat="48.6917" lon="1.92985">
        <ele>135.2</ele>
        <time>2008-04-06T05:54:47.000Z</time>
      </trkpt>
      <trkpt lat="48.69158" lon="1.92991">
        <ele>135.2</ele>
        <time>2008-04-06T05:54:51.000Z</time>
      </trkpt>
      <trkpt lat="48.69149" lon="1.92998">
        <ele>131.84</ele>
        <time>2008-04-06T05:54:55.000Z</time>
      </trkpt>
      <trkpt lat="48.69133" lon="1.93003">
        <ele>127.99</ele>
        <time>2008-04-06T05:55:01.000Z</time>
      </trkpt>
      <trkpt lat="48.69122" lon="1.93005">
        <ele>122.71</ele>
        <time>2008-04-06T05:55:05.000Z</time>
      </trkpt>
      <trkpt lat="48.69116" lon="1.93005">
        <ele>119.82</ele>
        <time>2008-04-06T05:55:07.000Z</time>
      </trkpt>
      <trkpt lat="48.69104" lon="1.93005">
        <ele>106.36</ele>
        <time>2008-04-06T05:55:12.000Z</time>
      </trkpt>
      <trkpt lat="48.6909" lon="1.93">
        <ele>98.19</ele>
        <time>2008-04-06T05:55:17.000Z</time>
      </trkpt>
      <trkpt lat="48.69078" lon="1.92994">
        <ele>88.58</ele>
        <time>2008-04-06T05:55:22.000Z</time>
      </trkpt>
      <trkpt lat="48.69073" lon="1.92991">
        <ele>86.66</ele>
        <time>2008-04-06T05:55:24.000Z</time>
      </trkpt>
      <trkpt lat="48.69063" lon="1.92993">
        <ele>93.39</ele>
        <time>2008-04-06T05:55:29.000Z</time>
      </trkpt>
      <trkpt lat="48.69052" lon="1.92983">
        <ele>96.27</ele>
        <time>2008-04-06T05:55:35.000Z</time>
      </trkpt>
      <trkpt lat="48.69049" lon="1.92981">
        <ele>108.77</ele>
        <time>2008-04-06T05:55:39.000Z</time>
      </trkpt>
      <trkpt lat="48.69046" lon="1.92983">
        <ele>116.94</ele>
        <time>2008-04-06T05:55:42.000Z</time>
      </trkpt>
      <trkpt lat="48.69035" lon="1.92982">
        <ele>125.11</ele>
        <time>2008-04-06T05:55:47.000Z</time>
      </trkpt>
      <trkpt lat="48.6902" lon="1.92979">
        <ele>129.43</ele>
        <time>2008-04-06T05:55:53.000Z</time>
      </trkpt>
      <trkpt lat="48.69017" lon="1.92979">
        <ele>131.84</ele>
        <time>2008-04-06T05:55:54.000Z</time>
      </trkpt>
      <trkpt lat="48.69007" lon="1.92974">
        <ele>138.09</ele>
        <time>2008-04-06T05:55:58.000Z</time>
      </trkpt>
      <trkpt lat="48.69001" lon="1.9297">
        <ele>138.57</ele>
        <time>2008-04-06T05:56:01.000Z</time>
      </trkpt>
      <trkpt lat="48.68987" lon="1.92964">
        <ele>139.05</ele>
        <time>2008-04-06T05:56:06.000Z</time>
      </trkpt>
      <trkpt lat="48.68976" lon="1.92958">
        <ele>145.3</ele>
        <time>2008-04-06T05:56:11.000Z</time>
      </trkpt>
      <trkpt lat="48.68972" lon="1.92943">
        <ele>143.85</ele>
        <time>2008-04-06T05:56:17.000Z</time>
      </trkpt>
      <trkpt lat="48.68978" lon="1.9293">
        <ele>144.34</ele>
        <time>2008-04-06T05:56:21.000Z</time>
      </trkpt>
      <trkpt lat="48.68974" lon="1.92913">
        <ele>148.66</ele>
        <time>2008-04-06T05:56:27.000Z</time>
      </trkpt>
      <trkpt lat="48.6897" lon="1.92904">
        <ele>147.7</ele>
        <time>2008-04-06T05:56:30.000Z</time>
      </trkpt>
      <trkpt lat="48.68966" lon="1.92891">
        <ele>146.74</ele>
        <time>2008-04-06T05:56:34.000Z</time>
      </trkpt>
      <trkpt lat="48.68953" lon="1.92867">
        <ele>148.66</ele>
        <time>2008-04-06T05:56:40.000Z</time>
      </trkpt>
      <trkpt lat="48.68941" lon="1.92852">
        <ele>147.7</ele>
        <time>2008-04-06T05:56:44.000Z</time>
      </trkpt>
      <trkpt lat="48.68924" lon="1.92842">
        <ele>147.22</ele>
        <time>2008-04-06T05:56:49.000Z</time>
      </trkpt>
      <trkpt lat="48.68914" lon="1.92852">
        <ele>145.78</ele>
        <time>2008-04-06T05:56:54.000Z</time>
      </trkpt>
      <trkpt lat="48.68911" lon="1.92862">
        <ele>144.82</ele>
        <time>2008-04-06T05:56:58.000Z</time>
      </trkpt>
      <trkpt lat="48.68908" lon="1.92879">
        <ele>143.37</ele>
        <time>2008-04-06T05:57:05.000Z</time>
      </trkpt>
      <trkpt lat="48.68908" lon="1.92881">
        <ele>142.41</ele>
        <time>2008-04-06T05:57:06.000Z</time>
      </trkpt>
      <trkpt lat="48.68907" lon="1.92886">
        <ele>141.93</ele>
        <time>2008-04-06T05:57:08.000Z</time>
      </trkpt>
      <trkpt lat="48.68904" lon="1.92897">
        <ele>141.45</ele>
        <time>2008-04-06T05:57:13.000Z</time>
      </trkpt>
      <trkpt lat="48.68902" lon="1.92912">
        <ele>140.97</ele>
        <time>2008-04-06T05:57:18.000Z</time>
      </trkpt>
      <trkpt lat="48.68903" lon="1.92923">
        <ele>140.49</ele>
        <time>2008-04-06T05:57:22.000Z</time>
      </trkpt>
      <trkpt lat="48.68902" lon="1.92937">
        <ele>140.01</ele>
        <time>2008-04-06T05:57:28.000Z</time>
      </trkpt>
      <trkpt lat="48.68901" lon="1.92944">
        <ele>140.01</ele>
        <time>2008-04-06T05:57:31.000Z</time>
      </trkpt>
      <trkpt lat="48.689" lon="1.92957">
        <ele>141.45</ele>
        <time>2008-04-06T05:57:37.000Z</time>
      </trkpt>
      <trkpt lat="48.689" lon="1.92965">
        <ele>139.05</ele>
        <time>2008-04-06T05:57:41.000Z</time>
      </trkpt>
      <trkpt lat="48.68902" lon="1.92975">
        <ele>143.37</ele>
        <time>2008-04-06T05:57:47.000Z</time>
      </trkpt>
      <trkpt lat="48.68901" lon="1.92983">
        <ele>145.78</ele>
        <time>2008-04-06T05:57:52.000Z</time>
      </trkpt>
      <trkpt lat="48.68904" lon="1.9299">
        <ele>147.22</ele>
        <time>2008-04-06T05:57:56.000Z</time>
      </trkpt>
      <trkpt lat="48.68905" lon="1.92994">
        <ele>147.7</ele>
        <time>2008-04-06T05:57:59.000Z</time>
      </trkpt>
      <trkpt lat="48.68907" lon="1.93004">
        <ele>152.99</ele>
        <time>2008-04-06T05:58:05.000Z</time>
      </trkpt>
      <trkpt lat="48.68905" lon="1.93012">
        <ele>153.47</ele>
        <time>2008-04-06T05:58:09.000Z</time>
      </trkpt>
      <trkpt lat="48.68904" lon="1.93022">
        <ele>155.87</ele>
        <time>2008-04-06T05:58:14.000Z</time>
      </trkpt>
      <trkpt lat="48.68903" lon="1.93032">
        <ele>155.87</ele>
        <time>2008-04-06T05:58:19.000Z</time>
      </trkpt>
      <trkpt lat="48.68902" lon="1.93038">
        <ele>155.87</ele>
        <time>2008-04-06T05:58:22.000Z</time>
      </trkpt>
      <trkpt lat="48.68902" lon="1.93044">
        <ele>157.31</ele>
        <time>2008-04-06T05:58:26.000Z</time>
      </trkpt>
      <trkpt lat="48.68894" lon="1.93054">
        <ele>155.39</ele>
        <time>2008-04-06T05:58:33.000Z</time>
      </trkpt>
      <trkpt lat="48.68893" lon="1.93055">
        <ele>153.95</ele>
        <time>2008-04-06T05:58:34.000Z</time>
      </trkpt>
      <trkpt lat="48.68883" lon="1.93063">
        <ele>151.06</ele>
        <time>2008-04-06T05:58:41.000Z</time>
      </trkpt>
      <trkpt lat="48.68882" lon="1.93064">
        <ele>151.54</ele>
        <time>2008-04-06T05:58:42.000Z</time>
      </trkpt>
      <trkpt lat="48.68866" lon="1.93073">
        <ele>148.18</ele>
        <time>2008-04-06T05:58:49.000Z</time>
      </trkpt>
      <trkpt lat="48.68855" lon="1.93082">
        <ele>146.26</ele>
        <time>2008-04-06T05:58:54.000Z</time>
      </trkpt>
      <trkpt lat="48.68848" lon="1.93092">
        <ele>146.74</ele>
        <time>2008-04-06T05:58:58.000Z</time>
      </trkpt>
      <trkpt lat="48.68839" lon="1.931">
        <ele>147.22</ele>
        <time>2008-04-06T05:59:02.000Z</time>
      </trkpt>
      <trkpt lat="48.68827" lon="1.93115">
        <ele>143.37</ele>
        <time>2008-04-06T05:59:08.000Z</time>
      </trkpt>
      <trkpt lat="48.68817" lon="1.93141">
        <ele>147.22</ele>
        <time>2008-04-06T05:59:15.000Z</time>
      </trkpt>
      <trkpt lat="48.6881" lon="1.93163">
        <ele>148.66</ele>
        <time>2008-04-06T05:59:20.000Z</time>
      </trkpt>
      <trkpt lat="48.68805" lon="1.93181">
        <ele>147.22</ele>
        <time>2008-04-06T05:59:25.000Z</time>
      </trkpt>
      <trkpt lat="48.68801" lon="1.93203">
        <ele>147.7</ele>
        <time>2008-04-06T05:59:30.000Z</time>
      </trkpt>
      <trkpt lat="48.688" lon="1.93222">
        <ele>149.14</ele>
        <time>2008-04-06T05:59:34.000Z</time>
      </trkpt>
      <trkpt lat="48.68801" lon="1.93242">
        <ele>151.06</ele>
        <time>2008-04-06T05:59:39.000Z</time>
      </trkpt>
      <trkpt lat="48.688" lon="1.93269">
        <ele>153.95</ele>
        <time>2008-04-06T05:59:45.000Z</time>
      </trkpt>
      <trkpt lat="48.68798" lon="1.93288">
        <ele>155.39</ele>
        <time>2008-04-06T05:59:50.000Z</time>
      </trkpt>
      <trkpt lat="48.68798" lon="1.93291">
        <ele>154.91</ele>
        <time>2008-04-06T05:59:51.000Z</time>
      </trkpt>
      <trkpt lat="48.688" lon="1.93306">
        <ele>152.51</ele>
        <time>2008-04-06T05:59:55.000Z</time>
      </trkpt>
      <trkpt lat="48.68798" lon="1.93312">
        <ele>150.1</ele>
        <time>2008-04-06T05:59:57.000Z</time>
      </trkpt>
      <trkpt lat="48.6879" lon="1.93324">
        <ele>142.41</ele>
        <time>2008-04-06T06:00:03.000Z</time>
      </trkpt>
      <trkpt lat="48.68783" lon="1.9333">
        <ele>141.93</ele>
        <time>2008-04-06T06:00:07.000Z</time>
      </trkpt>
      <trkpt lat="48.68784" lon="1.93333">
        <ele>140.01</ele>
        <time>2008-04-06T06:00:09.000Z</time>
      </trkpt>
      <trkpt lat="48.68778" lon="1.93341">
        <ele>134.72</ele>
        <time>2008-04-06T06:00:14.000Z</time>
      </trkpt>
      <trkpt lat="48.68767" lon="1.93347">
        <ele>128.47</ele>
        <time>2008-04-06T06:00:20.000Z</time>
      </trkpt>
      <trkpt lat="48.68762" lon="1.93352">
        <ele>128.95</ele>
        <time>2008-04-06T06:00:22.000Z</time>
      </trkpt>
      <trkpt lat="48.68755" lon="1.93361">
        <ele>127.51</ele>
        <time>2008-04-06T06:00:27.000Z</time>
      </trkpt>
      <trkpt lat="48.68754" lon="1.93366">
        <ele>128.95</ele>
        <time>2008-04-06T06:00:32.000Z</time>
      </trkpt>
      <trkpt lat="48.6875" lon="1.93374">
        <ele>131.36</ele>
        <time>2008-04-06T06:00:37.000Z</time>
      </trkpt>
      <trkpt lat="48.68749" lon="1.93377">
        <ele>131.36</ele>
        <time>2008-04-06T06:00:38.000Z</time>
      </trkpt>
      <trkpt lat="48.68749" lon="1.9339">
        <ele>134.72</ele>
        <time>2008-04-06T06:00:44.000Z</time>
      </trkpt>
      <trkpt lat="48.6875" lon="1.93401">
        <ele>142.41</ele>
        <time>2008-04-06T06:00:51.000Z</time>
      </trkpt>
      <trkpt lat="48.68751" lon="1.93406">
        <ele>144.82</ele>
        <time>2008-04-06T06:00:54.000Z</time>
      </trkpt>
      <trkpt lat="48.6875" lon="1.93418">
        <ele>149.62</ele>
        <time>2008-04-06T06:00:59.000Z</time>
      </trkpt>
      <trkpt lat="48.68745" lon="1.93424">
        <ele>148.66</ele>
        <time>2008-04-06T06:01:03.000Z</time>
      </trkpt>
      <trkpt lat="48.6874" lon="1.93431">
        <ele>146.26</ele>
        <time>2008-04-06T06:01:08.000Z</time>
      </trkpt>
      <trkpt lat="48.68734" lon="1.93438">
        <ele>145.3</ele>
        <time>2008-04-06T06:01:12.000Z</time>
      </trkpt>
      <trkpt lat="48.68723" lon="1.93445">
        <ele>144.34</ele>
        <time>2008-04-06T06:01:16.000Z</time>
      </trkpt>
      <trkpt lat="48.68715" lon="1.93458">
        <ele>140.97</ele>
        <time>2008-04-06T06:01:21.000Z</time>
      </trkpt>
      <trkpt lat="48.68712" lon="1.93459">
        <ele>140.01</ele>
        <time>2008-04-06T06:01:22.000Z</time>
      </trkpt>
      <trkpt lat="48.68701" lon="1.93463">
        <ele>138.09</ele>
        <time>2008-04-06T06:01:27.000Z</time>
      </trkpt>
      <trkpt lat="48.68696" lon="1.93463">
        <ele>141.45</ele>
        <time>2008-04-06T06:01:29.000Z</time>
      </trkpt>
      <trkpt lat="48.68687" lon="1.93473">
        <ele>135.68</ele>
        <time>2008-04-06T06:01:34.000Z</time>
      </trkpt>
      <trkpt lat="48.68686" lon="1.93489">
        <ele>131.36</ele>
        <time>2008-04-06T06:01:39.000Z</time>
      </trkpt>
      <trkpt lat="48.68687" lon="1.93492">
        <ele>130.88</ele>
        <time>2008-04-06T06:01:40.000Z</time>
      </trkpt>
      <trkpt lat="48.68694" lon="1.93508">
        <ele>133.76</ele>
        <time>2008-04-06T06:01:46.000Z</time>
      </trkpt>
      <trkpt lat="48.68699" lon="1.93513">
        <ele>137.61</ele>
        <time>2008-04-06T06:01:49.000Z</time>
      </trkpt>
      <trkpt lat="48.68701" lon="1.93524">
        <ele>139.53</ele>
        <time>2008-04-06T06:01:53.000Z</time>
      </trkpt>
      <trkpt lat="48.68698" lon="1.93545">
        <ele>140.01</ele>
        <time>2008-04-06T06:01:59.000Z</time>
      </trkpt>
      <trkpt lat="48.68697" lon="1.93562">
        <ele>142.41</ele>
        <time>2008-04-06T06:02:04.000Z</time>
      </trkpt>
      <trkpt lat="48.68697" lon="1.93565">
        <ele>142.89</ele>
        <time>2008-04-06T06:02:05.000Z</time>
      </trkpt>
      <trkpt lat="48.68699" lon="1.93582">
        <ele>146.74</ele>
        <time>2008-04-06T06:02:10.000Z</time>
      </trkpt>
      <trkpt lat="48.68698" lon="1.9359">
        <ele>144.82</ele>
        <time>2008-04-06T06:02:12.000Z</time>
      </trkpt>
      <trkpt lat="48.68702" lon="1.93605">
        <ele>143.85</ele>
        <time>2008-04-06T06:02:17.000Z</time>
      </trkpt>
      <trkpt lat="48.68702" lon="1.93612">
        <ele>141.93</ele>
        <time>2008-04-06T06:02:20.000Z</time>
      </trkpt>
      <trkpt lat="48.68705" lon="1.93619">
        <ele>142.89</ele>
        <time>2008-04-06T06:02:24.000Z</time>
      </trkpt>
      <trkpt lat="48.68707" lon="1.9363">
        <ele>143.37</ele>
        <time>2008-04-06T06:02:29.000Z</time>
      </trkpt>
      <trkpt lat="48.68706" lon="1.93634">
        <ele>144.82</ele>
        <time>2008-04-06T06:02:31.000Z</time>
      </trkpt>
      <trkpt lat="48.6871" lon="1.93646">
        <ele>140.49</ele>
        <time>2008-04-06T06:02:37.000Z</time>
      </trkpt>
      <trkpt lat="48.68716" lon="1.93662">
        <ele>135.68</ele>
        <time>2008-04-06T06:02:43.000Z</time>
      </trkpt>
      <trkpt lat="48.68719" lon="1.93671">
        <ele>135.2</ele>
        <time>2008-04-06T06:02:46.000Z</time>
      </trkpt>
      <trkpt lat="48.68715" lon="1.93677">
        <ele>132.32</ele>
        <time>2008-04-06T06:02:50.000Z</time>
      </trkpt>
      <trkpt lat="48.68708" lon="1.93682">
        <ele>132.8</ele>
        <time>2008-04-06T06:02:56.000Z</time>
      </trkpt>
      <trkpt lat="48.68706" lon="1.93684">
        <ele>130.88</ele>
        <time>2008-04-06T06:02:58.000Z</time>
      </trkpt>
      <trkpt lat="48.68702" lon="1.93694">
        <ele>130.88</ele>
        <time>2008-04-06T06:03:07.000Z</time>
      </trkpt>
      <trkpt lat="48.68701" lon="1.937">
        <ele>134.24</ele>
        <time>2008-04-06T06:03:13.000Z</time>
      </trkpt>
      <trkpt lat="48.68697" lon="1.9371">
        <ele>133.28</ele>
        <time>2008-04-06T06:03:20.000Z</time>
      </trkpt>
      <trkpt lat="48.68691" lon="1.93722">
        <ele>132.8</ele>
        <time>2008-04-06T06:03:26.000Z</time>
      </trkpt>
      <trkpt lat="48.68689" lon="1.93733">
        <ele>136.16</ele>
        <time>2008-04-06T06:03:31.000Z</time>
      </trkpt>
      <trkpt lat="48.68685" lon="1.93754">
        <ele>140.49</ele>
        <time>2008-04-06T06:03:36.000Z</time>
      </trkpt>
      <trkpt lat="48.68684" lon="1.93758">
        <ele>140.97</ele>
        <time>2008-04-06T06:03:37.000Z</time>
      </trkpt>
      <trkpt lat="48.68681" lon="1.93786">
        <ele>144.82</ele>
        <time>2008-04-06T06:03:43.000Z</time>
      </trkpt>
      <trkpt lat="48.68681" lon="1.9379">
        <ele>145.3</ele>
        <time>2008-04-06T06:03:44.000Z</time>
      </trkpt>
      <trkpt lat="48.68674" lon="1.93799">
        <ele>145.78</ele>
        <time>2008-04-06T06:03:49.000Z</time>
      </trkpt>
      <trkpt lat="48.68672" lon="1.93806">
        <ele>146.74</ele>
        <time>2008-04-06T06:03:52.000Z</time>
      </trkpt>
      <trkpt lat="48.6867" lon="1.93817">
        <ele>146.74</ele>
        <time>2008-04-06T06:03:55.000Z</time>
      </trkpt>
      <trkpt lat="48.6866" lon="1.93824">
        <ele>143.37</ele>
        <time>2008-04-06T06:04:00.000Z</time>
      </trkpt>
      <trkpt lat="48.6865" lon="1.93826">
        <ele>140.01</ele>
        <time>2008-04-06T06:04:04.000Z</time>
      </trkpt>
      <trkpt lat="48.68642" lon="1.93828">
        <ele>137.13</ele>
        <time>2008-04-06T06:04:08.000Z</time>
      </trkpt>
      <trkpt lat="48.68634" lon="1.93831">
        <ele>141.93</ele>
        <time>2008-04-06T06:04:12.000Z</time>
      </trkpt>
      <trkpt lat="48.68625" lon="1.93835">
        <ele>139.53</ele>
        <time>2008-04-06T06:04:17.000Z</time>
      </trkpt>
      <trkpt lat="48.6862" lon="1.93838">
        <ele>140.49</ele>
        <time>2008-04-06T06:04:21.000Z</time>
      </trkpt>
      <trkpt lat="48.68618" lon="1.93852">
        <ele>144.34</ele>
        <time>2008-04-06T06:04:28.000Z</time>
      </trkpt>
      <trkpt lat="48.68618" lon="1.93855">
        <ele>145.3</ele>
        <time>2008-04-06T06:04:30.000Z</time>
      </trkpt>
      <trkpt lat="48.68619" lon="1.93862">
        <ele>147.7</ele>
        <time>2008-04-06T06:04:34.000Z</time>
      </trkpt>
      <trkpt lat="48.68621" lon="1.93866">
        <ele>148.18</ele>
        <time>2008-04-06T06:04:37.000Z</time>
      </trkpt>
      <trkpt lat="48.68622" lon="1.9387">
        <ele>150.1</ele>
        <time>2008-04-06T06:04:39.000Z</time>
      </trkpt>
      <trkpt lat="48.68623" lon="1.9388">
        <ele>152.51</ele>
        <time>2008-04-06T06:04:45.000Z</time>
      </trkpt>
      <trkpt lat="48.68621" lon="1.93888">
        <ele>150.58</ele>
        <time>2008-04-06T06:04:48.000Z</time>
      </trkpt>
      <trkpt lat="48.6862" lon="1.9391">
        <ele>150.1</ele>
        <time>2008-04-06T06:04:54.000Z</time>
      </trkpt>
      <trkpt lat="48.68623" lon="1.93926">
        <ele>148.66</ele>
        <time>2008-04-06T06:04:59.000Z</time>
      </trkpt>
      <trkpt lat="48.68623" lon="1.93929">
        <ele>147.7</ele>
        <time>2008-04-06T06:05:00.000Z</time>
      </trkpt>
      <trkpt lat="48.68623" lon="1.93947">
        <ele>144.82</ele>
        <time>2008-04-06T06:05:06.000Z</time>
      </trkpt>
      <trkpt lat="48.68622" lon="1.93956">
        <ele>141.93</ele>
        <time>2008-04-06T06:05:11.000Z</time>
      </trkpt>
      <trkpt lat="48.68616" lon="1.93964">
        <ele>138.09</ele>
        <time>2008-04-06T06:05:15.000Z</time>
      </trkpt>
      <trkpt lat="48.68613" lon="1.93982">
        <ele>134.72</ele>
        <time>2008-04-06T06:05:20.000Z</time>
      </trkpt>
      <trkpt lat="48.6861" lon="1.93999">
        <ele>133.28</ele>
        <time>2008-04-06T06:05:24.000Z</time>
      </trkpt>
      <trkpt lat="48.68603" lon="1.94009">
        <ele>131.36</ele>
        <time>2008-04-06T06:05:28.000Z</time>
      </trkpt>
      <trkpt lat="48.68595" lon="1.94023">
        <ele>124.63</ele>
        <time>2008-04-06T06:05:34.000Z</time>
      </trkpt>
      <trkpt lat="48.68591" lon="1.9403">
        <ele>122.22</ele>
        <time>2008-04-06T06:05:37.000Z</time>
      </trkpt>
      <trkpt lat="48.68581" lon="1.94038">
        <ele>118.38</ele>
        <time>2008-04-06T06:05:41.000Z</time>
      </trkpt>
      <trkpt lat="48.68573" lon="1.94042">
        <ele>121.26</ele>
        <time>2008-04-06T06:05:45.000Z</time>
      </trkpt>
      <trkpt lat="48.68556" lon="1.94056">
        <ele>117.9</ele>
        <time>2008-04-06T06:05:53.000Z</time>
      </trkpt>
      <trkpt lat="48.68547" lon="1.9407">
        <ele>115.5</ele>
        <time>2008-04-06T06:05:57.000Z</time>
      </trkpt>
      <trkpt lat="48.68539" lon="1.94076">
        <ele>119.34</ele>
        <time>2008-04-06T06:06:01.000Z</time>
      </trkpt>
      <trkpt lat="48.6853" lon="1.94092">
        <ele>117.9</ele>
        <time>2008-04-06T06:06:07.000Z</time>
      </trkpt>
      <trkpt lat="48.68525" lon="1.94103">
        <ele>117.9</ele>
        <time>2008-04-06T06:06:10.000Z</time>
      </trkpt>
      <trkpt lat="48.68517" lon="1.94115">
        <ele>114.05</ele>
        <time>2008-04-06T06:06:15.000Z</time>
      </trkpt>
      <trkpt lat="48.68515" lon="1.94133">
        <ele>112.61</ele>
        <time>2008-04-06T06:06:20.000Z</time>
      </trkpt>
      <trkpt lat="48.6851" lon="1.94145">
        <ele>110.69</ele>
        <time>2008-04-06T06:06:25.000Z</time>
      </trkpt>
      <trkpt lat="48.68509" lon="1.94147">
        <ele>110.21</ele>
        <time>2008-04-06T06:06:26.000Z</time>
      </trkpt>
      <trkpt lat="48.68505" lon="1.94157">
        <ele>110.21</ele>
        <time>2008-04-06T06:06:31.000Z</time>
      </trkpt>
      <trkpt lat="48.68499" lon="1.94161">
        <ele>109.25</ele>
        <time>2008-04-06T06:06:35.000Z</time>
      </trkpt>
      <trkpt lat="48.68491" lon="1.94174">
        <ele>106.84</ele>
        <time>2008-04-06T06:06:42.000Z</time>
      </trkpt>
      <trkpt lat="48.68491" lon="1.94185">
        <ele>104.44</ele>
        <time>2008-04-06T06:06:46.000Z</time>
      </trkpt>
      <trkpt lat="48.68479" lon="1.94195">
        <ele>105.4</ele>
        <time>2008-04-06T06:06:50.000Z</time>
      </trkpt>
      <trkpt lat="48.68476" lon="1.94198">
        <ele>105.4</ele>
        <time>2008-04-06T06:06:51.000Z</time>
      </trkpt>
      <trkpt lat="48.68464" lon="1.94212">
        <ele>107.81</ele>
        <time>2008-04-06T06:06:56.000Z</time>
      </trkpt>
      <trkpt lat="48.68461" lon="1.94215">
        <ele>107.81</ele>
        <time>2008-04-06T06:06:57.000Z</time>
      </trkpt>
      <trkpt lat="48.68453" lon="1.94234">
        <ele>111.17</ele>
        <time>2008-04-06T06:07:02.000Z</time>
      </trkpt>
      <trkpt lat="48.68448" lon="1.94252">
        <ele>115.98</ele>
        <time>2008-04-06T06:07:07.000Z</time>
      </trkpt>
      <trkpt lat="48.68449" lon="1.94262">
        <ele>117.42</ele>
        <time>2008-04-06T06:07:11.000Z</time>
      </trkpt>
      <trkpt lat="48.68446" lon="1.94272">
        <ele>118.38</ele>
        <time>2008-04-06T06:07:15.000Z</time>
      </trkpt>
      <trkpt lat="48.68443" lon="1.94283">
        <ele>117.42</ele>
        <time>2008-04-06T06:07:18.000Z</time>
      </trkpt>
      <trkpt lat="48.68441" lon="1.94303">
        <ele>120.3</ele>
        <time>2008-04-06T06:07:24.000Z</time>
      </trkpt>
      <trkpt lat="48.68438" lon="1.94317">
        <ele>121.74</ele>
        <time>2008-04-06T06:07:28.000Z</time>
      </trkpt>
      <trkpt lat="48.68433" lon="1.94327">
        <ele>119.82</ele>
        <time>2008-04-06T06:07:32.000Z</time>
      </trkpt>
      <trkpt lat="48.68432" lon="1.94329">
        <ele>119.82</ele>
        <time>2008-04-06T06:07:33.000Z</time>
      </trkpt>
      <trkpt lat="48.68429" lon="1.94335">
        <ele>119.34</ele>
        <time>2008-04-06T06:07:36.000Z</time>
      </trkpt>
      <trkpt lat="48.68419" lon="1.94345">
        <ele>121.74</ele>
        <time>2008-04-06T06:07:42.000Z</time>
      </trkpt>
      <trkpt lat="48.68413" lon="1.94346">
        <ele>122.22</ele>
        <time>2008-04-06T06:07:45.000Z</time>
      </trkpt>
      <trkpt lat="48.684" lon="1.94351">
        <ele>114.53</ele>
        <time>2008-04-06T06:07:52.000Z</time>
      </trkpt>
      <trkpt lat="48.68391" lon="1.94358">
        <ele>111.65</ele>
        <time>2008-04-06T06:07:56.000Z</time>
      </trkpt>
      <trkpt lat="48.68385" lon="1.94377">
        <ele>110.69</ele>
        <time>2008-04-06T06:08:03.000Z</time>
      </trkpt>
      <trkpt lat="48.68384" lon="1.94385">
        <ele>110.69</ele>
        <time>2008-04-06T06:08:07.000Z</time>
      </trkpt>
      <trkpt lat="48.68383" lon="1.94395">
        <ele>115.01</ele>
        <time>2008-04-06T06:08:12.000Z</time>
      </trkpt>
      <trkpt lat="48.68377" lon="1.94406">
        <ele>123.67</ele>
        <time>2008-04-06T06:08:20.000Z</time>
      </trkpt>
      <trkpt lat="48.68373" lon="1.94409">
        <ele>122.22</ele>
        <time>2008-04-06T06:08:23.000Z</time>
      </trkpt>
      <trkpt lat="48.68366" lon="1.94422">
        <ele>122.71</ele>
        <time>2008-04-06T06:08:31.000Z</time>
      </trkpt>
      <trkpt lat="48.68365" lon="1.94431">
        <ele>126.55</ele>
        <time>2008-04-06T06:08:36.000Z</time>
      </trkpt>
      <trkpt lat="48.68364" lon="1.94436">
        <ele>126.55</ele>
        <time>2008-04-06T06:08:40.000Z</time>
      </trkpt>
      <trkpt lat="48.68361" lon="1.94448">
        <ele>125.59</ele>
        <time>2008-04-06T06:08:45.000Z</time>
      </trkpt>
      <trkpt lat="48.68358" lon="1.94456">
        <ele>124.15</ele>
        <time>2008-04-06T06:08:49.000Z</time>
      </trkpt>
      <trkpt lat="48.68355" lon="1.94469">
        <ele>124.15</ele>
        <time>2008-04-06T06:08:56.000Z</time>
      </trkpt>
      <trkpt lat="48.68351" lon="1.94476">
        <ele>123.19</ele>
        <time>2008-04-06T06:09:01.000Z</time>
      </trkpt>
      <trkpt lat="48.68349" lon="1.94478">
        <ele>124.63</ele>
        <time>2008-04-06T06:09:03.000Z</time>
      </trkpt>
      <trkpt lat="48.68346" lon="1.94482">
        <ele>124.63</ele>
        <time>2008-04-06T06:09:06.000Z</time>
      </trkpt>
      <trkpt lat="48.6834" lon="1.94485">
        <ele>124.63</ele>
        <time>2008-04-06T06:09:12.000Z</time>
      </trkpt>
      <trkpt lat="48.68335" lon="1.94489">
        <ele>128.95</ele>
        <time>2008-04-06T06:09:21.000Z</time>
      </trkpt>
      <trkpt lat="48.68332" lon="1.94489">
        <ele>132.32</ele>
        <time>2008-04-06T06:09:26.000Z</time>
      </trkpt>
      <trkpt lat="48.68329" lon="1.9449">
        <ele>136.16</ele>
        <time>2008-04-06T06:09:31.000Z</time>
      </trkpt>
      <trkpt lat="48.68325" lon="1.94495">
        <ele>140.97</ele>
        <time>2008-04-06T06:09:39.000Z</time>
      </trkpt>
      <trkpt lat="48.68323" lon="1.94497">
        <ele>143.85</ele>
        <time>2008-04-06T06:09:44.000Z</time>
      </trkpt>
      <trkpt lat="48.6832" lon="1.945">
        <ele>148.18</ele>
        <time>2008-04-06T06:09:50.000Z</time>
      </trkpt>
      <trkpt lat="48.68316" lon="1.94505">
        <ele>150.58</ele>
        <time>2008-04-06T06:09:55.000Z</time>
      </trkpt>
      <trkpt lat="48.68316" lon="1.94511">
        <ele>151.54</ele>
        <time>2008-04-06T06:09:58.000Z</time>
      </trkpt>
      <trkpt lat="48.68309" lon="1.94527">
        <ele>151.06</ele>
        <time>2008-04-06T06:10:03.000Z</time>
      </trkpt>
      <trkpt lat="48.68306" lon="1.94545">
        <ele>150.58</ele>
        <time>2008-04-06T06:10:08.000Z</time>
      </trkpt>
      <trkpt lat="48.68306" lon="1.94561">
        <ele>149.14</ele>
        <time>2008-04-06T06:10:13.000Z</time>
      </trkpt>
      <trkpt lat="48.68312" lon="1.94568">
        <ele>152.99</ele>
        <time>2008-04-06T06:10:18.000Z</time>
      </trkpt>
      <trkpt lat="48.68314" lon="1.94575">
        <ele>152.03</ele>
        <time>2008-04-06T06:10:23.000Z</time>
      </trkpt>
      <trkpt lat="48.68316" lon="1.94579">
        <ele>151.06</ele>
        <time>2008-04-06T06:10:26.000Z</time>
      </trkpt>
      <trkpt lat="48.6832" lon="1.94582">
        <ele>148.66</ele>
        <time>2008-04-06T06:10:29.000Z</time>
      </trkpt>
      <trkpt lat="48.68327" lon="1.94587">
        <ele>147.22</ele>
        <time>2008-04-06T06:10:35.000Z</time>
      </trkpt>
      <trkpt lat="48.68335" lon="1.94594">
        <ele>144.34</ele>
        <time>2008-04-06T06:10:41.000Z</time>
      </trkpt>
      <trkpt lat="48.68335" lon="1.94598">
        <ele>144.34</ele>
        <time>2008-04-06T06:10:45.000Z</time>
      </trkpt>
      <trkpt lat="48.68339" lon="1.94608">
        <ele>140.97</ele>
        <time>2008-04-06T06:10:50.000Z</time>
      </trkpt>
      <trkpt lat="48.68342" lon="1.94619">
        <ele>141.93</ele>
        <time>2008-04-06T06:10:55.000Z</time>
      </trkpt>
      <trkpt lat="48.68341" lon="1.94622">
        <ele>142.41</ele>
        <time>2008-04-06T06:10:57.000Z</time>
      </trkpt>
      <trkpt lat="48.68344" lon="1.94629">
        <ele>142.41</ele>
        <time>2008-04-06T06:11:03.000Z</time>
      </trkpt>
      <trkpt lat="48.68344" lon="1.94631">
        <ele>142.41</ele>
        <time>2008-04-06T06:11:04.000Z</time>
      </trkpt>
      <trkpt lat="48.68346" lon="1.94633">
        <ele>142.41</ele>
        <time>2008-04-06T06:11:06.000Z</time>
      </trkpt>
      <trkpt lat="48.6835" lon="1.94644">
        <ele>140.97</ele>
        <time>2008-04-06T06:11:12.000Z</time>
      </trkpt>
      <trkpt lat="48.6835" lon="1.94647">
        <ele>141.45</ele>
        <time>2008-04-06T06:11:14.000Z</time>
      </trkpt>
      <trkpt lat="48.68351" lon="1.94654">
        <ele>141.93</ele>
        <time>2008-04-06T06:11:18.000Z</time>
      </trkpt>
      <trkpt lat="48.68349" lon="1.94665">
        <ele>140.97</ele>
        <time>2008-04-06T06:11:24.000Z</time>
      </trkpt>
      <trkpt lat="48.68348" lon="1.94668">
        <ele>140.01</ele>
        <time>2008-04-06T06:11:25.000Z</time>
      </trkpt>
      <trkpt lat="48.6835" lon="1.94683">
        <ele>140.01</ele>
        <time>2008-04-06T06:11:33.000Z</time>
      </trkpt>
      <trkpt lat="48.68354" lon="1.94687">
        <ele>143.37</ele>
        <time>2008-04-06T06:11:39.000Z</time>
      </trkpt>
      <trkpt lat="48.68356" lon="1.94689">
        <ele>144.82</ele>
        <time>2008-04-06T06:11:41.000Z</time>
      </trkpt>
      <trkpt lat="48.68356" lon="1.94694">
        <ele>145.3</ele>
        <time>2008-04-06T06:11:44.000Z</time>
      </trkpt>
      <trkpt lat="48.68357" lon="1.94702">
        <ele>149.14</ele>
        <time>2008-04-06T06:11:48.000Z</time>
      </trkpt>
      <trkpt lat="48.68361" lon="1.9471">
        <ele>150.58</ele>
        <time>2008-04-06T06:11:54.000Z</time>
      </trkpt>
      <trkpt lat="48.68361" lon="1.94711">
        <ele>151.06</ele>
        <time>2008-04-06T06:11:55.000Z</time>
      </trkpt>
      <trkpt lat="48.68358" lon="1.94736">
        <ele>151.54</ele>
        <time>2008-04-06T06:12:02.000Z</time>
      </trkpt>
      <trkpt lat="48.68357" lon="1.9474">
        <ele>152.99</ele>
        <time>2008-04-06T06:12:03.000Z</time>
      </trkpt>
      <trkpt lat="48.68349" lon="1.94764">
        <ele>155.39</ele>
        <time>2008-04-06T06:12:09.000Z</time>
      </trkpt>
      <trkpt lat="48.68347" lon="1.94769">
        <ele>156.83</ele>
        <time>2008-04-06T06:12:10.000Z</time>
      </trkpt>
      <trkpt lat="48.68339" lon="1.94792">
        <ele>158.27</ele>
        <time>2008-04-06T06:12:16.000Z</time>
      </trkpt>
      <trkpt lat="48.68332" lon="1.94812">
        <ele>160.2</ele>
        <time>2008-04-06T06:12:21.000Z</time>
      </trkpt>
      <trkpt lat="48.6833" lon="1.94826">
        <ele>160.68</ele>
        <time>2008-04-06T06:12:25.000Z</time>
      </trkpt>
      <trkpt lat="48.68336" lon="1.94831">
        <ele>159.72</ele>
        <time>2008-04-06T06:12:29.000Z</time>
      </trkpt>
      <trkpt lat="48.68349" lon="1.94843">
        <ele>161.16</ele>
        <time>2008-04-06T06:12:35.000Z</time>
      </trkpt>
      <trkpt lat="48.68356" lon="1.94849">
        <ele>161.16</ele>
        <time>2008-04-06T06:12:38.000Z</time>
      </trkpt>
      <trkpt lat="48.68366" lon="1.94859">
        <ele>161.64</ele>
        <time>2008-04-06T06:12:43.000Z</time>
      </trkpt>
      <trkpt lat="48.68374" lon="1.94864">
        <ele>163.08</ele>
        <time>2008-04-06T06:12:47.000Z</time>
      </trkpt>
      <trkpt lat="48.68383" lon="1.94862">
        <ele>165</ele>
        <time>2008-04-06T06:12:50.000Z</time>
      </trkpt>
      <trkpt lat="48.68395" lon="1.94863">
        <ele>165</ele>
        <time>2008-04-06T06:12:54.000Z</time>
      </trkpt>
      <trkpt lat="48.68408" lon="1.94855">
        <ele>166.93</ele>
        <time>2008-04-06T06:13:00.000Z</time>
      </trkpt>
      <trkpt lat="48.6842" lon="1.94851">
        <ele>166.93</ele>
        <time>2008-04-06T06:13:05.000Z</time>
      </trkpt>
      <trkpt lat="48.68431" lon="1.94847">
        <ele>166.45</ele>
        <time>2008-04-06T06:13:10.000Z</time>
      </trkpt>
      <trkpt lat="48.68436" lon="1.94847">
        <ele>166.45</ele>
        <time>2008-04-06T06:13:12.000Z</time>
      </trkpt>
      <trkpt lat="48.68447" lon="1.94858">
        <ele>164.04</ele>
        <time>2008-04-06T06:13:18.000Z</time>
      </trkpt>
      <trkpt lat="48.68448" lon="1.9487">
        <ele>157.31</ele>
        <time>2008-04-06T06:13:24.000Z</time>
      </trkpt>
      <trkpt lat="48.68448" lon="1.94874">
        <ele>156.35</ele>
        <time>2008-04-06T06:13:26.000Z</time>
      </trkpt>
      <trkpt lat="48.68449" lon="1.94876">
        <ele>155.39</ele>
        <time>2008-04-06T06:13:28.000Z</time>
      </trkpt>
      <trkpt lat="48.68449" lon="1.94882">
        <ele>152.99</ele>
        <time>2008-04-06T06:13:31.000Z</time>
      </trkpt>
      <trkpt lat="48.68451" lon="1.94893">
        <ele>150.1</ele>
        <time>2008-04-06T06:13:35.000Z</time>
      </trkpt>
      <trkpt lat="48.68457" lon="1.94917">
        <ele>145.3</ele>
        <time>2008-04-06T06:13:41.000Z</time>
      </trkpt>
      <trkpt lat="48.68456" lon="1.9493">
        <ele>143.85</ele>
        <time>2008-04-06T06:13:44.000Z</time>
      </trkpt>
      <trkpt lat="48.68452" lon="1.94945">
        <ele>144.82</ele>
        <time>2008-04-06T06:13:50.000Z</time>
      </trkpt>
      <trkpt lat="48.68446" lon="1.94957">
        <ele>146.26</ele>
        <time>2008-04-06T06:13:59.000Z</time>
      </trkpt>
      <trkpt lat="48.68442" lon="1.94963">
        <ele>145.78</ele>
        <time>2008-04-06T06:14:05.000Z</time>
      </trkpt>
      <trkpt lat="48.68439" lon="1.9497">
        <ele>146.26</ele>
        <time>2008-04-06T06:14:10.000Z</time>
      </trkpt>
      <trkpt lat="48.68433" lon="1.94983">
        <ele>149.62</ele>
        <time>2008-04-06T06:14:18.000Z</time>
      </trkpt>
      <trkpt lat="48.68431" lon="1.94987">
        <ele>148.66</ele>
        <time>2008-04-06T06:14:20.000Z</time>
      </trkpt>
      <trkpt lat="48.68424" lon="1.95002">
        <ele>153.47</ele>
        <time>2008-04-06T06:14:26.000Z</time>
      </trkpt>
      <trkpt lat="48.68423" lon="1.95006">
        <ele>154.91</ele>
        <time>2008-04-06T06:14:27.000Z</time>
      </trkpt>
      <trkpt lat="48.68422" lon="1.95024">
        <ele>155.87</ele>
        <time>2008-04-06T06:14:32.000Z</time>
      </trkpt>
      <trkpt lat="48.68422" lon="1.95027">
        <ele>156.35</ele>
        <time>2008-04-06T06:14:33.000Z</time>
      </trkpt>
      <trkpt lat="48.68422" lon="1.95036">
        <ele>156.35</ele>
        <time>2008-04-06T06:14:35.000Z</time>
      </trkpt>
      <trkpt lat="48.68417" lon="1.95054">
        <ele>158.27</ele>
        <time>2008-04-06T06:14:42.000Z</time>
      </trkpt>
      <trkpt lat="48.68414" lon="1.95064">
        <ele>159.24</ele>
        <time>2008-04-06T06:14:45.000Z</time>
      </trkpt>
      <trkpt lat="48.68409" lon="1.95083">
        <ele>161.16</ele>
        <time>2008-04-06T06:14:50.000Z</time>
      </trkpt>
      <trkpt lat="48.68408" lon="1.95096">
        <ele>159.72</ele>
        <time>2008-04-06T06:14:54.000Z</time>
      </trkpt>
      <trkpt lat="48.68408" lon="1.9511">
        <ele>157.79</ele>
        <time>2008-04-06T06:14:58.000Z</time>
      </trkpt>
      <trkpt lat="48.68414" lon="1.95127">
        <ele>157.31</ele>
        <time>2008-04-06T06:15:04.000Z</time>
      </trkpt>
      <trkpt lat="48.68417" lon="1.95143">
        <ele>159.24</ele>
        <time>2008-04-06T06:15:08.000Z</time>
      </trkpt>
      <trkpt lat="48.68425" lon="1.95162">
        <ele>161.16</ele>
        <time>2008-04-06T06:15:13.000Z</time>
      </trkpt>
      <trkpt lat="48.68428" lon="1.95176">
        <ele>158.75</ele>
        <time>2008-04-06T06:15:17.000Z</time>
      </trkpt>
      <trkpt lat="48.68435" lon="1.95192">
        <ele>156.35</ele>
        <time>2008-04-06T06:15:21.000Z</time>
      </trkpt>
      <trkpt lat="48.68438" lon="1.95212">
        <ele>150.58</ele>
        <time>2008-04-06T06:15:26.000Z</time>
      </trkpt>
      <trkpt lat="48.68439" lon="1.95232">
        <ele>145.78</ele>
        <time>2008-04-06T06:15:31.000Z</time>
      </trkpt>
      <trkpt lat="48.6844" lon="1.95255">
        <ele>146.26</ele>
        <time>2008-04-06T06:15:35.000Z</time>
      </trkpt>
      <trkpt lat="48.68436" lon="1.9527">
        <ele>148.18</ele>
        <time>2008-04-06T06:15:39.000Z</time>
      </trkpt>
      <trkpt lat="48.68425" lon="1.95284">
        <ele>148.66</ele>
        <time>2008-04-06T06:15:43.000Z</time>
      </trkpt>
      <trkpt lat="48.68419" lon="1.95299">
        <ele>147.7</ele>
        <time>2008-04-06T06:15:47.000Z</time>
      </trkpt>
      <trkpt lat="48.6841" lon="1.9532">
        <ele>145.3</ele>
        <time>2008-04-06T06:15:53.000Z</time>
      </trkpt>
      <trkpt lat="48.68405" lon="1.95337">
        <ele>145.78</ele>
        <time>2008-04-06T06:15:58.000Z</time>
      </trkpt>
      <trkpt lat="48.68398" lon="1.95366">
        <ele>144.34</ele>
        <time>2008-04-06T06:16:05.000Z</time>
      </trkpt>
      <trkpt lat="48.68393" lon="1.95385">
        <ele>146.26</ele>
        <time>2008-04-06T06:16:10.000Z</time>
      </trkpt>
      <trkpt lat="48.68392" lon="1.95406">
        <ele>149.14</ele>
        <time>2008-04-06T06:16:15.000Z</time>
      </trkpt>
      <trkpt lat="48.68388" lon="1.95424">
        <ele>147.7</ele>
        <time>2008-04-06T06:16:20.000Z</time>
      </trkpt>
      <trkpt lat="48.68386" lon="1.95438">
        <ele>147.7</ele>
        <time>2008-04-06T06:16:26.000Z</time>
      </trkpt>
      <trkpt lat="48.68387" lon="1.95441">
        <ele>147.7</ele>
        <time>2008-04-06T06:16:28.000Z</time>
      </trkpt>
      <trkpt lat="48.68382" lon="1.9546">
        <ele>147.7</ele>
        <time>2008-04-06T06:16:35.000Z</time>
      </trkpt>
      <trkpt lat="48.68381" lon="1.95463">
        <ele>147.22</ele>
        <time>2008-04-06T06:16:36.000Z</time>
      </trkpt>
      <trkpt lat="48.68381" lon="1.95469">
        <ele>150.1</ele>
        <time>2008-04-06T06:16:42.000Z</time>
      </trkpt>
      <trkpt lat="48.68381" lon="1.95471">
        <ele>151.06</ele>
        <time>2008-04-06T06:16:45.000Z</time>
      </trkpt>
      <trkpt lat="48.68377" lon="1.95479">
        <ele>151.54</ele>
        <time>2008-04-06T06:16:52.000Z</time>
      </trkpt>
      <trkpt lat="48.68375" lon="1.95484">
        <ele>152.51</ele>
        <time>2008-04-06T06:16:58.000Z</time>
      </trkpt>
      <trkpt lat="48.6837" lon="1.9549">
        <ele>153.47</ele>
        <time>2008-04-06T06:17:03.000Z</time>
      </trkpt>
      <trkpt lat="48.68367" lon="1.95495">
        <ele>152.99</ele>
        <time>2008-04-06T06:17:05.000Z</time>
      </trkpt>
      <trkpt lat="48.68365" lon="1.95514">
        <ele>153.47</ele>
        <time>2008-04-06T06:17:10.000Z</time>
      </trkpt>
      <trkpt lat="48.68369" lon="1.9553">
        <ele>155.39</ele>
        <time>2008-04-06T06:17:14.000Z</time>
      </trkpt>
      <trkpt lat="48.68369" lon="1.95538">
        <ele>156.35</ele>
        <time>2008-04-06T06:17:16.000Z</time>
      </trkpt>
      <trkpt lat="48.68365" lon="1.95554">
        <ele>158.27</ele>
        <time>2008-04-06T06:17:21.000Z</time>
      </trkpt>
      <trkpt lat="48.68359" lon="1.95562">
        <ele>160.2</ele>
        <time>2008-04-06T06:17:24.000Z</time>
      </trkpt>
      <trkpt lat="48.68356" lon="1.95581">
        <ele>163.56</ele>
        <time>2008-04-06T06:17:29.000Z</time>
      </trkpt>
      <trkpt lat="48.68353" lon="1.956">
        <ele>166.45</ele>
        <time>2008-04-06T06:17:33.000Z</time>
      </trkpt>
      <trkpt lat="48.68341" lon="1.95629">
        <ele>171.25</ele>
        <time>2008-04-06T06:17:40.000Z</time>
      </trkpt>
      <trkpt lat="48.68335" lon="1.9565">
        <ele>175.58</ele>
        <time>2008-04-06T06:17:45.000Z</time>
      </trkpt>
      <trkpt lat="48.68326" lon="1.95671">
        <ele>176.54</ele>
        <time>2008-04-06T06:17:51.000Z</time>
      </trkpt>
      <trkpt lat="48.68318" lon="1.95694">
        <ele>175.1</ele>
        <time>2008-04-06T06:17:57.000Z</time>
      </trkpt>
      <trkpt lat="48.6831" lon="1.95705">
        <ele>171.73</ele>
        <time>2008-04-06T06:18:01.000Z</time>
      </trkpt>
      <trkpt lat="48.68298" lon="1.9573">
        <ele>173.17</ele>
        <time>2008-04-06T06:18:08.000Z</time>
      </trkpt>
      <trkpt lat="48.68291" lon="1.95744">
        <ele>172.69</ele>
        <time>2008-04-06T06:18:12.000Z</time>
      </trkpt>
      <trkpt lat="48.68283" lon="1.9576">
        <ele>170.29</ele>
        <time>2008-04-06T06:18:17.000Z</time>
      </trkpt>
      <trkpt lat="48.68272" lon="1.95781">
        <ele>165</ele>
        <time>2008-04-06T06:18:23.000Z</time>
      </trkpt>
      <trkpt lat="48.68269" lon="1.95797">
        <ele>163.08</ele>
        <time>2008-04-06T06:18:27.000Z</time>
      </trkpt>
      <trkpt lat="48.68267" lon="1.95806">
        <ele>162.6</ele>
        <time>2008-04-06T06:18:29.000Z</time>
      </trkpt>
      <trkpt lat="48.68259" lon="1.9581">
        <ele>163.56</ele>
        <time>2008-04-06T06:18:34.000Z</time>
      </trkpt>
      <trkpt lat="48.68241" lon="1.95805">
        <ele>158.75</ele>
        <time>2008-04-06T06:18:42.000Z</time>
      </trkpt>
      <trkpt lat="48.68223" lon="1.95804">
        <ele>156.35</ele>
        <time>2008-04-06T06:18:47.000Z</time>
      </trkpt>
      <trkpt lat="48.68206" lon="1.95799">
        <ele>153.47</ele>
        <time>2008-04-06T06:18:53.000Z</time>
      </trkpt>
      <trkpt lat="48.68195" lon="1.95788">
        <ele>154.91</ele>
        <time>2008-04-06T06:18:58.000Z</time>
      </trkpt>
      <trkpt lat="48.68185" lon="1.95779">
        <ele>155.39</ele>
        <time>2008-04-06T06:19:02.000Z</time>
      </trkpt>
      <trkpt lat="48.68171" lon="1.95776">
        <ele>155.39</ele>
        <time>2008-04-06T06:19:07.000Z</time>
      </trkpt>
      <trkpt lat="48.68156" lon="1.95772">
        <ele>155.87</ele>
        <time>2008-04-06T06:19:12.000Z</time>
      </trkpt>
      <trkpt lat="48.6814" lon="1.95761">
        <ele>157.79</ele>
        <time>2008-04-06T06:19:18.000Z</time>
      </trkpt>
      <trkpt lat="48.68128" lon="1.95758">
        <ele>158.27</ele>
        <time>2008-04-06T06:19:23.000Z</time>
      </trkpt>
      <trkpt lat="48.68116" lon="1.95755">
        <ele>159.72</ele>
        <time>2008-04-06T06:19:29.000Z</time>
      </trkpt>
      <trkpt lat="48.6811" lon="1.95753">
        <ele>160.68</ele>
        <time>2008-04-06T06:19:33.000Z</time>
      </trkpt>
      <trkpt lat="48.68106" lon="1.95753">
        <ele>159.72</ele>
        <time>2008-04-06T06:19:37.000Z</time>
      </trkpt>
      <trkpt lat="48.68095" lon="1.95752">
        <ele>162.6</ele>
        <time>2008-04-06T06:19:44.000Z</time>
      </trkpt>
      <trkpt lat="48.68088" lon="1.95749">
        <ele>164.52</ele>
        <time>2008-04-06T06:19:49.000Z</time>
      </trkpt>
      <trkpt lat="48.68084" lon="1.9575">
        <ele>165.96</ele>
        <time>2008-04-06T06:19:53.000Z</time>
      </trkpt>
      <trkpt lat="48.68077" lon="1.95748">
        <ele>169.33</ele>
        <time>2008-04-06T06:19:59.000Z</time>
      </trkpt>
      <trkpt lat="48.6807" lon="1.95743">
        <ele>171.25</ele>
        <time>2008-04-06T06:20:04.000Z</time>
      </trkpt>
      <trkpt lat="48.68064" lon="1.95729">
        <ele>172.69</ele>
        <time>2008-04-06T06:20:08.000Z</time>
      </trkpt>
      <trkpt lat="48.6806" lon="1.95709">
        <ele>175.1</ele>
        <time>2008-04-06T06:20:12.000Z</time>
      </trkpt>
      <trkpt lat="48.68059" lon="1.95694">
        <ele>177.02</ele>
        <time>2008-04-06T06:20:15.000Z</time>
      </trkpt>
      <trkpt lat="48.68058" lon="1.95669">
        <ele>180.87</ele>
        <time>2008-04-06T06:20:21.000Z</time>
      </trkpt>
      <trkpt lat="48.68057" lon="1.95641">
        <ele>181.83</ele>
        <time>2008-04-06T06:20:26.000Z</time>
      </trkpt>
      <trkpt lat="48.68056" lon="1.95622">
        <ele>187.59</ele>
        <time>2008-04-06T06:20:30.000Z</time>
      </trkpt>
      <trkpt lat="48.68051" lon="1.95617">
        <ele>184.71</ele>
        <time>2008-04-06T06:20:35.000Z</time>
      </trkpt>
      <trkpt lat="48.6805" lon="1.95618">
        <ele>183.27</ele>
        <time>2008-04-06T06:20:36.000Z</time>
      </trkpt>
      <trkpt lat="48.68037" lon="1.95628">
        <ele>170.77</ele>
        <time>2008-04-06T06:20:42.000Z</time>
      </trkpt>
      <trkpt lat="48.68028" lon="1.95633">
        <ele>163.08</ele>
        <time>2008-04-06T06:20:46.000Z</time>
      </trkpt>
      <trkpt lat="48.68026" lon="1.95636">
        <ele>162.6</ele>
        <time>2008-04-06T06:20:47.000Z</time>
      </trkpt>
      <trkpt lat="48.68018" lon="1.95657">
        <ele>158.27</ele>
        <time>2008-04-06T06:20:53.000Z</time>
      </trkpt>
      <trkpt lat="48.68013" lon="1.95662">
        <ele>155.87</ele>
        <time>2008-04-06T06:20:55.000Z</time>
      </trkpt>
      <trkpt lat="48.68001" lon="1.95654">
        <ele>154.43</ele>
        <time>2008-04-06T06:21:01.000Z</time>
      </trkpt>
      <trkpt lat="48.67988" lon="1.95643">
        <ele>152.99</ele>
        <time>2008-04-06T06:21:07.000Z</time>
      </trkpt>
      <trkpt lat="48.67991" lon="1.95627">
        <ele>154.43</ele>
        <time>2008-04-06T06:21:12.000Z</time>
      </trkpt>
      <trkpt lat="48.67997" lon="1.95611">
        <ele>155.39</ele>
        <time>2008-04-06T06:21:16.000Z</time>
      </trkpt>
      <trkpt lat="48.67997" lon="1.95607">
        <ele>156.35</ele>
        <time>2008-04-06T06:21:17.000Z</time>
      </trkpt>
      <trkpt lat="48.67998" lon="1.9558">
        <ele>163.56</ele>
        <time>2008-04-06T06:21:22.000Z</time>
      </trkpt>
      <trkpt lat="48.68" lon="1.95567">
        <ele>166.93</ele>
        <time>2008-04-06T06:21:25.000Z</time>
      </trkpt>
      <trkpt lat="48.67997" lon="1.95557">
        <ele>165</ele>
        <time>2008-04-06T06:21:31.000Z</time>
      </trkpt>
      <trkpt lat="48.67994" lon="1.95559">
        <ele>163.56</ele>
        <time>2008-04-06T06:21:33.000Z</time>
      </trkpt>
      <trkpt lat="48.67982" lon="1.95576">
        <ele>158.27</ele>
        <time>2008-04-06T06:21:38.000Z</time>
      </trkpt>
      <trkpt lat="48.67973" lon="1.95589">
        <ele>155.39</ele>
        <time>2008-04-06T06:21:43.000Z</time>
      </trkpt>
      <trkpt lat="48.67962" lon="1.95605">
        <ele>152.51</ele>
        <time>2008-04-06T06:21:47.000Z</time>
      </trkpt>
      <trkpt lat="48.67952" lon="1.95623">
        <ele>149.14</ele>
        <time>2008-04-06T06:21:52.000Z</time>
      </trkpt>
      <trkpt lat="48.6794" lon="1.95636">
        <ele>147.22</ele>
        <time>2008-04-06T06:21:57.000Z</time>
      </trkpt>
      <trkpt lat="48.67926" lon="1.95653">
        <ele>141.93</ele>
        <time>2008-04-06T06:22:03.000Z</time>
      </trkpt>
      <trkpt lat="48.67917" lon="1.95673">
        <ele>137.61</ele>
        <time>2008-04-06T06:22:08.000Z</time>
      </trkpt>
      <trkpt lat="48.67909" lon="1.95682">
        <ele>135.2</ele>
        <time>2008-04-06T06:22:12.000Z</time>
      </trkpt>
      <trkpt lat="48.67903" lon="1.9569">
        <ele>131.84</ele>
        <time>2008-04-06T06:22:15.000Z</time>
      </trkpt>
      <trkpt lat="48.67896" lon="1.9569">
        <ele>130.4</ele>
        <time>2008-04-06T06:22:19.000Z</time>
      </trkpt>
      <trkpt lat="48.67879" lon="1.95676">
        <ele>128.95</ele>
        <time>2008-04-06T06:22:26.000Z</time>
      </trkpt>
      <trkpt lat="48.6787" lon="1.95667">
        <ele>126.07</ele>
        <time>2008-04-06T06:22:31.000Z</time>
      </trkpt>
      <trkpt lat="48.67859" lon="1.95654">
        <ele>124.15</ele>
        <time>2008-04-06T06:22:36.000Z</time>
      </trkpt>
      <trkpt lat="48.6785" lon="1.9565">
        <ele>123.19</ele>
        <time>2008-04-06T06:22:40.000Z</time>
      </trkpt>
      <trkpt lat="48.67847" lon="1.95634">
        <ele>119.34</ele>
        <time>2008-04-06T06:22:46.000Z</time>
      </trkpt>
      <trkpt lat="48.67841" lon="1.95626">
        <ele>119.82</ele>
        <time>2008-04-06T06:22:50.000Z</time>
      </trkpt>
      <trkpt lat="48.67844" lon="1.95609">
        <ele>120.78</ele>
        <time>2008-04-06T06:22:55.000Z</time>
      </trkpt>
      <trkpt lat="48.67844" lon="1.95605">
        <ele>122.22</ele>
        <time>2008-04-06T06:22:56.000Z</time>
      </trkpt>
      <trkpt lat="48.67846" lon="1.95582">
        <ele>122.71</ele>
        <time>2008-04-06T06:23:01.000Z</time>
      </trkpt>
      <trkpt lat="48.67848" lon="1.95559">
        <ele>124.15</ele>
        <time>2008-04-06T06:23:06.000Z</time>
      </trkpt>
      <trkpt lat="48.6785" lon="1.95534">
        <ele>126.07</ele>
        <time>2008-04-06T06:23:11.000Z</time>
      </trkpt>
      <trkpt lat="48.67852" lon="1.95522">
        <ele>125.11</ele>
        <time>2008-04-06T06:23:14.000Z</time>
      </trkpt>
      <trkpt lat="48.67858" lon="1.95495">
        <ele>119.34</ele>
        <time>2008-04-06T06:23:21.000Z</time>
      </trkpt>
      <trkpt lat="48.67857" lon="1.95469">
        <ele>119.82</ele>
        <time>2008-04-06T06:23:26.000Z</time>
      </trkpt>
      <trkpt lat="48.67854" lon="1.95446">
        <ele>124.63</ele>
        <time>2008-04-06T06:23:31.000Z</time>
      </trkpt>
      <trkpt lat="48.67856" lon="1.95426">
        <ele>127.03</ele>
        <time>2008-04-06T06:23:36.000Z</time>
      </trkpt>
      <trkpt lat="48.67864" lon="1.95399">
        <ele>127.99</ele>
        <time>2008-04-06T06:23:43.000Z</time>
      </trkpt>
      <trkpt lat="48.67865" lon="1.95394">
        <ele>128.47</ele>
        <time>2008-04-06T06:23:44.000Z</time>
      </trkpt>
      <trkpt lat="48.67868" lon="1.95371">
        <ele>132.8</ele>
        <time>2008-04-06T06:23:50.000Z</time>
      </trkpt>
      <trkpt lat="48.67875" lon="1.95355">
        <ele>130.4</ele>
        <time>2008-04-06T06:23:54.000Z</time>
      </trkpt>
      <trkpt lat="48.67886" lon="1.95334">
        <ele>125.59</ele>
        <time>2008-04-06T06:24:00.000Z</time>
      </trkpt>
      <trkpt lat="48.67886" lon="1.9533">
        <ele>126.07</ele>
        <time>2008-04-06T06:24:01.000Z</time>
      </trkpt>
      <trkpt lat="48.67889" lon="1.95325">
        <ele>127.03</ele>
        <time>2008-04-06T06:24:03.000Z</time>
      </trkpt>
      <trkpt lat="48.67896" lon="1.95313">
        <ele>126.55</ele>
        <time>2008-04-06T06:24:07.000Z</time>
      </trkpt>
      <trkpt lat="48.67913" lon="1.95298">
        <ele>117.9</ele>
        <time>2008-04-06T06:24:13.000Z</time>
      </trkpt>
      <trkpt lat="48.67921" lon="1.95283">
        <ele>116.46</ele>
        <time>2008-04-06T06:24:17.000Z</time>
      </trkpt>
      <trkpt lat="48.67927" lon="1.95274">
        <ele>117.42</ele>
        <time>2008-04-06T06:24:20.000Z</time>
      </trkpt>
      <trkpt lat="48.67933" lon="1.95252">
        <ele>118.86</ele>
        <time>2008-04-06T06:24:26.000Z</time>
      </trkpt>
      <trkpt lat="48.67931" lon="1.95227">
        <ele>123.19</ele>
        <time>2008-04-06T06:24:31.000Z</time>
      </trkpt>
      <trkpt lat="48.67932" lon="1.9521">
        <ele>125.59</ele>
        <time>2008-04-06T06:24:35.000Z</time>
      </trkpt>
      <trkpt lat="48.67937" lon="1.95192">
        <ele>128.95</ele>
        <time>2008-04-06T06:24:40.000Z</time>
      </trkpt>
      <trkpt lat="48.67939" lon="1.95176">
        <ele>129.92</ele>
        <time>2008-04-06T06:24:45.000Z</time>
      </trkpt>
      <trkpt lat="48.67947" lon="1.9515">
        <ele>118.38</ele>
        <time>2008-04-06T06:24:52.000Z</time>
      </trkpt>
      <trkpt lat="48.67952" lon="1.95136">
        <ele>109.73</ele>
        <time>2008-04-06T06:24:56.000Z</time>
      </trkpt>
      <trkpt lat="48.67952" lon="1.95131">
        <ele>109.73</ele>
        <time>2008-04-06T06:24:57.000Z</time>
      </trkpt>
      <trkpt lat="48.6796" lon="1.95107">
        <ele>111.17</ele>
        <time>2008-04-06T06:25:04.000Z</time>
      </trkpt>
      <trkpt lat="48.67967" lon="1.95087">
        <ele>118.38</ele>
        <time>2008-04-06T06:25:09.000Z</time>
      </trkpt>
      <trkpt lat="48.6797" lon="1.95079">
        <ele>121.26</ele>
        <time>2008-04-06T06:25:11.000Z</time>
      </trkpt>
      <trkpt lat="48.67973" lon="1.95056">
        <ele>122.71</ele>
        <time>2008-04-06T06:25:16.000Z</time>
      </trkpt>
      <trkpt lat="48.67974" lon="1.95041">
        <ele>122.71</ele>
        <time>2008-04-06T06:25:19.000Z</time>
      </trkpt>
      <trkpt lat="48.67983" lon="1.95021">
        <ele>126.07</ele>
        <time>2008-04-06T06:25:25.000Z</time>
      </trkpt>
      <trkpt lat="48.67991" lon="1.95007">
        <ele>128.47</ele>
        <time>2008-04-06T06:25:29.000Z</time>
      </trkpt>
      <trkpt lat="48.68004" lon="1.94995">
        <ele>128.95</ele>
        <time>2008-04-06T06:25:34.000Z</time>
      </trkpt>
      <trkpt lat="48.68018" lon="1.94982">
        <ele>129.43</ele>
        <time>2008-04-06T06:25:39.000Z</time>
      </trkpt>
      <trkpt lat="48.68031" lon="1.94973">
        <ele>132.32</ele>
        <time>2008-04-06T06:25:44.000Z</time>
      </trkpt>
      <trkpt lat="48.68048" lon="1.94969">
        <ele>132.32</ele>
        <time>2008-04-06T06:25:50.000Z</time>
      </trkpt>
      <trkpt lat="48.68063" lon="1.94959">
        <ele>134.24</ele>
        <time>2008-04-06T06:25:55.000Z</time>
      </trkpt>
      <trkpt lat="48.68071" lon="1.94942">
        <ele>134.24</ele>
        <time>2008-04-06T06:26:01.000Z</time>
      </trkpt>
      <trkpt lat="48.6808" lon="1.94933">
        <ele>134.72</ele>
        <time>2008-04-06T06:26:05.000Z</time>
      </trkpt>
      <trkpt lat="48.68085" lon="1.94929">
        <ele>132.32</ele>
        <time>2008-04-06T06:26:07.000Z</time>
      </trkpt>
      <trkpt lat="48.68086" lon="1.94925">
        <ele>130.88</ele>
        <time>2008-04-06T06:26:09.000Z</time>
      </trkpt>
      <trkpt lat="48.68085" lon="1.94912">
        <ele>127.03</ele>
        <time>2008-04-06T06:26:13.000Z</time>
      </trkpt>
      <trkpt lat="48.68079" lon="1.94891">
        <ele>128.47</ele>
        <time>2008-04-06T06:26:18.000Z</time>
      </trkpt>
      <trkpt lat="48.68077" lon="1.94881">
        <ele>129.43</ele>
        <time>2008-04-06T06:26:20.000Z</time>
      </trkpt>
      <trkpt lat="48.68082" lon="1.94852">
        <ele>135.68</ele>
        <time>2008-04-06T06:26:27.000Z</time>
      </trkpt>
      <trkpt lat="48.68091" lon="1.94836">
        <ele>135.2</ele>
        <time>2008-04-06T06:26:32.000Z</time>
      </trkpt>
      <trkpt lat="48.68096" lon="1.94824">
        <ele>135.68</ele>
        <time>2008-04-06T06:26:36.000Z</time>
      </trkpt>
      <trkpt lat="48.68099" lon="1.94818">
        <ele>136.64</ele>
        <time>2008-04-06T06:26:38.000Z</time>
      </trkpt>
      <trkpt lat="48.6811" lon="1.94817">
        <ele>135.2</ele>
        <time>2008-04-06T06:26:42.000Z</time>
      </trkpt>
      <trkpt lat="48.68117" lon="1.9482">
        <ele>135.2</ele>
        <time>2008-04-06T06:26:45.000Z</time>
      </trkpt>
      <trkpt lat="48.68125" lon="1.9482">
        <ele>135.2</ele>
        <time>2008-04-06T06:26:49.000Z</time>
      </trkpt>
      <trkpt lat="48.68127" lon="1.94822">
        <ele>136.16</ele>
        <time>2008-04-06T06:26:51.000Z</time>
      </trkpt>
      <trkpt lat="48.68129" lon="1.94826">
        <ele>133.28</ele>
        <time>2008-04-06T06:26:55.000Z</time>
      </trkpt>
      <trkpt lat="48.68134" lon="1.94827">
        <ele>133.76</ele>
        <time>2008-04-06T06:26:59.000Z</time>
      </trkpt>
      <trkpt lat="48.68138" lon="1.94825">
        <ele>131.84</ele>
        <time>2008-04-06T06:27:06.000Z</time>
      </trkpt>
      <trkpt lat="48.6814" lon="1.9482">
        <ele>130.88</ele>
        <time>2008-04-06T06:27:09.000Z</time>
      </trkpt>
      <trkpt lat="48.68148" lon="1.94822">
        <ele>129.92</ele>
        <time>2008-04-06T06:27:16.000Z</time>
      </trkpt>
      <trkpt lat="48.68153" lon="1.9482">
        <ele>129.43</ele>
        <time>2008-04-06T06:27:24.000Z</time>
      </trkpt>
      <trkpt lat="48.68156" lon="1.94813">
        <ele>131.36</ele>
        <time>2008-04-06T06:27:31.000Z</time>
      </trkpt>
      <trkpt lat="48.68156" lon="1.94814">
        <ele>131.36</ele>
        <time>2008-04-06T06:27:32.000Z</time>
      </trkpt>
      <trkpt lat="48.68164" lon="1.94814">
        <ele>131.84</ele>
        <time>2008-04-06T06:27:38.000Z</time>
      </trkpt>
      <trkpt lat="48.6817" lon="1.94812">
        <ele>132.8</ele>
        <time>2008-04-06T06:27:45.000Z</time>
      </trkpt>
      <trkpt lat="48.68169" lon="1.94808">
        <ele>139.05</ele>
        <time>2008-04-06T06:27:49.000Z</time>
      </trkpt>
      <trkpt lat="48.68171" lon="1.94806">
        <ele>139.05</ele>
        <time>2008-04-06T06:27:52.000Z</time>
      </trkpt>
      <trkpt lat="48.68179" lon="1.94803">
        <ele>143.37</ele>
        <time>2008-04-06T06:28:00.000Z</time>
      </trkpt>
      <trkpt lat="48.6818" lon="1.94798">
        <ele>144.82</ele>
        <time>2008-04-06T06:28:04.000Z</time>
      </trkpt>
      <trkpt lat="48.68179" lon="1.94789">
        <ele>149.14</ele>
        <time>2008-04-06T06:28:11.000Z</time>
      </trkpt>
      <trkpt lat="48.68182" lon="1.94786">
        <ele>149.14</ele>
        <time>2008-04-06T06:28:16.000Z</time>
      </trkpt>
      <trkpt lat="48.68187" lon="1.94784">
        <ele>147.7</ele>
        <time>2008-04-06T06:28:21.000Z</time>
      </trkpt>
      <trkpt lat="48.6819" lon="1.94781">
        <ele>150.58</ele>
        <time>2008-04-06T06:28:27.000Z</time>
      </trkpt>
      <trkpt lat="48.68191" lon="1.94781">
        <ele>151.06</ele>
        <time>2008-04-06T06:28:28.000Z</time>
      </trkpt>
      <trkpt lat="48.68192" lon="1.94775">
        <ele>151.06</ele>
        <time>2008-04-06T06:28:32.000Z</time>
      </trkpt>
      <trkpt lat="48.68195" lon="1.94772">
        <ele>151.54</ele>
        <time>2008-04-06T06:28:36.000Z</time>
      </trkpt>
      <trkpt lat="48.68201" lon="1.94769">
        <ele>153.95</ele>
        <time>2008-04-06T06:28:44.000Z</time>
      </trkpt>
      <trkpt lat="48.68204" lon="1.94766">
        <ele>157.31</ele>
        <time>2008-04-06T06:28:49.000Z</time>
      </trkpt>
      <trkpt lat="48.68208" lon="1.94769">
        <ele>155.87</ele>
        <time>2008-04-06T06:28:56.000Z</time>
      </trkpt>
      <trkpt lat="48.68211" lon="1.94773">
        <ele>153.47</ele>
        <time>2008-04-06T06:29:00.000Z</time>
      </trkpt>
      <trkpt lat="48.68216" lon="1.94773">
        <ele>153.47</ele>
        <time>2008-04-06T06:29:06.000Z</time>
      </trkpt>
      <trkpt lat="48.68227" lon="1.94769">
        <ele>158.27</ele>
        <time>2008-04-06T06:29:11.000Z</time>
      </trkpt>
      <trkpt lat="48.68229" lon="1.94768">
        <ele>158.27</ele>
        <time>2008-04-06T06:29:12.000Z</time>
      </trkpt>
      <trkpt lat="48.68236" lon="1.94756">
        <ele>158.27</ele>
        <time>2008-04-06T06:29:16.000Z</time>
      </trkpt>
      <trkpt lat="48.68246" lon="1.94741">
        <ele>163.56</ele>
        <time>2008-04-06T06:29:21.000Z</time>
      </trkpt>
      <trkpt lat="48.68254" lon="1.94739">
        <ele>167.41</ele>
        <time>2008-04-06T06:29:24.000Z</time>
      </trkpt>
      <trkpt lat="48.6826" lon="1.94729">
        <ele>170.29</ele>
        <time>2008-04-06T06:29:28.000Z</time>
      </trkpt>
      <trkpt lat="48.68264" lon="1.94724">
        <ele>169.81</ele>
        <time>2008-04-06T06:29:31.000Z</time>
      </trkpt>
      <trkpt lat="48.68257" lon="1.94716">
        <ele>167.89</ele>
        <time>2008-04-06T06:29:35.000Z</time>
      </trkpt>
      <trkpt lat="48.68245" lon="1.94707">
        <ele>167.89</ele>
        <time>2008-04-06T06:29:39.000Z</time>
      </trkpt>
      <trkpt lat="48.68243" lon="1.94707">
        <ele>167.41</ele>
        <time>2008-04-06T06:29:40.000Z</time>
      </trkpt>
      <trkpt lat="48.68237" lon="1.947">
        <ele>165.96</ele>
        <time>2008-04-06T06:29:46.000Z</time>
      </trkpt>
      <trkpt lat="48.68235" lon="1.94689">
        <ele>164.52</ele>
        <time>2008-04-06T06:29:50.000Z</time>
      </trkpt>
      <trkpt lat="48.68237" lon="1.94677">
        <ele>161.16</ele>
        <time>2008-04-06T06:29:54.000Z</time>
      </trkpt>
      <trkpt lat="48.68241" lon="1.94666">
        <ele>162.6</ele>
        <time>2008-04-06T06:29:58.000Z</time>
      </trkpt>
      <trkpt lat="48.68245" lon="1.94653">
        <ele>159.72</ele>
        <time>2008-04-06T06:30:02.000Z</time>
      </trkpt>
      <trkpt lat="48.68247" lon="1.94636">
        <ele>156.83</ele>
        <time>2008-04-06T06:30:06.000Z</time>
      </trkpt>
      <trkpt lat="48.68256" lon="1.94621">
        <ele>155.87</ele>
        <time>2008-04-06T06:30:11.000Z</time>
      </trkpt>
      <trkpt lat="48.6827" lon="1.94603">
        <ele>153.95</ele>
        <time>2008-04-06T06:30:18.000Z</time>
      </trkpt>
      <trkpt lat="48.68272" lon="1.946">
        <ele>153.47</ele>
        <time>2008-04-06T06:30:19.000Z</time>
      </trkpt>
      <trkpt lat="48.68279" lon="1.94585">
        <ele>152.51</ele>
        <time>2008-04-06T06:30:23.000Z</time>
      </trkpt>
      <trkpt lat="48.68286" lon="1.94568">
        <ele>152.51</ele>
        <time>2008-04-06T06:30:28.000Z</time>
      </trkpt>
      <trkpt lat="48.68285" lon="1.94548">
        <ele>151.54</ele>
        <time>2008-04-06T06:30:34.000Z</time>
      </trkpt>
      <trkpt lat="48.68285" lon="1.94544">
        <ele>150.58</ele>
        <time>2008-04-06T06:30:35.000Z</time>
      </trkpt>
      <trkpt lat="48.68289" lon="1.94535">
        <ele>145.78</ele>
        <time>2008-04-06T06:30:39.000Z</time>
      </trkpt>
      <trkpt lat="48.68288" lon="1.94525">
        <ele>142.89</ele>
        <time>2008-04-06T06:30:42.000Z</time>
      </trkpt>
      <trkpt lat="48.68278" lon="1.94509">
        <ele>140.97</ele>
        <time>2008-04-06T06:30:47.000Z</time>
      </trkpt>
      <trkpt lat="48.68277" lon="1.94501">
        <ele>140.01</ele>
        <time>2008-04-06T06:30:49.000Z</time>
      </trkpt>
      <trkpt lat="48.68282" lon="1.94484">
        <ele>135.2</ele>
        <time>2008-04-06T06:30:55.000Z</time>
      </trkpt>
      <trkpt lat="48.68284" lon="1.94469">
        <ele>132.32</ele>
        <time>2008-04-06T06:30:59.000Z</time>
      </trkpt>
      <trkpt lat="48.68289" lon="1.94456">
        <ele>130.88</ele>
        <time>2008-04-06T06:31:02.000Z</time>
      </trkpt>
      <trkpt lat="48.68294" lon="1.94448">
        <ele>128.47</ele>
        <time>2008-04-06T06:31:05.000Z</time>
      </trkpt>
      <trkpt lat="48.68291" lon="1.94431">
        <ele>129.43</ele>
        <time>2008-04-06T06:31:10.000Z</time>
      </trkpt>
      <trkpt lat="48.68286" lon="1.94421">
        <ele>128.47</ele>
        <time>2008-04-06T06:31:14.000Z</time>
      </trkpt>
      <trkpt lat="48.68286" lon="1.94418">
        <ele>127.99</ele>
        <time>2008-04-06T06:31:15.000Z</time>
      </trkpt>
      <trkpt lat="48.68289" lon="1.94403">
        <ele>124.15</ele>
        <time>2008-04-06T06:31:20.000Z</time>
      </trkpt>
      <trkpt lat="48.683" lon="1.94391">
        <ele>122.22</ele>
        <time>2008-04-06T06:31:26.000Z</time>
      </trkpt>
      <trkpt lat="48.68303" lon="1.94387">
        <ele>120.78</ele>
        <time>2008-04-06T06:31:28.000Z</time>
      </trkpt>
      <trkpt lat="48.6831" lon="1.94377">
        <ele>118.86</ele>
        <time>2008-04-06T06:31:32.000Z</time>
      </trkpt>
      <trkpt lat="48.68315" lon="1.94373">
        <ele>121.26</ele>
        <time>2008-04-06T06:31:36.000Z</time>
      </trkpt>
      <trkpt lat="48.6832" lon="1.94369">
        <ele>122.22</ele>
        <time>2008-04-06T06:31:41.000Z</time>
      </trkpt>
      <trkpt lat="48.68325" lon="1.9436">
        <ele>123.19</ele>
        <time>2008-04-06T06:31:46.000Z</time>
      </trkpt>
      <trkpt lat="48.68331" lon="1.94354">
        <ele>127.51</ele>
        <time>2008-04-06T06:31:51.000Z</time>
      </trkpt>
      <trkpt lat="48.68335" lon="1.94348">
        <ele>127.51</ele>
        <time>2008-04-06T06:31:55.000Z</time>
      </trkpt>
      <trkpt lat="48.68339" lon="1.94339">
        <ele>130.4</ele>
        <time>2008-04-06T06:31:59.000Z</time>
      </trkpt>
      <trkpt lat="48.68345" lon="1.94329">
        <ele>130.4</ele>
        <time>2008-04-06T06:32:04.000Z</time>
      </trkpt>
      <trkpt lat="48.6835" lon="1.94318">
        <ele>128.47</ele>
        <time>2008-04-06T06:32:08.000Z</time>
      </trkpt>
      <trkpt lat="48.68352" lon="1.9431">
        <ele>126.07</ele>
        <time>2008-04-06T06:32:12.000Z</time>
      </trkpt>
      <trkpt lat="48.68355" lon="1.94294">
        <ele>122.22</ele>
        <time>2008-04-06T06:32:17.000Z</time>
      </trkpt>
      <trkpt lat="48.68356" lon="1.94282">
        <ele>128.47</ele>
        <time>2008-04-06T06:32:21.000Z</time>
      </trkpt>
      <trkpt lat="48.68368" lon="1.94272">
        <ele>125.59</ele>
        <time>2008-04-06T06:32:26.000Z</time>
      </trkpt>
      <trkpt lat="48.68376" lon="1.94263">
        <ele>125.59</ele>
        <time>2008-04-06T06:32:29.000Z</time>
      </trkpt>
      <trkpt lat="48.68379" lon="1.94257">
        <ele>127.03</ele>
        <time>2008-04-06T06:32:31.000Z</time>
      </trkpt>
      <trkpt lat="48.68378" lon="1.94244">
        <ele>126.55</ele>
        <time>2008-04-06T06:32:36.000Z</time>
      </trkpt>
      <trkpt lat="48.68382" lon="1.94237">
        <ele>125.59</ele>
        <time>2008-04-06T06:32:39.000Z</time>
      </trkpt>
      <trkpt lat="48.68385" lon="1.94217">
        <ele>128.47</ele>
        <time>2008-04-06T06:32:46.000Z</time>
      </trkpt>
      <trkpt lat="48.6839" lon="1.94201">
        <ele>128.95</ele>
        <time>2008-04-06T06:32:52.000Z</time>
      </trkpt>
      <trkpt lat="48.68391" lon="1.94195">
        <ele>131.84</ele>
        <time>2008-04-06T06:32:54.000Z</time>
      </trkpt>
      <trkpt lat="48.68387" lon="1.9418">
        <ele>130.4</ele>
        <time>2008-04-06T06:32:59.000Z</time>
      </trkpt>
      <trkpt lat="48.68385" lon="1.94176">
        <ele>129.92</ele>
        <time>2008-04-06T06:33:00.000Z</time>
      </trkpt>
      <trkpt lat="48.68386" lon="1.94161">
        <ele>131.36</ele>
        <time>2008-04-06T06:33:05.000Z</time>
      </trkpt>
      <trkpt lat="48.68388" lon="1.9416">
        <ele>131.84</ele>
        <time>2008-04-06T06:33:06.000Z</time>
      </trkpt>
      <trkpt lat="48.68393" lon="1.94155">
        <ele>131.84</ele>
        <time>2008-04-06T06:33:09.000Z</time>
      </trkpt>
      <trkpt lat="48.68398" lon="1.94144">
        <ele>136.64</ele>
        <time>2008-04-06T06:33:15.000Z</time>
      </trkpt>
      <trkpt lat="48.68401" lon="1.94142">
        <ele>137.13</ele>
        <time>2008-04-06T06:33:17.000Z</time>
      </trkpt>
      <trkpt lat="48.68404" lon="1.9414">
        <ele>138.57</ele>
        <time>2008-04-06T06:33:19.000Z</time>
      </trkpt>
      <trkpt lat="48.68409" lon="1.94137">
        <ele>138.57</ele>
        <time>2008-04-06T06:33:23.000Z</time>
      </trkpt>
      <trkpt lat="48.68416" lon="1.94131">
        <ele>140.49</ele>
        <time>2008-04-06T06:33:31.000Z</time>
      </trkpt>
      <trkpt lat="48.68421" lon="1.94126">
        <ele>140.01</ele>
        <time>2008-04-06T06:33:37.000Z</time>
      </trkpt>
      <trkpt lat="48.68427" lon="1.94125">
        <ele>140.01</ele>
        <time>2008-04-06T06:33:43.000Z</time>
      </trkpt>
      <trkpt lat="48.68435" lon="1.94124">
        <ele>140.01</ele>
        <time>2008-04-06T06:33:51.000Z</time>
      </trkpt>
      <trkpt lat="48.68441" lon="1.94126">
        <ele>138.57</ele>
        <time>2008-04-06T06:33:57.000Z</time>
      </trkpt>
      <trkpt lat="48.68448" lon="1.94125">
        <ele>140.49</ele>
        <time>2008-04-06T06:34:04.000Z</time>
      </trkpt>
      <trkpt lat="48.68452" lon="1.94124">
        <ele>141.93</ele>
        <time>2008-04-06T06:34:09.000Z</time>
      </trkpt>
      <trkpt lat="48.68456" lon="1.94117">
        <ele>144.82</ele>
        <time>2008-04-06T06:34:14.000Z</time>
      </trkpt>
      <trkpt lat="48.68457" lon="1.94116">
        <ele>147.7</ele>
        <time>2008-04-06T06:34:16.000Z</time>
      </trkpt>
      <trkpt lat="48.68458" lon="1.94107">
        <ele>152.03</ele>
        <time>2008-04-06T06:34:21.000Z</time>
      </trkpt>
      <trkpt lat="48.68459" lon="1.94103">
        <ele>154.43</ele>
        <time>2008-04-06T06:34:24.000Z</time>
      </trkpt>
      <trkpt lat="48.68459" lon="1.94096">
        <ele>156.83</ele>
        <time>2008-04-06T06:34:28.000Z</time>
      </trkpt>
      <trkpt lat="48.68461" lon="1.94091">
        <ele>159.24</ele>
        <time>2008-04-06T06:34:34.000Z</time>
      </trkpt>
      <trkpt lat="48.68464" lon="1.94083">
        <ele>158.75</ele>
        <time>2008-04-06T06:34:41.000Z</time>
      </trkpt>
      <trkpt lat="48.68465" lon="1.94079">
        <ele>158.75</ele>
        <time>2008-04-06T06:34:43.000Z</time>
      </trkpt>
      <trkpt lat="48.68469" lon="1.94063">
        <ele>157.31</ele>
        <time>2008-04-06T06:34:49.000Z</time>
      </trkpt>
      <trkpt lat="48.68474" lon="1.94052">
        <ele>156.35</ele>
        <time>2008-04-06T06:34:54.000Z</time>
      </trkpt>
      <trkpt lat="48.68479" lon="1.94037">
        <ele>155.39</ele>
        <time>2008-04-06T06:34:58.000Z</time>
      </trkpt>
      <trkpt lat="48.68482" lon="1.94016">
        <ele>152.03</ele>
        <time>2008-04-06T06:35:04.000Z</time>
      </trkpt>
      <trkpt lat="48.68484" lon="1.9401">
        <ele>150.1</ele>
        <time>2008-04-06T06:35:06.000Z</time>
      </trkpt>
      <trkpt lat="48.68478" lon="1.94">
        <ele>148.66</ele>
        <time>2008-04-06T06:35:11.000Z</time>
      </trkpt>
      <trkpt lat="48.68472" lon="1.94001">
        <ele>146.74</ele>
        <time>2008-04-06T06:35:15.000Z</time>
      </trkpt>
      <trkpt lat="48.68469" lon="1.94003">
        <ele>146.26</ele>
        <time>2008-04-06T06:35:17.000Z</time>
      </trkpt>
      <trkpt lat="48.68466" lon="1.93997">
        <ele>142.89</ele>
        <time>2008-04-06T06:35:23.000Z</time>
      </trkpt>
      <trkpt lat="48.68461" lon="1.93993">
        <ele>140.01</ele>
        <time>2008-04-06T06:35:27.000Z</time>
      </trkpt>
      <trkpt lat="48.68455" lon="1.93988">
        <ele>137.13</ele>
        <time>2008-04-06T06:35:32.000Z</time>
      </trkpt>
      <trkpt lat="48.68459" lon="1.93979">
        <ele>132.32</ele>
        <time>2008-04-06T06:35:37.000Z</time>
      </trkpt>
      <trkpt lat="48.68461" lon="1.93971">
        <ele>126.07</ele>
        <time>2008-04-06T06:35:42.000Z</time>
      </trkpt>
      <trkpt lat="48.68462" lon="1.9397">
        <ele>124.63</ele>
        <time>2008-04-06T06:35:43.000Z</time>
      </trkpt>
      <trkpt lat="48.68469" lon="1.93957">
        <ele>114.53</ele>
        <time>2008-04-06T06:35:50.000Z</time>
      </trkpt>
      <trkpt lat="48.68476" lon="1.93947">
        <ele>111.17</ele>
        <time>2008-04-06T06:35:55.000Z</time>
      </trkpt>
      <trkpt lat="48.68478" lon="1.93945">
        <ele>110.21</ele>
        <time>2008-04-06T06:35:56.000Z</time>
      </trkpt>
      <trkpt lat="48.68487" lon="1.93937">
        <ele>110.21</ele>
        <time>2008-04-06T06:36:01.000Z</time>
      </trkpt>
      <trkpt lat="48.68496" lon="1.93921">
        <ele>109.73</ele>
        <time>2008-04-06T06:36:07.000Z</time>
      </trkpt>
      <trkpt lat="48.68501" lon="1.93917">
        <ele>110.21</ele>
        <time>2008-04-06T06:36:09.000Z</time>
      </trkpt>
      <trkpt lat="48.68511" lon="1.93913">
        <ele>112.13</ele>
        <time>2008-04-06T06:36:14.000Z</time>
      </trkpt>
      <trkpt lat="48.6852" lon="1.93915">
        <ele>112.61</ele>
        <time>2008-04-06T06:36:18.000Z</time>
      </trkpt>
      <trkpt lat="48.6853" lon="1.9391">
        <ele>112.61</ele>
        <time>2008-04-06T06:36:22.000Z</time>
      </trkpt>
      <trkpt lat="48.6853" lon="1.93906">
        <ele>114.53</ele>
        <time>2008-04-06T06:36:23.000Z</time>
      </trkpt>
      <trkpt lat="48.68535" lon="1.9389">
        <ele>126.55</ele>
        <time>2008-04-06T06:36:29.000Z</time>
      </trkpt>
      <trkpt lat="48.68543" lon="1.93875">
        <ele>128.47</ele>
        <time>2008-04-06T06:36:34.000Z</time>
      </trkpt>
      <trkpt lat="48.68547" lon="1.93867">
        <ele>129.43</ele>
        <time>2008-04-06T06:36:38.000Z</time>
      </trkpt>
      <trkpt lat="48.68547" lon="1.93857">
        <ele>132.8</ele>
        <time>2008-04-06T06:36:40.000Z</time>
      </trkpt>
      <trkpt lat="48.68548" lon="1.93834">
        <ele>137.61</ele>
        <time>2008-04-06T06:36:45.000Z</time>
      </trkpt>
      <trkpt lat="48.68552" lon="1.93825">
        <ele>141.93</ele>
        <time>2008-04-06T06:36:49.000Z</time>
      </trkpt>
      <trkpt lat="48.68554" lon="1.93819">
        <ele>145.78</ele>
        <time>2008-04-06T06:36:53.000Z</time>
      </trkpt>
      <trkpt lat="48.68564" lon="1.93807">
        <ele>146.74</ele>
        <time>2008-04-06T06:36:58.000Z</time>
      </trkpt>
      <trkpt lat="48.68571" lon="1.938">
        <ele>145.78</ele>
        <time>2008-04-06T06:37:01.000Z</time>
      </trkpt>
      <trkpt lat="48.68583" lon="1.93793">
        <ele>143.85</ele>
        <time>2008-04-06T06:37:06.000Z</time>
      </trkpt>
      <trkpt lat="48.68598" lon="1.93782">
        <ele>142.41</ele>
        <time>2008-04-06T06:37:12.000Z</time>
      </trkpt>
      <trkpt lat="48.68607" lon="1.93776">
        <ele>145.3</ele>
        <time>2008-04-06T06:37:17.000Z</time>
      </trkpt>
      <trkpt lat="48.68608" lon="1.93775">
        <ele>146.26</ele>
        <time>2008-04-06T06:37:18.000Z</time>
      </trkpt>
      <trkpt lat="48.68613" lon="1.93773">
        <ele>146.74</ele>
        <time>2008-04-06T06:37:22.000Z</time>
      </trkpt>
      <trkpt lat="48.6862" lon="1.9377">
        <ele>149.62</ele>
        <time>2008-04-06T06:37:29.000Z</time>
      </trkpt>
      <trkpt lat="48.68624" lon="1.93769">
        <ele>151.54</ele>
        <time>2008-04-06T06:37:35.000Z</time>
      </trkpt>
      <trkpt lat="48.6863" lon="1.93768">
        <ele>151.54</ele>
        <time>2008-04-06T06:37:42.000Z</time>
      </trkpt>
      <trkpt lat="48.68633" lon="1.93768">
        <ele>153.95</ele>
        <time>2008-04-06T06:37:47.000Z</time>
      </trkpt>
      <trkpt lat="48.68635" lon="1.93763">
        <ele>157.79</ele>
        <time>2008-04-06T06:37:52.000Z</time>
      </trkpt>
      <trkpt lat="48.68641" lon="1.93761">
        <ele>157.79</ele>
        <time>2008-04-06T06:38:00.000Z</time>
      </trkpt>
      <trkpt lat="48.68643" lon="1.93755">
        <ele>160.2</ele>
        <time>2008-04-06T06:38:07.000Z</time>
      </trkpt>
      <trkpt lat="48.68645" lon="1.93747">
        <ele>158.75</ele>
        <time>2008-04-06T06:38:12.000Z</time>
      </trkpt>
      <trkpt lat="48.68644" lon="1.93744">
        <ele>159.24</ele>
        <time>2008-04-06T06:38:13.000Z</time>
      </trkpt>
      <trkpt lat="48.68642" lon="1.93735">
        <ele>159.72</ele>
        <time>2008-04-06T06:38:16.000Z</time>
      </trkpt>
      <trkpt lat="48.68634" lon="1.93726">
        <ele>156.35</ele>
        <time>2008-04-06T06:38:22.000Z</time>
      </trkpt>
      <trkpt lat="48.6863" lon="1.93722">
        <ele>152.03</ele>
        <time>2008-04-06T06:38:25.000Z</time>
      </trkpt>
      <trkpt lat="48.68631" lon="1.93706">
        <ele>146.26</ele>
        <time>2008-04-06T06:38:30.000Z</time>
      </trkpt>
      <trkpt lat="48.68629" lon="1.93703">
        <ele>145.3</ele>
        <time>2008-04-06T06:38:32.000Z</time>
      </trkpt>
      <trkpt lat="48.6862" lon="1.93697">
        <ele>141.45</ele>
        <time>2008-04-06T06:38:37.000Z</time>
      </trkpt>
      <trkpt lat="48.68619" lon="1.93696">
        <ele>140.49</ele>
        <time>2008-04-06T06:38:38.000Z</time>
      </trkpt>
      <trkpt lat="48.68611" lon="1.93685">
        <ele>137.61</ele>
        <time>2008-04-06T06:38:43.000Z</time>
      </trkpt>
      <trkpt lat="48.68602" lon="1.93675">
        <ele>135.2</ele>
        <time>2008-04-06T06:38:48.000Z</time>
      </trkpt>
      <trkpt lat="48.68589" lon="1.93663">
        <ele>131.36</ele>
        <time>2008-04-06T06:38:54.000Z</time>
      </trkpt>
      <trkpt lat="48.68579" lon="1.93655">
        <ele>129.92</ele>
        <time>2008-04-06T06:38:59.000Z</time>
      </trkpt>
      <trkpt lat="48.68573" lon="1.9365">
        <ele>127.51</ele>
        <time>2008-04-06T06:39:02.000Z</time>
      </trkpt>
      <trkpt lat="48.68566" lon="1.93642">
        <ele>124.63</ele>
        <time>2008-04-06T06:39:06.000Z</time>
      </trkpt>
      <trkpt lat="48.68566" lon="1.93636">
        <ele>124.15</ele>
        <time>2008-04-06T06:39:08.000Z</time>
      </trkpt>
      <trkpt lat="48.68574" lon="1.93624">
        <ele>119.82</ele>
        <time>2008-04-06T06:39:12.000Z</time>
      </trkpt>
      <trkpt lat="48.68586" lon="1.93608">
        <ele>120.3</ele>
        <time>2008-04-06T06:39:19.000Z</time>
      </trkpt>
      <trkpt lat="48.68592" lon="1.93602">
        <ele>122.22</ele>
        <time>2008-04-06T06:39:22.000Z</time>
      </trkpt>
      <trkpt lat="48.68594" lon="1.93592">
        <ele>127.03</ele>
        <time>2008-04-06T06:39:27.000Z</time>
      </trkpt>
      <trkpt lat="48.68596" lon="1.93589">
        <ele>127.99</ele>
        <time>2008-04-06T06:39:28.000Z</time>
      </trkpt>
      <trkpt lat="48.68601" lon="1.93578">
        <ele>131.84</ele>
        <time>2008-04-06T06:39:32.000Z</time>
      </trkpt>
      <trkpt lat="48.68607" lon="1.9357">
        <ele>135.68</ele>
        <time>2008-04-06T06:39:36.000Z</time>
      </trkpt>
      <trkpt lat="48.68621" lon="1.93566">
        <ele>141.93</ele>
        <time>2008-04-06T06:39:43.000Z</time>
      </trkpt>
      <trkpt lat="48.68622" lon="1.93564">
        <ele>143.85</ele>
        <time>2008-04-06T06:39:45.000Z</time>
      </trkpt>
      <trkpt lat="48.68627" lon="1.93561">
        <ele>145.78</ele>
        <time>2008-04-06T06:39:51.000Z</time>
      </trkpt>
      <trkpt lat="48.68634" lon="1.93562">
        <ele>141.93</ele>
        <time>2008-04-06T06:39:57.000Z</time>
      </trkpt>
      <trkpt lat="48.68636" lon="1.93559">
        <ele>143.37</ele>
        <time>2008-04-06T06:40:02.000Z</time>
      </trkpt>
      <trkpt lat="48.68641" lon="1.9356">
        <ele>139.05</ele>
        <time>2008-04-06T06:40:08.000Z</time>
      </trkpt>
      <trkpt lat="48.68646" lon="1.9356">
        <ele>135.2</ele>
        <time>2008-04-06T06:40:14.000Z</time>
      </trkpt>
      <trkpt lat="48.68644" lon="1.93556">
        <ele>136.16</ele>
        <time>2008-04-06T06:40:16.000Z</time>
      </trkpt>
      <trkpt lat="48.68637" lon="1.93542">
        <ele>138.09</ele>
        <time>2008-04-06T06:40:21.000Z</time>
      </trkpt>
      <trkpt lat="48.68629" lon="1.93524">
        <ele>137.61</ele>
        <time>2008-04-06T06:40:26.000Z</time>
      </trkpt>
      <trkpt lat="48.6863" lon="1.93511">
        <ele>137.61</ele>
        <time>2008-04-06T06:40:30.000Z</time>
      </trkpt>
      <trkpt lat="48.68633" lon="1.93497">
        <ele>137.13</ele>
        <time>2008-04-06T06:40:35.000Z</time>
      </trkpt>
      <trkpt lat="48.68634" lon="1.93494">
        <ele>138.57</ele>
        <time>2008-04-06T06:40:37.000Z</time>
      </trkpt>
      <trkpt lat="48.68639" lon="1.93487">
        <ele>143.37</ele>
        <time>2008-04-06T06:40:42.000Z</time>
      </trkpt>
      <trkpt lat="48.68642" lon="1.93472">
        <ele>141.45</ele>
        <time>2008-04-06T06:40:47.000Z</time>
      </trkpt>
      <trkpt lat="48.68648" lon="1.93463">
        <ele>135.68</ele>
        <time>2008-04-06T06:40:52.000Z</time>
      </trkpt>
      <trkpt lat="48.6865" lon="1.93462">
        <ele>134.72</ele>
        <time>2008-04-06T06:40:53.000Z</time>
      </trkpt>
      <trkpt lat="48.68658" lon="1.93455">
        <ele>130.88</ele>
        <time>2008-04-06T06:40:58.000Z</time>
      </trkpt>
      <trkpt lat="48.68663" lon="1.93443">
        <ele>133.28</ele>
        <time>2008-04-06T06:41:04.000Z</time>
      </trkpt>
      <trkpt lat="48.68671" lon="1.93441">
        <ele>132.32</ele>
        <time>2008-04-06T06:41:08.000Z</time>
      </trkpt>
      <trkpt lat="48.68673" lon="1.93441">
        <ele>132.32</ele>
        <time>2008-04-06T06:41:09.000Z</time>
      </trkpt>
      <trkpt lat="48.68678" lon="1.93436">
        <ele>136.64</ele>
        <time>2008-04-06T06:41:13.000Z</time>
      </trkpt>
      <trkpt lat="48.6868" lon="1.93433">
        <ele>137.61</ele>
        <time>2008-04-06T06:41:15.000Z</time>
      </trkpt>
      <trkpt lat="48.68686" lon="1.93422">
        <ele>136.16</ele>
        <time>2008-04-06T06:41:22.000Z</time>
      </trkpt>
      <trkpt lat="48.68687" lon="1.9342">
        <ele>135.68</ele>
        <time>2008-04-06T06:41:23.000Z</time>
      </trkpt>
      <trkpt lat="48.68692" lon="1.93409">
        <ele>132.8</ele>
        <time>2008-04-06T06:41:29.000Z</time>
      </trkpt>
      <trkpt lat="48.68694" lon="1.93401">
        <ele>135.68</ele>
        <time>2008-04-06T06:41:33.000Z</time>
      </trkpt>
      <trkpt lat="48.68702" lon="1.93393">
        <ele>142.89</ele>
        <time>2008-04-06T06:41:39.000Z</time>
      </trkpt>
      <trkpt lat="48.68704" lon="1.93378">
        <ele>146.26</ele>
        <time>2008-04-06T06:41:45.000Z</time>
      </trkpt>
      <trkpt lat="48.68707" lon="1.93368">
        <ele>146.74</ele>
        <time>2008-04-06T06:41:50.000Z</time>
      </trkpt>
      <trkpt lat="48.68705" lon="1.93353">
        <ele>149.62</ele>
        <time>2008-04-06T06:41:54.000Z</time>
      </trkpt>
      <trkpt lat="48.6871" lon="1.93349">
        <ele>146.26</ele>
        <time>2008-04-06T06:41:57.000Z</time>
      </trkpt>
      <trkpt lat="48.68714" lon="1.93343">
        <ele>142.89</ele>
        <time>2008-04-06T06:42:02.000Z</time>
      </trkpt>
      <trkpt lat="48.68721" lon="1.93337">
        <ele>145.3</ele>
        <time>2008-04-06T06:42:09.000Z</time>
      </trkpt>
      <trkpt lat="48.68723" lon="1.93338">
        <ele>145.78</ele>
        <time>2008-04-06T06:42:10.000Z</time>
      </trkpt>
      <trkpt lat="48.68728" lon="1.93334">
        <ele>146.26</ele>
        <time>2008-04-06T06:42:15.000Z</time>
      </trkpt>
      <trkpt lat="48.68734" lon="1.93333">
        <ele>148.66</ele>
        <time>2008-04-06T06:42:20.000Z</time>
      </trkpt>
      <trkpt lat="48.68735" lon="1.93333">
        <ele>148.18</ele>
        <time>2008-04-06T06:42:21.000Z</time>
      </trkpt>
      <trkpt lat="48.6874" lon="1.93325">
        <ele>143.37</ele>
        <time>2008-04-06T06:42:29.000Z</time>
      </trkpt>
      <trkpt lat="48.6874" lon="1.93312">
        <ele>142.89</ele>
        <time>2008-04-06T06:42:37.000Z</time>
      </trkpt>
      <trkpt lat="48.68741" lon="1.93307">
        <ele>140.01</ele>
        <time>2008-04-06T06:42:41.000Z</time>
      </trkpt>
      <trkpt lat="48.68736" lon="1.93303">
        <ele>143.37</ele>
        <time>2008-04-06T06:42:44.000Z</time>
      </trkpt>
      <trkpt lat="48.68734" lon="1.93292">
        <ele>146.74</ele>
        <time>2008-04-06T06:42:51.000Z</time>
      </trkpt>
      <trkpt lat="48.68735" lon="1.93285">
        <ele>151.06</ele>
        <time>2008-04-06T06:42:56.000Z</time>
      </trkpt>
      <trkpt lat="48.68735" lon="1.93281">
        <ele>152.03</ele>
        <time>2008-04-06T06:42:58.000Z</time>
      </trkpt>
      <trkpt lat="48.68735" lon="1.93269">
        <ele>152.51</ele>
        <time>2008-04-06T06:43:03.000Z</time>
      </trkpt>
      <trkpt lat="48.68736" lon="1.93266">
        <ele>152.51</ele>
        <time>2008-04-06T06:43:04.000Z</time>
      </trkpt>
      <trkpt lat="48.68738" lon="1.93259">
        <ele>151.54</ele>
        <time>2008-04-06T06:43:07.000Z</time>
      </trkpt>
      <trkpt lat="48.68737" lon="1.93251">
        <ele>150.58</ele>
        <time>2008-04-06T06:43:12.000Z</time>
      </trkpt>
      <trkpt lat="48.68737" lon="1.93249">
        <ele>151.06</ele>
        <time>2008-04-06T06:43:13.000Z</time>
      </trkpt>
      <trkpt lat="48.68744" lon="1.93234">
        <ele>150.1</ele>
        <time>2008-04-06T06:43:19.000Z</time>
      </trkpt>
      <trkpt lat="48.68752" lon="1.9322">
        <ele>143.37</ele>
        <time>2008-04-06T06:43:23.000Z</time>
      </trkpt>
      <trkpt lat="48.68752" lon="1.93214">
        <ele>142.89</ele>
        <time>2008-04-06T06:43:25.000Z</time>
      </trkpt>
      <trkpt lat="48.68752" lon="1.9319">
        <ele>144.34</ele>
        <time>2008-04-06T06:43:31.000Z</time>
      </trkpt>
      <trkpt lat="48.68749" lon="1.93183">
        <ele>143.85</ele>
        <time>2008-04-06T06:43:33.000Z</time>
      </trkpt>
      <trkpt lat="48.68752" lon="1.93155">
        <ele>134.24</ele>
        <time>2008-04-06T06:43:40.000Z</time>
      </trkpt>
      <trkpt lat="48.68757" lon="1.93129">
        <ele>129.43</ele>
        <time>2008-04-06T06:43:47.000Z</time>
      </trkpt>
      <trkpt lat="48.68761" lon="1.9311">
        <ele>127.03</ele>
        <time>2008-04-06T06:43:52.000Z</time>
      </trkpt>
      <trkpt lat="48.68766" lon="1.93096">
        <ele>125.59</ele>
        <time>2008-04-06T06:43:56.000Z</time>
      </trkpt>
      <trkpt lat="48.68767" lon="1.93093">
        <ele>127.03</ele>
        <time>2008-04-06T06:43:57.000Z</time>
      </trkpt>
      <trkpt lat="48.68768" lon="1.93085">
        <ele>138.57</ele>
        <time>2008-04-06T06:44:01.000Z</time>
      </trkpt>
      <trkpt lat="48.68774" lon="1.93078">
        <ele>143.85</ele>
        <time>2008-04-06T06:44:08.000Z</time>
      </trkpt>
      <trkpt lat="48.68776" lon="1.93076">
        <ele>144.82</ele>
        <time>2008-04-06T06:44:10.000Z</time>
      </trkpt>
      <trkpt lat="48.6878" lon="1.9307">
        <ele>151.06</ele>
        <time>2008-04-06T06:44:18.000Z</time>
      </trkpt>
      <trkpt lat="48.68786" lon="1.93067">
        <ele>153.95</ele>
        <time>2008-04-06T06:44:23.000Z</time>
      </trkpt>
      <trkpt lat="48.6879" lon="1.93059">
        <ele>157.79</ele>
        <time>2008-04-06T06:44:27.000Z</time>
      </trkpt>
      <trkpt lat="48.68802" lon="1.93048">
        <ele>156.35</ele>
        <time>2008-04-06T06:44:33.000Z</time>
      </trkpt>
      <trkpt lat="48.68806" lon="1.93032">
        <ele>151.06</ele>
        <time>2008-04-06T06:44:37.000Z</time>
      </trkpt>
      <trkpt lat="48.68803" lon="1.93017">
        <ele>151.54</ele>
        <time>2008-04-06T06:44:40.000Z</time>
      </trkpt>
      <trkpt lat="48.6881" lon="1.92986">
        <ele>143.85</ele>
        <time>2008-04-06T06:44:47.000Z</time>
      </trkpt>
      <trkpt lat="48.68818" lon="1.92973">
        <ele>140.01</ele>
        <time>2008-04-06T06:44:51.000Z</time>
      </trkpt>
      <trkpt lat="48.6882" lon="1.9296">
        <ele>147.22</ele>
        <time>2008-04-06T06:44:54.000Z</time>
      </trkpt>
      <trkpt lat="48.68819" lon="1.92946">
        <ele>146.26</ele>
        <time>2008-04-06T06:44:59.000Z</time>
      </trkpt>
      <trkpt lat="48.68821" lon="1.9294">
        <ele>143.37</ele>
        <time>2008-04-06T06:45:01.000Z</time>
      </trkpt>
      <trkpt lat="48.68821" lon="1.92929">
        <ele>141.45</ele>
        <time>2008-04-06T06:45:04.000Z</time>
      </trkpt>
      <trkpt lat="48.68807" lon="1.92911">
        <ele>137.13</ele>
        <time>2008-04-06T06:45:10.000Z</time>
      </trkpt>
      <trkpt lat="48.68805" lon="1.92891">
        <ele>139.05</ele>
        <time>2008-04-06T06:45:15.000Z</time>
      </trkpt>
      <trkpt lat="48.68811" lon="1.92879">
        <ele>140.49</ele>
        <time>2008-04-06T06:45:20.000Z</time>
      </trkpt>
      <trkpt lat="48.6882" lon="1.92869">
        <ele>141.93</ele>
        <time>2008-04-06T06:45:25.000Z</time>
      </trkpt>
      <trkpt lat="48.68829" lon="1.92847">
        <ele>151.06</ele>
        <time>2008-04-06T06:45:32.000Z</time>
      </trkpt>
      <trkpt lat="48.68833" lon="1.92837">
        <ele>152.51</ele>
        <time>2008-04-06T06:45:36.000Z</time>
      </trkpt>
      <trkpt lat="48.68833" lon="1.9283">
        <ele>152.03</ele>
        <time>2008-04-06T06:45:39.000Z</time>
      </trkpt>
      <trkpt lat="48.68834" lon="1.92825">
        <ele>150.58</ele>
        <time>2008-04-06T06:45:42.000Z</time>
      </trkpt>
      <trkpt lat="48.68834" lon="1.92816">
        <ele>145.3</ele>
        <time>2008-04-06T06:45:48.000Z</time>
      </trkpt>
      <trkpt lat="48.68834" lon="1.92809">
        <ele>142.89</ele>
        <time>2008-04-06T06:45:54.000Z</time>
      </trkpt>
      <trkpt lat="48.68834" lon="1.92801">
        <ele>140.97</ele>
        <time>2008-04-06T06:46:00.000Z</time>
      </trkpt>
      <trkpt lat="48.68836" lon="1.92794">
        <ele>135.68</ele>
        <time>2008-04-06T06:46:07.000Z</time>
      </trkpt>
      <trkpt lat="48.68848" lon="1.92783">
        <ele>134.24</ele>
        <time>2008-04-06T06:46:13.000Z</time>
      </trkpt>
      <trkpt lat="48.68851" lon="1.92772">
        <ele>139.05</ele>
        <time>2008-04-06T06:46:17.000Z</time>
      </trkpt>
      <trkpt lat="48.68854" lon="1.92768">
        <ele>140.97</ele>
        <time>2008-04-06T06:46:19.000Z</time>
      </trkpt>
      <trkpt lat="48.68858" lon="1.92751">
        <ele>143.37</ele>
        <time>2008-04-06T06:46:28.000Z</time>
      </trkpt>
      <trkpt lat="48.6886" lon="1.92741">
        <ele>146.74</ele>
        <time>2008-04-06T06:46:33.000Z</time>
      </trkpt>
      <trkpt lat="48.68865" lon="1.92731">
        <ele>148.18</ele>
        <time>2008-04-06T06:46:40.000Z</time>
      </trkpt>
      <trkpt lat="48.68868" lon="1.92724">
        <ele>151.54</ele>
        <time>2008-04-06T06:46:45.000Z</time>
      </trkpt>
      <trkpt lat="48.68875" lon="1.92714">
        <ele>149.14</ele>
        <time>2008-04-06T06:46:51.000Z</time>
      </trkpt>
      <trkpt lat="48.68882" lon="1.92706">
        <ele>145.3</ele>
        <time>2008-04-06T06:46:55.000Z</time>
      </trkpt>
      <trkpt lat="48.68887" lon="1.92699">
        <ele>141.45</ele>
        <time>2008-04-06T06:46:59.000Z</time>
      </trkpt>
      <trkpt lat="48.68886" lon="1.92687">
        <ele>142.41</ele>
        <time>2008-04-06T06:47:04.000Z</time>
      </trkpt>
      <trkpt lat="48.68882" lon="1.92671">
        <ele>144.34</ele>
        <time>2008-04-06T06:47:08.000Z</time>
      </trkpt>
      <trkpt lat="48.68883" lon="1.92646">
        <ele>152.03</ele>
        <time>2008-04-06T06:47:14.000Z</time>
      </trkpt>
      <trkpt lat="48.68888" lon="1.92643">
        <ele>151.06</ele>
        <time>2008-04-06T06:47:17.000Z</time>
      </trkpt>
      <trkpt lat="48.6889" lon="1.92638">
        <ele>152.99</ele>
        <time>2008-04-06T06:47:20.000Z</time>
      </trkpt>
      <trkpt lat="48.68898" lon="1.92639">
        <ele>149.14</ele>
        <time>2008-04-06T06:47:24.000Z</time>
      </trkpt>
      <trkpt lat="48.68902" lon="1.92638">
        <ele>147.22</ele>
        <time>2008-04-06T06:47:29.000Z</time>
      </trkpt>
      <trkpt lat="48.68904" lon="1.92635">
        <ele>149.14</ele>
        <time>2008-04-06T06:47:31.000Z</time>
      </trkpt>
      <trkpt lat="48.68913" lon="1.92636">
        <ele>152.51</ele>
        <time>2008-04-06T06:47:37.000Z</time>
      </trkpt>
      <trkpt lat="48.68915" lon="1.92635">
        <ele>153.47</ele>
        <time>2008-04-06T06:47:39.000Z</time>
      </trkpt>
      <trkpt lat="48.68921" lon="1.92635">
        <ele>152.99</ele>
        <time>2008-04-06T06:47:46.000Z</time>
      </trkpt>
      <trkpt lat="48.68926" lon="1.92638">
        <ele>152.03</ele>
        <time>2008-04-06T06:47:51.000Z</time>
      </trkpt>
      <trkpt lat="48.6893" lon="1.92635">
        <ele>149.62</ele>
        <time>2008-04-06T06:47:56.000Z</time>
      </trkpt>
      <trkpt lat="48.68932" lon="1.92634">
        <ele>150.1</ele>
        <time>2008-04-06T06:47:58.000Z</time>
      </trkpt>
      <trkpt lat="48.68937" lon="1.92628">
        <ele>150.1</ele>
        <time>2008-04-06T06:48:04.000Z</time>
      </trkpt>
      <trkpt lat="48.68942" lon="1.92624">
        <ele>153.47</ele>
        <time>2008-04-06T06:48:11.000Z</time>
      </trkpt>
      <trkpt lat="48.68943" lon="1.92618">
        <ele>159.72</ele>
        <time>2008-04-06T06:48:17.000Z</time>
      </trkpt>
      <trkpt lat="48.68946" lon="1.92609">
        <ele>161.64</ele>
        <time>2008-04-06T06:48:25.000Z</time>
      </trkpt>
      <trkpt lat="48.68949" lon="1.9261">
        <ele>161.64</ele>
        <time>2008-04-06T06:48:27.000Z</time>
      </trkpt>
      <trkpt lat="48.68952" lon="1.92611">
        <ele>161.16</ele>
        <time>2008-04-06T06:48:29.000Z</time>
      </trkpt>
      <trkpt lat="48.68956" lon="1.92609">
        <ele>160.68</ele>
        <time>2008-04-06T06:48:34.000Z</time>
      </trkpt>
      <trkpt lat="48.68956" lon="1.92598">
        <ele>161.16</ele>
        <time>2008-04-06T06:48:42.000Z</time>
      </trkpt>
      <trkpt lat="48.68956" lon="1.92588">
        <ele>162.12</ele>
        <time>2008-04-06T06:48:46.000Z</time>
      </trkpt>
      <trkpt lat="48.68958" lon="1.92575">
        <ele>158.75</ele>
        <time>2008-04-06T06:48:50.000Z</time>
      </trkpt>
      <trkpt lat="48.68953" lon="1.92557">
        <ele>153.95</ele>
        <time>2008-04-06T06:48:55.000Z</time>
      </trkpt>
      <trkpt lat="48.68948" lon="1.92536">
        <ele>151.06</ele>
        <time>2008-04-06T06:49:00.000Z</time>
      </trkpt>
      <trkpt lat="48.68949" lon="1.92518">
        <ele>151.54</ele>
        <time>2008-04-06T06:49:04.000Z</time>
      </trkpt>
      <trkpt lat="48.68951" lon="1.92508">
        <ele>150.1</ele>
        <time>2008-04-06T06:49:07.000Z</time>
      </trkpt>
      <trkpt lat="48.68957" lon="1.92494">
        <ele>152.03</ele>
        <time>2008-04-06T06:49:13.000Z</time>
      </trkpt>
      <trkpt lat="48.68967" lon="1.92481">
        <ele>152.51</ele>
        <time>2008-04-06T06:49:19.000Z</time>
      </trkpt>
      <trkpt lat="48.68978" lon="1.92473">
        <ele>152.03</ele>
        <time>2008-04-06T06:49:23.000Z</time>
      </trkpt>
      <trkpt lat="48.68986" lon="1.92464">
        <ele>151.06</ele>
        <time>2008-04-06T06:49:27.000Z</time>
      </trkpt>
      <trkpt lat="48.68995" lon="1.92452">
        <ele>152.03</ele>
        <time>2008-04-06T06:49:31.000Z</time>
      </trkpt>
      <trkpt lat="48.68999" lon="1.92442">
        <ele>148.66</ele>
        <time>2008-04-06T06:49:36.000Z</time>
      </trkpt>
      <trkpt lat="48.69" lon="1.9244">
        <ele>147.22</ele>
        <time>2008-04-06T06:49:37.000Z</time>
      </trkpt>
      <trkpt lat="48.69003" lon="1.92427">
        <ele>140.97</ele>
        <time>2008-04-06T06:49:43.000Z</time>
      </trkpt>
      <trkpt lat="48.69008" lon="1.92413">
        <ele>135.68</ele>
        <time>2008-04-06T06:49:48.000Z</time>
      </trkpt>
      <trkpt lat="48.69012" lon="1.92395">
        <ele>137.13</ele>
        <time>2008-04-06T06:49:54.000Z</time>
      </trkpt>
      <trkpt lat="48.69013" lon="1.9239">
        <ele>138.09</ele>
        <time>2008-04-06T06:49:55.000Z</time>
      </trkpt>
      <trkpt lat="48.69012" lon="1.92371">
        <ele>142.89</ele>
        <time>2008-04-06T06:49:59.000Z</time>
      </trkpt>
      <trkpt lat="48.69016" lon="1.92352">
        <ele>150.1</ele>
        <time>2008-04-06T06:50:04.000Z</time>
      </trkpt>
      <trkpt lat="48.69024" lon="1.92349">
        <ele>151.06</ele>
        <time>2008-04-06T06:50:09.000Z</time>
      </trkpt>
      <trkpt lat="48.69028" lon="1.92338">
        <ele>148.66</ele>
        <time>2008-04-06T06:50:14.000Z</time>
      </trkpt>
      <trkpt lat="48.69028" lon="1.92324">
        <ele>145.78</ele>
        <time>2008-04-06T06:50:19.000Z</time>
      </trkpt>
      <trkpt lat="48.69028" lon="1.92312">
        <ele>144.34</ele>
        <time>2008-04-06T06:50:23.000Z</time>
      </trkpt>
      <trkpt lat="48.69029" lon="1.92309">
        <ele>143.37</ele>
        <time>2008-04-06T06:50:24.000Z</time>
      </trkpt>
      <trkpt lat="48.6903" lon="1.92285">
        <ele>141.93</ele>
        <time>2008-04-06T06:50:30.000Z</time>
      </trkpt>
      <trkpt lat="48.69033" lon="1.92268">
        <ele>144.82</ele>
        <time>2008-04-06T06:50:34.000Z</time>
      </trkpt>
      <trkpt lat="48.69042" lon="1.92256">
        <ele>138.57</ele>
        <time>2008-04-06T06:50:40.000Z</time>
      </trkpt>
      <trkpt lat="48.69043" lon="1.92254">
        <ele>138.57</ele>
        <time>2008-04-06T06:50:41.000Z</time>
      </trkpt>
      <trkpt lat="48.69049" lon="1.92249">
        <ele>139.05</ele>
        <time>2008-04-06T06:50:47.000Z</time>
      </trkpt>
      <trkpt lat="48.69056" lon="1.92244">
        <ele>138.57</ele>
        <time>2008-04-06T06:50:53.000Z</time>
      </trkpt>
      <trkpt lat="48.69061" lon="1.9224">
        <ele>139.53</ele>
        <time>2008-04-06T06:50:58.000Z</time>
      </trkpt>
      <trkpt lat="48.69062" lon="1.92239">
        <ele>140.49</ele>
        <time>2008-04-06T06:50:59.000Z</time>
      </trkpt>
      <trkpt lat="48.69065" lon="1.92235">
        <ele>143.37</ele>
        <time>2008-04-06T06:51:04.000Z</time>
      </trkpt>
      <trkpt lat="48.69069" lon="1.9223">
        <ele>141.93</ele>
        <time>2008-04-06T06:51:08.000Z</time>
      </trkpt>
      <trkpt lat="48.69071" lon="1.92228">
        <ele>143.37</ele>
        <time>2008-04-06T06:51:10.000Z</time>
      </trkpt>
      <trkpt lat="48.69077" lon="1.92214">
        <ele>149.62</ele>
        <time>2008-04-06T06:51:18.000Z</time>
      </trkpt>
      <trkpt lat="48.69078" lon="1.9221">
        <ele>149.62</ele>
        <time>2008-04-06T06:51:21.000Z</time>
      </trkpt>
      <trkpt lat="48.69079" lon="1.92201">
        <ele>152.03</ele>
        <time>2008-04-06T06:51:26.000Z</time>
      </trkpt>
      <trkpt lat="48.69082" lon="1.92193">
        <ele>152.51</ele>
        <time>2008-04-06T06:51:34.000Z</time>
      </trkpt>
      <trkpt lat="48.69083" lon="1.92175">
        <ele>156.35</ele>
        <time>2008-04-06T06:51:44.000Z</time>
      </trkpt>
      <trkpt lat="48.69083" lon="1.92171">
        <ele>155.39</ele>
        <time>2008-04-06T06:51:47.000Z</time>
      </trkpt>
      <trkpt lat="48.69085" lon="1.92162">
        <ele>158.75</ele>
        <time>2008-04-06T06:51:54.000Z</time>
      </trkpt>
      <trkpt lat="48.69088" lon="1.92151">
        <ele>162.6</ele>
        <time>2008-04-06T06:52:00.000Z</time>
      </trkpt>
      <trkpt lat="48.69089" lon="1.92143">
        <ele>162.12</ele>
        <time>2008-04-06T06:52:04.000Z</time>
      </trkpt>
      <trkpt lat="48.69092" lon="1.92138">
        <ele>159.72</ele>
        <time>2008-04-06T06:52:07.000Z</time>
      </trkpt>
      <trkpt lat="48.6909" lon="1.92126">
        <ele>159.72</ele>
        <time>2008-04-06T06:52:12.000Z</time>
      </trkpt>
      <trkpt lat="48.69093" lon="1.92117">
        <ele>157.79</ele>
        <time>2008-04-06T06:52:15.000Z</time>
      </trkpt>
      <trkpt lat="48.69095" lon="1.92112">
        <ele>157.31</ele>
        <time>2008-04-06T06:52:17.000Z</time>
      </trkpt>
      <trkpt lat="48.69092" lon="1.921">
        <ele>150.1</ele>
        <time>2008-04-06T06:52:22.000Z</time>
      </trkpt>
      <trkpt lat="48.69092" lon="1.92094">
        <ele>148.18</ele>
        <time>2008-04-06T06:52:24.000Z</time>
      </trkpt>
      <trkpt lat="48.69091" lon="1.92088">
        <ele>145.78</ele>
        <time>2008-04-06T06:52:26.000Z</time>
      </trkpt>
      <trkpt lat="48.6909" lon="1.92069">
        <ele>142.89</ele>
        <time>2008-04-06T06:52:31.000Z</time>
      </trkpt>
      <trkpt lat="48.69093" lon="1.92056">
        <ele>140.49</ele>
        <time>2008-04-06T06:52:35.000Z</time>
      </trkpt>
      <trkpt lat="48.69096" lon="1.92052">
        <ele>140.01</ele>
        <time>2008-04-06T06:52:37.000Z</time>
      </trkpt>
      <trkpt lat="48.69103" lon="1.92039">
        <ele>141.93</ele>
        <time>2008-04-06T06:52:43.000Z</time>
      </trkpt>
      <trkpt lat="48.69107" lon="1.92029">
        <ele>140.49</ele>
        <time>2008-04-06T06:52:46.000Z</time>
      </trkpt>
      <trkpt lat="48.69109" lon="1.92014">
        <ele>143.37</ele>
        <time>2008-04-06T06:52:50.000Z</time>
      </trkpt>
      <trkpt lat="48.6911" lon="1.92004">
        <ele>141.93</ele>
        <time>2008-04-06T06:52:53.000Z</time>
      </trkpt>
      <trkpt lat="48.691" lon="1.91993">
        <ele>139.53</ele>
        <time>2008-04-06T06:52:58.000Z</time>
      </trkpt>
      <trkpt lat="48.69098" lon="1.91987">
        <ele>139.53</ele>
        <time>2008-04-06T06:53:00.000Z</time>
      </trkpt>
      <trkpt lat="48.69098" lon="1.91981">
        <ele>140.97</ele>
        <time>2008-04-06T06:53:03.000Z</time>
      </trkpt>
      <trkpt lat="48.691" lon="1.91971">
        <ele>147.22</ele>
        <time>2008-04-06T06:53:07.000Z</time>
      </trkpt>
      <trkpt lat="48.69102" lon="1.91967">
        <ele>146.74</ele>
        <time>2008-04-06T06:53:09.000Z</time>
      </trkpt>
      <trkpt lat="48.69107" lon="1.91956">
        <ele>144.82</ele>
        <time>2008-04-06T06:53:15.000Z</time>
      </trkpt>
      <trkpt lat="48.69114" lon="1.91947">
        <ele>145.78</ele>
        <time>2008-04-06T06:53:20.000Z</time>
      </trkpt>
      <trkpt lat="48.6912" lon="1.9194">
        <ele>146.26</ele>
        <time>2008-04-06T06:53:24.000Z</time>
      </trkpt>
      <trkpt lat="48.69129" lon="1.91938">
        <ele>145.78</ele>
        <time>2008-04-06T06:53:29.000Z</time>
      </trkpt>
      <trkpt lat="48.6914" lon="1.9194">
        <ele>145.78</ele>
        <time>2008-04-06T06:53:35.000Z</time>
      </trkpt>
      <trkpt lat="48.69142" lon="1.91941">
        <ele>145.3</ele>
        <time>2008-04-06T06:53:36.000Z</time>
      </trkpt>
      <trkpt lat="48.69155" lon="1.91936">
        <ele>148.18</ele>
        <time>2008-04-06T06:53:43.000Z</time>
      </trkpt>
      <trkpt lat="48.69166" lon="1.91941">
        <ele>147.22</ele>
        <time>2008-04-06T06:53:47.000Z</time>
      </trkpt>
      <trkpt lat="48.6917" lon="1.91943">
        <ele>147.22</ele>
        <time>2008-04-06T06:53:49.000Z</time>
      </trkpt>
      <trkpt lat="48.69173" lon="1.91938">
        <ele>147.7</ele>
        <time>2008-04-06T06:53:53.000Z</time>
      </trkpt>
      <trkpt lat="48.69174" lon="1.91931">
        <ele>149.14</ele>
        <time>2008-04-06T06:53:57.000Z</time>
      </trkpt>
      <trkpt lat="48.69171" lon="1.91912">
        <ele>155.39</ele>
        <time>2008-04-06T06:54:02.000Z</time>
      </trkpt>
      <trkpt lat="48.6917" lon="1.91891">
        <ele>158.27</ele>
        <time>2008-04-06T06:54:06.000Z</time>
      </trkpt>
      <trkpt lat="48.6918" lon="1.91866">
        <ele>160.2</ele>
        <time>2008-04-06T06:54:12.000Z</time>
      </trkpt>
      <trkpt lat="48.69187" lon="1.9185">
        <ele>161.64</ele>
        <time>2008-04-06T06:54:17.000Z</time>
      </trkpt>
      <trkpt lat="48.69198" lon="1.91835">
        <ele>156.35</ele>
        <time>2008-04-06T06:54:22.000Z</time>
      </trkpt>
      <trkpt lat="48.69209" lon="1.91826">
        <ele>152.03</ele>
        <time>2008-04-06T06:54:27.000Z</time>
      </trkpt>
      <trkpt lat="48.69213" lon="1.91821">
        <ele>150.58</ele>
        <time>2008-04-06T06:54:30.000Z</time>
      </trkpt>
      <trkpt lat="48.69218" lon="1.91814">
        <ele>148.66</ele>
        <time>2008-04-06T06:54:34.000Z</time>
      </trkpt>
      <trkpt lat="48.69227" lon="1.91808">
        <ele>150.58</ele>
        <time>2008-04-06T06:54:40.000Z</time>
      </trkpt>
      <trkpt lat="48.69234" lon="1.91808">
        <ele>148.66</ele>
        <time>2008-04-06T06:54:45.000Z</time>
      </trkpt>
      <trkpt lat="48.69241" lon="1.91802">
        <ele>148.66</ele>
        <time>2008-04-06T06:54:51.000Z</time>
      </trkpt>
      <trkpt lat="48.69247" lon="1.91797">
        <ele>151.06</ele>
        <time>2008-04-06T06:54:57.000Z</time>
      </trkpt>
      <trkpt lat="48.69249" lon="1.9179">
        <ele>152.99</ele>
        <time>2008-04-06T06:55:01.000Z</time>
      </trkpt>
      <trkpt lat="48.69254" lon="1.91781">
        <ele>151.54</ele>
        <time>2008-04-06T06:55:06.000Z</time>
      </trkpt>
      <trkpt lat="48.69254" lon="1.91762">
        <ele>146.74</ele>
        <time>2008-04-06T06:55:12.000Z</time>
      </trkpt>
      <trkpt lat="48.69257" lon="1.91748">
        <ele>141.93</ele>
        <time>2008-04-06T06:55:16.000Z</time>
      </trkpt>
      <trkpt lat="48.69262" lon="1.91733">
        <ele>139.05</ele>
        <time>2008-04-06T06:55:20.000Z</time>
      </trkpt>
      <trkpt lat="48.69265" lon="1.91712">
        <ele>135.2</ele>
        <time>2008-04-06T06:55:25.000Z</time>
      </trkpt>
      <trkpt lat="48.69268" lon="1.91702">
        <ele>133.76</ele>
        <time>2008-04-06T06:55:27.000Z</time>
      </trkpt>
      <trkpt lat="48.69279" lon="1.91697">
        <ele>133.28</ele>
        <time>2008-04-06T06:55:32.000Z</time>
      </trkpt>
      <trkpt lat="48.6928" lon="1.91691">
        <ele>138.09</ele>
        <time>2008-04-06T06:55:34.000Z</time>
      </trkpt>
      <trkpt lat="48.69287" lon="1.91689">
        <ele>140.97</ele>
        <time>2008-04-06T06:55:38.000Z</time>
      </trkpt>
      <trkpt lat="48.69294" lon="1.9168">
        <ele>143.85</ele>
        <time>2008-04-06T06:55:43.000Z</time>
      </trkpt>
      <trkpt lat="48.693" lon="1.91669">
        <ele>142.41</ele>
        <time>2008-04-06T06:55:47.000Z</time>
      </trkpt>
      <trkpt lat="48.69304" lon="1.91664">
        <ele>142.41</ele>
        <time>2008-04-06T06:55:49.000Z</time>
      </trkpt>
      <trkpt lat="48.6931" lon="1.91654">
        <ele>145.3</ele>
        <time>2008-04-06T06:55:55.000Z</time>
      </trkpt>
      <trkpt lat="48.69318" lon="1.9165">
        <ele>146.74</ele>
        <time>2008-04-06T06:56:02.000Z</time>
      </trkpt>
      <trkpt lat="48.69324" lon="1.91645">
        <ele>148.66</ele>
        <time>2008-04-06T06:56:07.000Z</time>
      </trkpt>
      <trkpt lat="48.69328" lon="1.91644">
        <ele>148.66</ele>
        <time>2008-04-06T06:56:11.000Z</time>
      </trkpt>
      <trkpt lat="48.69329" lon="1.91642">
        <ele>150.1</ele>
        <time>2008-04-06T06:56:13.000Z</time>
      </trkpt>
      <trkpt lat="48.69334" lon="1.91619">
        <ele>149.14</ele>
        <time>2008-04-06T06:56:19.000Z</time>
      </trkpt>
      <trkpt lat="48.69336" lon="1.91612">
        <ele>147.22</ele>
        <time>2008-04-06T06:56:21.000Z</time>
      </trkpt>
      <trkpt lat="48.69338" lon="1.91602">
        <ele>143.37</ele>
        <time>2008-04-06T06:56:24.000Z</time>
      </trkpt>
      <trkpt lat="48.69344" lon="1.91583">
        <ele>138.57</ele>
        <time>2008-04-06T06:56:30.000Z</time>
      </trkpt>
      <trkpt lat="48.69344" lon="1.91579">
        <ele>140.01</ele>
        <time>2008-04-06T06:56:31.000Z</time>
      </trkpt>
      <trkpt lat="48.69346" lon="1.91568">
        <ele>140.49</ele>
        <time>2008-04-06T06:56:34.000Z</time>
      </trkpt>
      <trkpt lat="48.69346" lon="1.9155">
        <ele>133.28</ele>
        <time>2008-04-06T06:56:40.000Z</time>
      </trkpt>
      <trkpt lat="48.69345" lon="1.91542">
        <ele>135.2</ele>
        <time>2008-04-06T06:56:42.000Z</time>
      </trkpt>
      <trkpt lat="48.69346" lon="1.91527">
        <ele>137.13</ele>
        <time>2008-04-06T06:56:47.000Z</time>
      </trkpt>
      <trkpt lat="48.69351" lon="1.91523">
        <ele>133.76</ele>
        <time>2008-04-06T06:56:50.000Z</time>
      </trkpt>
      <trkpt lat="48.69354" lon="1.91515">
        <ele>134.72</ele>
        <time>2008-04-06T06:56:54.000Z</time>
      </trkpt>
      <trkpt lat="48.69361" lon="1.91504">
        <ele>133.76</ele>
        <time>2008-04-06T06:56:59.000Z</time>
      </trkpt>
      <trkpt lat="48.69361" lon="1.91499">
        <ele>129.43</ele>
        <time>2008-04-06T06:57:03.000Z</time>
      </trkpt>
      <trkpt lat="48.69352" lon="1.91482">
        <ele>129.92</ele>
        <time>2008-04-06T06:57:08.000Z</time>
      </trkpt>
      <trkpt lat="48.69345" lon="1.91469">
        <ele>128.95</ele>
        <time>2008-04-06T06:57:12.000Z</time>
      </trkpt>
      <trkpt lat="48.69339" lon="1.91452">
        <ele>129.92</ele>
        <time>2008-04-06T06:57:16.000Z</time>
      </trkpt>
      <trkpt lat="48.69331" lon="1.9143">
        <ele>132.32</ele>
        <time>2008-04-06T06:57:21.000Z</time>
      </trkpt>
      <trkpt lat="48.69326" lon="1.91412">
        <ele>130.88</ele>
        <time>2008-04-06T06:57:25.000Z</time>
      </trkpt>
      <trkpt lat="48.69321" lon="1.91392">
        <ele>127.51</ele>
        <time>2008-04-06T06:57:30.000Z</time>
      </trkpt>
      <trkpt lat="48.69318" lon="1.91367">
        <ele>128.47</ele>
        <time>2008-04-06T06:57:36.000Z</time>
      </trkpt>
      <trkpt lat="48.69319" lon="1.91352">
        <ele>130.4</ele>
        <time>2008-04-06T06:57:40.000Z</time>
      </trkpt>
      <trkpt lat="48.69322" lon="1.9135">
        <ele>130.4</ele>
        <time>2008-04-06T06:57:42.000Z</time>
      </trkpt>
      <trkpt lat="48.69331" lon="1.91339">
        <ele>131.36</ele>
        <time>2008-04-06T06:57:47.000Z</time>
      </trkpt>
      <trkpt lat="48.69333" lon="1.91338">
        <ele>131.36</ele>
        <time>2008-04-06T06:57:48.000Z</time>
      </trkpt>
      <trkpt lat="48.69339" lon="1.91325">
        <ele>132.32</ele>
        <time>2008-04-06T06:57:54.000Z</time>
      </trkpt>
      <trkpt lat="48.69345" lon="1.91315">
        <ele>130.4</ele>
        <time>2008-04-06T06:57:58.000Z</time>
      </trkpt>
      <trkpt lat="48.6935" lon="1.91299">
        <ele>134.24</ele>
        <time>2008-04-06T06:58:04.000Z</time>
      </trkpt>
      <trkpt lat="48.69356" lon="1.91289">
        <ele>138.09</ele>
        <time>2008-04-06T06:58:08.000Z</time>
      </trkpt>
      <trkpt lat="48.69366" lon="1.91276">
        <ele>140.97</ele>
        <time>2008-04-06T06:58:14.000Z</time>
      </trkpt>
      <trkpt lat="48.69372" lon="1.91272">
        <ele>141.93</ele>
        <time>2008-04-06T06:58:17.000Z</time>
      </trkpt>
      <trkpt lat="48.69382" lon="1.9125">
        <ele>144.34</ele>
        <time>2008-04-06T06:58:24.000Z</time>
      </trkpt>
      <trkpt lat="48.69387" lon="1.9124">
        <ele>143.37</ele>
        <time>2008-04-06T06:58:27.000Z</time>
      </trkpt>
      <trkpt lat="48.69389" lon="1.91213">
        <ele>147.22</ele>
        <time>2008-04-06T06:58:33.000Z</time>
      </trkpt>
      <trkpt lat="48.69391" lon="1.91197">
        <ele>150.1</ele>
        <time>2008-04-06T06:58:36.000Z</time>
      </trkpt>
      <trkpt lat="48.69397" lon="1.91173">
        <ele>151.54</ele>
        <time>2008-04-06T06:58:43.000Z</time>
      </trkpt>
      <trkpt lat="48.69399" lon="1.91164">
        <ele>153.47</ele>
        <time>2008-04-06T06:58:45.000Z</time>
      </trkpt>
      <trkpt lat="48.69405" lon="1.91138">
        <ele>154.91</ele>
        <time>2008-04-06T06:58:51.000Z</time>
      </trkpt>
      <trkpt lat="48.69408" lon="1.91127">
        <ele>153.95</ele>
        <time>2008-04-06T06:58:54.000Z</time>
      </trkpt>
      <trkpt lat="48.69417" lon="1.91113">
        <ele>152.99</ele>
        <time>2008-04-06T06:58:59.000Z</time>
      </trkpt>
      <trkpt lat="48.69426" lon="1.91091">
        <ele>149.14</ele>
        <time>2008-04-06T06:59:05.000Z</time>
      </trkpt>
      <trkpt lat="48.69432" lon="1.91075">
        <ele>145.3</ele>
        <time>2008-04-06T06:59:09.000Z</time>
      </trkpt>
      <trkpt lat="48.6944" lon="1.91056">
        <ele>139.05</ele>
        <time>2008-04-06T06:59:14.000Z</time>
      </trkpt>
      <trkpt lat="48.69447" lon="1.91038">
        <ele>136.64</ele>
        <time>2008-04-06T06:59:19.000Z</time>
      </trkpt>
      <trkpt lat="48.6945" lon="1.91032">
        <ele>135.68</ele>
        <time>2008-04-06T06:59:21.000Z</time>
      </trkpt>
      <trkpt lat="48.69456" lon="1.9101">
        <ele>134.24</ele>
        <time>2008-04-06T06:59:27.000Z</time>
      </trkpt>
      <trkpt lat="48.69458" lon="1.91001">
        <ele>133.28</ele>
        <time>2008-04-06T06:59:30.000Z</time>
      </trkpt>
      <trkpt lat="48.69461" lon="1.90979">
        <ele>135.2</ele>
        <time>2008-04-06T06:59:35.000Z</time>
      </trkpt>
      <trkpt lat="48.69466" lon="1.90953">
        <ele>136.64</ele>
        <time>2008-04-06T06:59:42.000Z</time>
      </trkpt>
      <trkpt lat="48.69467" lon="1.90936">
        <ele>139.05</ele>
        <time>2008-04-06T06:59:46.000Z</time>
      </trkpt>
      <trkpt lat="48.69464" lon="1.90918">
        <ele>145.78</ele>
        <time>2008-04-06T06:59:50.000Z</time>
      </trkpt>
      <trkpt lat="48.69462" lon="1.90892">
        <ele>150.58</ele>
        <time>2008-04-06T06:59:55.000Z</time>
      </trkpt>
      <trkpt lat="48.69466" lon="1.90875">
        <ele>155.87</ele>
        <time>2008-04-06T06:59:59.000Z</time>
      </trkpt>
      <trkpt lat="48.69468" lon="1.90872">
        <ele>156.35</ele>
        <time>2008-04-06T07:00:00.000Z</time>
      </trkpt>
      <trkpt lat="48.69482" lon="1.90858">
        <ele>152.03</ele>
        <time>2008-04-06T07:00:06.000Z</time>
      </trkpt>
      <trkpt lat="48.69497" lon="1.90849">
        <ele>146.74</ele>
        <time>2008-04-06T07:00:11.000Z</time>
      </trkpt>
      <trkpt lat="48.69508" lon="1.9084">
        <ele>144.82</ele>
        <time>2008-04-06T07:00:15.000Z</time>
      </trkpt>
      <trkpt lat="48.69527" lon="1.90835">
        <ele>140.97</ele>
        <time>2008-04-06T07:00:21.000Z</time>
      </trkpt>
      <trkpt lat="48.69542" lon="1.90835">
        <ele>137.61</ele>
        <time>2008-04-06T07:00:26.000Z</time>
      </trkpt>
      <trkpt lat="48.6955" lon="1.90831">
        <ele>136.64</ele>
        <time>2008-04-06T07:00:30.000Z</time>
      </trkpt>
      <trkpt lat="48.69562" lon="1.90821">
        <ele>136.16</ele>
        <time>2008-04-06T07:00:35.000Z</time>
      </trkpt>
      <trkpt lat="48.6957" lon="1.90819">
        <ele>133.76</ele>
        <time>2008-04-06T07:00:38.000Z</time>
      </trkpt>
      <trkpt lat="48.69586" lon="1.90808">
        <ele>137.61</ele>
        <time>2008-04-06T07:00:44.000Z</time>
      </trkpt>
      <trkpt lat="48.69596" lon="1.90806">
        <ele>137.61</ele>
        <time>2008-04-06T07:00:48.000Z</time>
      </trkpt>
      <trkpt lat="48.69605" lon="1.90806">
        <ele>136.16</ele>
        <time>2008-04-06T07:00:52.000Z</time>
      </trkpt>
      <trkpt lat="48.69606" lon="1.90789">
        <ele>138.57</ele>
        <time>2008-04-06T07:00:57.000Z</time>
      </trkpt>
      <trkpt lat="48.69604" lon="1.90776">
        <ele>142.41</ele>
        <time>2008-04-06T07:01:00.000Z</time>
      </trkpt>
      <trkpt lat="48.69604" lon="1.90753">
        <ele>149.62</ele>
        <time>2008-04-06T07:01:06.000Z</time>
      </trkpt>
      <trkpt lat="48.69604" lon="1.90745">
        <ele>151.54</ele>
        <time>2008-04-06T07:01:08.000Z</time>
      </trkpt>
      <trkpt lat="48.69608" lon="1.90717">
        <ele>154.91</ele>
        <time>2008-04-06T07:01:14.000Z</time>
      </trkpt>
      <trkpt lat="48.69609" lon="1.90706">
        <ele>151.54</ele>
        <time>2008-04-06T07:01:18.000Z</time>
      </trkpt>
      <trkpt lat="48.69608" lon="1.90703">
        <ele>151.54</ele>
        <time>2008-04-06T07:01:19.000Z</time>
      </trkpt>
      <trkpt lat="48.69608" lon="1.9069">
        <ele>149.62</ele>
        <time>2008-04-06T07:01:24.000Z</time>
      </trkpt>
      <trkpt lat="48.6961" lon="1.90666">
        <ele>152.03</ele>
        <time>2008-04-06T07:01:30.000Z</time>
      </trkpt>
      <trkpt lat="48.69613" lon="1.90651">
        <ele>152.51</ele>
        <time>2008-04-06T07:01:34.000Z</time>
      </trkpt>
      <trkpt lat="48.69617" lon="1.90639">
        <ele>153.47</ele>
        <time>2008-04-06T07:01:38.000Z</time>
      </trkpt>
      <trkpt lat="48.6962" lon="1.90628">
        <ele>153.47</ele>
        <time>2008-04-06T07:01:41.000Z</time>
      </trkpt>
      <trkpt lat="48.69621" lon="1.90616">
        <ele>155.87</ele>
        <time>2008-04-06T07:01:44.000Z</time>
      </trkpt>
      <trkpt lat="48.69629" lon="1.90602">
        <ele>152.99</ele>
        <time>2008-04-06T07:01:49.000Z</time>
      </trkpt>
      <trkpt lat="48.69635" lon="1.90585">
        <ele>151.06</ele>
        <time>2008-04-06T07:01:54.000Z</time>
      </trkpt>
      <trkpt lat="48.69646" lon="1.90571">
        <ele>149.14</ele>
        <time>2008-04-06T07:02:00.000Z</time>
      </trkpt>
      <trkpt lat="48.6965" lon="1.90566">
        <ele>150.58</ele>
        <time>2008-04-06T07:02:02.000Z</time>
      </trkpt>
      <trkpt lat="48.69659" lon="1.90555">
        <ele>152.99</ele>
        <time>2008-04-06T07:02:07.000Z</time>
      </trkpt>
      <trkpt lat="48.69666" lon="1.90547">
        <ele>152.51</ele>
        <time>2008-04-06T07:02:10.000Z</time>
      </trkpt>
      <trkpt lat="48.69678" lon="1.90536">
        <ele>150.58</ele>
        <time>2008-04-06T07:02:15.000Z</time>
      </trkpt>
      <trkpt lat="48.6969" lon="1.90527">
        <ele>149.62</ele>
        <time>2008-04-06T07:02:20.000Z</time>
      </trkpt>
      <trkpt lat="48.69698" lon="1.90516">
        <ele>147.7</ele>
        <time>2008-04-06T07:02:24.000Z</time>
      </trkpt>
      <trkpt lat="48.69709" lon="1.90503">
        <ele>146.74</ele>
        <time>2008-04-06T07:02:29.000Z</time>
      </trkpt>
      <trkpt lat="48.69717" lon="1.90487">
        <ele>150.1</ele>
        <time>2008-04-06T07:02:34.000Z</time>
      </trkpt>
      <trkpt lat="48.69719" lon="1.90484">
        <ele>149.62</ele>
        <time>2008-04-06T07:02:35.000Z</time>
      </trkpt>
      <trkpt lat="48.69724" lon="1.90482">
        <ele>148.18</ele>
        <time>2008-04-06T07:02:37.000Z</time>
      </trkpt>
      <trkpt lat="48.69735" lon="1.90475">
        <ele>147.22</ele>
        <time>2008-04-06T07:02:42.000Z</time>
      </trkpt>
      <trkpt lat="48.6975" lon="1.90468">
        <ele>144.34</ele>
        <time>2008-04-06T07:02:47.000Z</time>
      </trkpt>
      <trkpt lat="48.69753" lon="1.90468">
        <ele>144.82</ele>
        <time>2008-04-06T07:02:48.000Z</time>
      </trkpt>
      <trkpt lat="48.69761" lon="1.90463">
        <ele>146.74</ele>
        <time>2008-04-06T07:02:52.000Z</time>
      </trkpt>
      <trkpt lat="48.69779" lon="1.9046">
        <ele>144.82</ele>
        <time>2008-04-06T07:02:58.000Z</time>
      </trkpt>
      <trkpt lat="48.69785" lon="1.9046">
        <ele>145.3</ele>
        <time>2008-04-06T07:03:00.000Z</time>
      </trkpt>
      <trkpt lat="48.69808" lon="1.90459">
        <ele>141.93</ele>
        <time>2008-04-06T07:03:07.000Z</time>
      </trkpt>
      <trkpt lat="48.69821" lon="1.90462">
        <ele>140.49</ele>
        <time>2008-04-06T07:03:12.000Z</time>
      </trkpt>
      <trkpt lat="48.69835" lon="1.9047">
        <ele>143.85</ele>
        <time>2008-04-06T07:03:18.000Z</time>
      </trkpt>
      <trkpt lat="48.6985" lon="1.90473">
        <ele>145.3</ele>
        <time>2008-04-06T07:03:23.000Z</time>
      </trkpt>
      <trkpt lat="48.69865" lon="1.90479">
        <ele>144.82</ele>
        <time>2008-04-06T07:03:28.000Z</time>
      </trkpt>
      <trkpt lat="48.69881" lon="1.90486">
        <ele>146.26</ele>
        <time>2008-04-06T07:03:33.000Z</time>
      </trkpt>
      <trkpt lat="48.69885" lon="1.90487">
        <ele>147.22</ele>
        <time>2008-04-06T07:03:34.000Z</time>
      </trkpt>
      <trkpt lat="48.699" lon="1.9049">
        <ele>139.05</ele>
        <time>2008-04-06T07:03:39.000Z</time>
      </trkpt>
      <trkpt lat="48.69904" lon="1.90498">
        <ele>144.34</ele>
        <time>2008-04-06T07:04:06.000Z</time>
      </trkpt>
      <trkpt lat="48.69912" lon="1.90503">
        <ele>147.7</ele>
        <time>2008-04-06T07:04:11.000Z</time>
      </trkpt>
      <trkpt lat="48.69915" lon="1.90506">
        <ele>147.22</ele>
        <time>2008-04-06T07:04:13.000Z</time>
      </trkpt>
      <trkpt lat="48.69928" lon="1.90513">
        <ele>143.85</ele>
        <time>2008-04-06T07:04:18.000Z</time>
      </trkpt>
      <trkpt lat="48.69941" lon="1.90516">
        <ele>142.89</ele>
        <time>2008-04-06T07:04:22.000Z</time>
      </trkpt>
      <trkpt lat="48.69947" lon="1.9052">
        <ele>144.82</ele>
        <time>2008-04-06T07:04:24.000Z</time>
      </trkpt>
      <trkpt lat="48.69971" lon="1.9053">
        <ele>150.58</ele>
        <time>2008-04-06T07:04:30.000Z</time>
      </trkpt>
      <trkpt lat="48.69981" lon="1.90542">
        <ele>153.47</ele>
        <time>2008-04-06T07:04:34.000Z</time>
      </trkpt>
      <trkpt lat="48.6999" lon="1.90554">
        <ele>150.58</ele>
        <time>2008-04-06T07:04:39.000Z</time>
      </trkpt>
      <trkpt lat="48.69996" lon="1.90557">
        <ele>146.26</ele>
        <time>2008-04-06T07:04:42.000Z</time>
      </trkpt>
      <trkpt lat="48.70006" lon="1.90555">
        <ele>138.57</ele>
        <time>2008-04-06T07:04:47.000Z</time>
      </trkpt>
      <trkpt lat="48.70019" lon="1.90555">
        <ele>133.76</ele>
        <time>2008-04-06T07:04:52.000Z</time>
      </trkpt>
      <trkpt lat="48.70026" lon="1.90554">
        <ele>130.88</ele>
        <time>2008-04-06T07:04:56.000Z</time>
      </trkpt>
      <trkpt lat="48.70037" lon="1.90558">
        <ele>131.84</ele>
        <time>2008-04-06T07:05:01.000Z</time>
      </trkpt>
      <trkpt lat="48.70036" lon="1.90545">
        <ele>135.2</ele>
        <time>2008-04-06T07:05:05.000Z</time>
      </trkpt>
      <trkpt lat="48.70031" lon="1.90532">
        <ele>139.05</ele>
        <time>2008-04-06T07:05:09.000Z</time>
      </trkpt>
      <trkpt lat="48.70031" lon="1.90514">
        <ele>140.97</ele>
        <time>2008-04-06T07:05:13.000Z</time>
      </trkpt>
      <trkpt lat="48.70029" lon="1.90502">
        <ele>140.49</ele>
        <time>2008-04-06T07:05:16.000Z</time>
      </trkpt>
      <trkpt lat="48.70024" lon="1.9049">
        <ele>142.41</ele>
        <time>2008-04-06T07:05:21.000Z</time>
      </trkpt>
      <trkpt lat="48.70023" lon="1.90466">
        <ele>147.7</ele>
        <time>2008-04-06T07:05:27.000Z</time>
      </trkpt>
      <trkpt lat="48.7002" lon="1.90461">
        <ele>149.62</ele>
        <time>2008-04-06T07:05:29.000Z</time>
      </trkpt>
      <trkpt lat="48.70018" lon="1.90447">
        <ele>152.99</ele>
        <time>2008-04-06T07:05:33.000Z</time>
      </trkpt>
      <trkpt lat="48.70016" lon="1.90427">
        <ele>150.1</ele>
        <time>2008-04-06T07:05:39.000Z</time>
      </trkpt>
      <trkpt lat="48.70012" lon="1.90408">
        <ele>146.26</ele>
        <time>2008-04-06T07:05:44.000Z</time>
      </trkpt>
      <trkpt lat="48.70006" lon="1.9039">
        <ele>144.82</ele>
        <time>2008-04-06T07:05:49.000Z</time>
      </trkpt>
      <trkpt lat="48.7" lon="1.90371">
        <ele>149.62</ele>
        <time>2008-04-06T07:05:53.000Z</time>
      </trkpt>
      <trkpt lat="48.69997" lon="1.90349">
        <ele>153.95</ele>
        <time>2008-04-06T07:05:57.000Z</time>
      </trkpt>
      <trkpt lat="48.69995" lon="1.90338">
        <ele>155.87</ele>
        <time>2008-04-06T07:06:00.000Z</time>
      </trkpt>
      <trkpt lat="48.69992" lon="1.90324">
        <ele>158.27</ele>
        <time>2008-04-06T07:06:04.000Z</time>
      </trkpt>
      <trkpt lat="48.69991" lon="1.90283">
        <ele>157.79</ele>
        <time>2008-04-06T07:06:12.000Z</time>
      </trkpt>
      <trkpt lat="48.69991" lon="1.90269">
        <ele>157.31</ele>
        <time>2008-04-06T07:06:15.000Z</time>
      </trkpt>
      <trkpt lat="48.69994" lon="1.90255">
        <ele>155.87</ele>
        <time>2008-04-06T07:06:19.000Z</time>
      </trkpt>
      <trkpt lat="48.69998" lon="1.90233">
        <ele>158.27</ele>
        <time>2008-04-06T07:06:25.000Z</time>
      </trkpt>
      <trkpt lat="48.69999" lon="1.90228">
        <ele>157.79</ele>
        <time>2008-04-06T07:06:26.000Z</time>
      </trkpt>
      <trkpt lat="48.70002" lon="1.902">
        <ele>160.2</ele>
        <time>2008-04-06T07:06:32.000Z</time>
      </trkpt>
      <trkpt lat="48.70003" lon="1.90195">
        <ele>159.72</ele>
        <time>2008-04-06T07:06:33.000Z</time>
      </trkpt>
      <trkpt lat="48.70002" lon="1.90169">
        <ele>161.64</ele>
        <time>2008-04-06T07:06:39.000Z</time>
      </trkpt>
      <trkpt lat="48.70004" lon="1.90153">
        <ele>159.24</ele>
        <time>2008-04-06T07:06:43.000Z</time>
      </trkpt>
      <trkpt lat="48.70006" lon="1.90141">
        <ele>156.35</ele>
        <time>2008-04-06T07:06:46.000Z</time>
      </trkpt>
      <trkpt lat="48.70007" lon="1.90112">
        <ele>152.99</ele>
        <time>2008-04-06T07:06:52.000Z</time>
      </trkpt>
      <trkpt lat="48.70007" lon="1.90096">
        <ele>148.66</ele>
        <time>2008-04-06T07:06:57.000Z</time>
      </trkpt>
      <trkpt lat="48.70009" lon="1.90077">
        <ele>142.89</ele>
        <time>2008-04-06T07:07:02.000Z</time>
      </trkpt>
      <trkpt lat="48.70011" lon="1.90053">
        <ele>137.13</ele>
        <time>2008-04-06T07:07:07.000Z</time>
      </trkpt>
      <trkpt lat="48.70009" lon="1.90035">
        <ele>135.68</ele>
        <time>2008-04-06T07:07:11.000Z</time>
      </trkpt>
      <trkpt lat="48.70009" lon="1.9002">
        <ele>135.2</ele>
        <time>2008-04-06T07:07:15.000Z</time>
      </trkpt>
      <trkpt lat="48.70009" lon="1.90001">
        <ele>137.13</ele>
        <time>2008-04-06T07:07:20.000Z</time>
      </trkpt>
      <trkpt lat="48.70009" lon="1.89985">
        <ele>136.64</ele>
        <time>2008-04-06T07:07:24.000Z</time>
      </trkpt>
      <trkpt lat="48.70003" lon="1.89961">
        <ele>150.1</ele>
        <time>2008-04-06T07:07:29.000Z</time>
      </trkpt>
      <trkpt lat="48.70004" lon="1.89941">
        <ele>154.91</ele>
        <time>2008-04-06T07:07:33.000Z</time>
      </trkpt>
      <trkpt lat="48.70004" lon="1.89922">
        <ele>156.35</ele>
        <time>2008-04-06T07:07:38.000Z</time>
      </trkpt>
      <trkpt lat="48.70004" lon="1.8992">
        <ele>154.91</ele>
        <time>2008-04-06T07:07:39.000Z</time>
      </trkpt>
      <trkpt lat="48.70007" lon="1.899">
        <ele>154.91</ele>
        <time>2008-04-06T07:07:44.000Z</time>
      </trkpt>
      <trkpt lat="48.70008" lon="1.89896">
        <ele>154.91</ele>
        <time>2008-04-06T07:07:45.000Z</time>
      </trkpt>
      <trkpt lat="48.70026" lon="1.89887">
        <ele>143.37</ele>
        <time>2008-04-06T07:07:50.000Z</time>
      </trkpt>
      <trkpt lat="48.70029" lon="1.89886">
        <ele>141.93</ele>
        <time>2008-04-06T07:07:51.000Z</time>
      </trkpt>
      <trkpt lat="48.70045" lon="1.89876">
        <ele>141.93</ele>
        <time>2008-04-06T07:07:57.000Z</time>
      </trkpt>
      <trkpt lat="48.70056" lon="1.89865">
        <ele>141.45</ele>
        <time>2008-04-06T07:08:02.000Z</time>
      </trkpt>
      <trkpt lat="48.70068" lon="1.89848">
        <ele>140.01</ele>
        <time>2008-04-06T07:08:07.000Z</time>
      </trkpt>
      <trkpt lat="48.70077" lon="1.89839">
        <ele>142.41</ele>
        <time>2008-04-06T07:08:11.000Z</time>
      </trkpt>
      <trkpt lat="48.70083" lon="1.8983">
        <ele>145.3</ele>
        <time>2008-04-06T07:08:14.000Z</time>
      </trkpt>
      <trkpt lat="48.70085" lon="1.89813">
        <ele>152.51</ele>
        <time>2008-04-06T07:08:19.000Z</time>
      </trkpt>
      <trkpt lat="48.70086" lon="1.89792">
        <ele>157.79</ele>
        <time>2008-04-06T07:08:24.000Z</time>
      </trkpt>
      <trkpt lat="48.70088" lon="1.89775">
        <ele>157.79</ele>
        <time>2008-04-06T07:08:28.000Z</time>
      </trkpt>
      <trkpt lat="48.70092" lon="1.89764">
        <ele>158.75</ele>
        <time>2008-04-06T07:08:32.000Z</time>
      </trkpt>
      <trkpt lat="48.70105" lon="1.89749">
        <ele>150.58</ele>
        <time>2008-04-06T07:08:38.000Z</time>
      </trkpt>
      <trkpt lat="48.70114" lon="1.8974">
        <ele>147.22</ele>
        <time>2008-04-06T07:08:42.000Z</time>
      </trkpt>
      <trkpt lat="48.7012" lon="1.89737">
        <ele>143.85</ele>
        <time>2008-04-06T07:08:44.000Z</time>
      </trkpt>
      <trkpt lat="48.70134" lon="1.89734">
        <ele>141.93</ele>
        <time>2008-04-06T07:08:49.000Z</time>
      </trkpt>
      <trkpt lat="48.70145" lon="1.89735">
        <ele>137.61</ele>
        <time>2008-04-06T07:08:52.000Z</time>
      </trkpt>
      <trkpt lat="48.70163" lon="1.89733">
        <ele>132.32</ele>
        <time>2008-04-06T07:08:58.000Z</time>
      </trkpt>
      <trkpt lat="48.70175" lon="1.89723">
        <ele>128.95</ele>
        <time>2008-04-06T07:09:03.000Z</time>
      </trkpt>
      <trkpt lat="48.70187" lon="1.89709">
        <ele>128.95</ele>
        <time>2008-04-06T07:09:08.000Z</time>
      </trkpt>
      <trkpt lat="48.70195" lon="1.89703">
        <ele>132.8</ele>
        <time>2008-04-06T07:09:12.000Z</time>
      </trkpt>
      <trkpt lat="48.702" lon="1.89697">
        <ele>142.89</ele>
        <time>2008-04-06T07:09:15.000Z</time>
      </trkpt>
      <trkpt lat="48.70211" lon="1.8968">
        <ele>153.95</ele>
        <time>2008-04-06T07:09:21.000Z</time>
      </trkpt>
      <trkpt lat="48.70216" lon="1.89666">
        <ele>159.72</ele>
        <time>2008-04-06T07:09:24.000Z</time>
      </trkpt>
      <trkpt lat="48.70227" lon="1.89646">
        <ele>167.41</ele>
        <time>2008-04-06T07:09:29.000Z</time>
      </trkpt>
      <trkpt lat="48.70238" lon="1.89628">
        <ele>168.37</ele>
        <time>2008-04-06T07:09:35.000Z</time>
      </trkpt>
      <trkpt lat="48.70243" lon="1.8962">
        <ele>167.41</ele>
        <time>2008-04-06T07:09:38.000Z</time>
      </trkpt>
      <trkpt lat="48.70252" lon="1.89601">
        <ele>165.96</ele>
        <time>2008-04-06T07:09:44.000Z</time>
      </trkpt>
      <trkpt lat="48.70254" lon="1.896">
        <ele>166.45</ele>
        <time>2008-04-06T07:09:45.000Z</time>
      </trkpt>
      <trkpt lat="48.70256" lon="1.89594">
        <ele>168.85</ele>
        <time>2008-04-06T07:09:49.000Z</time>
      </trkpt>
      <trkpt lat="48.70267" lon="1.89582">
        <ele>166.45</ele>
        <time>2008-04-06T07:09:53.000Z</time>
      </trkpt>
      <trkpt lat="48.70285" lon="1.89573">
        <ele>165</ele>
        <time>2008-04-06T07:09:58.000Z</time>
      </trkpt>
      <trkpt lat="48.70298" lon="1.89569">
        <ele>162.6</ele>
        <time>2008-04-06T07:10:02.000Z</time>
      </trkpt>
      <trkpt lat="48.7031" lon="1.8956">
        <ele>162.12</ele>
        <time>2008-04-06T07:10:07.000Z</time>
      </trkpt>
      <trkpt lat="48.70319" lon="1.89546">
        <ele>161.16</ele>
        <time>2008-04-06T07:10:11.000Z</time>
      </trkpt>
      <trkpt lat="48.70329" lon="1.89522">
        <ele>159.24</ele>
        <time>2008-04-06T07:10:16.000Z</time>
      </trkpt>
      <trkpt lat="48.70334" lon="1.89502">
        <ele>160.2</ele>
        <time>2008-04-06T07:10:21.000Z</time>
      </trkpt>
      <trkpt lat="48.70333" lon="1.8949">
        <ele>163.08</ele>
        <time>2008-04-06T07:10:26.000Z</time>
      </trkpt>
      <trkpt lat="48.70324" lon="1.89474">
        <ele>164.52</ele>
        <time>2008-04-06T07:10:31.000Z</time>
      </trkpt>
      <trkpt lat="48.70318" lon="1.8946">
        <ele>153.95</ele>
        <time>2008-04-06T07:10:37.000Z</time>
      </trkpt>
      <trkpt lat="48.7031" lon="1.89444">
        <ele>150.1</ele>
        <time>2008-04-06T07:10:42.000Z</time>
      </trkpt>
      <trkpt lat="48.70307" lon="1.89437">
        <ele>147.7</ele>
        <time>2008-04-06T07:10:44.000Z</time>
      </trkpt>
      <trkpt lat="48.70299" lon="1.89423">
        <ele>147.7</ele>
        <time>2008-04-06T07:10:49.000Z</time>
      </trkpt>
      <trkpt lat="48.70296" lon="1.89389">
        <ele>145.3</ele>
        <time>2008-04-06T07:10:56.000Z</time>
      </trkpt>
      <trkpt lat="48.70293" lon="1.89362">
        <ele>146.74</ele>
        <time>2008-04-06T07:11:02.000Z</time>
      </trkpt>
      <trkpt lat="48.70288" lon="1.89342">
        <ele>148.66</ele>
        <time>2008-04-06T07:11:07.000Z</time>
      </trkpt>
      <trkpt lat="48.70283" lon="1.89325">
        <ele>143.37</ele>
        <time>2008-04-06T07:11:12.000Z</time>
      </trkpt>
      <trkpt lat="48.70272" lon="1.89312">
        <ele>141.93</ele>
        <time>2008-04-06T07:11:17.000Z</time>
      </trkpt>
      <trkpt lat="48.70263" lon="1.89302">
        <ele>140.49</ele>
        <time>2008-04-06T07:11:21.000Z</time>
      </trkpt>
      <trkpt lat="48.70257" lon="1.89291">
        <ele>139.53</ele>
        <time>2008-04-06T07:11:25.000Z</time>
      </trkpt>
      <trkpt lat="48.70255" lon="1.89287">
        <ele>140.01</ele>
        <time>2008-04-06T07:11:30.000Z</time>
      </trkpt>
      <trkpt lat="48.70254" lon="1.89285">
        <ele>140.01</ele>
        <time>2008-04-06T07:11:32.000Z</time>
      </trkpt>
      <trkpt lat="48.70246" lon="1.89274">
        <ele>137.61</ele>
        <time>2008-04-06T07:11:39.000Z</time>
      </trkpt>
      <trkpt lat="48.7024" lon="1.89268">
        <ele>136.64</ele>
        <time>2008-04-06T07:11:45.000Z</time>
      </trkpt>
      <trkpt lat="48.70236" lon="1.89272">
        <ele>138.09</ele>
        <time>2008-04-06T07:11:51.000Z</time>
      </trkpt>
      <trkpt lat="48.70235" lon="1.89273">
        <ele>140.97</ele>
        <time>2008-04-06T07:11:57.000Z</time>
      </trkpt>
      <trkpt lat="48.70234" lon="1.89274">
        <ele>143.37</ele>
        <time>2008-04-06T07:12:11.000Z</time>
      </trkpt>
      <trkpt lat="48.70233" lon="1.89274">
        <ele>143.37</ele>
        <time>2008-04-06T07:12:21.000Z</time>
      </trkpt>
      <trkpt lat="48.70235" lon="1.89275">
        <ele>142.41</ele>
        <time>2008-04-06T07:12:34.000Z</time>
      </trkpt>
      <trkpt lat="48.7024" lon="1.89288">
        <ele>141.45</ele>
        <time>2008-04-06T07:12:41.000Z</time>
      </trkpt>
      <trkpt lat="48.70242" lon="1.89294">
        <ele>140.49</ele>
        <time>2008-04-06T07:12:44.000Z</time>
      </trkpt>
      <trkpt lat="48.70241" lon="1.89301">
        <ele>140.01</ele>
        <time>2008-04-06T07:12:50.000Z</time>
      </trkpt>
      <trkpt lat="48.7024" lon="1.89293">
        <ele>137.13</ele>
        <time>2008-04-06T07:12:53.000Z</time>
      </trkpt>
      <trkpt lat="48.70237" lon="1.89285">
        <ele>139.53</ele>
        <time>2008-04-06T07:12:56.000Z</time>
      </trkpt>
      <trkpt lat="48.70237" lon="1.89276">
        <ele>140.49</ele>
        <time>2008-04-06T07:13:02.000Z</time>
      </trkpt>
      <trkpt lat="48.70236" lon="1.89278">
        <ele>148.18</ele>
        <time>2008-04-06T07:13:08.000Z</time>
      </trkpt>
      <trkpt lat="48.70236" lon="1.8928">
        <ele>149.14</ele>
        <time>2008-04-06T07:13:10.000Z</time>
      </trkpt>
      <trkpt lat="48.70239" lon="1.89292">
        <ele>148.66</ele>
        <time>2008-04-06T07:13:17.000Z</time>
      </trkpt>
      <trkpt lat="48.70241" lon="1.89305">
        <ele>143.37</ele>
        <time>2008-04-06T07:13:24.000Z</time>
      </trkpt>
      <trkpt lat="48.70241" lon="1.89318">
        <ele>143.37</ele>
        <time>2008-04-06T07:13:30.000Z</time>
      </trkpt>
      <trkpt lat="48.70241" lon="1.89319">
        <ele>143.37</ele>
        <time>2008-04-06T07:13:31.000Z</time>
      </trkpt>
      <trkpt lat="48.70241" lon="1.8933">
        <ele>144.82</ele>
        <time>2008-04-06T07:13:35.000Z</time>
      </trkpt>
      <trkpt lat="48.70244" lon="1.89362">
        <ele>141.93</ele>
        <time>2008-04-06T07:13:41.000Z</time>
      </trkpt>
      <trkpt lat="48.70238" lon="1.89375">
        <ele>140.97</ele>
        <time>2008-04-06T07:13:45.000Z</time>
      </trkpt>
      <trkpt lat="48.70232" lon="1.89383">
        <ele>138.09</ele>
        <time>2008-04-06T07:13:48.000Z</time>
      </trkpt>
      <trkpt lat="48.70225" lon="1.89398">
        <ele>137.61</ele>
        <time>2008-04-06T07:13:52.000Z</time>
      </trkpt>
      <trkpt lat="48.70211" lon="1.89407">
        <ele>136.64</ele>
        <time>2008-04-06T07:13:57.000Z</time>
      </trkpt>
      <trkpt lat="48.70193" lon="1.89422">
        <ele>137.13</ele>
        <time>2008-04-06T07:14:04.000Z</time>
      </trkpt>
      <trkpt lat="48.70185" lon="1.89428">
        <ele>136.64</ele>
        <time>2008-04-06T07:14:07.000Z</time>
      </trkpt>
      <trkpt lat="48.70175" lon="1.89434">
        <ele>135.68</ele>
        <time>2008-04-06T07:14:11.000Z</time>
      </trkpt>
      <trkpt lat="48.70169" lon="1.89436">
        <ele>135.2</ele>
        <time>2008-04-06T07:14:13.000Z</time>
      </trkpt>
      <trkpt lat="48.70164" lon="1.89439">
        <ele>135.2</ele>
        <time>2008-04-06T07:14:15.000Z</time>
      </trkpt>
      <trkpt lat="48.70155" lon="1.89448">
        <ele>135.2</ele>
        <time>2008-04-06T07:14:19.000Z</time>
      </trkpt>
      <trkpt lat="48.70146" lon="1.89458">
        <ele>135.68</ele>
        <time>2008-04-06T07:14:23.000Z</time>
      </trkpt>
      <trkpt lat="48.70139" lon="1.89463">
        <ele>135.68</ele>
        <time>2008-04-06T07:14:26.000Z</time>
      </trkpt>
      <trkpt lat="48.70124" lon="1.89472">
        <ele>134.72</ele>
        <time>2008-04-06T07:14:32.000Z</time>
      </trkpt>
      <trkpt lat="48.70123" lon="1.89472">
        <ele>134.72</ele>
        <time>2008-04-06T07:14:33.000Z</time>
      </trkpt>
      <trkpt lat="48.70104" lon="1.89485">
        <ele>137.13</ele>
        <time>2008-04-06T07:14:40.000Z</time>
      </trkpt>
      <trkpt lat="48.70094" lon="1.89497">
        <ele>139.05</ele>
        <time>2008-04-06T07:14:46.000Z</time>
      </trkpt>
      <trkpt lat="48.70083" lon="1.89503">
        <ele>139.53</ele>
        <time>2008-04-06T07:14:50.000Z</time>
      </trkpt>
      <trkpt lat="48.7007" lon="1.89516">
        <ele>140.97</ele>
        <time>2008-04-06T07:14:55.000Z</time>
      </trkpt>
      <trkpt lat="48.70059" lon="1.89528">
        <ele>142.41</ele>
        <time>2008-04-06T07:15:00.000Z</time>
      </trkpt>
      <trkpt lat="48.70049" lon="1.89538">
        <ele>142.41</ele>
        <time>2008-04-06T07:15:04.000Z</time>
      </trkpt>
      <trkpt lat="48.70039" lon="1.89547">
        <ele>141.93</ele>
        <time>2008-04-06T07:15:08.000Z</time>
      </trkpt>
      <trkpt lat="48.70027" lon="1.89563">
        <ele>141.45</ele>
        <time>2008-04-06T07:15:13.000Z</time>
      </trkpt>
      <trkpt lat="48.70018" lon="1.89572">
        <ele>141.45</ele>
        <time>2008-04-06T07:15:17.000Z</time>
      </trkpt>
      <trkpt lat="48.70015" lon="1.89576">
        <ele>141.45</ele>
        <time>2008-04-06T07:15:19.000Z</time>
      </trkpt>
      <trkpt lat="48.70008" lon="1.8958">
        <ele>141.93</ele>
        <time>2008-04-06T07:15:22.000Z</time>
      </trkpt>
      <trkpt lat="48.69995" lon="1.89587">
        <ele>142.41</ele>
        <time>2008-04-06T07:15:27.000Z</time>
      </trkpt>
      <trkpt lat="48.6998" lon="1.89591">
        <ele>143.37</ele>
        <time>2008-04-06T07:15:33.000Z</time>
      </trkpt>
      <trkpt lat="48.69974" lon="1.89588">
        <ele>143.85</ele>
        <time>2008-04-06T07:15:36.000Z</time>
      </trkpt>
      <trkpt lat="48.69963" lon="1.89584">
        <ele>142.41</ele>
        <time>2008-04-06T07:15:41.000Z</time>
      </trkpt>
      <trkpt lat="48.6995" lon="1.89581">
        <ele>142.89</ele>
        <time>2008-04-06T07:15:46.000Z</time>
      </trkpt>
      <trkpt lat="48.69929" lon="1.89572">
        <ele>145.3</ele>
        <time>2008-04-06T07:15:53.000Z</time>
      </trkpt>
      <trkpt lat="48.69912" lon="1.89564">
        <ele>149.14</ele>
        <time>2008-04-06T07:15:58.000Z</time>
      </trkpt>
      <trkpt lat="48.69902" lon="1.89563">
        <ele>148.18</ele>
        <time>2008-04-06T07:16:02.000Z</time>
      </trkpt>
      <trkpt lat="48.6989" lon="1.89564">
        <ele>147.7</ele>
        <time>2008-04-06T07:16:07.000Z</time>
      </trkpt>
      <trkpt lat="48.6988" lon="1.89569">
        <ele>148.18</ele>
        <time>2008-04-06T07:16:11.000Z</time>
      </trkpt>
      <trkpt lat="48.69867" lon="1.89575">
        <ele>147.7</ele>
        <time>2008-04-06T07:16:16.000Z</time>
      </trkpt>
      <trkpt lat="48.69857" lon="1.89581">
        <ele>148.18</ele>
        <time>2008-04-06T07:16:20.000Z</time>
      </trkpt>
      <trkpt lat="48.69847" lon="1.89588">
        <ele>147.22</ele>
        <time>2008-04-06T07:16:24.000Z</time>
      </trkpt>
      <trkpt lat="48.69838" lon="1.89595">
        <ele>149.14</ele>
        <time>2008-04-06T07:16:28.000Z</time>
      </trkpt>
      <trkpt lat="48.69829" lon="1.89601">
        <ele>148.66</ele>
        <time>2008-04-06T07:16:32.000Z</time>
      </trkpt>
      <trkpt lat="48.69826" lon="1.89603">
        <ele>149.14</ele>
        <time>2008-04-06T07:16:33.000Z</time>
      </trkpt>
      <trkpt lat="48.6981" lon="1.8962">
        <ele>152.03</ele>
        <time>2008-04-06T07:16:39.000Z</time>
      </trkpt>
      <trkpt lat="48.69803" lon="1.8963">
        <ele>152.03</ele>
        <time>2008-04-06T07:16:43.000Z</time>
      </trkpt>
      <trkpt lat="48.69792" lon="1.89649">
        <ele>150.58</ele>
        <time>2008-04-06T07:16:49.000Z</time>
      </trkpt>
      <trkpt lat="48.69784" lon="1.89667">
        <ele>147.22</ele>
        <time>2008-04-06T07:16:54.000Z</time>
      </trkpt>
      <trkpt lat="48.69782" lon="1.89685">
        <ele>146.26</ele>
        <time>2008-04-06T07:16:58.000Z</time>
      </trkpt>
      <trkpt lat="48.69781" lon="1.89703">
        <ele>144.82</ele>
        <time>2008-04-06T07:17:02.000Z</time>
      </trkpt>
      <trkpt lat="48.69778" lon="1.89719">
        <ele>144.34</ele>
        <time>2008-04-06T07:17:07.000Z</time>
      </trkpt>
      <trkpt lat="48.69779" lon="1.89733">
        <ele>147.7</ele>
        <time>2008-04-06T07:17:10.000Z</time>
      </trkpt>
      <trkpt lat="48.69775" lon="1.8975">
        <ele>146.74</ele>
        <time>2008-04-06T07:17:16.000Z</time>
      </trkpt>
      <trkpt lat="48.69772" lon="1.89769">
        <ele>148.66</ele>
        <time>2008-04-06T07:17:21.000Z</time>
      </trkpt>
      <trkpt lat="48.69766" lon="1.89788">
        <ele>152.03</ele>
        <time>2008-04-06T07:17:26.000Z</time>
      </trkpt>
      <trkpt lat="48.69762" lon="1.89804">
        <ele>152.51</ele>
        <time>2008-04-06T07:17:30.000Z</time>
      </trkpt>
      <trkpt lat="48.69761" lon="1.89823">
        <ele>152.99</ele>
        <time>2008-04-06T07:17:34.000Z</time>
      </trkpt>
      <trkpt lat="48.69754" lon="1.89845">
        <ele>152.03</ele>
        <time>2008-04-06T07:17:40.000Z</time>
      </trkpt>
      <trkpt lat="48.69744" lon="1.89868">
        <ele>149.62</ele>
        <time>2008-04-06T07:17:46.000Z</time>
      </trkpt>
      <trkpt lat="48.69736" lon="1.89883">
        <ele>146.26</ele>
        <time>2008-04-06T07:17:51.000Z</time>
      </trkpt>
      <trkpt lat="48.6973" lon="1.89899">
        <ele>145.3</ele>
        <time>2008-04-06T07:17:56.000Z</time>
      </trkpt>
      <trkpt lat="48.6972" lon="1.89918">
        <ele>147.22</ele>
        <time>2008-04-06T07:18:01.000Z</time>
      </trkpt>
      <trkpt lat="48.69714" lon="1.89929">
        <ele>146.74</ele>
        <time>2008-04-06T07:18:05.000Z</time>
      </trkpt>
      <trkpt lat="48.69707" lon="1.8994">
        <ele>145.78</ele>
        <time>2008-04-06T07:18:09.000Z</time>
      </trkpt>
      <trkpt lat="48.69702" lon="1.89956">
        <ele>147.22</ele>
        <time>2008-04-06T07:18:14.000Z</time>
      </trkpt>
      <trkpt lat="48.69693" lon="1.89967">
        <ele>148.18</ele>
        <time>2008-04-06T07:18:18.000Z</time>
      </trkpt>
      <trkpt lat="48.69685" lon="1.89982">
        <ele>150.1</ele>
        <time>2008-04-06T07:18:23.000Z</time>
      </trkpt>
      <trkpt lat="48.69678" lon="1.89998">
        <ele>151.54</ele>
        <time>2008-04-06T07:18:28.000Z</time>
      </trkpt>
      <trkpt lat="48.69672" lon="1.90013">
        <ele>152.03</ele>
        <time>2008-04-06T07:18:32.000Z</time>
      </trkpt>
      <trkpt lat="48.69666" lon="1.90032">
        <ele>154.91</ele>
        <time>2008-04-06T07:18:37.000Z</time>
      </trkpt>
      <trkpt lat="48.69662" lon="1.90043">
        <ele>156.35</ele>
        <time>2008-04-06T07:18:40.000Z</time>
      </trkpt>
      <trkpt lat="48.69657" lon="1.90056">
        <ele>156.83</ele>
        <time>2008-04-06T07:18:45.000Z</time>
      </trkpt>
      <trkpt lat="48.69652" lon="1.90073">
        <ele>158.27</ele>
        <time>2008-04-06T07:18:51.000Z</time>
      </trkpt>
      <trkpt lat="48.6965" lon="1.90081">
        <ele>158.27</ele>
        <time>2008-04-06T07:18:54.000Z</time>
      </trkpt>
      <trkpt lat="48.69645" lon="1.90098">
        <ele>157.31</ele>
        <time>2008-04-06T07:19:01.000Z</time>
      </trkpt>
      <trkpt lat="48.69637" lon="1.90113">
        <ele>156.83</ele>
        <time>2008-04-06T07:19:06.000Z</time>
      </trkpt>
      <trkpt lat="48.69627" lon="1.90117">
        <ele>156.83</ele>
        <time>2008-04-06T07:19:11.000Z</time>
      </trkpt>
      <trkpt lat="48.6962" lon="1.90116">
        <ele>157.79</ele>
        <time>2008-04-06T07:19:13.000Z</time>
      </trkpt>
      <trkpt lat="48.69604" lon="1.90105">
        <ele>155.39</ele>
        <time>2008-04-06T07:19:19.000Z</time>
      </trkpt>
      <trkpt lat="48.69592" lon="1.901">
        <ele>155.39</ele>
        <time>2008-04-06T07:19:25.000Z</time>
      </trkpt>
      <trkpt lat="48.6958" lon="1.90088">
        <ele>159.72</ele>
        <time>2008-04-06T07:19:31.000Z</time>
      </trkpt>
      <trkpt lat="48.69579" lon="1.90085">
        <ele>161.16</ele>
        <time>2008-04-06T07:19:32.000Z</time>
      </trkpt>
      <trkpt lat="48.69567" lon="1.90076">
        <ele>165.48</ele>
        <time>2008-04-06T07:19:38.000Z</time>
      </trkpt>
      <trkpt lat="48.69561" lon="1.90069">
        <ele>164.52</ele>
        <time>2008-04-06T07:19:43.000Z</time>
      </trkpt>
      <trkpt lat="48.69558" lon="1.90064">
        <ele>161.64</ele>
        <time>2008-04-06T07:19:52.000Z</time>
      </trkpt>
      <trkpt lat="48.69553" lon="1.90058">
        <ele>160.2</ele>
        <time>2008-04-06T07:19:56.000Z</time>
      </trkpt>
      <trkpt lat="48.69549" lon="1.90052">
        <ele>161.16</ele>
        <time>2008-04-06T07:20:01.000Z</time>
      </trkpt>
      <trkpt lat="48.69545" lon="1.90047">
        <ele>162.6</ele>
        <time>2008-04-06T07:20:06.000Z</time>
      </trkpt>
      <trkpt lat="48.69538" lon="1.90046">
        <ele>163.08</ele>
        <time>2008-04-06T07:20:16.000Z</time>
      </trkpt>
      <trkpt lat="48.69527" lon="1.90034">
        <ele>160.2</ele>
        <time>2008-04-06T07:20:22.000Z</time>
      </trkpt>
      <trkpt lat="48.69525" lon="1.90028">
        <ele>158.27</ele>
        <time>2008-04-06T07:20:24.000Z</time>
      </trkpt>
      <trkpt lat="48.69518" lon="1.90022">
        <ele>157.31</ele>
        <time>2008-04-06T07:20:29.000Z</time>
      </trkpt>
      <trkpt lat="48.69515" lon="1.90018">
        <ele>155.87</ele>
        <time>2008-04-06T07:20:32.000Z</time>
      </trkpt>
      <trkpt lat="48.69506" lon="1.90014">
        <ele>158.75</ele>
        <time>2008-04-06T07:20:40.000Z</time>
      </trkpt>
      <trkpt lat="48.69498" lon="1.90011">
        <ele>160.2</ele>
        <time>2008-04-06T07:20:46.000Z</time>
      </trkpt>
      <trkpt lat="48.69492" lon="1.9001">
        <ele>161.64</ele>
        <time>2008-04-06T07:20:52.000Z</time>
      </trkpt>
      <trkpt lat="48.69484" lon="1.90008">
        <ele>160.2</ele>
        <time>2008-04-06T07:20:55.000Z</time>
      </trkpt>
      <trkpt lat="48.69478" lon="1.90014">
        <ele>159.24</ele>
        <time>2008-04-06T07:21:00.000Z</time>
      </trkpt>
      <trkpt lat="48.69472" lon="1.90015">
        <ele>158.75</ele>
        <time>2008-04-06T07:21:04.000Z</time>
      </trkpt>
      <trkpt lat="48.69463" lon="1.90016">
        <ele>157.79</ele>
        <time>2008-04-06T07:21:10.000Z</time>
      </trkpt>
      <trkpt lat="48.6946" lon="1.90018">
        <ele>157.31</ele>
        <time>2008-04-06T07:21:12.000Z</time>
      </trkpt>
      <trkpt lat="48.69454" lon="1.90029">
        <ele>157.79</ele>
        <time>2008-04-06T07:21:16.000Z</time>
      </trkpt>
      <trkpt lat="48.69457" lon="1.90041">
        <ele>157.31</ele>
        <time>2008-04-06T07:21:20.000Z</time>
      </trkpt>
      <trkpt lat="48.69453" lon="1.90055">
        <ele>155.87</ele>
        <time>2008-04-06T07:21:25.000Z</time>
      </trkpt>
      <trkpt lat="48.69448" lon="1.90072">
        <ele>155.39</ele>
        <time>2008-04-06T07:21:30.000Z</time>
      </trkpt>
      <trkpt lat="48.69442" lon="1.90082">
        <ele>154.43</ele>
        <time>2008-04-06T07:21:34.000Z</time>
      </trkpt>
      <trkpt lat="48.69434" lon="1.90089">
        <ele>151.54</ele>
        <time>2008-04-06T07:21:38.000Z</time>
      </trkpt>
      <trkpt lat="48.69422" lon="1.90081">
        <ele>150.1</ele>
        <time>2008-04-06T07:21:44.000Z</time>
      </trkpt>
      <trkpt lat="48.69416" lon="1.90072">
        <ele>150.1</ele>
        <time>2008-04-06T07:21:48.000Z</time>
      </trkpt>
      <trkpt lat="48.69415" lon="1.90069">
        <ele>149.62</ele>
        <time>2008-04-06T07:21:49.000Z</time>
      </trkpt>
      <trkpt lat="48.69404" lon="1.90063">
        <ele>151.06</ele>
        <time>2008-04-06T07:21:55.000Z</time>
      </trkpt>
      <trkpt lat="48.69396" lon="1.90062">
        <ele>152.03</ele>
        <time>2008-04-06T07:21:59.000Z</time>
      </trkpt>
      <trkpt lat="48.69386" lon="1.90064">
        <ele>151.06</ele>
        <time>2008-04-06T07:22:03.000Z</time>
      </trkpt>
      <trkpt lat="48.69384" lon="1.90065">
        <ele>151.06</ele>
        <time>2008-04-06T07:22:04.000Z</time>
      </trkpt>
      <trkpt lat="48.6937" lon="1.90091">
        <ele>151.54</ele>
        <time>2008-04-06T07:22:12.000Z</time>
      </trkpt>
      <trkpt lat="48.69368" lon="1.90094">
        <ele>151.54</ele>
        <time>2008-04-06T07:22:13.000Z</time>
      </trkpt>
      <trkpt lat="48.6936" lon="1.90101">
        <ele>152.03</ele>
        <time>2008-04-06T07:22:17.000Z</time>
      </trkpt>
      <trkpt lat="48.69355" lon="1.90117">
        <ele>154.43</ele>
        <time>2008-04-06T07:22:22.000Z</time>
      </trkpt>
      <trkpt lat="48.6935" lon="1.9013">
        <ele>157.31</ele>
        <time>2008-04-06T07:22:27.000Z</time>
      </trkpt>
      <trkpt lat="48.6935" lon="1.90139">
        <ele>158.75</ele>
        <time>2008-04-06T07:22:31.000Z</time>
      </trkpt>
      <trkpt lat="48.69348" lon="1.90154">
        <ele>160.68</ele>
        <time>2008-04-06T07:22:36.000Z</time>
      </trkpt>
      <trkpt lat="48.69348" lon="1.90172">
        <ele>160.2</ele>
        <time>2008-04-06T07:22:42.000Z</time>
      </trkpt>
      <trkpt lat="48.69349" lon="1.90194">
        <ele>159.24</ele>
        <time>2008-04-06T07:22:47.000Z</time>
      </trkpt>
      <trkpt lat="48.69349" lon="1.90208">
        <ele>161.16</ele>
        <time>2008-04-06T07:22:50.000Z</time>
      </trkpt>
      <trkpt lat="48.69354" lon="1.90227">
        <ele>164.04</ele>
        <time>2008-04-06T07:22:55.000Z</time>
      </trkpt>
      <trkpt lat="48.69357" lon="1.90246">
        <ele>165.96</ele>
        <time>2008-04-06T07:23:00.000Z</time>
      </trkpt>
      <trkpt lat="48.69356" lon="1.90259">
        <ele>164.52</ele>
        <time>2008-04-06T07:23:04.000Z</time>
      </trkpt>
      <trkpt lat="48.6935" lon="1.90267">
        <ele>164.04</ele>
        <time>2008-04-06T07:23:07.000Z</time>
      </trkpt>
      <trkpt lat="48.69342" lon="1.90278">
        <ele>163.56</ele>
        <time>2008-04-06T07:23:11.000Z</time>
      </trkpt>
      <trkpt lat="48.69339" lon="1.90281">
        <ele>162.6</ele>
        <time>2008-04-06T07:23:13.000Z</time>
      </trkpt>
      <trkpt lat="48.6933" lon="1.90283">
        <ele>163.56</ele>
        <time>2008-04-06T07:23:19.000Z</time>
      </trkpt>
      <trkpt lat="48.69323" lon="1.90285">
        <ele>163.08</ele>
        <time>2008-04-06T07:23:25.000Z</time>
      </trkpt>
      <trkpt lat="48.69319" lon="1.90288">
        <ele>164.52</ele>
        <time>2008-04-06T07:23:30.000Z</time>
      </trkpt>
      <trkpt lat="48.6931" lon="1.90292">
        <ele>168.37</ele>
        <time>2008-04-06T07:23:37.000Z</time>
      </trkpt>
      <trkpt lat="48.69302" lon="1.90291">
        <ele>165</ele>
        <time>2008-04-06T07:23:42.000Z</time>
      </trkpt>
      <trkpt lat="48.69292" lon="1.90294">
        <ele>167.89</ele>
        <time>2008-04-06T07:23:48.000Z</time>
      </trkpt>
      <trkpt lat="48.69286" lon="1.90295">
        <ele>169.81</ele>
        <time>2008-04-06T07:23:53.000Z</time>
      </trkpt>
      <trkpt lat="48.69283" lon="1.90295">
        <ele>169.81</ele>
        <time>2008-04-06T07:23:56.000Z</time>
      </trkpt>
      <trkpt lat="48.69273" lon="1.90296">
        <ele>172.69</ele>
        <time>2008-04-06T07:24:01.000Z</time>
      </trkpt>
      <trkpt lat="48.69268" lon="1.90301">
        <ele>176.06</ele>
        <time>2008-04-06T07:24:05.000Z</time>
      </trkpt>
      <trkpt lat="48.69263" lon="1.90305">
        <ele>179.9</ele>
        <time>2008-04-06T07:24:08.000Z</time>
      </trkpt>
      <trkpt lat="48.69255" lon="1.90306">
        <ele>179.9</ele>
        <time>2008-04-06T07:24:14.000Z</time>
      </trkpt>
      <trkpt lat="48.6925" lon="1.90305">
        <ele>177.5</ele>
        <time>2008-04-06T07:24:17.000Z</time>
      </trkpt>
      <trkpt lat="48.69234" lon="1.90312">
        <ele>179.9</ele>
        <time>2008-04-06T07:24:24.000Z</time>
      </trkpt>
      <trkpt lat="48.69222" lon="1.90311">
        <ele>180.87</ele>
        <time>2008-04-06T07:24:29.000Z</time>
      </trkpt>
      <trkpt lat="48.6921" lon="1.90315">
        <ele>182.79</ele>
        <time>2008-04-06T07:24:34.000Z</time>
      </trkpt>
      <trkpt lat="48.69207" lon="1.90316">
        <ele>182.79</ele>
        <time>2008-04-06T07:24:35.000Z</time>
      </trkpt>
      <trkpt lat="48.69196" lon="1.90317">
        <ele>184.23</ele>
        <time>2008-04-06T07:24:39.000Z</time>
      </trkpt>
      <trkpt lat="48.69179" lon="1.90321">
        <ele>185.19</ele>
        <time>2008-04-06T07:24:46.000Z</time>
      </trkpt>
      <trkpt lat="48.69167" lon="1.90319">
        <ele>184.71</ele>
        <time>2008-04-06T07:24:51.000Z</time>
      </trkpt>
      <trkpt lat="48.69155" lon="1.90326">
        <ele>186.15</ele>
        <time>2008-04-06T07:24:56.000Z</time>
      </trkpt>
      <trkpt lat="48.69142" lon="1.90329">
        <ele>188.08</ele>
        <time>2008-04-06T07:25:01.000Z</time>
      </trkpt>
      <trkpt lat="48.69124" lon="1.90332">
        <ele>190.48</ele>
        <time>2008-04-06T07:25:08.000Z</time>
      </trkpt>
      <trkpt lat="48.69111" lon="1.90339">
        <ele>191.44</ele>
        <time>2008-04-06T07:25:13.000Z</time>
      </trkpt>
      <trkpt lat="48.69096" lon="1.90341">
        <ele>190.48</ele>
        <time>2008-04-06T07:25:19.000Z</time>
      </trkpt>
      <trkpt lat="48.69086" lon="1.90343">
        <ele>190.96</ele>
        <time>2008-04-06T07:25:23.000Z</time>
      </trkpt>
      <trkpt lat="48.69076" lon="1.90347">
        <ele>190.96</ele>
        <time>2008-04-06T07:25:27.000Z</time>
      </trkpt>
      <trkpt lat="48.69065" lon="1.90351">
        <ele>188.08</ele>
        <time>2008-04-06T07:25:32.000Z</time>
      </trkpt>
      <trkpt lat="48.69051" lon="1.90352">
        <ele>187.11</ele>
        <time>2008-04-06T07:25:37.000Z</time>
      </trkpt>
      <trkpt lat="48.69037" lon="1.90356">
        <ele>184.23</ele>
        <time>2008-04-06T07:25:42.000Z</time>
      </trkpt>
      <trkpt lat="48.69025" lon="1.90358">
        <ele>182.79</ele>
        <time>2008-04-06T07:25:46.000Z</time>
      </trkpt>
      <trkpt lat="48.69012" lon="1.90363">
        <ele>180.38</ele>
        <time>2008-04-06T07:25:51.000Z</time>
      </trkpt>
      <trkpt lat="48.68998" lon="1.90362">
        <ele>177.02</ele>
        <time>2008-04-06T07:25:57.000Z</time>
      </trkpt>
      <trkpt lat="48.68991" lon="1.90361">
        <ele>174.62</ele>
        <time>2008-04-06T07:26:00.000Z</time>
      </trkpt>
      <trkpt lat="48.68977" lon="1.90362">
        <ele>171.25</ele>
        <time>2008-04-06T07:26:05.000Z</time>
      </trkpt>
      <trkpt lat="48.6897" lon="1.9036">
        <ele>170.29</ele>
        <time>2008-04-06T07:26:07.000Z</time>
      </trkpt>
      <trkpt lat="48.68964" lon="1.90357">
        <ele>168.85</ele>
        <time>2008-04-06T07:26:10.000Z</time>
      </trkpt>
      <trkpt lat="48.68964" lon="1.90338">
        <ele>165.48</ele>
        <time>2008-04-06T07:26:16.000Z</time>
      </trkpt>
      <trkpt lat="48.68959" lon="1.90321">
        <ele>162.6</ele>
        <time>2008-04-06T07:26:21.000Z</time>
      </trkpt>
      <trkpt lat="48.68953" lon="1.90309">
        <ele>159.72</ele>
        <time>2008-04-06T07:26:25.000Z</time>
      </trkpt>
      <trkpt lat="48.6894" lon="1.90299">
        <ele>157.79</ele>
        <time>2008-04-06T07:26:30.000Z</time>
      </trkpt>
      <trkpt lat="48.68927" lon="1.90294">
        <ele>158.27</ele>
        <time>2008-04-06T07:26:35.000Z</time>
      </trkpt>
      <trkpt lat="48.68916" lon="1.90293">
        <ele>159.24</ele>
        <time>2008-04-06T07:26:40.000Z</time>
      </trkpt>
      <trkpt lat="48.68908" lon="1.90291">
        <ele>160.68</ele>
        <time>2008-04-06T07:26:45.000Z</time>
      </trkpt>
      <trkpt lat="48.68903" lon="1.90294">
        <ele>163.08</ele>
        <time>2008-04-06T07:26:49.000Z</time>
      </trkpt>
      <trkpt lat="48.68898" lon="1.90308">
        <ele>163.56</ele>
        <time>2008-04-06T07:26:54.000Z</time>
      </trkpt>
      <trkpt lat="48.68901" lon="1.90317">
        <ele>161.64</ele>
        <time>2008-04-06T07:26:57.000Z</time>
      </trkpt>
      <trkpt lat="48.689" lon="1.90337">
        <ele>157.79</ele>
        <time>2008-04-06T07:27:03.000Z</time>
      </trkpt>
      <trkpt lat="48.689" lon="1.90358">
        <ele>157.31</ele>
        <time>2008-04-06T07:27:08.000Z</time>
      </trkpt>
      <trkpt lat="48.68898" lon="1.90387">
        <ele>153.95</ele>
        <time>2008-04-06T07:27:14.000Z</time>
      </trkpt>
      <trkpt lat="48.68898" lon="1.90405">
        <ele>151.54</ele>
        <time>2008-04-06T07:27:18.000Z</time>
      </trkpt>
      <trkpt lat="48.68897" lon="1.90427">
        <ele>150.1</ele>
        <time>2008-04-06T07:27:23.000Z</time>
      </trkpt>
      <trkpt lat="48.68896" lon="1.90453">
        <ele>149.14</ele>
        <time>2008-04-06T07:27:28.000Z</time>
      </trkpt>
      <trkpt lat="48.68894" lon="1.90477">
        <ele>148.18</ele>
        <time>2008-04-06T07:27:33.000Z</time>
      </trkpt>
      <trkpt lat="48.68892" lon="1.90508">
        <ele>148.66</ele>
        <time>2008-04-06T07:27:40.000Z</time>
      </trkpt>
      <trkpt lat="48.68892" lon="1.90528">
        <ele>148.18</ele>
        <time>2008-04-06T07:27:45.000Z</time>
      </trkpt>
      <trkpt lat="48.68893" lon="1.90549">
        <ele>147.22</ele>
        <time>2008-04-06T07:27:50.000Z</time>
      </trkpt>
      <trkpt lat="48.68894" lon="1.90566">
        <ele>145.78</ele>
        <time>2008-04-06T07:27:54.000Z</time>
      </trkpt>
      <trkpt lat="48.68893" lon="1.90583">
        <ele>144.82</ele>
        <time>2008-04-06T07:27:58.000Z</time>
      </trkpt>
      <trkpt lat="48.68891" lon="1.90604">
        <ele>144.34</ele>
        <time>2008-04-06T07:28:02.000Z</time>
      </trkpt>
      <trkpt lat="48.6889" lon="1.90628">
        <ele>143.85</ele>
        <time>2008-04-06T07:28:07.000Z</time>
      </trkpt>
      <trkpt lat="48.68892" lon="1.90653">
        <ele>145.78</ele>
        <time>2008-04-06T07:28:12.000Z</time>
      </trkpt>
      <trkpt lat="48.6889" lon="1.90674">
        <ele>146.74</ele>
        <time>2008-04-06T07:28:16.000Z</time>
      </trkpt>
      <trkpt lat="48.68888" lon="1.90695">
        <ele>146.74</ele>
        <time>2008-04-06T07:28:21.000Z</time>
      </trkpt>
      <trkpt lat="48.6889" lon="1.90713">
        <ele>150.58</ele>
        <time>2008-04-06T07:28:25.000Z</time>
      </trkpt>
      <trkpt lat="48.68889" lon="1.90729">
        <ele>151.06</ele>
        <time>2008-04-06T07:28:29.000Z</time>
      </trkpt>
      <trkpt lat="48.68887" lon="1.90742">
        <ele>149.62</ele>
        <time>2008-04-06T07:28:33.000Z</time>
      </trkpt>
      <trkpt lat="48.68878" lon="1.90756">
        <ele>148.18</ele>
        <time>2008-04-06T07:28:38.000Z</time>
      </trkpt>
      <trkpt lat="48.68867" lon="1.90753">
        <ele>147.22</ele>
        <time>2008-04-06T07:28:43.000Z</time>
      </trkpt>
      <trkpt lat="48.68859" lon="1.90752">
        <ele>146.26</ele>
        <time>2008-04-06T07:28:48.000Z</time>
      </trkpt>
      <trkpt lat="48.68852" lon="1.90753">
        <ele>147.22</ele>
        <time>2008-04-06T07:28:52.000Z</time>
      </trkpt>
      <trkpt lat="48.68843" lon="1.90754">
        <ele>146.74</ele>
        <time>2008-04-06T07:28:58.000Z</time>
      </trkpt>
      <trkpt lat="48.68832" lon="1.90755">
        <ele>146.74</ele>
        <time>2008-04-06T07:29:05.000Z</time>
      </trkpt>
      <trkpt lat="48.68821" lon="1.90752">
        <ele>144.34</ele>
        <time>2008-04-06T07:29:13.000Z</time>
      </trkpt>
      <trkpt lat="48.6881" lon="1.90751">
        <ele>145.3</ele>
        <time>2008-04-06T07:29:21.000Z</time>
      </trkpt>
      <trkpt lat="48.68799" lon="1.90752">
        <ele>146.74</ele>
        <time>2008-04-06T07:29:30.000Z</time>
      </trkpt>
      <trkpt lat="48.68796" lon="1.90751">
        <ele>148.18</ele>
        <time>2008-04-06T07:29:36.000Z</time>
      </trkpt>
      <trkpt lat="48.68791" lon="1.90751">
        <ele>151.06</ele>
        <time>2008-04-06T07:29:40.000Z</time>
      </trkpt>
      <trkpt lat="48.6879" lon="1.90751">
        <ele>151.06</ele>
        <time>2008-04-06T07:29:41.000Z</time>
      </trkpt>
      <trkpt lat="48.68781" lon="1.90754">
        <ele>152.99</ele>
        <time>2008-04-06T07:29:45.000Z</time>
      </trkpt>
      <trkpt lat="48.68771" lon="1.9075">
        <ele>154.91</ele>
        <time>2008-04-06T07:29:49.000Z</time>
      </trkpt>
      <trkpt lat="48.68762" lon="1.90747">
        <ele>156.83</ele>
        <time>2008-04-06T07:29:53.000Z</time>
      </trkpt>
      <trkpt lat="48.68755" lon="1.90747">
        <ele>159.72</ele>
        <time>2008-04-06T07:29:58.000Z</time>
      </trkpt>
      <trkpt lat="48.68748" lon="1.90749">
        <ele>162.12</ele>
        <time>2008-04-06T07:30:03.000Z</time>
      </trkpt>
      <trkpt lat="48.68742" lon="1.90753">
        <ele>166.45</ele>
        <time>2008-04-06T07:30:09.000Z</time>
      </trkpt>
      <trkpt lat="48.68737" lon="1.90754">
        <ele>168.85</ele>
        <time>2008-04-06T07:30:15.000Z</time>
      </trkpt>
      <trkpt lat="48.68732" lon="1.90749">
        <ele>172.21</ele>
        <time>2008-04-06T07:30:19.000Z</time>
      </trkpt>
      <trkpt lat="48.68731" lon="1.90749">
        <ele>173.66</ele>
        <time>2008-04-06T07:30:20.000Z</time>
      </trkpt>
      <trkpt lat="48.68726" lon="1.90746">
        <ele>172.21</ele>
        <time>2008-04-06T07:30:27.000Z</time>
      </trkpt>
      <trkpt lat="48.68707" lon="1.90752">
        <ele>181.83</ele>
        <time>2008-04-06T07:30:49.000Z</time>
      </trkpt>
      <trkpt lat="48.68702" lon="1.90757">
        <ele>182.79</ele>
        <time>2008-04-06T07:30:53.000Z</time>
      </trkpt>
      <trkpt lat="48.68691" lon="1.90754">
        <ele>180.38</ele>
        <time>2008-04-06T07:30:58.000Z</time>
      </trkpt>
      <trkpt lat="48.68681" lon="1.90753">
        <ele>182.31</ele>
        <time>2008-04-06T07:31:02.000Z</time>
      </trkpt>
      <trkpt lat="48.68675" lon="1.90752">
        <ele>181.83</ele>
        <time>2008-04-06T07:31:04.000Z</time>
      </trkpt>
      <trkpt lat="48.68655" lon="1.90753">
        <ele>180.38</ele>
        <time>2008-04-06T07:31:11.000Z</time>
      </trkpt>
      <trkpt lat="48.68644" lon="1.90753">
        <ele>179.9</ele>
        <time>2008-04-06T07:31:15.000Z</time>
      </trkpt>
      <trkpt lat="48.68631" lon="1.90752">
        <ele>177.98</ele>
        <time>2008-04-06T07:31:20.000Z</time>
      </trkpt>
      <trkpt lat="48.68617" lon="1.90753">
        <ele>177.5</ele>
        <time>2008-04-06T07:31:25.000Z</time>
      </trkpt>
      <trkpt lat="48.68603" lon="1.90759">
        <ele>177.98</ele>
        <time>2008-04-06T07:31:30.000Z</time>
      </trkpt>
      <trkpt lat="48.68588" lon="1.9076">
        <ele>179.9</ele>
        <time>2008-04-06T07:31:35.000Z</time>
      </trkpt>
      <trkpt lat="48.68575" lon="1.90764">
        <ele>176.54</ele>
        <time>2008-04-06T07:31:41.000Z</time>
      </trkpt>
      <trkpt lat="48.68571" lon="1.90769">
        <ele>174.62</ele>
        <time>2008-04-06T07:31:43.000Z</time>
      </trkpt>
      <trkpt lat="48.68563" lon="1.90772">
        <ele>173.17</ele>
        <time>2008-04-06T07:31:47.000Z</time>
      </trkpt>
      <trkpt lat="48.68552" lon="1.90775">
        <ele>170.29</ele>
        <time>2008-04-06T07:31:52.000Z</time>
      </trkpt>
      <trkpt lat="48.68543" lon="1.90775">
        <ele>171.25</ele>
        <time>2008-04-06T07:31:56.000Z</time>
      </trkpt>
      <trkpt lat="48.68527" lon="1.90775">
        <ele>172.69</ele>
        <time>2008-04-06T07:32:01.000Z</time>
      </trkpt>
      <trkpt lat="48.68509" lon="1.90765">
        <ele>172.21</ele>
        <time>2008-04-06T07:32:08.000Z</time>
      </trkpt>
      <trkpt lat="48.68495" lon="1.90762">
        <ele>174.62</ele>
        <time>2008-04-06T07:32:14.000Z</time>
      </trkpt>
      <trkpt lat="48.68489" lon="1.9076">
        <ele>173.66</ele>
        <time>2008-04-06T07:32:17.000Z</time>
      </trkpt>
      <trkpt lat="48.6848" lon="1.90767">
        <ele>171.25</ele>
        <time>2008-04-06T07:32:24.000Z</time>
      </trkpt>
      <trkpt lat="48.68472" lon="1.90776">
        <ele>168.85</ele>
        <time>2008-04-06T07:32:31.000Z</time>
      </trkpt>
      <trkpt lat="48.68466" lon="1.90782">
        <ele>166.45</ele>
        <time>2008-04-06T07:32:36.000Z</time>
      </trkpt>
      <trkpt lat="48.68459" lon="1.90785">
        <ele>165.48</ele>
        <time>2008-04-06T07:32:42.000Z</time>
      </trkpt>
      <trkpt lat="48.68455" lon="1.90783">
        <ele>162.6</ele>
        <time>2008-04-06T07:32:46.000Z</time>
      </trkpt>
      <trkpt lat="48.6845" lon="1.90785">
        <ele>164.52</ele>
        <time>2008-04-06T07:32:50.000Z</time>
      </trkpt>
      <trkpt lat="48.68446" lon="1.90788">
        <ele>163.56</ele>
        <time>2008-04-06T07:32:55.000Z</time>
      </trkpt>
      <trkpt lat="48.68443" lon="1.90798">
        <ele>165.96</ele>
        <time>2008-04-06T07:33:00.000Z</time>
      </trkpt>
      <trkpt lat="48.68437" lon="1.90808">
        <ele>167.89</ele>
        <time>2008-04-06T07:33:08.000Z</time>
      </trkpt>
      <trkpt lat="48.68435" lon="1.90817">
        <ele>169.81</ele>
        <time>2008-04-06T07:33:13.000Z</time>
      </trkpt>
      <trkpt lat="48.68434" lon="1.90818">
        <ele>169.81</ele>
        <time>2008-04-06T07:33:14.000Z</time>
      </trkpt>
      <trkpt lat="48.6843" lon="1.90822">
        <ele>169.81</ele>
        <time>2008-04-06T07:33:18.000Z</time>
      </trkpt>
      <trkpt lat="48.68424" lon="1.90828">
        <ele>172.21</ele>
        <time>2008-04-06T07:33:22.000Z</time>
      </trkpt>
      <trkpt lat="48.68412" lon="1.90845">
        <ele>174.62</ele>
        <time>2008-04-06T07:33:28.000Z</time>
      </trkpt>
      <trkpt lat="48.68407" lon="1.90848">
        <ele>175.1</ele>
        <time>2008-04-06T07:33:30.000Z</time>
      </trkpt>
      <trkpt lat="48.68396" lon="1.90861">
        <ele>176.06</ele>
        <time>2008-04-06T07:33:36.000Z</time>
      </trkpt>
      <trkpt lat="48.68394" lon="1.90864">
        <ele>176.54</ele>
        <time>2008-04-06T07:33:37.000Z</time>
      </trkpt>
      <trkpt lat="48.6838" lon="1.90886">
        <ele>176.06</ele>
        <time>2008-04-06T07:33:44.000Z</time>
      </trkpt>
      <trkpt lat="48.68377" lon="1.90893">
        <ele>176.06</ele>
        <time>2008-04-06T07:33:46.000Z</time>
      </trkpt>
      <trkpt lat="48.68377" lon="1.90911">
        <ele>173.66</ele>
        <time>2008-04-06T07:33:51.000Z</time>
      </trkpt>
      <trkpt lat="48.68382" lon="1.90928">
        <ele>171.73</ele>
        <time>2008-04-06T07:33:56.000Z</time>
      </trkpt>
      <trkpt lat="48.68389" lon="1.90947">
        <ele>170.29</ele>
        <time>2008-04-06T07:34:01.000Z</time>
      </trkpt>
      <trkpt lat="48.68392" lon="1.90968">
        <ele>169.33</ele>
        <time>2008-04-06T07:34:06.000Z</time>
      </trkpt>
      <trkpt lat="48.68397" lon="1.9099">
        <ele>168.85</ele>
        <time>2008-04-06T07:34:11.000Z</time>
      </trkpt>
      <trkpt lat="48.68399" lon="1.91007">
        <ele>167.89</ele>
        <time>2008-04-06T07:34:15.000Z</time>
      </trkpt>
      <trkpt lat="48.68405" lon="1.91029">
        <ele>166.93</ele>
        <time>2008-04-06T07:34:20.000Z</time>
      </trkpt>
      <trkpt lat="48.68413" lon="1.91049">
        <ele>167.41</ele>
        <time>2008-04-06T07:34:25.000Z</time>
      </trkpt>
      <trkpt lat="48.68416" lon="1.91071">
        <ele>167.89</ele>
        <time>2008-04-06T07:34:30.000Z</time>
      </trkpt>
      <trkpt lat="48.68422" lon="1.91098">
        <ele>174.14</ele>
        <time>2008-04-06T07:34:35.000Z</time>
      </trkpt>
      <trkpt lat="48.68427" lon="1.91114">
        <ele>180.38</ele>
        <time>2008-04-06T07:34:39.000Z</time>
      </trkpt>
      <trkpt lat="48.68425" lon="1.9113">
        <ele>185.67</ele>
        <time>2008-04-06T07:34:44.000Z</time>
      </trkpt>
      <trkpt lat="48.68425" lon="1.91145">
        <ele>184.71</ele>
        <time>2008-04-06T07:34:49.000Z</time>
      </trkpt>
      <trkpt lat="48.68428" lon="1.91148">
        <ele>179.9</ele>
        <time>2008-04-06T07:34:54.000Z</time>
      </trkpt>
      <trkpt lat="48.68434" lon="1.91151">
        <ele>176.06</ele>
        <time>2008-04-06T07:35:00.000Z</time>
      </trkpt>
      <trkpt lat="48.68435" lon="1.91164">
        <ele>181.83</ele>
        <time>2008-04-06T07:35:11.000Z</time>
      </trkpt>
      <trkpt lat="48.68449" lon="1.91178">
        <ele>170.29</ele>
        <time>2008-04-06T07:35:46.000Z</time>
      </trkpt>
      <trkpt lat="48.68468" lon="1.91186">
        <ele>169.81</ele>
        <time>2008-04-06T07:36:00.000Z</time>
      </trkpt>
      <trkpt lat="48.6847" lon="1.91188">
        <ele>170.29</ele>
        <time>2008-04-06T07:36:02.000Z</time>
      </trkpt>
      <trkpt lat="48.68478" lon="1.91192">
        <ele>170.77</ele>
        <time>2008-04-06T07:36:07.000Z</time>
      </trkpt>
      <trkpt lat="48.68491" lon="1.91202">
        <ele>166.93</ele>
        <time>2008-04-06T07:36:14.000Z</time>
      </trkpt>
      <trkpt lat="48.68501" lon="1.91212">
        <ele>167.41</ele>
        <time>2008-04-06T07:36:19.000Z</time>
      </trkpt>
      <trkpt lat="48.68514" lon="1.91219">
        <ele>163.08</ele>
        <time>2008-04-06T07:36:24.000Z</time>
      </trkpt>
      <trkpt lat="48.68528" lon="1.91236">
        <ele>163.08</ele>
        <time>2008-04-06T07:36:30.000Z</time>
      </trkpt>
      <trkpt lat="48.68536" lon="1.91256">
        <ele>163.56</ele>
        <time>2008-04-06T07:36:35.000Z</time>
      </trkpt>
      <trkpt lat="48.6854" lon="1.91262">
        <ele>164.52</ele>
        <time>2008-04-06T07:36:37.000Z</time>
      </trkpt>
      <trkpt lat="48.68546" lon="1.91279">
        <ele>166.93</ele>
        <time>2008-04-06T07:36:43.000Z</time>
      </trkpt>
      <trkpt lat="48.68556" lon="1.91299">
        <ele>172.21</ele>
        <time>2008-04-06T07:36:49.000Z</time>
      </trkpt>
      <trkpt lat="48.68565" lon="1.91313">
        <ele>177.98</ele>
        <time>2008-04-06T07:36:53.000Z</time>
      </trkpt>
      <trkpt lat="48.6858" lon="1.91332">
        <ele>180.87</ele>
        <time>2008-04-06T07:36:58.000Z</time>
      </trkpt>
      <trkpt lat="48.68596" lon="1.91348">
        <ele>177.98</ele>
        <time>2008-04-06T07:37:04.000Z</time>
      </trkpt>
      <trkpt lat="48.68598" lon="1.9135">
        <ele>177.98</ele>
        <time>2008-04-06T07:37:05.000Z</time>
      </trkpt>
      <trkpt lat="48.68608" lon="1.91343">
        <ele>167.89</ele>
        <time>2008-04-06T07:37:10.000Z</time>
      </trkpt>
      <trkpt lat="48.6861" lon="1.9134">
        <ele>164.52</ele>
        <time>2008-04-06T07:37:11.000Z</time>
      </trkpt>
      <trkpt lat="48.68621" lon="1.91325">
        <ele>152.99</ele>
        <time>2008-04-06T07:37:15.000Z</time>
      </trkpt>
      <trkpt lat="48.68631" lon="1.91302">
        <ele>144.82</ele>
        <time>2008-04-06T07:37:21.000Z</time>
      </trkpt>
      <trkpt lat="48.68643" lon="1.91301">
        <ele>145.78</ele>
        <time>2008-04-06T07:37:25.000Z</time>
      </trkpt>
      <trkpt lat="48.68652" lon="1.91295">
        <ele>144.82</ele>
        <time>2008-04-06T07:37:28.000Z</time>
      </trkpt>
      <trkpt lat="48.68657" lon="1.91275">
        <ele>136.16</ele>
        <time>2008-04-06T07:37:33.000Z</time>
      </trkpt>
      <trkpt lat="48.68667" lon="1.91265">
        <ele>139.05</ele>
        <time>2008-04-06T07:37:37.000Z</time>
      </trkpt>
      <trkpt lat="48.68681" lon="1.91259">
        <ele>142.41</ele>
        <time>2008-04-06T07:37:41.000Z</time>
      </trkpt>
      <trkpt lat="48.68684" lon="1.91257">
        <ele>141.93</ele>
        <time>2008-04-06T07:37:42.000Z</time>
      </trkpt>
      <trkpt lat="48.68692" lon="1.91249">
        <ele>138.57</ele>
        <time>2008-04-06T07:37:46.000Z</time>
      </trkpt>
      <trkpt lat="48.68692" lon="1.91249">
        <ele>138.09</ele>
        <time>2008-04-06T07:37:47.000Z</time>
      </trkpt>
      <trkpt lat="48.68704" lon="1.91258">
        <ele>141.93</ele>
        <time>2008-04-06T07:37:52.000Z</time>
      </trkpt>
      <trkpt lat="48.68708" lon="1.91264">
        <ele>144.34</ele>
        <time>2008-04-06T07:37:54.000Z</time>
      </trkpt>
      <trkpt lat="48.68715" lon="1.91268">
        <ele>145.3</ele>
        <time>2008-04-06T07:37:57.000Z</time>
      </trkpt>
      <trkpt lat="48.68731" lon="1.91284">
        <ele>137.61</ele>
        <time>2008-04-06T07:38:03.000Z</time>
      </trkpt>
      <trkpt lat="48.68733" lon="1.91289">
        <ele>138.09</ele>
        <time>2008-04-06T07:38:04.000Z</time>
      </trkpt>
      <trkpt lat="48.68741" lon="1.91305">
        <ele>137.61</ele>
        <time>2008-04-06T07:38:08.000Z</time>
      </trkpt>
      <trkpt lat="48.68741" lon="1.91326">
        <ele>139.53</ele>
        <time>2008-04-06T07:38:12.000Z</time>
      </trkpt>
      <trkpt lat="48.68745" lon="1.91342">
        <ele>139.05</ele>
        <time>2008-04-06T07:38:16.000Z</time>
      </trkpt>
      <trkpt lat="48.6875" lon="1.91357">
        <ele>140.97</ele>
        <time>2008-04-06T07:38:20.000Z</time>
      </trkpt>
      <trkpt lat="48.68762" lon="1.91379">
        <ele>140.49</ele>
        <time>2008-04-06T07:38:27.000Z</time>
      </trkpt>
      <trkpt lat="48.68762" lon="1.91398">
        <ele>138.57</ele>
        <time>2008-04-06T07:38:32.000Z</time>
      </trkpt>
      <trkpt lat="48.68761" lon="1.91419">
        <ele>137.61</ele>
        <time>2008-04-06T07:38:36.000Z</time>
      </trkpt>
      <trkpt lat="48.68764" lon="1.91429">
        <ele>138.57</ele>
        <time>2008-04-06T07:38:39.000Z</time>
      </trkpt>
      <trkpt lat="48.68771" lon="1.91444">
        <ele>140.97</ele>
        <time>2008-04-06T07:38:44.000Z</time>
      </trkpt>
      <trkpt lat="48.68787" lon="1.91454">
        <ele>141.45</ele>
        <time>2008-04-06T07:38:49.000Z</time>
      </trkpt>
      <trkpt lat="48.68797" lon="1.91468">
        <ele>140.49</ele>
        <time>2008-04-06T07:38:54.000Z</time>
      </trkpt>
      <trkpt lat="48.68801" lon="1.91473">
        <ele>139.53</ele>
        <time>2008-04-06T07:38:56.000Z</time>
      </trkpt>
      <trkpt lat="48.68808" lon="1.91477">
        <ele>138.09</ele>
        <time>2008-04-06T07:39:00.000Z</time>
      </trkpt>
      <trkpt lat="48.68813" lon="1.9149">
        <ele>135.2</ele>
        <time>2008-04-06T07:39:04.000Z</time>
      </trkpt>
      <trkpt lat="48.68822" lon="1.91505">
        <ele>135.2</ele>
        <time>2008-04-06T07:39:10.000Z</time>
      </trkpt>
      <trkpt lat="48.68822" lon="1.91508">
        <ele>134.72</ele>
        <time>2008-04-06T07:39:11.000Z</time>
      </trkpt>
      <trkpt lat="48.6883" lon="1.91517">
        <ele>136.16</ele>
        <time>2008-04-06T07:39:15.000Z</time>
      </trkpt>
      <trkpt lat="48.68832" lon="1.91535">
        <ele>137.13</ele>
        <time>2008-04-06T07:39:19.000Z</time>
      </trkpt>
      <trkpt lat="48.68833" lon="1.91543">
        <ele>136.64</ele>
        <time>2008-04-06T07:39:21.000Z</time>
      </trkpt>
      <trkpt lat="48.68837" lon="1.91571">
        <ele>136.64</ele>
        <time>2008-04-06T07:39:27.000Z</time>
      </trkpt>
      <trkpt lat="48.6884" lon="1.9159">
        <ele>136.64</ele>
        <time>2008-04-06T07:39:32.000Z</time>
      </trkpt>
      <trkpt lat="48.68842" lon="1.91606">
        <ele>136.16</ele>
        <time>2008-04-06T07:39:36.000Z</time>
      </trkpt>
      <trkpt lat="48.68845" lon="1.91621">
        <ele>138.57</ele>
        <time>2008-04-06T07:39:41.000Z</time>
      </trkpt>
      <trkpt lat="48.68847" lon="1.9164">
        <ele>140.49</ele>
        <time>2008-04-06T07:39:46.000Z</time>
      </trkpt>
      <trkpt lat="48.68849" lon="1.91658">
        <ele>140.97</ele>
        <time>2008-04-06T07:39:50.000Z</time>
      </trkpt>
      <trkpt lat="48.68851" lon="1.91683">
        <ele>140.01</ele>
        <time>2008-04-06T07:39:55.000Z</time>
      </trkpt>
      <trkpt lat="48.68856" lon="1.91706">
        <ele>140.01</ele>
        <time>2008-04-06T07:40:00.000Z</time>
      </trkpt>
      <trkpt lat="48.68863" lon="1.91718">
        <ele>141.93</ele>
        <time>2008-04-06T07:40:04.000Z</time>
      </trkpt>
      <trkpt lat="48.68867" lon="1.91744">
        <ele>141.93</ele>
        <time>2008-04-06T07:40:10.000Z</time>
      </trkpt>
      <trkpt lat="48.68867" lon="1.9176">
        <ele>140.49</ele>
        <time>2008-04-06T07:40:15.000Z</time>
      </trkpt>
      <trkpt lat="48.68866" lon="1.91764">
        <ele>138.57</ele>
        <time>2008-04-06T07:40:17.000Z</time>
      </trkpt>
      <trkpt lat="48.68858" lon="1.91766">
        <ele>136.16</ele>
        <time>2008-04-06T07:40:21.000Z</time>
      </trkpt>
      <trkpt lat="48.68848" lon="1.9177">
        <ele>136.16</ele>
        <time>2008-04-06T07:40:27.000Z</time>
      </trkpt>
      <trkpt lat="48.68843" lon="1.91778">
        <ele>135.2</ele>
        <time>2008-04-06T07:40:31.000Z</time>
      </trkpt>
      <trkpt lat="48.68835" lon="1.91782">
        <ele>133.76</ele>
        <time>2008-04-06T07:40:35.000Z</time>
      </trkpt>
      <trkpt lat="48.68832" lon="1.91782">
        <ele>134.24</ele>
        <time>2008-04-06T07:40:36.000Z</time>
      </trkpt>
      <trkpt lat="48.68828" lon="1.91781">
        <ele>135.2</ele>
        <time>2008-04-06T07:40:39.000Z</time>
      </trkpt>
      <trkpt lat="48.68822" lon="1.91783">
        <ele>134.72</ele>
        <time>2008-04-06T07:40:42.000Z</time>
      </trkpt>
      <trkpt lat="48.68816" lon="1.9179">
        <ele>134.72</ele>
        <time>2008-04-06T07:40:46.000Z</time>
      </trkpt>
      <trkpt lat="48.68813" lon="1.91797">
        <ele>136.16</ele>
        <time>2008-04-06T07:40:49.000Z</time>
      </trkpt>
      <trkpt lat="48.68803" lon="1.91814">
        <ele>136.64</ele>
        <time>2008-04-06T07:40:55.000Z</time>
      </trkpt>
      <trkpt lat="48.688" lon="1.91819">
        <ele>137.61</ele>
        <time>2008-04-06T07:40:57.000Z</time>
      </trkpt>
      <trkpt lat="48.68788" lon="1.91827">
        <ele>138.57</ele>
        <time>2008-04-06T07:41:03.000Z</time>
      </trkpt>
      <trkpt lat="48.68785" lon="1.91828">
        <ele>139.05</ele>
        <time>2008-04-06T07:41:04.000Z</time>
      </trkpt>
      <trkpt lat="48.68777" lon="1.91835">
        <ele>140.97</ele>
        <time>2008-04-06T07:41:08.000Z</time>
      </trkpt>
      <trkpt lat="48.68774" lon="1.91838">
        <ele>141.45</ele>
        <time>2008-04-06T07:41:10.000Z</time>
      </trkpt>
      <trkpt lat="48.68761" lon="1.91845">
        <ele>142.89</ele>
        <time>2008-04-06T07:41:15.000Z</time>
      </trkpt>
      <trkpt lat="48.68751" lon="1.91843">
        <ele>143.37</ele>
        <time>2008-04-06T07:41:19.000Z</time>
      </trkpt>
      <trkpt lat="48.68748" lon="1.91842">
        <ele>143.37</ele>
        <time>2008-04-06T07:41:20.000Z</time>
      </trkpt>
      <trkpt lat="48.68737" lon="1.91836">
        <ele>145.3</ele>
        <time>2008-04-06T07:41:25.000Z</time>
      </trkpt>
      <trkpt lat="48.68727" lon="1.91838">
        <ele>149.62</ele>
        <time>2008-04-06T07:41:29.000Z</time>
      </trkpt>
      <trkpt lat="48.68716" lon="1.91835">
        <ele>152.99</ele>
        <time>2008-04-06T07:41:33.000Z</time>
      </trkpt>
      <trkpt lat="48.68704" lon="1.91837">
        <ele>157.79</ele>
        <time>2008-04-06T07:41:38.000Z</time>
      </trkpt>
      <trkpt lat="48.68697" lon="1.91825">
        <ele>154.91</ele>
        <time>2008-04-06T07:41:42.000Z</time>
      </trkpt>
      <trkpt lat="48.68692" lon="1.9182">
        <ele>154.43</ele>
        <time>2008-04-06T07:41:44.000Z</time>
      </trkpt>
      <trkpt lat="48.68683" lon="1.91813">
        <ele>153.95</ele>
        <time>2008-04-06T07:41:49.000Z</time>
      </trkpt>
      <trkpt lat="48.68673" lon="1.91799">
        <ele>156.35</ele>
        <time>2008-04-06T07:41:54.000Z</time>
      </trkpt>
      <trkpt lat="48.68667" lon="1.91792">
        <ele>160.68</ele>
        <time>2008-04-06T07:41:57.000Z</time>
      </trkpt>
      <trkpt lat="48.68665" lon="1.9179">
        <ele>162.6</ele>
        <time>2008-04-06T07:41:58.000Z</time>
      </trkpt>
      <trkpt lat="48.6866" lon="1.9178">
        <ele>166.45</ele>
        <time>2008-04-06T07:42:02.000Z</time>
      </trkpt>
      <trkpt lat="48.68653" lon="1.91766">
        <ele>164.04</ele>
        <time>2008-04-06T07:42:07.000Z</time>
      </trkpt>
      <trkpt lat="48.68649" lon="1.91761">
        <ele>164.52</ele>
        <time>2008-04-06T07:42:10.000Z</time>
      </trkpt>
      <trkpt lat="48.68646" lon="1.91742">
        <ele>158.27</ele>
        <time>2008-04-06T07:42:16.000Z</time>
      </trkpt>
      <trkpt lat="48.68643" lon="1.91729">
        <ele>154.91</ele>
        <time>2008-04-06T07:42:22.000Z</time>
      </trkpt>
      <trkpt lat="48.68636" lon="1.91718">
        <ele>151.06</ele>
        <time>2008-04-06T07:42:29.000Z</time>
      </trkpt>
      <trkpt lat="48.68629" lon="1.91713">
        <ele>149.14</ele>
        <time>2008-04-06T07:42:35.000Z</time>
      </trkpt>
      <trkpt lat="48.68624" lon="1.91711">
        <ele>149.62</ele>
        <time>2008-04-06T07:42:41.000Z</time>
      </trkpt>
      <trkpt lat="48.68618" lon="1.91708">
        <ele>148.18</ele>
        <time>2008-04-06T07:42:47.000Z</time>
      </trkpt>
      <trkpt lat="48.68613" lon="1.91711">
        <ele>150.58</ele>
        <time>2008-04-06T07:42:52.000Z</time>
      </trkpt>
      <trkpt lat="48.6861" lon="1.91713">
        <ele>152.99</ele>
        <time>2008-04-06T07:42:55.000Z</time>
      </trkpt>
      <trkpt lat="48.68605" lon="1.91712">
        <ele>152.03</ele>
        <time>2008-04-06T07:42:59.000Z</time>
      </trkpt>
      <trkpt lat="48.686" lon="1.91712">
        <ele>153.95</ele>
        <time>2008-04-06T07:43:04.000Z</time>
      </trkpt>
      <trkpt lat="48.68594" lon="1.91713">
        <ele>156.83</ele>
        <time>2008-04-06T07:43:09.000Z</time>
      </trkpt>
      <trkpt lat="48.68587" lon="1.91712">
        <ele>158.27</ele>
        <time>2008-04-06T07:43:15.000Z</time>
      </trkpt>
      <trkpt lat="48.68576" lon="1.91707">
        <ele>157.31</ele>
        <time>2008-04-06T07:43:28.000Z</time>
      </trkpt>
      <trkpt lat="48.68571" lon="1.91705">
        <ele>158.75</ele>
        <time>2008-04-06T07:43:33.000Z</time>
      </trkpt>
      <trkpt lat="48.68568" lon="1.91704">
        <ele>160.68</ele>
        <time>2008-04-06T07:43:37.000Z</time>
      </trkpt>
      <trkpt lat="48.68562" lon="1.91702">
        <ele>161.64</ele>
        <time>2008-04-06T07:43:43.000Z</time>
      </trkpt>
      <trkpt lat="48.68559" lon="1.917">
        <ele>162.12</ele>
        <time>2008-04-06T07:43:45.000Z</time>
      </trkpt>
      <trkpt lat="48.68551" lon="1.91697">
        <ele>165</ele>
        <time>2008-04-06T07:43:52.000Z</time>
      </trkpt>
      <trkpt lat="48.68549" lon="1.91698">
        <ele>167.41</ele>
        <time>2008-04-06T07:43:54.000Z</time>
      </trkpt>
      <trkpt lat="48.68538" lon="1.91708">
        <ele>167.89</ele>
        <time>2008-04-06T07:44:02.000Z</time>
      </trkpt>
      <trkpt lat="48.68525" lon="1.91717">
        <ele>167.89</ele>
        <time>2008-04-06T07:44:07.000Z</time>
      </trkpt>
      <trkpt lat="48.68518" lon="1.91722">
        <ele>167.41</ele>
        <time>2008-04-06T07:44:10.000Z</time>
      </trkpt>
      <trkpt lat="48.68504" lon="1.91724">
        <ele>166.93</ele>
        <time>2008-04-06T07:44:15.000Z</time>
      </trkpt>
      <trkpt lat="48.6849" lon="1.91728">
        <ele>168.85</ele>
        <time>2008-04-06T07:44:20.000Z</time>
      </trkpt>
      <trkpt lat="48.68486" lon="1.91728">
        <ele>168.85</ele>
        <time>2008-04-06T07:44:22.000Z</time>
      </trkpt>
      <trkpt lat="48.68478" lon="1.91736">
        <ele>166.45</ele>
        <time>2008-04-06T07:44:27.000Z</time>
      </trkpt>
      <trkpt lat="48.68468" lon="1.91747">
        <ele>164.52</ele>
        <time>2008-04-06T07:44:32.000Z</time>
      </trkpt>
      <trkpt lat="48.68464" lon="1.91758">
        <ele>163.08</ele>
        <time>2008-04-06T07:44:36.000Z</time>
      </trkpt>
      <trkpt lat="48.68456" lon="1.91765">
        <ele>162.6</ele>
        <time>2008-04-06T07:44:40.000Z</time>
      </trkpt>
      <trkpt lat="48.68454" lon="1.91783">
        <ele>156.83</ele>
        <time>2008-04-06T07:44:47.000Z</time>
      </trkpt>
      <trkpt lat="48.68446" lon="1.91794">
        <ele>152.99</ele>
        <time>2008-04-06T07:44:53.000Z</time>
      </trkpt>
      <trkpt lat="48.68436" lon="1.91812">
        <ele>152.51</ele>
        <time>2008-04-06T07:44:59.000Z</time>
      </trkpt>
      <trkpt lat="48.68428" lon="1.91818">
        <ele>152.51</ele>
        <time>2008-04-06T07:45:02.000Z</time>
      </trkpt>
      <trkpt lat="48.68422" lon="1.91819">
        <ele>154.91</ele>
        <time>2008-04-06T07:45:05.000Z</time>
      </trkpt>
      <trkpt lat="48.68413" lon="1.91809">
        <ele>152.99</ele>
        <time>2008-04-06T07:45:12.000Z</time>
      </trkpt>
      <trkpt lat="48.68403" lon="1.918">
        <ele>151.54</ele>
        <time>2008-04-06T07:45:21.000Z</time>
      </trkpt>
      <trkpt lat="48.68396" lon="1.91798">
        <ele>152.03</ele>
        <time>2008-04-06T07:45:27.000Z</time>
      </trkpt>
      <trkpt lat="48.68391" lon="1.91792">
        <ele>150.58</ele>
        <time>2008-04-06T07:45:32.000Z</time>
      </trkpt>
      <trkpt lat="48.68387" lon="1.91789">
        <ele>152.99</ele>
        <time>2008-04-06T07:45:37.000Z</time>
      </trkpt>
      <trkpt lat="48.6838" lon="1.91789">
        <ele>157.31</ele>
        <time>2008-04-06T07:45:43.000Z</time>
      </trkpt>
      <trkpt lat="48.68372" lon="1.91789">
        <ele>162.12</ele>
        <time>2008-04-06T07:45:48.000Z</time>
      </trkpt>
      <trkpt lat="48.68369" lon="1.91787">
        <ele>160.68</ele>
        <time>2008-04-06T07:45:50.000Z</time>
      </trkpt>
      <trkpt lat="48.68359" lon="1.91791">
        <ele>161.64</ele>
        <time>2008-04-06T07:45:55.000Z</time>
      </trkpt>
      <trkpt lat="48.68352" lon="1.91787">
        <ele>163.56</ele>
        <time>2008-04-06T07:45:58.000Z</time>
      </trkpt>
      <trkpt lat="48.68345" lon="1.91782">
        <ele>171.25</ele>
        <time>2008-04-06T07:46:04.000Z</time>
      </trkpt>
      <trkpt lat="48.68337" lon="1.91784">
        <ele>173.66</ele>
        <time>2008-04-06T07:46:08.000Z</time>
      </trkpt>
      <trkpt lat="48.68325" lon="1.91789">
        <ele>173.66</ele>
        <time>2008-04-06T07:46:13.000Z</time>
      </trkpt>
      <trkpt lat="48.68317" lon="1.9179">
        <ele>178.94</ele>
        <time>2008-04-06T07:46:18.000Z</time>
      </trkpt>
      <trkpt lat="48.68307" lon="1.91796">
        <ele>183.75</ele>
        <time>2008-04-06T07:46:25.000Z</time>
      </trkpt>
      <trkpt lat="48.68305" lon="1.9181">
        <ele>181.35</ele>
        <time>2008-04-06T07:46:31.000Z</time>
      </trkpt>
      <trkpt lat="48.68304" lon="1.91813">
        <ele>179.9</ele>
        <time>2008-04-06T07:46:33.000Z</time>
      </trkpt>
      <trkpt lat="48.68293" lon="1.91825">
        <ele>174.62</ele>
        <time>2008-04-06T07:46:40.000Z</time>
      </trkpt>
      <trkpt lat="48.68291" lon="1.91831">
        <ele>172.21</ele>
        <time>2008-04-06T07:46:45.000Z</time>
      </trkpt>
      <trkpt lat="48.68292" lon="1.91833">
        <ele>172.69</ele>
        <time>2008-04-06T07:46:46.000Z</time>
      </trkpt>
      <trkpt lat="48.68293" lon="1.91836">
        <ele>172.21</ele>
        <time>2008-04-06T07:46:48.000Z</time>
      </trkpt>
      <trkpt lat="48.68287" lon="1.91854">
        <ele>167.89</ele>
        <time>2008-04-06T07:46:53.000Z</time>
      </trkpt>
      <trkpt lat="48.68285" lon="1.91877">
        <ele>164.04</ele>
        <time>2008-04-06T07:46:59.000Z</time>
      </trkpt>
      <trkpt lat="48.68287" lon="1.91885">
        <ele>163.08</ele>
        <time>2008-04-06T07:47:03.000Z</time>
      </trkpt>
      <trkpt lat="48.68288" lon="1.91891">
        <ele>164.04</ele>
        <time>2008-04-06T07:47:07.000Z</time>
      </trkpt>
      <trkpt lat="48.68293" lon="1.91901">
        <ele>168.85</ele>
        <time>2008-04-06T07:47:15.000Z</time>
      </trkpt>
      <trkpt lat="48.68298" lon="1.91912">
        <ele>170.77</ele>
        <time>2008-04-06T07:47:23.000Z</time>
      </trkpt>
      <trkpt lat="48.683" lon="1.91915">
        <ele>171.25</ele>
        <time>2008-04-06T07:47:26.000Z</time>
      </trkpt>
      <trkpt lat="48.68303" lon="1.91916">
        <ele>171.25</ele>
        <time>2008-04-06T07:47:30.000Z</time>
      </trkpt>
      <trkpt lat="48.68306" lon="1.91923">
        <ele>172.69</ele>
        <time>2008-04-06T07:47:38.000Z</time>
      </trkpt>
      <trkpt lat="48.68308" lon="1.91931">
        <ele>173.66</ele>
        <time>2008-04-06T07:47:42.000Z</time>
      </trkpt>
      <trkpt lat="48.68313" lon="1.91945">
        <ele>181.83</ele>
        <time>2008-04-06T07:47:49.000Z</time>
      </trkpt>
      <trkpt lat="48.6832" lon="1.91951">
        <ele>179.42</ele>
        <time>2008-04-06T07:47:54.000Z</time>
      </trkpt>
      <trkpt lat="48.68323" lon="1.91956">
        <ele>179.42</ele>
        <time>2008-04-06T07:47:56.000Z</time>
      </trkpt>
      <trkpt lat="48.68334" lon="1.91968">
        <ele>177.5</ele>
        <time>2008-04-06T07:48:01.000Z</time>
      </trkpt>
      <trkpt lat="48.68344" lon="1.91985">
        <ele>174.62</ele>
        <time>2008-04-06T07:48:06.000Z</time>
      </trkpt>
      <trkpt lat="48.68354" lon="1.91993">
        <ele>171.73</ele>
        <time>2008-04-06T07:48:10.000Z</time>
      </trkpt>
      <trkpt lat="48.68364" lon="1.92">
        <ele>170.29</ele>
        <time>2008-04-06T07:48:14.000Z</time>
      </trkpt>
      <trkpt lat="48.68376" lon="1.92006">
        <ele>166.93</ele>
        <time>2008-04-06T07:48:19.000Z</time>
      </trkpt>
      <trkpt lat="48.6838" lon="1.92009">
        <ele>165.96</ele>
        <time>2008-04-06T07:48:21.000Z</time>
      </trkpt>
      <trkpt lat="48.68392" lon="1.92018">
        <ele>162.12</ele>
        <time>2008-04-06T07:48:27.000Z</time>
      </trkpt>
      <trkpt lat="48.68394" lon="1.92019">
        <ele>161.64</ele>
        <time>2008-04-06T07:48:28.000Z</time>
      </trkpt>
      <trkpt lat="48.68403" lon="1.92027">
        <ele>159.72</ele>
        <time>2008-04-06T07:48:34.000Z</time>
      </trkpt>
      <trkpt lat="48.68409" lon="1.92036">
        <ele>155.87</ele>
        <time>2008-04-06T07:48:38.000Z</time>
      </trkpt>
      <trkpt lat="48.68416" lon="1.92056">
        <ele>152.03</ele>
        <time>2008-04-06T07:48:43.000Z</time>
      </trkpt>
      <trkpt lat="48.68421" lon="1.92073">
        <ele>152.03</ele>
        <time>2008-04-06T07:48:48.000Z</time>
      </trkpt>
      <trkpt lat="48.68425" lon="1.92087">
        <ele>154.43</ele>
        <time>2008-04-06T07:48:53.000Z</time>
      </trkpt>
      <trkpt lat="48.68425" lon="1.92102">
        <ele>154.91</ele>
        <time>2008-04-06T07:48:58.000Z</time>
      </trkpt>
      <trkpt lat="48.68421" lon="1.92122">
        <ele>151.06</ele>
        <time>2008-04-06T07:49:04.000Z</time>
      </trkpt>
      <trkpt lat="48.6842" lon="1.92126">
        <ele>151.06</ele>
        <time>2008-04-06T07:49:05.000Z</time>
      </trkpt>
      <trkpt lat="48.68419" lon="1.9214">
        <ele>151.54</ele>
        <time>2008-04-06T07:49:09.000Z</time>
      </trkpt>
      <trkpt lat="48.68416" lon="1.92157">
        <ele>152.51</ele>
        <time>2008-04-06T07:49:17.000Z</time>
      </trkpt>
      <trkpt lat="48.68412" lon="1.9217">
        <ele>152.03</ele>
        <time>2008-04-06T07:49:24.000Z</time>
      </trkpt>
      <trkpt lat="48.6841" lon="1.92182">
        <ele>152.51</ele>
        <time>2008-04-06T07:49:27.000Z</time>
      </trkpt>
      <trkpt lat="48.68405" lon="1.922">
        <ele>152.51</ele>
        <time>2008-04-06T07:49:33.000Z</time>
      </trkpt>
      <trkpt lat="48.68399" lon="1.92213">
        <ele>151.54</ele>
        <time>2008-04-06T07:49:38.000Z</time>
      </trkpt>
      <trkpt lat="48.6839" lon="1.92218">
        <ele>151.06</ele>
        <time>2008-04-06T07:49:43.000Z</time>
      </trkpt>
      <trkpt lat="48.68383" lon="1.92226">
        <ele>152.03</ele>
        <time>2008-04-06T07:49:47.000Z</time>
      </trkpt>
      <trkpt lat="48.68373" lon="1.92236">
        <ele>148.18</ele>
        <time>2008-04-06T07:49:52.000Z</time>
      </trkpt>
      <trkpt lat="48.68363" lon="1.92252">
        <ele>147.7</ele>
        <time>2008-04-06T07:49:57.000Z</time>
      </trkpt>
      <trkpt lat="48.68362" lon="1.92264">
        <ele>147.22</ele>
        <time>2008-04-06T07:50:02.000Z</time>
      </trkpt>
      <trkpt lat="48.68361" lon="1.92274">
        <ele>147.7</ele>
        <time>2008-04-06T07:50:06.000Z</time>
      </trkpt>
      <trkpt lat="48.68361" lon="1.92279">
        <ele>148.66</ele>
        <time>2008-04-06T07:50:08.000Z</time>
      </trkpt>
      <trkpt lat="48.68362" lon="1.92287">
        <ele>149.14</ele>
        <time>2008-04-06T07:50:11.000Z</time>
      </trkpt>
      <trkpt lat="48.68362" lon="1.92304">
        <ele>150.1</ele>
        <time>2008-04-06T07:50:18.000Z</time>
      </trkpt>
      <trkpt lat="48.68361" lon="1.92313">
        <ele>150.1</ele>
        <time>2008-04-06T07:50:21.000Z</time>
      </trkpt>
      <trkpt lat="48.68359" lon="1.92325">
        <ele>151.54</ele>
        <time>2008-04-06T07:50:27.000Z</time>
      </trkpt>
      <trkpt lat="48.68357" lon="1.92333">
        <ele>152.51</ele>
        <time>2008-04-06T07:50:33.000Z</time>
      </trkpt>
      <trkpt lat="48.68355" lon="1.92346">
        <ele>154.43</ele>
        <time>2008-04-06T07:50:41.000Z</time>
      </trkpt>
      <trkpt lat="48.68353" lon="1.92367">
        <ele>152.51</ele>
        <time>2008-04-06T07:50:47.000Z</time>
      </trkpt>
      <trkpt lat="48.68351" lon="1.9239">
        <ele>151.06</ele>
        <time>2008-04-06T07:50:52.000Z</time>
      </trkpt>
      <trkpt lat="48.68349" lon="1.92406">
        <ele>148.66</ele>
        <time>2008-04-06T07:50:56.000Z</time>
      </trkpt>
      <trkpt lat="48.68353" lon="1.92419">
        <ele>146.26</ele>
        <time>2008-04-06T07:51:00.000Z</time>
      </trkpt>
      <trkpt lat="48.68348" lon="1.92436">
        <ele>145.3</ele>
        <time>2008-04-06T07:51:05.000Z</time>
      </trkpt>
      <trkpt lat="48.68333" lon="1.92444">
        <ele>142.89</ele>
        <time>2008-04-06T07:51:11.000Z</time>
      </trkpt>
      <trkpt lat="48.68321" lon="1.92453">
        <ele>142.89</ele>
        <time>2008-04-06T07:51:16.000Z</time>
      </trkpt>
      <trkpt lat="48.68307" lon="1.92462">
        <ele>144.82</ele>
        <time>2008-04-06T07:51:21.000Z</time>
      </trkpt>
      <trkpt lat="48.68297" lon="1.92467">
        <ele>147.22</ele>
        <time>2008-04-06T07:51:25.000Z</time>
      </trkpt>
      <trkpt lat="48.68287" lon="1.9248">
        <ele>146.26</ele>
        <time>2008-04-06T07:51:31.000Z</time>
      </trkpt>
      <trkpt lat="48.68282" lon="1.92492">
        <ele>144.34</ele>
        <time>2008-04-06T07:51:37.000Z</time>
      </trkpt>
      <trkpt lat="48.68275" lon="1.92493">
        <ele>142.89</ele>
        <time>2008-04-06T07:51:42.000Z</time>
      </trkpt>
      <trkpt lat="48.68271" lon="1.92497">
        <ele>143.85</ele>
        <time>2008-04-06T07:51:48.000Z</time>
      </trkpt>
      <trkpt lat="48.68269" lon="1.92505">
        <ele>147.7</ele>
        <time>2008-04-06T07:51:56.000Z</time>
      </trkpt>
      <trkpt lat="48.68268" lon="1.92512">
        <ele>148.66</ele>
        <time>2008-04-06T07:51:58.000Z</time>
      </trkpt>
      <trkpt lat="48.68269" lon="1.92519">
        <ele>151.06</ele>
        <time>2008-04-06T07:52:01.000Z</time>
      </trkpt>
      <trkpt lat="48.68266" lon="1.92528">
        <ele>154.91</ele>
        <time>2008-04-06T07:52:08.000Z</time>
      </trkpt>
      <trkpt lat="48.68259" lon="1.92536">
        <ele>156.83</ele>
        <time>2008-04-06T07:52:16.000Z</time>
      </trkpt>
      <trkpt lat="48.68256" lon="1.92551">
        <ele>157.31</ele>
        <time>2008-04-06T07:52:23.000Z</time>
      </trkpt>
      <trkpt lat="48.68252" lon="1.92566">
        <ele>157.79</ele>
        <time>2008-04-06T07:52:27.000Z</time>
      </trkpt>
      <trkpt lat="48.68251" lon="1.92575">
        <ele>158.27</ele>
        <time>2008-04-06T07:52:30.000Z</time>
      </trkpt>
      <trkpt lat="48.68246" lon="1.92588">
        <ele>156.83</ele>
        <time>2008-04-06T07:52:35.000Z</time>
      </trkpt>
      <trkpt lat="48.68243" lon="1.92592">
        <ele>156.35</ele>
        <time>2008-04-06T07:52:38.000Z</time>
      </trkpt>
      <trkpt lat="48.68244" lon="1.92604">
        <ele>155.39</ele>
        <time>2008-04-06T07:52:43.000Z</time>
      </trkpt>
      <trkpt lat="48.68248" lon="1.92625">
        <ele>154.91</ele>
        <time>2008-04-06T07:52:48.000Z</time>
      </trkpt>
      <trkpt lat="48.68251" lon="1.9265">
        <ele>152.99</ele>
        <time>2008-04-06T07:52:54.000Z</time>
      </trkpt>
      <trkpt lat="48.6826" lon="1.92661">
        <ele>153.47</ele>
        <time>2008-04-06T07:52:59.000Z</time>
      </trkpt>
      <trkpt lat="48.68273" lon="1.92682">
        <ele>154.91</ele>
        <time>2008-04-06T07:53:05.000Z</time>
      </trkpt>
      <trkpt lat="48.68286" lon="1.9269">
        <ele>155.87</ele>
        <time>2008-04-06T07:53:10.000Z</time>
      </trkpt>
      <trkpt lat="48.68288" lon="1.92693">
        <ele>155.39</ele>
        <time>2008-04-06T07:53:11.000Z</time>
      </trkpt>
      <trkpt lat="48.68291" lon="1.92713">
        <ele>153.47</ele>
        <time>2008-04-06T07:53:17.000Z</time>
      </trkpt>
      <trkpt lat="48.68293" lon="1.92732">
        <ele>152.51</ele>
        <time>2008-04-06T07:53:21.000Z</time>
      </trkpt>
      <trkpt lat="48.68291" lon="1.92745">
        <ele>151.06</ele>
        <time>2008-04-06T07:53:25.000Z</time>
      </trkpt>
      <trkpt lat="48.68284" lon="1.92765">
        <ele>150.58</ele>
        <time>2008-04-06T07:53:30.000Z</time>
      </trkpt>
      <trkpt lat="48.68278" lon="1.92782">
        <ele>151.06</ele>
        <time>2008-04-06T07:53:35.000Z</time>
      </trkpt>
      <trkpt lat="48.68272" lon="1.92802">
        <ele>152.03</ele>
        <time>2008-04-06T07:53:40.000Z</time>
      </trkpt>
      <trkpt lat="48.68263" lon="1.92818">
        <ele>152.03</ele>
        <time>2008-04-06T07:53:45.000Z</time>
      </trkpt>
      <trkpt lat="48.68261" lon="1.92821">
        <ele>152.03</ele>
        <time>2008-04-06T07:53:46.000Z</time>
      </trkpt>
      <trkpt lat="48.68247" lon="1.9284">
        <ele>153.95</ele>
        <time>2008-04-06T07:53:53.000Z</time>
      </trkpt>
      <trkpt lat="48.68241" lon="1.92861">
        <ele>158.27</ele>
        <time>2008-04-06T07:53:58.000Z</time>
      </trkpt>
      <trkpt lat="48.68238" lon="1.92868">
        <ele>157.31</ele>
        <time>2008-04-06T07:54:00.000Z</time>
      </trkpt>
      <trkpt lat="48.68235" lon="1.9288">
        <ele>158.27</ele>
        <time>2008-04-06T07:54:04.000Z</time>
      </trkpt>
      <trkpt lat="48.68229" lon="1.92895">
        <ele>161.16</ele>
        <time>2008-04-06T07:54:11.000Z</time>
      </trkpt>
      <trkpt lat="48.68224" lon="1.92907">
        <ele>168.85</ele>
        <time>2008-04-06T07:54:16.000Z</time>
      </trkpt>
      <trkpt lat="48.68222" lon="1.92914">
        <ele>172.69</ele>
        <time>2008-04-06T07:54:20.000Z</time>
      </trkpt>
      <trkpt lat="48.68224" lon="1.92923">
        <ele>171.73</ele>
        <time>2008-04-06T07:54:25.000Z</time>
      </trkpt>
      <trkpt lat="48.68232" lon="1.92933">
        <ele>171.25</ele>
        <time>2008-04-06T07:54:31.000Z</time>
      </trkpt>
      <trkpt lat="48.68235" lon="1.92939">
        <ele>170.29</ele>
        <time>2008-04-06T07:54:34.000Z</time>
      </trkpt>
      <trkpt lat="48.68236" lon="1.92941">
        <ele>168.37</ele>
        <time>2008-04-06T07:54:36.000Z</time>
      </trkpt>
      <trkpt lat="48.68232" lon="1.9295">
        <ele>167.89</ele>
        <time>2008-04-06T07:54:41.000Z</time>
      </trkpt>
      <trkpt lat="48.68225" lon="1.92955">
        <ele>164.52</ele>
        <time>2008-04-06T07:54:51.000Z</time>
      </trkpt>
      <trkpt lat="48.68219" lon="1.92958">
        <ele>162.6</ele>
        <time>2008-04-06T07:54:56.000Z</time>
      </trkpt>
      <trkpt lat="48.68219" lon="1.92964">
        <ele>164.04</ele>
        <time>2008-04-06T07:55:00.000Z</time>
      </trkpt>
      <trkpt lat="48.68211" lon="1.92975">
        <ele>161.16</ele>
        <time>2008-04-06T07:55:06.000Z</time>
      </trkpt>
      <trkpt lat="48.68203" lon="1.92987">
        <ele>160.2</ele>
        <time>2008-04-06T07:55:11.000Z</time>
      </trkpt>
      <trkpt lat="48.68196" lon="1.93003">
        <ele>158.27</ele>
        <time>2008-04-06T07:55:16.000Z</time>
      </trkpt>
      <trkpt lat="48.68191" lon="1.93021">
        <ele>158.27</ele>
        <time>2008-04-06T07:55:21.000Z</time>
      </trkpt>
      <trkpt lat="48.68187" lon="1.9303">
        <ele>163.08</ele>
        <time>2008-04-06T07:55:27.000Z</time>
      </trkpt>
      <trkpt lat="48.68189" lon="1.93045">
        <ele>169.81</ele>
        <time>2008-04-06T07:55:35.000Z</time>
      </trkpt>
      <trkpt lat="48.68186" lon="1.93054">
        <ele>170.77</ele>
        <time>2008-04-06T07:55:40.000Z</time>
      </trkpt>
      <trkpt lat="48.68181" lon="1.93065">
        <ele>169.33</ele>
        <time>2008-04-06T07:55:47.000Z</time>
      </trkpt>
      <trkpt lat="48.68178" lon="1.93076">
        <ele>167.89</ele>
        <time>2008-04-06T07:55:54.000Z</time>
      </trkpt>
      <trkpt lat="48.68176" lon="1.9308">
        <ele>166.93</ele>
        <time>2008-04-06T07:55:58.000Z</time>
      </trkpt>
      <trkpt lat="48.68169" lon="1.93091">
        <ele>168.85</ele>
        <time>2008-04-06T07:56:07.000Z</time>
      </trkpt>
      <trkpt lat="48.68166" lon="1.93096">
        <ele>169.81</ele>
        <time>2008-04-06T07:56:10.000Z</time>
      </trkpt>
      <trkpt lat="48.68163" lon="1.93114">
        <ele>170.29</ele>
        <time>2008-04-06T07:56:15.000Z</time>
      </trkpt>
      <trkpt lat="48.68157" lon="1.93125">
        <ele>168.37</ele>
        <time>2008-04-06T07:56:20.000Z</time>
      </trkpt>
      <trkpt lat="48.68153" lon="1.93149">
        <ele>168.85</ele>
        <time>2008-04-06T07:56:25.000Z</time>
      </trkpt>
      <trkpt lat="48.68145" lon="1.9318">
        <ele>168.85</ele>
        <time>2008-04-06T07:56:30.000Z</time>
      </trkpt>
      <trkpt lat="48.68143" lon="1.93197">
        <ele>169.33</ele>
        <time>2008-04-06T07:56:34.000Z</time>
      </trkpt>
      <trkpt lat="48.68137" lon="1.93207">
        <ele>168.37</ele>
        <time>2008-04-06T07:56:38.000Z</time>
      </trkpt>
      <trkpt lat="48.68129" lon="1.93216">
        <ele>169.81</ele>
        <time>2008-04-06T07:56:43.000Z</time>
      </trkpt>
      <trkpt lat="48.68127" lon="1.93219">
        <ele>170.29</ele>
        <time>2008-04-06T07:56:44.000Z</time>
      </trkpt>
      <trkpt lat="48.68118" lon="1.93232">
        <ele>170.77</ele>
        <time>2008-04-06T07:56:50.000Z</time>
      </trkpt>
      <trkpt lat="48.68113" lon="1.93249">
        <ele>168.85</ele>
        <time>2008-04-06T07:56:55.000Z</time>
      </trkpt>
      <trkpt lat="48.68109" lon="1.9327">
        <ele>171.25</ele>
        <time>2008-04-06T07:56:59.000Z</time>
      </trkpt>
      <trkpt lat="48.68107" lon="1.93288">
        <ele>169.81</ele>
        <time>2008-04-06T07:57:04.000Z</time>
      </trkpt>
      <trkpt lat="48.68104" lon="1.93294">
        <ele>170.29</ele>
        <time>2008-04-06T07:57:06.000Z</time>
      </trkpt>
      <trkpt lat="48.68099" lon="1.93292">
        <ele>169.81</ele>
        <time>2008-04-06T07:57:08.000Z</time>
      </trkpt>
      <trkpt lat="48.68095" lon="1.93288">
        <ele>169.33</ele>
        <time>2008-04-06T07:57:10.000Z</time>
      </trkpt>
      <trkpt lat="48.68088" lon="1.93284">
        <ele>169.33</ele>
        <time>2008-04-06T07:57:14.000Z</time>
      </trkpt>
      <trkpt lat="48.6808" lon="1.93281">
        <ele>167.41</ele>
        <time>2008-04-06T07:57:19.000Z</time>
      </trkpt>
      <trkpt lat="48.68075" lon="1.93278">
        <ele>163.08</ele>
        <time>2008-04-06T07:57:23.000Z</time>
      </trkpt>
      <trkpt lat="48.68066" lon="1.93279">
        <ele>157.79</ele>
        <time>2008-04-06T07:57:29.000Z</time>
      </trkpt>
      <trkpt lat="48.68058" lon="1.93287">
        <ele>155.39</ele>
        <time>2008-04-06T07:57:33.000Z</time>
      </trkpt>
      <trkpt lat="48.68046" lon="1.93297">
        <ele>149.62</ele>
        <time>2008-04-06T07:57:39.000Z</time>
      </trkpt>
      <trkpt lat="48.68042" lon="1.93308">
        <ele>147.22</ele>
        <time>2008-04-06T07:57:42.000Z</time>
      </trkpt>
      <trkpt lat="48.68034" lon="1.93327">
        <ele>144.34</ele>
        <time>2008-04-06T07:57:47.000Z</time>
      </trkpt>
      <trkpt lat="48.68032" lon="1.93339">
        <ele>145.3</ele>
        <time>2008-04-06T07:57:50.000Z</time>
      </trkpt>
      <trkpt lat="48.6803" lon="1.93352">
        <ele>148.66</ele>
        <time>2008-04-06T07:57:55.000Z</time>
      </trkpt>
      <trkpt lat="48.68031" lon="1.93361">
        <ele>152.99</ele>
        <time>2008-04-06T07:58:00.000Z</time>
      </trkpt>
      <trkpt lat="48.68032" lon="1.93368">
        <ele>157.31</ele>
        <time>2008-04-06T07:58:04.000Z</time>
      </trkpt>
      <trkpt lat="48.68033" lon="1.93369">
        <ele>156.83</ele>
        <time>2008-04-06T07:58:06.000Z</time>
      </trkpt>
      <trkpt lat="48.68035" lon="1.93377">
        <ele>161.16</ele>
        <time>2008-04-06T07:58:10.000Z</time>
      </trkpt>
      <trkpt lat="48.68032" lon="1.93391">
        <ele>158.27</ele>
        <time>2008-04-06T07:58:16.000Z</time>
      </trkpt>
      <trkpt lat="48.6803" lon="1.93407">
        <ele>157.31</ele>
        <time>2008-04-06T07:58:20.000Z</time>
      </trkpt>
      <trkpt lat="48.68026" lon="1.93429">
        <ele>156.35</ele>
        <time>2008-04-06T07:58:25.000Z</time>
      </trkpt>
      <trkpt lat="48.68023" lon="1.93439">
        <ele>156.35</ele>
        <time>2008-04-06T07:58:28.000Z</time>
      </trkpt>
      <trkpt lat="48.68021" lon="1.93457">
        <ele>159.72</ele>
        <time>2008-04-06T07:58:36.000Z</time>
      </trkpt>
      <trkpt lat="48.6802" lon="1.93458">
        <ele>157.79</ele>
        <time>2008-04-06T07:58:38.000Z</time>
      </trkpt>
      <trkpt lat="48.68019" lon="1.93472">
        <ele>160.2</ele>
        <time>2008-04-06T07:58:47.000Z</time>
      </trkpt>
      <trkpt lat="48.68016" lon="1.93483">
        <ele>156.83</ele>
        <time>2008-04-06T07:58:52.000Z</time>
      </trkpt>
      <trkpt lat="48.68021" lon="1.93503">
        <ele>154.91</ele>
        <time>2008-04-06T07:58:58.000Z</time>
      </trkpt>
      <trkpt lat="48.68027" lon="1.9352">
        <ele>152.99</ele>
        <time>2008-04-06T07:59:03.000Z</time>
      </trkpt>
      <trkpt lat="48.68027" lon="1.93525">
        <ele>152.51</ele>
        <time>2008-04-06T07:59:04.000Z</time>
      </trkpt>
      <trkpt lat="48.68037" lon="1.93551">
        <ele>159.72</ele>
        <time>2008-04-06T07:59:10.000Z</time>
      </trkpt>
      <trkpt lat="48.68041" lon="1.93568">
        <ele>155.87</ele>
        <time>2008-04-06T07:59:15.000Z</time>
      </trkpt>
      <trkpt lat="48.68038" lon="1.93588">
        <ele>149.14</ele>
        <time>2008-04-06T07:59:20.000Z</time>
      </trkpt>
      <trkpt lat="48.68041" lon="1.93613">
        <ele>151.54</ele>
        <time>2008-04-06T07:59:27.000Z</time>
      </trkpt>
      <trkpt lat="48.6804" lon="1.93632">
        <ele>156.35</ele>
        <time>2008-04-06T07:59:31.000Z</time>
      </trkpt>
      <trkpt lat="48.68045" lon="1.93654">
        <ele>159.24</ele>
        <time>2008-04-06T07:59:36.000Z</time>
      </trkpt>
      <trkpt lat="48.68043" lon="1.93669">
        <ele>159.24</ele>
        <time>2008-04-06T07:59:41.000Z</time>
      </trkpt>
      <trkpt lat="48.6804" lon="1.93686">
        <ele>158.27</ele>
        <time>2008-04-06T07:59:45.000Z</time>
      </trkpt>
      <trkpt lat="48.68039" lon="1.93708">
        <ele>162.6</ele>
        <time>2008-04-06T07:59:50.000Z</time>
      </trkpt>
      <trkpt lat="48.68038" lon="1.9373">
        <ele>163.56</ele>
        <time>2008-04-06T07:59:57.000Z</time>
      </trkpt>
      <trkpt lat="48.68038" lon="1.93733">
        <ele>164.52</ele>
        <time>2008-04-06T07:59:58.000Z</time>
      </trkpt>
      <trkpt lat="48.68032" lon="1.93745">
        <ele>166.45</ele>
        <time>2008-04-06T08:00:03.000Z</time>
      </trkpt>
      <trkpt lat="48.68027" lon="1.93747">
        <ele>163.56</ele>
        <time>2008-04-06T08:00:07.000Z</time>
      </trkpt>
      <trkpt lat="48.68022" lon="1.93755">
        <ele>165.48</ele>
        <time>2008-04-06T08:00:11.000Z</time>
      </trkpt>
      <trkpt lat="48.68016" lon="1.93766">
        <ele>172.69</ele>
        <time>2008-04-06T08:00:17.000Z</time>
      </trkpt>
      <trkpt lat="48.6801" lon="1.93774">
        <ele>174.14</ele>
        <time>2008-04-06T08:00:24.000Z</time>
      </trkpt>
      <trkpt lat="48.68005" lon="1.93782">
        <ele>172.69</ele>
        <time>2008-04-06T08:00:30.000Z</time>
      </trkpt>
      <trkpt lat="48.68" lon="1.93793">
        <ele>173.17</ele>
        <time>2008-04-06T08:00:36.000Z</time>
      </trkpt>
      <trkpt lat="48.67999" lon="1.93794">
        <ele>173.17</ele>
        <time>2008-04-06T08:00:37.000Z</time>
      </trkpt>
      <trkpt lat="48.67994" lon="1.93789">
        <ele>164.52</ele>
        <time>2008-04-06T08:00:42.000Z</time>
      </trkpt>
      <trkpt lat="48.67991" lon="1.93778">
        <ele>157.31</ele>
        <time>2008-04-06T08:00:46.000Z</time>
      </trkpt>
      <trkpt lat="48.67986" lon="1.93778">
        <ele>156.35</ele>
        <time>2008-04-06T08:00:50.000Z</time>
      </trkpt>
      <trkpt lat="48.6798" lon="1.93777">
        <ele>155.39</ele>
        <time>2008-04-06T08:00:54.000Z</time>
      </trkpt>
      <trkpt lat="48.67975" lon="1.93784">
        <ele>158.75</ele>
        <time>2008-04-06T08:00:59.000Z</time>
      </trkpt>
      <trkpt lat="48.67969" lon="1.93796">
        <ele>165</ele>
        <time>2008-04-06T08:01:04.000Z</time>
      </trkpt>
      <trkpt lat="48.67963" lon="1.93802">
        <ele>165</ele>
        <time>2008-04-06T08:01:10.000Z</time>
      </trkpt>
      <trkpt lat="48.67957" lon="1.93807">
        <ele>163.56</ele>
        <time>2008-04-06T08:01:15.000Z</time>
      </trkpt>
      <trkpt lat="48.67951" lon="1.93809">
        <ele>161.16</ele>
        <time>2008-04-06T08:01:20.000Z</time>
      </trkpt>
      <trkpt lat="48.67945" lon="1.93813">
        <ele>161.64</ele>
        <time>2008-04-06T08:01:26.000Z</time>
      </trkpt>
      <trkpt lat="48.67941" lon="1.93814">
        <ele>161.64</ele>
        <time>2008-04-06T08:01:29.000Z</time>
      </trkpt>
      <trkpt lat="48.67934" lon="1.93817">
        <ele>160.2</ele>
        <time>2008-04-06T08:01:34.000Z</time>
      </trkpt>
      <trkpt lat="48.67928" lon="1.93814">
        <ele>157.79</ele>
        <time>2008-04-06T08:01:39.000Z</time>
      </trkpt>
      <trkpt lat="48.67916" lon="1.93812">
        <ele>155.87</ele>
        <time>2008-04-06T08:01:47.000Z</time>
      </trkpt>
      <trkpt lat="48.67911" lon="1.93809">
        <ele>153.95</ele>
        <time>2008-04-06T08:01:52.000Z</time>
      </trkpt>
      <trkpt lat="48.6791" lon="1.93805">
        <ele>149.14</ele>
        <time>2008-04-06T08:01:55.000Z</time>
      </trkpt>
      <trkpt lat="48.6791" lon="1.93799">
        <ele>142.89</ele>
        <time>2008-04-06T08:02:01.000Z</time>
      </trkpt>
      <trkpt lat="48.67904" lon="1.93798">
        <ele>143.85</ele>
        <time>2008-04-06T08:02:06.000Z</time>
      </trkpt>
      <trkpt lat="48.67902" lon="1.93796">
        <ele>144.34</ele>
        <time>2008-04-06T08:02:08.000Z</time>
      </trkpt>
      <trkpt lat="48.67898" lon="1.93794">
        <ele>147.22</ele>
        <time>2008-04-06T08:02:12.000Z</time>
      </trkpt>
      <trkpt lat="48.67889" lon="1.93795">
        <ele>152.03</ele>
        <time>2008-04-06T08:02:19.000Z</time>
      </trkpt>
      <trkpt lat="48.67883" lon="1.93799">
        <ele>154.43</ele>
        <time>2008-04-06T08:02:24.000Z</time>
      </trkpt>
      <trkpt lat="48.67874" lon="1.93804">
        <ele>156.83</ele>
        <time>2008-04-06T08:02:31.000Z</time>
      </trkpt>
      <trkpt lat="48.67869" lon="1.93806">
        <ele>156.83</ele>
        <time>2008-04-06T08:02:35.000Z</time>
      </trkpt>
      <trkpt lat="48.67864" lon="1.93807">
        <ele>157.79</ele>
        <time>2008-04-06T08:02:40.000Z</time>
      </trkpt>
      <trkpt lat="48.67854" lon="1.9381">
        <ele>155.87</ele>
        <time>2008-04-06T08:02:47.000Z</time>
      </trkpt>
      <trkpt lat="48.67844" lon="1.93819">
        <ele>156.83</ele>
        <time>2008-04-06T08:02:56.000Z</time>
      </trkpt>
      <trkpt lat="48.67835" lon="1.93829">
        <ele>161.64</ele>
        <time>2008-04-06T08:03:03.000Z</time>
      </trkpt>
      <trkpt lat="48.67825" lon="1.93837">
        <ele>161.64</ele>
        <time>2008-04-06T08:03:11.000Z</time>
      </trkpt>
      <trkpt lat="48.67813" lon="1.93841">
        <ele>161.64</ele>
        <time>2008-04-06T08:03:17.000Z</time>
      </trkpt>
      <trkpt lat="48.678" lon="1.93846">
        <ele>162.12</ele>
        <time>2008-04-06T08:03:23.000Z</time>
      </trkpt>
      <trkpt lat="48.67794" lon="1.93855">
        <ele>162.12</ele>
        <time>2008-04-06T08:03:27.000Z</time>
      </trkpt>
      <trkpt lat="48.67791" lon="1.93859">
        <ele>161.64</ele>
        <time>2008-04-06T08:03:29.000Z</time>
      </trkpt>
      <trkpt lat="48.67782" lon="1.93876">
        <ele>161.64</ele>
        <time>2008-04-06T08:03:34.000Z</time>
      </trkpt>
      <trkpt lat="48.6778" lon="1.93884">
        <ele>161.64</ele>
        <time>2008-04-06T08:03:36.000Z</time>
      </trkpt>
      <trkpt lat="48.67781" lon="1.93888">
        <ele>163.56</ele>
        <time>2008-04-06T08:03:38.000Z</time>
      </trkpt>
      <trkpt lat="48.67794" lon="1.93898">
        <ele>165.48</ele>
        <time>2008-04-06T08:03:43.000Z</time>
      </trkpt>
      <trkpt lat="48.67811" lon="1.93915">
        <ele>167.41</ele>
        <time>2008-04-06T08:03:48.000Z</time>
      </trkpt>
      <trkpt lat="48.67826" lon="1.93929">
        <ele>172.21</ele>
        <time>2008-04-06T08:03:53.000Z</time>
      </trkpt>
      <trkpt lat="48.6783" lon="1.9393">
        <ele>173.17</ele>
        <time>2008-04-06T08:03:54.000Z</time>
      </trkpt>
      <trkpt lat="48.67833" lon="1.9395">
        <ele>176.06</ele>
        <time>2008-04-06T08:03:58.000Z</time>
      </trkpt>
      <trkpt lat="48.67838" lon="1.93957">
        <ele>175.58</ele>
        <time>2008-04-06T08:04:01.000Z</time>
      </trkpt>
      <trkpt lat="48.67844" lon="1.9397">
        <ele>176.06</ele>
        <time>2008-04-06T08:04:06.000Z</time>
      </trkpt>
      <trkpt lat="48.67853" lon="1.9399">
        <ele>179.42</ele>
        <time>2008-04-06T08:04:11.000Z</time>
      </trkpt>
      <trkpt lat="48.67859" lon="1.93994">
        <ele>179.42</ele>
        <time>2008-04-06T08:04:13.000Z</time>
      </trkpt>
      <trkpt lat="48.67878" lon="1.93992">
        <ele>176.06</ele>
        <time>2008-04-06T08:04:19.000Z</time>
      </trkpt>
      <trkpt lat="48.67889" lon="1.94009">
        <ele>179.9</ele>
        <time>2008-04-06T08:04:24.000Z</time>
      </trkpt>
      <trkpt lat="48.67897" lon="1.94025">
        <ele>178.94</ele>
        <time>2008-04-06T08:04:28.000Z</time>
      </trkpt>
      <trkpt lat="48.67907" lon="1.94045">
        <ele>182.31</ele>
        <time>2008-04-06T08:04:33.000Z</time>
      </trkpt>
      <trkpt lat="48.67917" lon="1.94071">
        <ele>187.59</ele>
        <time>2008-04-06T08:04:38.000Z</time>
      </trkpt>
      <trkpt lat="48.67923" lon="1.94088">
        <ele>190</ele>
        <time>2008-04-06T08:04:42.000Z</time>
      </trkpt>
      <trkpt lat="48.67935" lon="1.94083">
        <ele>188.56</ele>
        <time>2008-04-06T08:04:46.000Z</time>
      </trkpt>
      <trkpt lat="48.67946" lon="1.94088">
        <ele>188.56</ele>
        <time>2008-04-06T08:04:50.000Z</time>
      </trkpt>
      <trkpt lat="48.67956" lon="1.94094">
        <ele>188.08</ele>
        <time>2008-04-06T08:04:54.000Z</time>
      </trkpt>
      <trkpt lat="48.67966" lon="1.94098">
        <ele>183.75</ele>
        <time>2008-04-06T08:04:59.000Z</time>
      </trkpt>
      <trkpt lat="48.67979" lon="1.94107">
        <ele>183.75</ele>
        <time>2008-04-06T08:05:04.000Z</time>
      </trkpt>
      <trkpt lat="48.67987" lon="1.94112">
        <ele>184.71</ele>
        <time>2008-04-06T08:05:07.000Z</time>
      </trkpt>
      <trkpt lat="48.68005" lon="1.94128">
        <ele>182.79</ele>
        <time>2008-04-06T08:05:15.000Z</time>
      </trkpt>
      <trkpt lat="48.68013" lon="1.94136">
        <ele>185.67</ele>
        <time>2008-04-06T08:05:19.000Z</time>
      </trkpt>
      <trkpt lat="48.68017" lon="1.94137">
        <ele>182.79</ele>
        <time>2008-04-06T08:05:22.000Z</time>
      </trkpt>
      <trkpt lat="48.68033" lon="1.94133">
        <ele>176.54</ele>
        <time>2008-04-06T08:05:28.000Z</time>
      </trkpt>
      <trkpt lat="48.68037" lon="1.94159">
        <ele>179.42</ele>
        <time>2008-04-06T08:05:33.000Z</time>
      </trkpt>
      <trkpt lat="48.68037" lon="1.94183">
        <ele>177.98</ele>
        <time>2008-04-06T08:05:38.000Z</time>
      </trkpt>
      <trkpt lat="48.68036" lon="1.94191">
        <ele>176.54</ele>
        <time>2008-04-06T08:05:40.000Z</time>
      </trkpt>
      <trkpt lat="48.68031" lon="1.94209">
        <ele>171.25</ele>
        <time>2008-04-06T08:05:46.000Z</time>
      </trkpt>
      <trkpt lat="48.68018" lon="1.94222">
        <ele>166.45</ele>
        <time>2008-04-06T08:05:52.000Z</time>
      </trkpt>
      <trkpt lat="48.6801" lon="1.94236">
        <ele>165.48</ele>
        <time>2008-04-06T08:05:56.000Z</time>
      </trkpt>
      <trkpt lat="48.68004" lon="1.94248">
        <ele>165.96</ele>
        <time>2008-04-06T08:05:59.000Z</time>
      </trkpt>
      <trkpt lat="48.67999" lon="1.94252">
        <ele>164.04</ele>
        <time>2008-04-06T08:06:02.000Z</time>
      </trkpt>
      <trkpt lat="48.6799" lon="1.94257">
        <ele>161.16</ele>
        <time>2008-04-06T08:06:07.000Z</time>
      </trkpt>
      <trkpt lat="48.67981" lon="1.94259">
        <ele>154.91</ele>
        <time>2008-04-06T08:06:15.000Z</time>
      </trkpt>
      <trkpt lat="48.6798" lon="1.94261">
        <ele>155.87</ele>
        <time>2008-04-06T08:06:16.000Z</time>
      </trkpt>
      <trkpt lat="48.67979" lon="1.94265">
        <ele>156.35</ele>
        <time>2008-04-06T08:06:18.000Z</time>
      </trkpt>
      <trkpt lat="48.67971" lon="1.94272">
        <ele>153.95</ele>
        <time>2008-04-06T08:06:24.000Z</time>
      </trkpt>
      <trkpt lat="48.67967" lon="1.9428">
        <ele>151.54</ele>
        <time>2008-04-06T08:06:28.000Z</time>
      </trkpt>
      <trkpt lat="48.67956" lon="1.94287">
        <ele>149.14</ele>
        <time>2008-04-06T08:06:34.000Z</time>
      </trkpt>
      <trkpt lat="48.67945" lon="1.94287">
        <ele>147.7</ele>
        <time>2008-04-06T08:06:38.000Z</time>
      </trkpt>
      <trkpt lat="48.67934" lon="1.94284">
        <ele>148.18</ele>
        <time>2008-04-06T08:06:44.000Z</time>
      </trkpt>
      <trkpt lat="48.67932" lon="1.94284">
        <ele>149.14</ele>
        <time>2008-04-06T08:06:45.000Z</time>
      </trkpt>
      <trkpt lat="48.6793" lon="1.94283">
        <ele>151.54</ele>
        <time>2008-04-06T08:06:48.000Z</time>
      </trkpt>
      <trkpt lat="48.67926" lon="1.94282">
        <ele>152.99</ele>
        <time>2008-04-06T08:06:51.000Z</time>
      </trkpt>
      <trkpt lat="48.67916" lon="1.94283">
        <ele>153.47</ele>
        <time>2008-04-06T08:06:58.000Z</time>
      </trkpt>
      <trkpt lat="48.67907" lon="1.94287">
        <ele>154.91</ele>
        <time>2008-04-06T08:07:02.000Z</time>
      </trkpt>
      <trkpt lat="48.67901" lon="1.94284">
        <ele>154.91</ele>
        <time>2008-04-06T08:07:07.000Z</time>
      </trkpt>
      <trkpt lat="48.67896" lon="1.94284">
        <ele>154.43</ele>
        <time>2008-04-06T08:07:11.000Z</time>
      </trkpt>
      <trkpt lat="48.67889" lon="1.94288">
        <ele>156.83</ele>
        <time>2008-04-06T08:07:17.000Z</time>
      </trkpt>
      <trkpt lat="48.67884" lon="1.94289">
        <ele>158.27</ele>
        <time>2008-04-06T08:07:21.000Z</time>
      </trkpt>
      <trkpt lat="48.67879" lon="1.94294">
        <ele>161.64</ele>
        <time>2008-04-06T08:07:25.000Z</time>
      </trkpt>
      <trkpt lat="48.67875" lon="1.94289">
        <ele>160.2</ele>
        <time>2008-04-06T08:07:30.000Z</time>
      </trkpt>
      <trkpt lat="48.6787" lon="1.94288">
        <ele>161.16</ele>
        <time>2008-04-06T08:07:34.000Z</time>
      </trkpt>
      <trkpt lat="48.67862" lon="1.94289">
        <ele>163.08</ele>
        <time>2008-04-06T08:07:40.000Z</time>
      </trkpt>
      <trkpt lat="48.67849" lon="1.94296">
        <ele>165</ele>
        <time>2008-04-06T08:07:50.000Z</time>
      </trkpt>
      <trkpt lat="48.67838" lon="1.94302">
        <ele>163.56</ele>
        <time>2008-04-06T08:07:56.000Z</time>
      </trkpt>
      <trkpt lat="48.67828" lon="1.94302">
        <ele>162.6</ele>
        <time>2008-04-06T08:08:00.000Z</time>
      </trkpt>
      <trkpt lat="48.67817" lon="1.94294">
        <ele>163.08</ele>
        <time>2008-04-06T08:08:05.000Z</time>
      </trkpt>
      <trkpt lat="48.67805" lon="1.94285">
        <ele>162.6</ele>
        <time>2008-04-06T08:08:11.000Z</time>
      </trkpt>
      <trkpt lat="48.67795" lon="1.94282">
        <ele>164.04</ele>
        <time>2008-04-06T08:08:16.000Z</time>
      </trkpt>
      <trkpt lat="48.67786" lon="1.94282">
        <ele>165</ele>
        <time>2008-04-06T08:08:22.000Z</time>
      </trkpt>
      <trkpt lat="48.67779" lon="1.94284">
        <ele>167.89</ele>
        <time>2008-04-06T08:08:29.000Z</time>
      </trkpt>
      <trkpt lat="48.67772" lon="1.94283">
        <ele>169.33</ele>
        <time>2008-04-06T08:08:35.000Z</time>
      </trkpt>
      <trkpt lat="48.67765" lon="1.94278">
        <ele>165.96</ele>
        <time>2008-04-06T08:08:42.000Z</time>
      </trkpt>
      <trkpt lat="48.6776" lon="1.9428">
        <ele>167.89</ele>
        <time>2008-04-06T08:08:46.000Z</time>
      </trkpt>
      <trkpt lat="48.6776" lon="1.94282">
        <ele>164.52</ele>
        <time>2008-04-06T08:08:54.000Z</time>
      </trkpt>
      <trkpt lat="48.67761" lon="1.94299">
        <ele>165.96</ele>
        <time>2008-04-06T08:08:59.000Z</time>
      </trkpt>
      <trkpt lat="48.67757" lon="1.94303">
        <ele>165</ele>
        <time>2008-04-06T08:09:02.000Z</time>
      </trkpt>
      <trkpt lat="48.67753" lon="1.9432">
        <ele>163.08</ele>
        <time>2008-04-06T08:09:07.000Z</time>
      </trkpt>
      <trkpt lat="48.6775" lon="1.94333">
        <ele>162.12</ele>
        <time>2008-04-06T08:09:11.000Z</time>
      </trkpt>
      <trkpt lat="48.67746" lon="1.94353">
        <ele>163.56</ele>
        <time>2008-04-06T08:09:16.000Z</time>
      </trkpt>
      <trkpt lat="48.67744" lon="1.94377">
        <ele>164.04</ele>
        <time>2008-04-06T08:09:21.000Z</time>
      </trkpt>
      <trkpt lat="48.67743" lon="1.94394">
        <ele>163.56</ele>
        <time>2008-04-06T08:09:25.000Z</time>
      </trkpt>
      <trkpt lat="48.67742" lon="1.94408">
        <ele>164.04</ele>
        <time>2008-04-06T08:09:30.000Z</time>
      </trkpt>
      <trkpt lat="48.67736" lon="1.94432">
        <ele>166.45</ele>
        <time>2008-04-06T08:09:36.000Z</time>
      </trkpt>
      <trkpt lat="48.67725" lon="1.94449">
        <ele>164.52</ele>
        <time>2008-04-06T08:09:42.000Z</time>
      </trkpt>
      <trkpt lat="48.67714" lon="1.94463">
        <ele>163.56</ele>
        <time>2008-04-06T08:09:47.000Z</time>
      </trkpt>
      <trkpt lat="48.67705" lon="1.94476">
        <ele>160.68</ele>
        <time>2008-04-06T08:09:52.000Z</time>
      </trkpt>
      <trkpt lat="48.67701" lon="1.94486">
        <ele>158.27</ele>
        <time>2008-04-06T08:09:57.000Z</time>
      </trkpt>
      <trkpt lat="48.677" lon="1.94492">
        <ele>158.75</ele>
        <time>2008-04-06T08:09:59.000Z</time>
      </trkpt>
      <trkpt lat="48.67699" lon="1.94512">
        <ele>159.72</ele>
        <time>2008-04-06T08:10:05.000Z</time>
      </trkpt>
      <trkpt lat="48.67698" lon="1.94522">
        <ele>158.75</ele>
        <time>2008-04-06T08:10:07.000Z</time>
      </trkpt>
      <trkpt lat="48.67699" lon="1.9455">
        <ele>162.6</ele>
        <time>2008-04-06T08:10:13.000Z</time>
      </trkpt>
      <trkpt lat="48.67701" lon="1.94556">
        <ele>165</ele>
        <time>2008-04-06T08:10:15.000Z</time>
      </trkpt>
      <trkpt lat="48.67701" lon="1.94566">
        <ele>165.48</ele>
        <time>2008-04-06T08:10:19.000Z</time>
      </trkpt>
      <trkpt lat="48.67703" lon="1.94575">
        <ele>165.96</ele>
        <time>2008-04-06T08:10:24.000Z</time>
      </trkpt>
      <trkpt lat="48.67702" lon="1.94585">
        <ele>164.52</ele>
        <time>2008-04-06T08:10:29.000Z</time>
      </trkpt>
      <trkpt lat="48.67699" lon="1.94593">
        <ele>163.56</ele>
        <time>2008-04-06T08:10:33.000Z</time>
      </trkpt>
      <trkpt lat="48.67697" lon="1.94603">
        <ele>163.08</ele>
        <time>2008-04-06T08:10:36.000Z</time>
      </trkpt>
      <trkpt lat="48.67691" lon="1.94619">
        <ele>162.6</ele>
        <time>2008-04-06T08:10:40.000Z</time>
      </trkpt>
      <trkpt lat="48.67682" lon="1.94631">
        <ele>162.6</ele>
        <time>2008-04-06T08:10:46.000Z</time>
      </trkpt>
      <trkpt lat="48.67682" lon="1.94655">
        <ele>162.6</ele>
        <time>2008-04-06T08:10:52.000Z</time>
      </trkpt>
      <trkpt lat="48.6768" lon="1.94665">
        <ele>164.04</ele>
        <time>2008-04-06T08:10:55.000Z</time>
      </trkpt>
      <trkpt lat="48.67684" lon="1.9468">
        <ele>162.12</ele>
        <time>2008-04-06T08:11:01.000Z</time>
      </trkpt>
      <trkpt lat="48.67684" lon="1.94687">
        <ele>161.16</ele>
        <time>2008-04-06T08:11:04.000Z</time>
      </trkpt>
      <trkpt lat="48.67684" lon="1.94701">
        <ele>162.12</ele>
        <time>2008-04-06T08:11:10.000Z</time>
      </trkpt>
      <trkpt lat="48.67685" lon="1.94717">
        <ele>164.04</ele>
        <time>2008-04-06T08:11:14.000Z</time>
      </trkpt>
      <trkpt lat="48.67678" lon="1.94736">
        <ele>164.04</ele>
        <time>2008-04-06T08:11:19.000Z</time>
      </trkpt>
      <trkpt lat="48.67674" lon="1.94743">
        <ele>164.52</ele>
        <time>2008-04-06T08:11:21.000Z</time>
      </trkpt>
      <trkpt lat="48.67666" lon="1.94756">
        <ele>159.72</ele>
        <time>2008-04-06T08:11:27.000Z</time>
      </trkpt>
      <trkpt lat="48.67659" lon="1.94767">
        <ele>160.2</ele>
        <time>2008-04-06T08:11:31.000Z</time>
      </trkpt>
      <trkpt lat="48.67655" lon="1.94792">
        <ele>160.2</ele>
        <time>2008-04-06T08:11:37.000Z</time>
      </trkpt>
      <trkpt lat="48.67655" lon="1.94812">
        <ele>161.16</ele>
        <time>2008-04-06T08:11:42.000Z</time>
      </trkpt>
      <trkpt lat="48.67652" lon="1.94832">
        <ele>162.12</ele>
        <time>2008-04-06T08:11:46.000Z</time>
      </trkpt>
      <trkpt lat="48.6765" lon="1.94845">
        <ele>161.64</ele>
        <time>2008-04-06T08:11:50.000Z</time>
      </trkpt>
      <trkpt lat="48.67644" lon="1.94858">
        <ele>157.79</ele>
        <time>2008-04-06T08:11:57.000Z</time>
      </trkpt>
      <trkpt lat="48.67646" lon="1.94869">
        <ele>160.2</ele>
        <time>2008-04-06T08:12:01.000Z</time>
      </trkpt>
      <trkpt lat="48.67649" lon="1.94881">
        <ele>162.6</ele>
        <time>2008-04-06T08:12:08.000Z</time>
      </trkpt>
      <trkpt lat="48.6765" lon="1.94891">
        <ele>163.08</ele>
        <time>2008-04-06T08:12:13.000Z</time>
      </trkpt>
      <trkpt lat="48.67649" lon="1.94896">
        <ele>162.6</ele>
        <time>2008-04-06T08:12:15.000Z</time>
      </trkpt>
      <trkpt lat="48.67643" lon="1.94912">
        <ele>165.48</ele>
        <time>2008-04-06T08:12:20.000Z</time>
      </trkpt>
      <trkpt lat="48.67639" lon="1.94932">
        <ele>166.93</ele>
        <time>2008-04-06T08:12:25.000Z</time>
      </trkpt>
      <trkpt lat="48.67638" lon="1.94938">
        <ele>166.45</ele>
        <time>2008-04-06T08:12:27.000Z</time>
      </trkpt>
      <trkpt lat="48.67637" lon="1.94943">
        <ele>165</ele>
        <time>2008-04-06T08:12:31.000Z</time>
      </trkpt>
      <trkpt lat="48.67637" lon="1.9495">
        <ele>165</ele>
        <time>2008-04-06T08:12:37.000Z</time>
      </trkpt>
      <trkpt lat="48.67637" lon="1.94955">
        <ele>163.56</ele>
        <time>2008-04-06T08:12:40.000Z</time>
      </trkpt>
      <trkpt lat="48.67635" lon="1.94968">
        <ele>164.04</ele>
        <time>2008-04-06T08:12:46.000Z</time>
      </trkpt>
      <trkpt lat="48.67636" lon="1.94988">
        <ele>167.89</ele>
        <time>2008-04-06T08:12:50.000Z</time>
      </trkpt>
      <trkpt lat="48.67628" lon="1.95">
        <ele>164.52</ele>
        <time>2008-04-06T08:12:56.000Z</time>
      </trkpt>
      <trkpt lat="48.67628" lon="1.95014">
        <ele>165.96</ele>
        <time>2008-04-06T08:13:00.000Z</time>
      </trkpt>
      <trkpt lat="48.67625" lon="1.95045">
        <ele>164.04</ele>
        <time>2008-04-06T08:13:06.000Z</time>
      </trkpt>
      <trkpt lat="48.67626" lon="1.95052">
        <ele>164.52</ele>
        <time>2008-04-06T08:13:08.000Z</time>
      </trkpt>
      <trkpt lat="48.6763" lon="1.95063">
        <ele>167.41</ele>
        <time>2008-04-06T08:13:13.000Z</time>
      </trkpt>
      <trkpt lat="48.67632" lon="1.95065">
        <ele>165</ele>
        <time>2008-04-06T08:13:17.000Z</time>
      </trkpt>
      <trkpt lat="48.67632" lon="1.95069">
        <ele>159.24</ele>
        <time>2008-04-06T08:13:26.000Z</time>
      </trkpt>
      <trkpt lat="48.67632" lon="1.95085">
        <ele>159.72</ele>
        <time>2008-04-06T08:13:32.000Z</time>
      </trkpt>
      <trkpt lat="48.67628" lon="1.951">
        <ele>161.16</ele>
        <time>2008-04-06T08:13:38.000Z</time>
      </trkpt>
      <trkpt lat="48.67624" lon="1.95116">
        <ele>160.2</ele>
        <time>2008-04-06T08:13:43.000Z</time>
      </trkpt>
      <trkpt lat="48.67616" lon="1.95136">
        <ele>161.16</ele>
        <time>2008-04-06T08:13:48.000Z</time>
      </trkpt>
      <trkpt lat="48.67614" lon="1.95142">
        <ele>160.68</ele>
        <time>2008-04-06T08:13:50.000Z</time>
      </trkpt>
      <trkpt lat="48.67606" lon="1.95157">
        <ele>160.68</ele>
        <time>2008-04-06T08:13:57.000Z</time>
      </trkpt>
      <trkpt lat="48.67595" lon="1.9517">
        <ele>159.72</ele>
        <time>2008-04-06T08:14:04.000Z</time>
      </trkpt>
      <trkpt lat="48.67586" lon="1.95182">
        <ele>158.75</ele>
        <time>2008-04-06T08:14:09.000Z</time>
      </trkpt>
      <trkpt lat="48.67579" lon="1.95203">
        <ele>157.31</ele>
        <time>2008-04-06T08:14:14.000Z</time>
      </trkpt>
      <trkpt lat="48.67574" lon="1.95223">
        <ele>155.39</ele>
        <time>2008-04-06T08:14:19.000Z</time>
      </trkpt>
      <trkpt lat="48.67566" lon="1.9524">
        <ele>154.43</ele>
        <time>2008-04-06T08:14:23.000Z</time>
      </trkpt>
      <trkpt lat="48.67554" lon="1.95254">
        <ele>152.03</ele>
        <time>2008-04-06T08:14:28.000Z</time>
      </trkpt>
      <trkpt lat="48.67547" lon="1.95266">
        <ele>151.54</ele>
        <time>2008-04-06T08:14:32.000Z</time>
      </trkpt>
      <trkpt lat="48.67543" lon="1.95267">
        <ele>147.7</ele>
        <time>2008-04-06T08:14:37.000Z</time>
      </trkpt>
      <trkpt lat="48.67538" lon="1.95271">
        <ele>148.18</ele>
        <time>2008-04-06T08:14:41.000Z</time>
      </trkpt>
      <trkpt lat="48.67535" lon="1.95276">
        <ele>151.54</ele>
        <time>2008-04-06T08:14:45.000Z</time>
      </trkpt>
      <trkpt lat="48.67532" lon="1.95281">
        <ele>152.03</ele>
        <time>2008-04-06T08:14:49.000Z</time>
      </trkpt>
      <trkpt lat="48.67525" lon="1.95283">
        <ele>151.54</ele>
        <time>2008-04-06T08:14:53.000Z</time>
      </trkpt>
      <trkpt lat="48.67513" lon="1.95278">
        <ele>152.51</ele>
        <time>2008-04-06T08:14:58.000Z</time>
      </trkpt>
      <trkpt lat="48.67502" lon="1.95267">
        <ele>154.43</ele>
        <time>2008-04-06T08:15:02.000Z</time>
      </trkpt>
      <trkpt lat="48.67492" lon="1.95247">
        <ele>155.39</ele>
        <time>2008-04-06T08:15:05.000Z</time>
      </trkpt>
      <trkpt lat="48.67488" lon="1.95231">
        <ele>153.47</ele>
        <time>2008-04-06T08:15:09.000Z</time>
      </trkpt>
      <trkpt lat="48.67491" lon="1.95232">
        <ele>146.26</ele>
        <time>2008-04-06T08:15:13.000Z</time>
      </trkpt>
      <trkpt lat="48.67485" lon="1.95239">
        <ele>151.54</ele>
        <time>2008-04-06T08:15:20.000Z</time>
      </trkpt>
      <trkpt lat="48.67482" lon="1.9524">
        <ele>152.99</ele>
        <time>2008-04-06T08:15:24.000Z</time>
      </trkpt>
      <trkpt lat="48.67479" lon="1.9525">
        <ele>160.2</ele>
        <time>2008-04-06T08:15:29.000Z</time>
      </trkpt>
      <trkpt lat="48.67469" lon="1.95262">
        <ele>173.17</ele>
        <time>2008-04-06T08:15:39.000Z</time>
      </trkpt>
      <trkpt lat="48.67464" lon="1.95264">
        <ele>176.06</ele>
        <time>2008-04-06T08:15:44.000Z</time>
      </trkpt>
      <trkpt lat="48.67459" lon="1.95243">
        <ele>171.73</ele>
        <time>2008-04-06T08:16:06.000Z</time>
      </trkpt>
      <trkpt lat="48.67455" lon="1.95245">
        <ele>173.66</ele>
        <time>2008-04-06T08:16:11.000Z</time>
      </trkpt>
      <trkpt lat="48.67448" lon="1.95246">
        <ele>171.25</ele>
        <time>2008-04-06T08:16:18.000Z</time>
      </trkpt>
      <trkpt lat="48.67437" lon="1.95244">
        <ele>172.21</ele>
        <time>2008-04-06T08:16:23.000Z</time>
      </trkpt>
      <trkpt lat="48.67427" lon="1.95245">
        <ele>176.54</ele>
        <time>2008-04-06T08:16:28.000Z</time>
      </trkpt>
      <trkpt lat="48.67419" lon="1.95236">
        <ele>173.66</ele>
        <time>2008-04-06T08:16:33.000Z</time>
      </trkpt>
      <trkpt lat="48.67411" lon="1.95243">
        <ele>181.83</ele>
        <time>2008-04-06T08:16:40.000Z</time>
      </trkpt>
      <trkpt lat="48.67407" lon="1.95245">
        <ele>181.35</ele>
        <time>2008-04-06T08:16:43.000Z</time>
      </trkpt>
      <trkpt lat="48.67406" lon="1.95246">
        <ele>181.35</ele>
        <time>2008-04-06T08:16:44.000Z</time>
      </trkpt>
      <trkpt lat="48.67398" lon="1.95245">
        <ele>176.54</ele>
        <time>2008-04-06T08:16:51.000Z</time>
      </trkpt>
      <trkpt lat="48.67395" lon="1.95244">
        <ele>172.21</ele>
        <time>2008-04-06T08:16:55.000Z</time>
      </trkpt>
      <trkpt lat="48.67393" lon="1.95242">
        <ele>167.89</ele>
        <time>2008-04-06T08:16:57.000Z</time>
      </trkpt>
      <trkpt lat="48.67385" lon="1.95263">
        <ele>165</ele>
        <time>2008-04-06T08:17:04.000Z</time>
      </trkpt>
      <trkpt lat="48.67377" lon="1.95273">
        <ele>158.27</ele>
        <time>2008-04-06T08:17:08.000Z</time>
      </trkpt>
      <trkpt lat="48.67369" lon="1.95286">
        <ele>155.39</ele>
        <time>2008-04-06T08:17:12.000Z</time>
      </trkpt>
      <trkpt lat="48.67363" lon="1.953">
        <ele>155.39</ele>
        <time>2008-04-06T08:17:16.000Z</time>
      </trkpt>
      <trkpt lat="48.67353" lon="1.95306">
        <ele>152.03</ele>
        <time>2008-04-06T08:17:21.000Z</time>
      </trkpt>
      <trkpt lat="48.67345" lon="1.95309">
        <ele>153.95</ele>
        <time>2008-04-06T08:17:25.000Z</time>
      </trkpt>
      <trkpt lat="48.67331" lon="1.95315">
        <ele>153.47</ele>
        <time>2008-04-06T08:17:31.000Z</time>
      </trkpt>
      <trkpt lat="48.67324" lon="1.95313">
        <ele>153.47</ele>
        <time>2008-04-06T08:17:35.000Z</time>
      </trkpt>
      <trkpt lat="48.67315" lon="1.95304">
        <ele>154.43</ele>
        <time>2008-04-06T08:17:41.000Z</time>
      </trkpt>
      <trkpt lat="48.67308" lon="1.95306">
        <ele>157.31</ele>
        <time>2008-04-06T08:17:45.000Z</time>
      </trkpt>
      <trkpt lat="48.67305" lon="1.95301">
        <ele>156.83</ele>
        <time>2008-04-06T08:17:48.000Z</time>
      </trkpt>
      <trkpt lat="48.67296" lon="1.95288">
        <ele>151.54</ele>
        <time>2008-04-06T08:17:55.000Z</time>
      </trkpt>
      <trkpt lat="48.67291" lon="1.9529">
        <ele>155.39</ele>
        <time>2008-04-06T08:17:59.000Z</time>
      </trkpt>
      <trkpt lat="48.67287" lon="1.9528">
        <ele>150.58</ele>
        <time>2008-04-06T08:18:04.000Z</time>
      </trkpt>
      <trkpt lat="48.67277" lon="1.9529">
        <ele>163.08</ele>
        <time>2008-04-06T08:18:11.000Z</time>
      </trkpt>
      <trkpt lat="48.67261" lon="1.95303">
        <ele>179.9</ele>
        <time>2008-04-06T08:18:22.000Z</time>
      </trkpt>
      <trkpt lat="48.67256" lon="1.95297">
        <ele>185.67</ele>
        <time>2008-04-06T08:18:28.000Z</time>
      </trkpt>
      <trkpt lat="48.67253" lon="1.95291">
        <ele>184.71</ele>
        <time>2008-04-06T08:18:32.000Z</time>
      </trkpt>
      <trkpt lat="48.6725" lon="1.9529">
        <ele>182.31</ele>
        <time>2008-04-06T08:18:37.000Z</time>
      </trkpt>
      <trkpt lat="48.67245" lon="1.95291">
        <ele>184.23</ele>
        <time>2008-04-06T08:18:42.000Z</time>
      </trkpt>
      <trkpt lat="48.67236" lon="1.95281">
        <ele>180.87</ele>
        <time>2008-04-06T08:18:56.000Z</time>
      </trkpt>
      <trkpt lat="48.67229" lon="1.95286">
        <ele>178.94</ele>
        <time>2008-04-06T08:19:01.000Z</time>
      </trkpt>
      <trkpt lat="48.6722" lon="1.95293">
        <ele>175.1</ele>
        <time>2008-04-06T08:19:07.000Z</time>
      </trkpt>
      <trkpt lat="48.67217" lon="1.95297">
        <ele>174.62</ele>
        <time>2008-04-06T08:19:09.000Z</time>
      </trkpt>
      <trkpt lat="48.67208" lon="1.95305">
        <ele>167.89</ele>
        <time>2008-04-06T08:19:15.000Z</time>
      </trkpt>
      <trkpt lat="48.672" lon="1.95315">
        <ele>168.85</ele>
        <time>2008-04-06T08:19:20.000Z</time>
      </trkpt>
      <trkpt lat="48.67192" lon="1.95325">
        <ele>170.77</ele>
        <time>2008-04-06T08:19:25.000Z</time>
      </trkpt>
      <trkpt lat="48.6719" lon="1.95328">
        <ele>170.29</ele>
        <time>2008-04-06T08:19:26.000Z</time>
      </trkpt>
      <trkpt lat="48.6718" lon="1.95336">
        <ele>167.89</ele>
        <time>2008-04-06T08:19:32.000Z</time>
      </trkpt>
      <trkpt lat="48.67168" lon="1.95353">
        <ele>167.41</ele>
        <time>2008-04-06T08:19:38.000Z</time>
      </trkpt>
      <trkpt lat="48.67158" lon="1.95366">
        <ele>169.33</ele>
        <time>2008-04-06T08:19:45.000Z</time>
      </trkpt>
      <trkpt lat="48.67147" lon="1.95382">
        <ele>174.14</ele>
        <time>2008-04-06T08:19:50.000Z</time>
      </trkpt>
      <trkpt lat="48.67145" lon="1.95383">
        <ele>173.66</ele>
        <time>2008-04-06T08:19:51.000Z</time>
      </trkpt>
      <trkpt lat="48.67131" lon="1.95394">
        <ele>175.58</ele>
        <time>2008-04-06T08:19:57.000Z</time>
      </trkpt>
      <trkpt lat="48.6713" lon="1.95396">
        <ele>176.06</ele>
        <time>2008-04-06T08:19:58.000Z</time>
      </trkpt>
      <trkpt lat="48.67117" lon="1.95406">
        <ele>175.58</ele>
        <time>2008-04-06T08:20:04.000Z</time>
      </trkpt>
      <trkpt lat="48.67104" lon="1.95413">
        <ele>172.69</ele>
        <time>2008-04-06T08:20:09.000Z</time>
      </trkpt>
      <trkpt lat="48.67101" lon="1.95417">
        <ele>173.17</ele>
        <time>2008-04-06T08:20:10.000Z</time>
      </trkpt>
      <trkpt lat="48.67085" lon="1.95431">
        <ele>172.21</ele>
        <time>2008-04-06T08:20:17.000Z</time>
      </trkpt>
      <trkpt lat="48.67074" lon="1.9544">
        <ele>168.37</ele>
        <time>2008-04-06T08:20:22.000Z</time>
      </trkpt>
      <trkpt lat="48.67072" lon="1.95442">
        <ele>168.37</ele>
        <time>2008-04-06T08:20:23.000Z</time>
      </trkpt>
      <trkpt lat="48.67061" lon="1.95457">
        <ele>167.41</ele>
        <time>2008-04-06T08:20:29.000Z</time>
      </trkpt>
      <trkpt lat="48.67053" lon="1.95468">
        <ele>168.37</ele>
        <time>2008-04-06T08:20:33.000Z</time>
      </trkpt>
      <trkpt lat="48.67046" lon="1.95482">
        <ele>168.37</ele>
        <time>2008-04-06T08:20:38.000Z</time>
      </trkpt>
      <trkpt lat="48.67038" lon="1.95504">
        <ele>169.81</ele>
        <time>2008-04-06T08:20:43.000Z</time>
      </trkpt>
      <trkpt lat="48.67029" lon="1.95523">
        <ele>168.85</ele>
        <time>2008-04-06T08:20:48.000Z</time>
      </trkpt>
      <trkpt lat="48.67021" lon="1.95544">
        <ele>168.85</ele>
        <time>2008-04-06T08:20:53.000Z</time>
      </trkpt>
      <trkpt lat="48.67015" lon="1.95563">
        <ele>172.69</ele>
        <time>2008-04-06T08:20:57.000Z</time>
      </trkpt>
      <trkpt lat="48.67012" lon="1.95586">
        <ele>177.5</ele>
        <time>2008-04-06T08:21:01.000Z</time>
      </trkpt>
      <trkpt lat="48.67014" lon="1.95603">
        <ele>182.79</ele>
        <time>2008-04-06T08:21:05.000Z</time>
      </trkpt>
      <trkpt lat="48.67021" lon="1.95628">
        <ele>191.92</ele>
        <time>2008-04-06T08:21:11.000Z</time>
      </trkpt>
      <trkpt lat="48.67022" lon="1.95647">
        <ele>193.36</ele>
        <time>2008-04-06T08:21:16.000Z</time>
      </trkpt>
      <trkpt lat="48.67022" lon="1.95654">
        <ele>192.88</ele>
        <time>2008-04-06T08:21:19.000Z</time>
      </trkpt>
      <trkpt lat="48.67027" lon="1.95661">
        <ele>193.36</ele>
        <time>2008-04-06T08:21:23.000Z</time>
      </trkpt>
      <trkpt lat="48.67035" lon="1.95645">
        <ele>181.35</ele>
        <time>2008-04-06T08:21:28.000Z</time>
      </trkpt>
      <trkpt lat="48.67045" lon="1.95633">
        <ele>177.02</ele>
        <time>2008-04-06T08:21:32.000Z</time>
      </trkpt>
      <trkpt lat="48.67066" lon="1.95633">
        <ele>180.87</ele>
        <time>2008-04-06T08:21:39.000Z</time>
      </trkpt>
      <trkpt lat="48.6707" lon="1.95632">
        <ele>182.31</ele>
        <time>2008-04-06T08:21:40.000Z</time>
      </trkpt>
      <trkpt lat="48.67083" lon="1.95619">
        <ele>180.38</ele>
        <time>2008-04-06T08:21:44.000Z</time>
      </trkpt>
      <trkpt lat="48.67099" lon="1.95616">
        <ele>181.83</ele>
        <time>2008-04-06T08:21:49.000Z</time>
      </trkpt>
      <trkpt lat="48.67102" lon="1.95614">
        <ele>180.38</ele>
        <time>2008-04-06T08:21:50.000Z</time>
      </trkpt>
      <trkpt lat="48.67117" lon="1.95618">
        <ele>177.02</ele>
        <time>2008-04-06T08:21:55.000Z</time>
      </trkpt>
      <trkpt lat="48.67131" lon="1.95626">
        <ele>175.58</ele>
        <time>2008-04-06T08:22:00.000Z</time>
      </trkpt>
      <trkpt lat="48.67141" lon="1.95632">
        <ele>171.25</ele>
        <time>2008-04-06T08:22:05.000Z</time>
      </trkpt>
      <trkpt lat="48.67146" lon="1.95635">
        <ele>173.17</ele>
        <time>2008-04-06T08:22:07.000Z</time>
      </trkpt>
      <trkpt lat="48.67155" lon="1.95652">
        <ele>177.98</ele>
        <time>2008-04-06T08:22:12.000Z</time>
      </trkpt>
      <trkpt lat="48.67158" lon="1.9565">
        <ele>176.54</ele>
        <time>2008-04-06T08:22:13.000Z</time>
      </trkpt>
      <trkpt lat="48.67163" lon="1.95664">
        <ele>176.54</ele>
        <time>2008-04-06T08:22:17.000Z</time>
      </trkpt>
      <trkpt lat="48.67175" lon="1.95678">
        <ele>177.02</ele>
        <time>2008-04-06T08:22:22.000Z</time>
      </trkpt>
      <trkpt lat="48.67183" lon="1.95691">
        <ele>175.58</ele>
        <time>2008-04-06T08:22:27.000Z</time>
      </trkpt>
      <trkpt lat="48.67199" lon="1.95706">
        <ele>178.46</ele>
        <time>2008-04-06T08:22:33.000Z</time>
      </trkpt>
      <trkpt lat="48.67212" lon="1.95716">
        <ele>178.94</ele>
        <time>2008-04-06T08:22:38.000Z</time>
      </trkpt>
      <trkpt lat="48.67222" lon="1.9573">
        <ele>177.98</ele>
        <time>2008-04-06T08:22:42.000Z</time>
      </trkpt>
      <trkpt lat="48.67233" lon="1.95749">
        <ele>177.98</ele>
        <time>2008-04-06T08:22:47.000Z</time>
      </trkpt>
      <trkpt lat="48.67246" lon="1.95769">
        <ele>176.54</ele>
        <time>2008-04-06T08:22:53.000Z</time>
      </trkpt>
      <trkpt lat="48.67256" lon="1.95781">
        <ele>175.58</ele>
        <time>2008-04-06T08:22:58.000Z</time>
      </trkpt>
      <trkpt lat="48.67268" lon="1.95798">
        <ele>177.02</ele>
        <time>2008-04-06T08:23:03.000Z</time>
      </trkpt>
      <trkpt lat="48.67276" lon="1.95816">
        <ele>182.79</ele>
        <time>2008-04-06T08:23:07.000Z</time>
      </trkpt>
      <trkpt lat="48.67284" lon="1.95822">
        <ele>182.79</ele>
        <time>2008-04-06T08:23:10.000Z</time>
      </trkpt>
      <trkpt lat="48.67293" lon="1.95824">
        <ele>171.73</ele>
        <time>2008-04-06T08:23:16.000Z</time>
      </trkpt>
      <trkpt lat="48.67297" lon="1.9583">
        <ele>173.17</ele>
        <time>2008-04-06T08:23:18.000Z</time>
      </trkpt>
      <trkpt lat="48.67313" lon="1.95827">
        <ele>169.81</ele>
        <time>2008-04-06T08:23:23.000Z</time>
      </trkpt>
      <trkpt lat="48.67331" lon="1.95844">
        <ele>171.73</ele>
        <time>2008-04-06T08:23:29.000Z</time>
      </trkpt>
      <trkpt lat="48.6734" lon="1.95847">
        <ele>164.52</ele>
        <time>2008-04-06T08:23:33.000Z</time>
      </trkpt>
      <trkpt lat="48.67349" lon="1.95875">
        <ele>172.69</ele>
        <time>2008-04-06T08:23:38.000Z</time>
      </trkpt>
      <trkpt lat="48.6736" lon="1.95886">
        <ele>173.17</ele>
        <time>2008-04-06T08:23:42.000Z</time>
      </trkpt>
      <trkpt lat="48.67366" lon="1.95888">
        <ele>170.29</ele>
        <time>2008-04-06T08:23:44.000Z</time>
      </trkpt>
      <trkpt lat="48.67387" lon="1.95891">
        <ele>165.48</ele>
        <time>2008-04-06T08:23:51.000Z</time>
      </trkpt>
      <trkpt lat="48.67398" lon="1.95901">
        <ele>164.04</ele>
        <time>2008-04-06T08:23:56.000Z</time>
      </trkpt>
      <trkpt lat="48.67408" lon="1.9592">
        <ele>163.56</ele>
        <time>2008-04-06T08:24:01.000Z</time>
      </trkpt>
      <trkpt lat="48.67421" lon="1.95932">
        <ele>162.6</ele>
        <time>2008-04-06T08:24:06.000Z</time>
      </trkpt>
      <trkpt lat="48.6743" lon="1.95939">
        <ele>148.18</ele>
        <time>2008-04-06T08:24:11.000Z</time>
      </trkpt>
      <trkpt lat="48.67434" lon="1.95953">
        <ele>136.64</ele>
        <time>2008-04-06T08:24:16.000Z</time>
      </trkpt>
      <trkpt lat="48.6743" lon="1.95965">
        <ele>128.95</ele>
        <time>2008-04-06T08:24:20.000Z</time>
      </trkpt>
      <trkpt lat="48.67428" lon="1.95972">
        <ele>126.55</ele>
        <time>2008-04-06T08:24:22.000Z</time>
      </trkpt>
      <trkpt lat="48.67425" lon="1.95987">
        <ele>121.26</ele>
        <time>2008-04-06T08:24:27.000Z</time>
      </trkpt>
      <trkpt lat="48.67422" lon="1.96">
        <ele>117.9</ele>
        <time>2008-04-06T08:24:32.000Z</time>
      </trkpt>
      <trkpt lat="48.67431" lon="1.96025">
        <ele>121.74</ele>
        <time>2008-04-06T08:24:38.000Z</time>
      </trkpt>
      <trkpt lat="48.67443" lon="1.96049">
        <ele>132.8</ele>
        <time>2008-04-06T08:24:43.000Z</time>
      </trkpt>
      <trkpt lat="48.67451" lon="1.96058">
        <ele>135.68</ele>
        <time>2008-04-06T08:24:46.000Z</time>
      </trkpt>
      <trkpt lat="48.67461" lon="1.96086">
        <ele>142.89</ele>
        <time>2008-04-06T08:24:52.000Z</time>
      </trkpt>
      <trkpt lat="48.6747" lon="1.96101">
        <ele>145.3</ele>
        <time>2008-04-06T08:24:57.000Z</time>
      </trkpt>
      <trkpt lat="48.6748" lon="1.96121">
        <ele>147.7</ele>
        <time>2008-04-06T08:25:02.000Z</time>
      </trkpt>
      <trkpt lat="48.67489" lon="1.96129">
        <ele>146.74</ele>
        <time>2008-04-06T08:25:06.000Z</time>
      </trkpt>
      <trkpt lat="48.67506" lon="1.9612">
        <ele>140.97</ele>
        <time>2008-04-06T08:25:11.000Z</time>
      </trkpt>
      <trkpt lat="48.67517" lon="1.96109">
        <ele>125.59</ele>
        <time>2008-04-06T08:25:16.000Z</time>
      </trkpt>
      <trkpt lat="48.67529" lon="1.96089">
        <ele>111.17</ele>
        <time>2008-04-06T08:25:21.000Z</time>
      </trkpt>
      <trkpt lat="48.67535" lon="1.96104">
        <ele>119.34</ele>
        <time>2008-04-06T08:25:25.000Z</time>
      </trkpt>
      <trkpt lat="48.67553" lon="1.9611">
        <ele>121.26</ele>
        <time>2008-04-06T08:25:30.000Z</time>
      </trkpt>
      <trkpt lat="48.67565" lon="1.96112">
        <ele>123.19</ele>
        <time>2008-04-06T08:25:34.000Z</time>
      </trkpt>
      <trkpt lat="48.67579" lon="1.96115">
        <ele>123.19</ele>
        <time>2008-04-06T08:25:39.000Z</time>
      </trkpt>
      <trkpt lat="48.67591" lon="1.96117">
        <ele>122.71</ele>
        <time>2008-04-06T08:25:45.000Z</time>
      </trkpt>
      <trkpt lat="48.67593" lon="1.96118">
        <ele>122.22</ele>
        <time>2008-04-06T08:25:46.000Z</time>
      </trkpt>
      <trkpt lat="48.67605" lon="1.96121">
        <ele>126.55</ele>
        <time>2008-04-06T08:25:51.000Z</time>
      </trkpt>
      <trkpt lat="48.67623" lon="1.96127">
        <ele>136.16</ele>
        <time>2008-04-06T08:25:56.000Z</time>
      </trkpt>
      <trkpt lat="48.67627" lon="1.96128">
        <ele>138.09</ele>
        <time>2008-04-06T08:25:57.000Z</time>
      </trkpt>
      <trkpt lat="48.67649" lon="1.96136">
        <ele>142.41</ele>
        <time>2008-04-06T08:26:04.000Z</time>
      </trkpt>
      <trkpt lat="48.67664" lon="1.96139">
        <ele>147.7</ele>
        <time>2008-04-06T08:26:09.000Z</time>
      </trkpt>
      <trkpt lat="48.67668" lon="1.96141">
        <ele>140.97</ele>
        <time>2008-04-06T08:26:13.000Z</time>
      </trkpt>
      <trkpt lat="48.6768" lon="1.96143">
        <ele>137.13</ele>
        <time>2008-04-06T08:26:18.000Z</time>
      </trkpt>
      <trkpt lat="48.67688" lon="1.96149">
        <ele>138.57</ele>
        <time>2008-04-06T08:26:21.000Z</time>
      </trkpt>
      <trkpt lat="48.67694" lon="1.96167">
        <ele>134.24</ele>
        <time>2008-04-06T08:26:26.000Z</time>
      </trkpt>
      <trkpt lat="48.67692" lon="1.96177">
        <ele>129.43</ele>
        <time>2008-04-06T08:26:29.000Z</time>
      </trkpt>
      <trkpt lat="48.67673" lon="1.96189">
        <ele>117.9</ele>
        <time>2008-04-06T08:26:35.000Z</time>
      </trkpt>
      <trkpt lat="48.67667" lon="1.96194">
        <ele>115.98</ele>
        <time>2008-04-06T08:26:37.000Z</time>
      </trkpt>
      <trkpt lat="48.67658" lon="1.96212">
        <ele>115.98</ele>
        <time>2008-04-06T08:26:42.000Z</time>
      </trkpt>
      <trkpt lat="48.67664" lon="1.96234">
        <ele>116.94</ele>
        <time>2008-04-06T08:26:49.000Z</time>
      </trkpt>
      <trkpt lat="48.67667" lon="1.96241">
        <ele>120.78</ele>
        <time>2008-04-06T08:26:53.000Z</time>
      </trkpt>
      <trkpt lat="48.67672" lon="1.96248">
        <ele>123.67</ele>
        <time>2008-04-06T08:26:57.000Z</time>
      </trkpt>
      <trkpt lat="48.67686" lon="1.96261">
        <ele>128.95</ele>
        <time>2008-04-06T08:27:03.000Z</time>
      </trkpt>
      <trkpt lat="48.67698" lon="1.9627">
        <ele>130.4</ele>
        <time>2008-04-06T08:27:07.000Z</time>
      </trkpt>
      <trkpt lat="48.67706" lon="1.96285">
        <ele>130.4</ele>
        <time>2008-04-06T08:27:11.000Z</time>
      </trkpt>
      <trkpt lat="48.67711" lon="1.96291">
        <ele>132.8</ele>
        <time>2008-04-06T08:27:13.000Z</time>
      </trkpt>
      <trkpt lat="48.6771" lon="1.96311">
        <ele>126.07</ele>
        <time>2008-04-06T08:27:18.000Z</time>
      </trkpt>
      <trkpt lat="48.6771" lon="1.96315">
        <ele>124.15</ele>
        <time>2008-04-06T08:27:19.000Z</time>
      </trkpt>
      <trkpt lat="48.6771" lon="1.96339">
        <ele>117.42</ele>
        <time>2008-04-06T08:27:24.000Z</time>
      </trkpt>
      <trkpt lat="48.67718" lon="1.96348">
        <ele>118.38</ele>
        <time>2008-04-06T08:27:27.000Z</time>
      </trkpt>
      <trkpt lat="48.67727" lon="1.96368">
        <ele>120.3</ele>
        <time>2008-04-06T08:27:32.000Z</time>
      </trkpt>
      <trkpt lat="48.67728" lon="1.96372">
        <ele>119.82</ele>
        <time>2008-04-06T08:27:33.000Z</time>
      </trkpt>
      <trkpt lat="48.67736" lon="1.96386">
        <ele>119.34</ele>
        <time>2008-04-06T08:27:38.000Z</time>
      </trkpt>
      <trkpt lat="48.67743" lon="1.96398">
        <ele>120.78</ele>
        <time>2008-04-06T08:27:42.000Z</time>
      </trkpt>
      <trkpt lat="48.67754" lon="1.96406">
        <ele>122.22</ele>
        <time>2008-04-06T08:27:47.000Z</time>
      </trkpt>
      <trkpt lat="48.67768" lon="1.96407">
        <ele>129.43</ele>
        <time>2008-04-06T08:27:52.000Z</time>
      </trkpt>
      <trkpt lat="48.67785" lon="1.96418">
        <ele>127.51</ele>
        <time>2008-04-06T08:27:57.000Z</time>
      </trkpt>
      <trkpt lat="48.67788" lon="1.96436">
        <ele>119.34</ele>
        <time>2008-04-06T08:28:02.000Z</time>
      </trkpt>
      <trkpt lat="48.67793" lon="1.96455">
        <ele>112.13</ele>
        <time>2008-04-06T08:28:08.000Z</time>
      </trkpt>
      <trkpt lat="48.67797" lon="1.96458">
        <ele>112.13</ele>
        <time>2008-04-06T08:28:10.000Z</time>
      </trkpt>
      <trkpt lat="48.67807" lon="1.96467">
        <ele>115.01</ele>
        <time>2008-04-06T08:28:15.000Z</time>
      </trkpt>
      <trkpt lat="48.67823" lon="1.96472">
        <ele>128.95</ele>
        <time>2008-04-06T08:28:21.000Z</time>
      </trkpt>
      <trkpt lat="48.67825" lon="1.96472">
        <ele>133.76</ele>
        <time>2008-04-06T08:28:22.000Z</time>
      </trkpt>
      <trkpt lat="48.67838" lon="1.9647">
        <ele>146.74</ele>
        <time>2008-04-06T08:28:28.000Z</time>
      </trkpt>
      <trkpt lat="48.67833" lon="1.96474">
        <ele>136.64</ele>
        <time>2008-04-06T08:28:34.000Z</time>
      </trkpt>
      <trkpt lat="48.67831" lon="1.96473">
        <ele>127.03</ele>
        <time>2008-04-06T08:28:42.000Z</time>
      </trkpt>
      <trkpt lat="48.67831" lon="1.96473">
        <ele>120.3</ele>
        <time>2008-04-06T08:28:51.000Z</time>
      </trkpt>
      <trkpt lat="48.67831" lon="1.96474">
        <ele>118.38</ele>
        <time>2008-04-06T08:28:53.000Z</time>
      </trkpt>
      <trkpt lat="48.6784" lon="1.96473">
        <ele>115.98</ele>
        <time>2008-04-06T08:28:58.000Z</time>
      </trkpt>
      <trkpt lat="48.67853" lon="1.96471">
        <ele>113.09</ele>
        <time>2008-04-06T08:29:03.000Z</time>
      </trkpt>
      <trkpt lat="48.67854" lon="1.96471">
        <ele>113.57</ele>
        <time>2008-04-06T08:29:04.000Z</time>
      </trkpt>
      <trkpt lat="48.67866" lon="1.96475">
        <ele>112.61</ele>
        <time>2008-04-06T08:29:10.000Z</time>
      </trkpt>
      <trkpt lat="48.6787" lon="1.96477">
        <ele>114.53</ele>
        <time>2008-04-06T08:29:13.000Z</time>
      </trkpt>
      <trkpt lat="48.67883" lon="1.96489">
        <ele>120.3</ele>
        <time>2008-04-06T08:29:20.000Z</time>
      </trkpt>
      <trkpt lat="48.67889" lon="1.96489">
        <ele>121.26</ele>
        <time>2008-04-06T08:29:23.000Z</time>
      </trkpt>
      <trkpt lat="48.6789" lon="1.96491">
        <ele>119.34</ele>
        <time>2008-04-06T08:29:26.000Z</time>
      </trkpt>
      <trkpt lat="48.67902" lon="1.96492">
        <ele>119.34</ele>
        <time>2008-04-06T08:29:32.000Z</time>
      </trkpt>
      <trkpt lat="48.67904" lon="1.96498">
        <ele>125.59</ele>
        <time>2008-04-06T08:29:37.000Z</time>
      </trkpt>
      <trkpt lat="48.67914" lon="1.96496">
        <ele>126.07</ele>
        <time>2008-04-06T08:29:42.000Z</time>
      </trkpt>
      <trkpt lat="48.67923" lon="1.9649">
        <ele>121.74</ele>
        <time>2008-04-06T08:29:46.000Z</time>
      </trkpt>
      <trkpt lat="48.67927" lon="1.96484">
        <ele>121.26</ele>
        <time>2008-04-06T08:29:49.000Z</time>
      </trkpt>
      <trkpt lat="48.6793" lon="1.9648">
        <ele>120.3</ele>
        <time>2008-04-06T08:29:53.000Z</time>
      </trkpt>
      <trkpt lat="48.67932" lon="1.96478">
        <ele>120.3</ele>
        <time>2008-04-06T08:29:55.000Z</time>
      </trkpt>
      <trkpt lat="48.67933" lon="1.96474">
        <ele>119.34</ele>
        <time>2008-04-06T08:29:57.000Z</time>
      </trkpt>
      <trkpt lat="48.67945" lon="1.96475">
        <ele>121.74</ele>
        <time>2008-04-06T08:30:04.000Z</time>
      </trkpt>
      <trkpt lat="48.6795" lon="1.96481">
        <ele>119.34</ele>
        <time>2008-04-06T08:30:10.000Z</time>
      </trkpt>
      <trkpt lat="48.6796" lon="1.96477">
        <ele>120.3</ele>
        <time>2008-04-06T08:30:16.000Z</time>
      </trkpt>
      <trkpt lat="48.67966" lon="1.96479">
        <ele>120.78</ele>
        <time>2008-04-06T08:30:19.000Z</time>
      </trkpt>
      <trkpt lat="48.67968" lon="1.9648">
        <ele>120.3</ele>
        <time>2008-04-06T08:30:21.000Z</time>
      </trkpt>
      <trkpt lat="48.67972" lon="1.96475">
        <ele>116.46</ele>
        <time>2008-04-06T08:30:24.000Z</time>
      </trkpt>
      <trkpt lat="48.6798" lon="1.96471">
        <ele>114.05</ele>
        <time>2008-04-06T08:30:28.000Z</time>
      </trkpt>
      <trkpt lat="48.67985" lon="1.96463">
        <ele>116.46</ele>
        <time>2008-04-06T08:30:32.000Z</time>
      </trkpt>
      <trkpt lat="48.67987" lon="1.96454">
        <ele>119.34</ele>
        <time>2008-04-06T08:30:36.000Z</time>
      </trkpt>
      <trkpt lat="48.67991" lon="1.9645">
        <ele>123.67</ele>
        <time>2008-04-06T08:30:41.000Z</time>
      </trkpt>
      <trkpt lat="48.67995" lon="1.9645">
        <ele>126.55</ele>
        <time>2008-04-06T08:30:45.000Z</time>
      </trkpt>
      <trkpt lat="48.67999" lon="1.96446">
        <ele>125.11</ele>
        <time>2008-04-06T08:30:51.000Z</time>
      </trkpt>
      <trkpt lat="48.68005" lon="1.96435">
        <ele>131.36</ele>
        <time>2008-04-06T08:31:04.000Z</time>
      </trkpt>
      <trkpt lat="48.68013" lon="1.96436">
        <ele>135.2</ele>
        <time>2008-04-06T08:31:08.000Z</time>
      </trkpt>
      <trkpt lat="48.68026" lon="1.96435">
        <ele>140.49</ele>
        <time>2008-04-06T08:31:15.000Z</time>
      </trkpt>
      <trkpt lat="48.6803" lon="1.96437">
        <ele>140.97</ele>
        <time>2008-04-06T08:31:20.000Z</time>
      </trkpt>
      <trkpt lat="48.68032" lon="1.96436">
        <ele>127.99</ele>
        <time>2008-04-06T08:31:27.000Z</time>
      </trkpt>
      <trkpt lat="48.68038" lon="1.96433">
        <ele>129.43</ele>
        <time>2008-04-06T08:31:37.000Z</time>
      </trkpt>
      <trkpt lat="48.68043" lon="1.9643">
        <ele>129.92</ele>
        <time>2008-04-06T08:31:42.000Z</time>
      </trkpt>
      <trkpt lat="48.68047" lon="1.96428">
        <ele>135.68</ele>
        <time>2008-04-06T08:31:47.000Z</time>
      </trkpt>
      <trkpt lat="48.68042" lon="1.9642">
        <ele>133.28</ele>
        <time>2008-04-06T08:31:57.000Z</time>
      </trkpt>
      <trkpt lat="48.68037" lon="1.96415">
        <ele>131.84</ele>
        <time>2008-04-06T08:32:05.000Z</time>
      </trkpt>
      <trkpt lat="48.68036" lon="1.96413">
        <ele>132.8</ele>
        <time>2008-04-06T08:32:10.000Z</time>
      </trkpt>
      <trkpt lat="48.68035" lon="1.96412">
        <ele>132.32</ele>
        <time>2008-04-06T08:32:16.000Z</time>
      </trkpt>
      <trkpt lat="48.68037" lon="1.96406">
        <ele>133.28</ele>
        <time>2008-04-06T08:32:22.000Z</time>
      </trkpt>
      <trkpt lat="48.68034" lon="1.96402">
        <ele>139.05</ele>
        <time>2008-04-06T08:32:31.000Z</time>
      </trkpt>
      <trkpt lat="48.68029" lon="1.96399">
        <ele>139.53</ele>
        <time>2008-04-06T08:32:36.000Z</time>
      </trkpt>
      <trkpt lat="48.68026" lon="1.96394">
        <ele>145.78</ele>
        <time>2008-04-06T08:32:43.000Z</time>
      </trkpt>
      <trkpt lat="48.68025" lon="1.96391">
        <ele>147.22</ele>
        <time>2008-04-06T08:32:50.000Z</time>
      </trkpt>
      <trkpt lat="48.68026" lon="1.96383">
        <ele>145.3</ele>
        <time>2008-04-06T08:32:57.000Z</time>
      </trkpt>
      <trkpt lat="48.68024" lon="1.96381">
        <ele>145.3</ele>
        <time>2008-04-06T08:33:02.000Z</time>
      </trkpt>
      <trkpt lat="48.68024" lon="1.96372">
        <ele>144.34</ele>
        <time>2008-04-06T08:33:12.000Z</time>
      </trkpt>
      <trkpt lat="48.68026" lon="1.96358">
        <ele>151.54</ele>
        <time>2008-04-06T08:33:26.000Z</time>
      </trkpt>
      <trkpt lat="48.68027" lon="1.96356">
        <ele>150.1</ele>
        <time>2008-04-06T08:33:31.000Z</time>
      </trkpt>
      <trkpt lat="48.68026" lon="1.96348">
        <ele>149.14</ele>
        <time>2008-04-06T08:33:39.000Z</time>
      </trkpt>
      <trkpt lat="48.68026" lon="1.96338">
        <ele>145.3</ele>
        <time>2008-04-06T08:33:52.000Z</time>
      </trkpt>
      <trkpt lat="48.68026" lon="1.96334">
        <ele>154.91</ele>
        <time>2008-04-06T08:33:58.000Z</time>
      </trkpt>
      <trkpt lat="48.68023" lon="1.96333">
        <ele>168.37</ele>
        <time>2008-04-06T08:34:16.000Z</time>
      </trkpt>
      <trkpt lat="48.6802" lon="1.96327">
        <ele>167.89</ele>
        <time>2008-04-06T08:34:22.000Z</time>
      </trkpt>
      <trkpt lat="48.68018" lon="1.96321">
        <ele>168.37</ele>
        <time>2008-04-06T08:34:25.000Z</time>
      </trkpt>
      <trkpt lat="48.68014" lon="1.96314">
        <ele>167.41</ele>
        <time>2008-04-06T08:34:35.000Z</time>
      </trkpt>
      <trkpt lat="48.68011" lon="1.96305">
        <ele>167.41</ele>
        <time>2008-04-06T08:34:41.000Z</time>
      </trkpt>
      <trkpt lat="48.68011" lon="1.96295">
        <ele>169.81</ele>
        <time>2008-04-06T08:34:46.000Z</time>
      </trkpt>
      <trkpt lat="48.68012" lon="1.96293">
        <ele>169.81</ele>
        <time>2008-04-06T08:34:47.000Z</time>
      </trkpt>
      <trkpt lat="48.68015" lon="1.96289">
        <ele>169.81</ele>
        <time>2008-04-06T08:34:51.000Z</time>
      </trkpt>
      <trkpt lat="48.68024" lon="1.96286">
        <ele>172.21</ele>
        <time>2008-04-06T08:34:57.000Z</time>
      </trkpt>
      <trkpt lat="48.68029" lon="1.96282">
        <ele>172.21</ele>
        <time>2008-04-06T08:35:01.000Z</time>
      </trkpt>
      <trkpt lat="48.68052" lon="1.96281">
        <ele>180.87</ele>
        <time>2008-04-06T08:35:07.000Z</time>
      </trkpt>
      <trkpt lat="48.68071" lon="1.96279">
        <ele>191.92</ele>
        <time>2008-04-06T08:35:13.000Z</time>
      </trkpt>
      <trkpt lat="48.68077" lon="1.96277">
        <ele>191.92</ele>
        <time>2008-04-06T08:35:16.000Z</time>
      </trkpt>
      <trkpt lat="48.68092" lon="1.96273">
        <ele>191.92</ele>
        <time>2008-04-06T08:35:22.000Z</time>
      </trkpt>
      <trkpt lat="48.68108" lon="1.96275">
        <ele>188.56</ele>
        <time>2008-04-06T08:35:27.000Z</time>
      </trkpt>
      <trkpt lat="48.68109" lon="1.96276">
        <ele>185.67</ele>
        <time>2008-04-06T08:35:28.000Z</time>
      </trkpt>
      <trkpt lat="48.68125" lon="1.96275">
        <ele>182.79</ele>
        <time>2008-04-06T08:35:34.000Z</time>
      </trkpt>
      <trkpt lat="48.68135" lon="1.96272">
        <ele>180.87</ele>
        <time>2008-04-06T08:35:38.000Z</time>
      </trkpt>
      <trkpt lat="48.68144" lon="1.96266">
        <ele>179.9</ele>
        <time>2008-04-06T08:35:42.000Z</time>
      </trkpt>
      <trkpt lat="48.68158" lon="1.96258">
        <ele>178.94</ele>
        <time>2008-04-06T08:35:48.000Z</time>
      </trkpt>
      <trkpt lat="48.68161" lon="1.96257">
        <ele>180.38</ele>
        <time>2008-04-06T08:35:49.000Z</time>
      </trkpt>
      <trkpt lat="48.68174" lon="1.96244">
        <ele>182.79</ele>
        <time>2008-04-06T08:35:55.000Z</time>
      </trkpt>
      <trkpt lat="48.68176" lon="1.96242">
        <ele>182.79</ele>
        <time>2008-04-06T08:35:56.000Z</time>
      </trkpt>
      <trkpt lat="48.68195" lon="1.96241">
        <ele>182.79</ele>
        <time>2008-04-06T08:36:02.000Z</time>
      </trkpt>
      <trkpt lat="48.68204" lon="1.96253">
        <ele>178.46</ele>
        <time>2008-04-06T08:36:06.000Z</time>
      </trkpt>
      <trkpt lat="48.68209" lon="1.96258">
        <ele>175.1</ele>
        <time>2008-04-06T08:36:09.000Z</time>
      </trkpt>
      <trkpt lat="48.68213" lon="1.96274">
        <ele>170.77</ele>
        <time>2008-04-06T08:36:14.000Z</time>
      </trkpt>
      <trkpt lat="48.68213" lon="1.96282">
        <ele>168.37</ele>
        <time>2008-04-06T08:36:16.000Z</time>
      </trkpt>
      <trkpt lat="48.68219" lon="1.96297">
        <ele>156.83</ele>
        <time>2008-04-06T08:36:22.000Z</time>
      </trkpt>
      <trkpt lat="48.68219" lon="1.96301">
        <ele>155.87</ele>
        <time>2008-04-06T08:36:23.000Z</time>
      </trkpt>
      <trkpt lat="48.68223" lon="1.96316">
        <ele>152.51</ele>
        <time>2008-04-06T08:36:29.000Z</time>
      </trkpt>
      <trkpt lat="48.68223" lon="1.96318">
        <ele>152.99</ele>
        <time>2008-04-06T08:36:30.000Z</time>
      </trkpt>
      <trkpt lat="48.68227" lon="1.96323">
        <ele>155.87</ele>
        <time>2008-04-06T08:36:33.000Z</time>
      </trkpt>
      <trkpt lat="48.68233" lon="1.96335">
        <ele>153.47</ele>
        <time>2008-04-06T08:36:38.000Z</time>
      </trkpt>
      <trkpt lat="48.68234" lon="1.96341">
        <ele>150.1</ele>
        <time>2008-04-06T08:36:41.000Z</time>
      </trkpt>
      <trkpt lat="48.68237" lon="1.96356">
        <ele>148.66</ele>
        <time>2008-04-06T08:36:46.000Z</time>
      </trkpt>
      <trkpt lat="48.68237" lon="1.96376">
        <ele>144.34</ele>
        <time>2008-04-06T08:36:52.000Z</time>
      </trkpt>
      <trkpt lat="48.6824" lon="1.96379">
        <ele>144.34</ele>
        <time>2008-04-06T08:36:53.000Z</time>
      </trkpt>
      <trkpt lat="48.68246" lon="1.96387">
        <ele>139.53</ele>
        <time>2008-04-06T08:36:57.000Z</time>
      </trkpt>
      <trkpt lat="48.68254" lon="1.96389">
        <ele>140.01</ele>
        <time>2008-04-06T08:37:02.000Z</time>
      </trkpt>
      <trkpt lat="48.68256" lon="1.9639">
        <ele>139.53</ele>
        <time>2008-04-06T08:37:03.000Z</time>
      </trkpt>
      <trkpt lat="48.68269" lon="1.96399">
        <ele>133.28</ele>
        <time>2008-04-06T08:37:09.000Z</time>
      </trkpt>
      <trkpt lat="48.68275" lon="1.96408">
        <ele>128.47</ele>
        <time>2008-04-06T08:37:14.000Z</time>
      </trkpt>
      <trkpt lat="48.68287" lon="1.9642">
        <ele>122.71</ele>
        <time>2008-04-06T08:37:19.000Z</time>
      </trkpt>
      <trkpt lat="48.68306" lon="1.96429">
        <ele>116.46</ele>
        <time>2008-04-06T08:37:25.000Z</time>
      </trkpt>
      <trkpt lat="48.68323" lon="1.96436">
        <ele>122.22</ele>
        <time>2008-04-06T08:37:30.000Z</time>
      </trkpt>
      <trkpt lat="48.68325" lon="1.96437">
        <ele>122.22</ele>
        <time>2008-04-06T08:37:31.000Z</time>
      </trkpt>
      <trkpt lat="48.68334" lon="1.96448">
        <ele>122.71</ele>
        <time>2008-04-06T08:37:36.000Z</time>
      </trkpt>
      <trkpt lat="48.68338" lon="1.96455">
        <ele>123.19</ele>
        <time>2008-04-06T08:37:38.000Z</time>
      </trkpt>
      <trkpt lat="48.68349" lon="1.96468">
        <ele>127.99</ele>
        <time>2008-04-06T08:37:44.000Z</time>
      </trkpt>
      <trkpt lat="48.68354" lon="1.96477">
        <ele>129.92</ele>
        <time>2008-04-06T08:37:49.000Z</time>
      </trkpt>
      <trkpt lat="48.68361" lon="1.96484">
        <ele>132.32</ele>
        <time>2008-04-06T08:37:56.000Z</time>
      </trkpt>
      <trkpt lat="48.68363" lon="1.96484">
        <ele>130.88</ele>
        <time>2008-04-06T08:37:59.000Z</time>
      </trkpt>
      <trkpt lat="48.6837" lon="1.96486">
        <ele>135.68</ele>
        <time>2008-04-06T08:38:03.000Z</time>
      </trkpt>
      <trkpt lat="48.68374" lon="1.9648">
        <ele>136.64</ele>
        <time>2008-04-06T08:38:09.000Z</time>
      </trkpt>
      <trkpt lat="48.68385" lon="1.9648">
        <ele>136.64</ele>
        <time>2008-04-06T08:38:17.000Z</time>
      </trkpt>
      <trkpt lat="48.68388" lon="1.96476">
        <ele>135.68</ele>
        <time>2008-04-06T08:38:22.000Z</time>
      </trkpt>
      <trkpt lat="48.68388" lon="1.96475">
        <ele>135.68</ele>
        <time>2008-04-06T08:38:23.000Z</time>
      </trkpt>
      <trkpt lat="48.68389" lon="1.96472">
        <ele>136.64</ele>
        <time>2008-04-06T08:38:25.000Z</time>
      </trkpt>
      <trkpt lat="48.68393" lon="1.96466">
        <ele>136.64</ele>
        <time>2008-04-06T08:38:31.000Z</time>
      </trkpt>
      <trkpt lat="48.68397" lon="1.96458">
        <ele>139.05</ele>
        <time>2008-04-06T08:38:38.000Z</time>
      </trkpt>
      <trkpt lat="48.68401" lon="1.96456">
        <ele>143.85</ele>
        <time>2008-04-06T08:38:40.000Z</time>
      </trkpt>
      <trkpt lat="48.68404" lon="1.96455">
        <ele>143.85</ele>
        <time>2008-04-06T08:38:43.000Z</time>
      </trkpt>
      <trkpt lat="48.68413" lon="1.96451">
        <ele>145.78</ele>
        <time>2008-04-06T08:38:50.000Z</time>
      </trkpt>
      <trkpt lat="48.68414" lon="1.96449">
        <ele>145.3</ele>
        <time>2008-04-06T08:38:51.000Z</time>
      </trkpt>
      <trkpt lat="48.68425" lon="1.96443">
        <ele>146.74</ele>
        <time>2008-04-06T08:38:57.000Z</time>
      </trkpt>
      <trkpt lat="48.68438" lon="1.96432">
        <ele>145.78</ele>
        <time>2008-04-06T08:39:03.000Z</time>
      </trkpt>
      <trkpt lat="48.68444" lon="1.96427">
        <ele>146.26</ele>
        <time>2008-04-06T08:39:06.000Z</time>
      </trkpt>
      <trkpt lat="48.68442" lon="1.96408">
        <ele>143.85</ele>
        <time>2008-04-06T08:39:12.000Z</time>
      </trkpt>
      <trkpt lat="48.68436" lon="1.96393">
        <ele>141.45</ele>
        <time>2008-04-06T08:39:16.000Z</time>
      </trkpt>
      <trkpt lat="48.6843" lon="1.96372">
        <ele>142.89</ele>
        <time>2008-04-06T08:39:22.000Z</time>
      </trkpt>
      <trkpt lat="48.68429" lon="1.96367">
        <ele>143.37</ele>
        <time>2008-04-06T08:39:24.000Z</time>
      </trkpt>
      <trkpt lat="48.68429" lon="1.96355">
        <ele>146.74</ele>
        <time>2008-04-06T08:39:30.000Z</time>
      </trkpt>
      <trkpt lat="48.68428" lon="1.96347">
        <ele>146.26</ele>
        <time>2008-04-06T08:39:34.000Z</time>
      </trkpt>
      <trkpt lat="48.68429" lon="1.96339">
        <ele>148.18</ele>
        <time>2008-04-06T08:39:38.000Z</time>
      </trkpt>
      <trkpt lat="48.68426" lon="1.96331">
        <ele>147.7</ele>
        <time>2008-04-06T08:39:41.000Z</time>
      </trkpt>
      <trkpt lat="48.68423" lon="1.96316">
        <ele>150.58</ele>
        <time>2008-04-06T08:39:47.000Z</time>
      </trkpt>
      <trkpt lat="48.68419" lon="1.96302">
        <ele>151.54</ele>
        <time>2008-04-06T08:39:53.000Z</time>
      </trkpt>
      <trkpt lat="48.68417" lon="1.9629">
        <ele>152.99</ele>
        <time>2008-04-06T08:39:57.000Z</time>
      </trkpt>
      <trkpt lat="48.68415" lon="1.9628">
        <ele>152.99</ele>
        <time>2008-04-06T08:40:03.000Z</time>
      </trkpt>
      <trkpt lat="48.68414" lon="1.96269">
        <ele>150.58</ele>
        <time>2008-04-06T08:40:08.000Z</time>
      </trkpt>
      <trkpt lat="48.68413" lon="1.96266">
        <ele>150.58</ele>
        <time>2008-04-06T08:40:09.000Z</time>
      </trkpt>
      <trkpt lat="48.68412" lon="1.96258">
        <ele>151.06</ele>
        <time>2008-04-06T08:40:15.000Z</time>
      </trkpt>
      <trkpt lat="48.68412" lon="1.96256">
        <ele>151.06</ele>
        <time>2008-04-06T08:40:16.000Z</time>
      </trkpt>
      <trkpt lat="48.68407" lon="1.96246">
        <ele>153.47</ele>
        <time>2008-04-06T08:40:19.000Z</time>
      </trkpt>
      <trkpt lat="48.68407" lon="1.96234">
        <ele>152.51</ele>
        <time>2008-04-06T08:40:22.000Z</time>
      </trkpt>
      <trkpt lat="48.6841" lon="1.96225">
        <ele>154.43</ele>
        <time>2008-04-06T08:40:27.000Z</time>
      </trkpt>
      <trkpt lat="48.68412" lon="1.96219">
        <ele>156.35</ele>
        <time>2008-04-06T08:40:30.000Z</time>
      </trkpt>
      <trkpt lat="48.68413" lon="1.96216">
        <ele>158.75</ele>
        <time>2008-04-06T08:40:34.000Z</time>
      </trkpt>
      <trkpt lat="48.68411" lon="1.96214">
        <ele>156.35</ele>
        <time>2008-04-06T08:40:40.000Z</time>
      </trkpt>
      <trkpt lat="48.68409" lon="1.96205">
        <ele>156.83</ele>
        <time>2008-04-06T08:40:45.000Z</time>
      </trkpt>
      <trkpt lat="48.68404" lon="1.96188">
        <ele>158.27</ele>
        <time>2008-04-06T08:40:51.000Z</time>
      </trkpt>
      <trkpt lat="48.68404" lon="1.96183">
        <ele>158.75</ele>
        <time>2008-04-06T08:40:53.000Z</time>
      </trkpt>
      <trkpt lat="48.68402" lon="1.96179">
        <ele>160.2</ele>
        <time>2008-04-06T08:40:55.000Z</time>
      </trkpt>
      <trkpt lat="48.684" lon="1.96172">
        <ele>157.31</ele>
        <time>2008-04-06T08:41:02.000Z</time>
      </trkpt>
      <trkpt lat="48.68398" lon="1.96159">
        <ele>157.31</ele>
        <time>2008-04-06T08:41:07.000Z</time>
      </trkpt>
      <trkpt lat="48.68401" lon="1.96149">
        <ele>158.27</ele>
        <time>2008-04-06T08:41:13.000Z</time>
      </trkpt>
      <trkpt lat="48.68401" lon="1.96147">
        <ele>155.87</ele>
        <time>2008-04-06T08:41:14.000Z</time>
      </trkpt>
      <trkpt lat="48.68402" lon="1.96136">
        <ele>152.03</ele>
        <time>2008-04-06T08:41:20.000Z</time>
      </trkpt>
      <trkpt lat="48.68403" lon="1.96134">
        <ele>150.1</ele>
        <time>2008-04-06T08:41:22.000Z</time>
      </trkpt>
      <trkpt lat="48.68402" lon="1.96128">
        <ele>150.58</ele>
        <time>2008-04-06T08:41:25.000Z</time>
      </trkpt>
      <trkpt lat="48.68408" lon="1.96118">
        <ele>153.95</ele>
        <time>2008-04-06T08:41:30.000Z</time>
      </trkpt>
      <trkpt lat="48.68412" lon="1.96118">
        <ele>152.51</ele>
        <time>2008-04-06T08:41:32.000Z</time>
      </trkpt>
      <trkpt lat="48.68428" lon="1.96115">
        <ele>152.51</ele>
        <time>2008-04-06T08:41:38.000Z</time>
      </trkpt>
      <trkpt lat="48.6844" lon="1.96114">
        <ele>152.03</ele>
        <time>2008-04-06T08:41:43.000Z</time>
      </trkpt>
      <trkpt lat="48.68443" lon="1.96112">
        <ele>151.06</ele>
        <time>2008-04-06T08:41:45.000Z</time>
      </trkpt>
      <trkpt lat="48.68455" lon="1.96105">
        <ele>150.58</ele>
        <time>2008-04-06T08:41:51.000Z</time>
      </trkpt>
      <trkpt lat="48.68468" lon="1.96105">
        <ele>151.06</ele>
        <time>2008-04-06T08:41:55.000Z</time>
      </trkpt>
      <trkpt lat="48.68485" lon="1.96102">
        <ele>160.68</ele>
        <time>2008-04-06T08:41:59.000Z</time>
      </trkpt>
      <trkpt lat="48.68485" lon="1.96095">
        <ele>160.2</ele>
        <time>2008-04-06T08:42:01.000Z</time>
      </trkpt>
      <trkpt lat="48.68486" lon="1.96089">
        <ele>158.27</ele>
        <time>2008-04-06T08:42:04.000Z</time>
      </trkpt>
      <trkpt lat="48.68489" lon="1.96084">
        <ele>158.27</ele>
        <time>2008-04-06T08:42:07.000Z</time>
      </trkpt>
      <trkpt lat="48.68491" lon="1.96081">
        <ele>157.31</ele>
        <time>2008-04-06T08:42:09.000Z</time>
      </trkpt>
      <trkpt lat="48.68496" lon="1.96075">
        <ele>160.2</ele>
        <time>2008-04-06T08:42:13.000Z</time>
      </trkpt>
      <trkpt lat="48.68498" lon="1.96069">
        <ele>160.2</ele>
        <time>2008-04-06T08:42:17.000Z</time>
      </trkpt>
      <trkpt lat="48.68503" lon="1.96067">
        <ele>159.24</ele>
        <time>2008-04-06T08:42:21.000Z</time>
      </trkpt>
      <trkpt lat="48.68507" lon="1.96058">
        <ele>159.72</ele>
        <time>2008-04-06T08:42:27.000Z</time>
      </trkpt>
      <trkpt lat="48.68509" lon="1.96053">
        <ele>162.6</ele>
        <time>2008-04-06T08:42:30.000Z</time>
      </trkpt>
      <trkpt lat="48.68514" lon="1.96042">
        <ele>167.41</ele>
        <time>2008-04-06T08:42:37.000Z</time>
      </trkpt>
      <trkpt lat="48.68521" lon="1.96024">
        <ele>164.04</ele>
        <time>2008-04-06T08:42:46.000Z</time>
      </trkpt>
      <trkpt lat="48.6853" lon="1.9601">
        <ele>163.56</ele>
        <time>2008-04-06T08:42:51.000Z</time>
      </trkpt>
      <trkpt lat="48.68536" lon="1.95998">
        <ele>165</ele>
        <time>2008-04-06T08:42:56.000Z</time>
      </trkpt>
      <trkpt lat="48.68541" lon="1.95983">
        <ele>164.52</ele>
        <time>2008-04-06T08:43:01.000Z</time>
      </trkpt>
      <trkpt lat="48.68544" lon="1.95965">
        <ele>162.12</ele>
        <time>2008-04-06T08:43:06.000Z</time>
      </trkpt>
      <trkpt lat="48.68547" lon="1.95942">
        <ele>162.12</ele>
        <time>2008-04-06T08:43:12.000Z</time>
      </trkpt>
      <trkpt lat="48.68554" lon="1.95928">
        <ele>164.52</ele>
        <time>2008-04-06T08:43:17.000Z</time>
      </trkpt>
      <trkpt lat="48.68557" lon="1.95915">
        <ele>165</ele>
        <time>2008-04-06T08:43:21.000Z</time>
      </trkpt>
      <trkpt lat="48.68557" lon="1.95894">
        <ele>168.37</ele>
        <time>2008-04-06T08:43:27.000Z</time>
      </trkpt>
      <trkpt lat="48.68561" lon="1.9589">
        <ele>167.41</ele>
        <time>2008-04-06T08:43:30.000Z</time>
      </trkpt>
      <trkpt lat="48.68565" lon="1.95892">
        <ele>167.41</ele>
        <time>2008-04-06T08:43:33.000Z</time>
      </trkpt>
      <trkpt lat="48.68575" lon="1.95898">
        <ele>169.81</ele>
        <time>2008-04-06T08:43:38.000Z</time>
      </trkpt>
      <trkpt lat="48.68587" lon="1.95906">
        <ele>169.33</ele>
        <time>2008-04-06T08:43:43.000Z</time>
      </trkpt>
      <trkpt lat="48.68593" lon="1.95909">
        <ele>170.29</ele>
        <time>2008-04-06T08:43:46.000Z</time>
      </trkpt>
      <trkpt lat="48.68602" lon="1.95922">
        <ele>168.85</ele>
        <time>2008-04-06T08:43:54.000Z</time>
      </trkpt>
      <trkpt lat="48.68604" lon="1.95931">
        <ele>166.93</ele>
        <time>2008-04-06T08:43:58.000Z</time>
      </trkpt>
      <trkpt lat="48.68616" lon="1.95943">
        <ele>170.77</ele>
        <time>2008-04-06T08:44:03.000Z</time>
      </trkpt>
      <trkpt lat="48.68625" lon="1.95952">
        <ele>168.37</ele>
        <time>2008-04-06T08:44:07.000Z</time>
      </trkpt>
      <trkpt lat="48.68631" lon="1.95955">
        <ele>167.41</ele>
        <time>2008-04-06T08:44:11.000Z</time>
      </trkpt>
      <trkpt lat="48.68638" lon="1.95965">
        <ele>167.41</ele>
        <time>2008-04-06T08:44:16.000Z</time>
      </trkpt>
      <trkpt lat="48.68642" lon="1.95971">
        <ele>166.93</ele>
        <time>2008-04-06T08:44:21.000Z</time>
      </trkpt>
      <trkpt lat="48.68648" lon="1.95976">
        <ele>169.33</ele>
        <time>2008-04-06T08:44:28.000Z</time>
      </trkpt>
      <trkpt lat="48.68649" lon="1.95978">
        <ele>169.33</ele>
        <time>2008-04-06T08:44:29.000Z</time>
      </trkpt>
      <trkpt lat="48.68654" lon="1.95986">
        <ele>164.52</ele>
        <time>2008-04-06T08:44:39.000Z</time>
      </trkpt>
      <trkpt lat="48.6866" lon="1.95991">
        <ele>169.81</ele>
        <time>2008-04-06T08:44:46.000Z</time>
      </trkpt>
      <trkpt lat="48.68661" lon="1.95992">
        <ele>169.81</ele>
        <time>2008-04-06T08:44:47.000Z</time>
      </trkpt>
      <trkpt lat="48.68659" lon="1.96">
        <ele>168.85</ele>
        <time>2008-04-06T08:44:51.000Z</time>
      </trkpt>
      <trkpt lat="48.68658" lon="1.96023">
        <ele>167.41</ele>
        <time>2008-04-06T08:44:57.000Z</time>
      </trkpt>
      <trkpt lat="48.6866" lon="1.96031">
        <ele>167.89</ele>
        <time>2008-04-06T08:44:59.000Z</time>
      </trkpt>
      <trkpt lat="48.68661" lon="1.96051">
        <ele>168.85</ele>
        <time>2008-04-06T08:45:04.000Z</time>
      </trkpt>
      <trkpt lat="48.68659" lon="1.96075">
        <ele>171.25</ele>
        <time>2008-04-06T08:45:10.000Z</time>
      </trkpt>
      <trkpt lat="48.68654" lon="1.96096">
        <ele>173.17</ele>
        <time>2008-04-06T08:45:15.000Z</time>
      </trkpt>
      <trkpt lat="48.68648" lon="1.96108">
        <ele>173.17</ele>
        <time>2008-04-06T08:45:19.000Z</time>
      </trkpt>
      <trkpt lat="48.68642" lon="1.96125">
        <ele>173.66</ele>
        <time>2008-04-06T08:45:24.000Z</time>
      </trkpt>
      <trkpt lat="48.68636" lon="1.96144">
        <ele>173.17</ele>
        <time>2008-04-06T08:45:29.000Z</time>
      </trkpt>
      <trkpt lat="48.68632" lon="1.96155">
        <ele>173.17</ele>
        <time>2008-04-06T08:45:32.000Z</time>
      </trkpt>
      <trkpt lat="48.68623" lon="1.96171">
        <ele>170.77</ele>
        <time>2008-04-06T08:45:39.000Z</time>
      </trkpt>
      <trkpt lat="48.68615" lon="1.9619">
        <ele>169.81</ele>
        <time>2008-04-06T08:45:44.000Z</time>
      </trkpt>
      <trkpt lat="48.68615" lon="1.96193">
        <ele>165.96</ele>
        <time>2008-04-06T08:45:46.000Z</time>
      </trkpt>
      <trkpt lat="48.68623" lon="1.96197">
        <ele>161.16</ele>
        <time>2008-04-06T08:45:51.000Z</time>
      </trkpt>
      <trkpt lat="48.68628" lon="1.96204">
        <ele>157.79</ele>
        <time>2008-04-06T08:45:55.000Z</time>
      </trkpt>
      <trkpt lat="48.68636" lon="1.96218">
        <ele>151.54</ele>
        <time>2008-04-06T08:46:02.000Z</time>
      </trkpt>
      <trkpt lat="48.68637" lon="1.9622">
        <ele>150.58</ele>
        <time>2008-04-06T08:46:03.000Z</time>
      </trkpt>
      <trkpt lat="48.68643" lon="1.96234">
        <ele>146.74</ele>
        <time>2008-04-06T08:46:08.000Z</time>
      </trkpt>
      <trkpt lat="48.68652" lon="1.96251">
        <ele>143.37</ele>
        <time>2008-04-06T08:46:14.000Z</time>
      </trkpt>
      <trkpt lat="48.68655" lon="1.96257">
        <ele>142.41</ele>
        <time>2008-04-06T08:46:16.000Z</time>
      </trkpt>
      <trkpt lat="48.68658" lon="1.96274">
        <ele>141.45</ele>
        <time>2008-04-06T08:46:20.000Z</time>
      </trkpt>
      <trkpt lat="48.68662" lon="1.96286">
        <ele>140.49</ele>
        <time>2008-04-06T08:46:23.000Z</time>
      </trkpt>
      <trkpt lat="48.68671" lon="1.96305">
        <ele>141.45</ele>
        <time>2008-04-06T08:46:29.000Z</time>
      </trkpt>
      <trkpt lat="48.68674" lon="1.96311">
        <ele>142.89</ele>
        <time>2008-04-06T08:46:31.000Z</time>
      </trkpt>
      <trkpt lat="48.68679" lon="1.96316">
        <ele>142.89</ele>
        <time>2008-04-06T08:46:34.000Z</time>
      </trkpt>
      <trkpt lat="48.68693" lon="1.96334">
        <ele>143.37</ele>
        <time>2008-04-06T08:46:41.000Z</time>
      </trkpt>
      <trkpt lat="48.68703" lon="1.96338">
        <ele>143.85</ele>
        <time>2008-04-06T08:46:45.000Z</time>
      </trkpt>
      <trkpt lat="48.68716" lon="1.96341">
        <ele>146.26</ele>
        <time>2008-04-06T08:46:50.000Z</time>
      </trkpt>
      <trkpt lat="48.68721" lon="1.96341">
        <ele>146.74</ele>
        <time>2008-04-06T08:46:52.000Z</time>
      </trkpt>
      <trkpt lat="48.6874" lon="1.96351">
        <ele>148.18</ele>
        <time>2008-04-06T08:46:59.000Z</time>
      </trkpt>
      <trkpt lat="48.68747" lon="1.96361">
        <ele>145.3</ele>
        <time>2008-04-06T08:47:04.000Z</time>
      </trkpt>
      <trkpt lat="48.68753" lon="1.96371">
        <ele>143.37</ele>
        <time>2008-04-06T08:47:08.000Z</time>
      </trkpt>
      <trkpt lat="48.6876" lon="1.96376">
        <ele>138.57</ele>
        <time>2008-04-06T08:47:12.000Z</time>
      </trkpt>
      <trkpt lat="48.68762" lon="1.96374">
        <ele>136.64</ele>
        <time>2008-04-06T08:47:14.000Z</time>
      </trkpt>
      <trkpt lat="48.68766" lon="1.96369">
        <ele>136.64</ele>
        <time>2008-04-06T08:47:17.000Z</time>
      </trkpt>
      <trkpt lat="48.68766" lon="1.96356">
        <ele>137.13</ele>
        <time>2008-04-06T08:47:22.000Z</time>
      </trkpt>
      <trkpt lat="48.68768" lon="1.96349">
        <ele>136.64</ele>
        <time>2008-04-06T08:47:24.000Z</time>
      </trkpt>
      <trkpt lat="48.68776" lon="1.96332">
        <ele>139.05</ele>
        <time>2008-04-06T08:47:29.000Z</time>
      </trkpt>
      <trkpt lat="48.68784" lon="1.96321">
        <ele>131.84</ele>
        <time>2008-04-06T08:47:34.000Z</time>
      </trkpt>
      <trkpt lat="48.68789" lon="1.96315">
        <ele>129.92</ele>
        <time>2008-04-06T08:47:38.000Z</time>
      </trkpt>
      <trkpt lat="48.68794" lon="1.96307">
        <ele>126.07</ele>
        <time>2008-04-06T08:47:45.000Z</time>
      </trkpt>
      <trkpt lat="48.68796" lon="1.96305">
        <ele>124.63</ele>
        <time>2008-04-06T08:47:48.000Z</time>
      </trkpt>
      <trkpt lat="48.68801" lon="1.96305">
        <ele>128.47</ele>
        <time>2008-04-06T08:47:52.000Z</time>
      </trkpt>
      <trkpt lat="48.68808" lon="1.96304">
        <ele>132.32</ele>
        <time>2008-04-06T08:47:59.000Z</time>
      </trkpt>
      <trkpt lat="48.68813" lon="1.96296">
        <ele>134.24</ele>
        <time>2008-04-06T08:48:07.000Z</time>
      </trkpt>
      <trkpt lat="48.68825" lon="1.96284">
        <ele>141.45</ele>
        <time>2008-04-06T08:48:13.000Z</time>
      </trkpt>
      <trkpt lat="48.68831" lon="1.96273">
        <ele>144.82</ele>
        <time>2008-04-06T08:48:17.000Z</time>
      </trkpt>
      <trkpt lat="48.68834" lon="1.96255">
        <ele>145.78</ele>
        <time>2008-04-06T08:48:22.000Z</time>
      </trkpt>
      <trkpt lat="48.68836" lon="1.9625">
        <ele>146.26</ele>
        <time>2008-04-06T08:48:24.000Z</time>
      </trkpt>
      <trkpt lat="48.6885" lon="1.96243">
        <ele>144.34</ele>
        <time>2008-04-06T08:48:30.000Z</time>
      </trkpt>
      <trkpt lat="48.68865" lon="1.96255">
        <ele>138.09</ele>
        <time>2008-04-06T08:48:36.000Z</time>
      </trkpt>
      <trkpt lat="48.68867" lon="1.96257">
        <ele>137.13</ele>
        <time>2008-04-06T08:48:37.000Z</time>
      </trkpt>
      <trkpt lat="48.68872" lon="1.96261">
        <ele>135.2</ele>
        <time>2008-04-06T08:48:39.000Z</time>
      </trkpt>
      <trkpt lat="48.68878" lon="1.96264">
        <ele>137.13</ele>
        <time>2008-04-06T08:48:43.000Z</time>
      </trkpt>
      <trkpt lat="48.68887" lon="1.96259">
        <ele>142.41</ele>
        <time>2008-04-06T08:48:50.000Z</time>
      </trkpt>
      <trkpt lat="48.68898" lon="1.96256">
        <ele>141.93</ele>
        <time>2008-04-06T08:48:55.000Z</time>
      </trkpt>
      <trkpt lat="48.689" lon="1.96255">
        <ele>144.82</ele>
        <time>2008-04-06T08:48:56.000Z</time>
      </trkpt>
      <trkpt lat="48.68906" lon="1.96247">
        <ele>146.26</ele>
        <time>2008-04-06T08:49:01.000Z</time>
      </trkpt>
      <trkpt lat="48.68924" lon="1.96236">
        <ele>143.37</ele>
        <time>2008-04-06T08:49:09.000Z</time>
      </trkpt>
      <trkpt lat="48.68932" lon="1.96225">
        <ele>144.34</ele>
        <time>2008-04-06T08:49:15.000Z</time>
      </trkpt>
      <trkpt lat="48.68935" lon="1.96221">
        <ele>140.01</ele>
        <time>2008-04-06T08:49:18.000Z</time>
      </trkpt>
      <trkpt lat="48.68942" lon="1.96225">
        <ele>140.49</ele>
        <time>2008-04-06T08:49:21.000Z</time>
      </trkpt>
      <trkpt lat="48.68953" lon="1.96244">
        <ele>136.16</ele>
        <time>2008-04-06T08:49:27.000Z</time>
      </trkpt>
      <trkpt lat="48.68958" lon="1.96252">
        <ele>135.68</ele>
        <time>2008-04-06T08:49:30.000Z</time>
      </trkpt>
      <trkpt lat="48.68969" lon="1.96268">
        <ele>133.76</ele>
        <time>2008-04-06T08:49:36.000Z</time>
      </trkpt>
      <trkpt lat="48.68969" lon="1.96271">
        <ele>134.24</ele>
        <time>2008-04-06T08:49:37.000Z</time>
      </trkpt>
      <trkpt lat="48.68973" lon="1.96281">
        <ele>134.72</ele>
        <time>2008-04-06T08:49:42.000Z</time>
      </trkpt>
      <trkpt lat="48.68973" lon="1.96283">
        <ele>134.72</ele>
        <time>2008-04-06T08:49:43.000Z</time>
      </trkpt>
      <trkpt lat="48.68979" lon="1.9629">
        <ele>138.57</ele>
        <time>2008-04-06T08:49:50.000Z</time>
      </trkpt>
      <trkpt lat="48.68986" lon="1.96287">
        <ele>136.64</ele>
        <time>2008-04-06T08:50:00.000Z</time>
      </trkpt>
      <trkpt lat="48.68991" lon="1.96291">
        <ele>138.09</ele>
        <time>2008-04-06T08:50:06.000Z</time>
      </trkpt>
      <trkpt lat="48.68994" lon="1.96292">
        <ele>141.93</ele>
        <time>2008-04-06T08:50:08.000Z</time>
      </trkpt>
      <trkpt lat="48.69001" lon="1.96295">
        <ele>148.66</ele>
        <time>2008-04-06T08:50:15.000Z</time>
      </trkpt>
      <trkpt lat="48.69009" lon="1.96289">
        <ele>157.79</ele>
        <time>2008-04-06T08:50:29.000Z</time>
      </trkpt>
      <trkpt lat="48.69007" lon="1.9628">
        <ele>157.79</ele>
        <time>2008-04-06T08:50:35.000Z</time>
      </trkpt>
      <trkpt lat="48.69008" lon="1.96275">
        <ele>155.87</ele>
        <time>2008-04-06T08:50:38.000Z</time>
      </trkpt>
      <trkpt lat="48.69009" lon="1.96266">
        <ele>159.24</ele>
        <time>2008-04-06T08:50:44.000Z</time>
      </trkpt>
      <trkpt lat="48.69013" lon="1.9626">
        <ele>155.87</ele>
        <time>2008-04-06T08:50:48.000Z</time>
      </trkpt>
      <trkpt lat="48.69018" lon="1.96251">
        <ele>154.91</ele>
        <time>2008-04-06T08:50:54.000Z</time>
      </trkpt>
      <trkpt lat="48.69024" lon="1.9624">
        <ele>153.47</ele>
        <time>2008-04-06T08:51:00.000Z</time>
      </trkpt>
      <trkpt lat="48.69029" lon="1.9623">
        <ele>150.58</ele>
        <time>2008-04-06T08:51:06.000Z</time>
      </trkpt>
      <trkpt lat="48.69035" lon="1.96225">
        <ele>148.66</ele>
        <time>2008-04-06T08:51:11.000Z</time>
      </trkpt>
      <trkpt lat="48.69036" lon="1.96224">
        <ele>147.7</ele>
        <time>2008-04-06T08:51:12.000Z</time>
      </trkpt>
      <trkpt lat="48.69041" lon="1.96215">
        <ele>145.78</ele>
        <time>2008-04-06T08:51:19.000Z</time>
      </trkpt>
      <trkpt lat="48.69043" lon="1.96202">
        <ele>151.06</ele>
        <time>2008-04-06T08:51:26.000Z</time>
      </trkpt>
      <trkpt lat="48.69042" lon="1.96191">
        <ele>156.35</ele>
        <time>2008-04-06T08:51:32.000Z</time>
      </trkpt>
      <trkpt lat="48.69036" lon="1.96177">
        <ele>164.04</ele>
        <time>2008-04-06T08:51:38.000Z</time>
      </trkpt>
      <trkpt lat="48.69033" lon="1.96173">
        <ele>167.89</ele>
        <time>2008-04-06T08:51:40.000Z</time>
      </trkpt>
      <trkpt lat="48.69033" lon="1.96171">
        <ele>168.37</ele>
        <time>2008-04-06T08:51:42.000Z</time>
      </trkpt>
      <trkpt lat="48.69034" lon="1.96169">
        <ele>169.81</ele>
        <time>2008-04-06T08:51:44.000Z</time>
      </trkpt>
      <trkpt lat="48.69035" lon="1.96164">
        <ele>168.85</ele>
        <time>2008-04-06T08:51:48.000Z</time>
      </trkpt>
      <trkpt lat="48.69033" lon="1.96156">
        <ele>168.85</ele>
        <time>2008-04-06T08:51:54.000Z</time>
      </trkpt>
      <trkpt lat="48.69034" lon="1.96152">
        <ele>168.37</ele>
        <time>2008-04-06T08:51:56.000Z</time>
      </trkpt>
      <trkpt lat="48.69035" lon="1.96141">
        <ele>166.45</ele>
        <time>2008-04-06T08:52:03.000Z</time>
      </trkpt>
      <trkpt lat="48.69034" lon="1.9613">
        <ele>165.96</ele>
        <time>2008-04-06T08:52:09.000Z</time>
      </trkpt>
      <trkpt lat="48.69037" lon="1.96117">
        <ele>164.04</ele>
        <time>2008-04-06T08:52:16.000Z</time>
      </trkpt>
      <trkpt lat="48.69038" lon="1.96113">
        <ele>163.56</ele>
        <time>2008-04-06T08:52:18.000Z</time>
      </trkpt>
      <trkpt lat="48.69041" lon="1.96099">
        <ele>167.41</ele>
        <time>2008-04-06T08:52:25.000Z</time>
      </trkpt>
      <trkpt lat="48.69045" lon="1.96091">
        <ele>165.48</ele>
        <time>2008-04-06T08:52:30.000Z</time>
      </trkpt>
      <trkpt lat="48.69051" lon="1.96085">
        <ele>167.89</ele>
        <time>2008-04-06T08:52:34.000Z</time>
      </trkpt>
      <trkpt lat="48.69056" lon="1.96081">
        <ele>166.45</ele>
        <time>2008-04-06T08:52:38.000Z</time>
      </trkpt>
      <trkpt lat="48.69066" lon="1.96075">
        <ele>167.41</ele>
        <time>2008-04-06T08:52:46.000Z</time>
      </trkpt>
      <trkpt lat="48.69076" lon="1.96067">
        <ele>170.77</ele>
        <time>2008-04-06T08:52:51.000Z</time>
      </trkpt>
      <trkpt lat="48.69081" lon="1.96062">
        <ele>170.29</ele>
        <time>2008-04-06T08:52:54.000Z</time>
      </trkpt>
      <trkpt lat="48.69091" lon="1.96052">
        <ele>170.29</ele>
        <time>2008-04-06T08:53:00.000Z</time>
      </trkpt>
      <trkpt lat="48.69096" lon="1.96042">
        <ele>177.02</ele>
        <time>2008-04-06T08:53:06.000Z</time>
      </trkpt>
      <trkpt lat="48.69099" lon="1.96041">
        <ele>176.06</ele>
        <time>2008-04-06T08:53:12.000Z</time>
      </trkpt>
      <trkpt lat="48.69103" lon="1.96038">
        <ele>175.58</ele>
        <time>2008-04-06T08:53:19.000Z</time>
      </trkpt>
      <trkpt lat="48.69102" lon="1.96035">
        <ele>182.79</ele>
        <time>2008-04-06T08:53:30.000Z</time>
      </trkpt>
      <trkpt lat="48.69099" lon="1.96031">
        <ele>183.27</ele>
        <time>2008-04-06T08:53:43.000Z</time>
      </trkpt>
      <trkpt lat="48.69099" lon="1.96033">
        <ele>182.31</ele>
        <time>2008-04-06T08:53:50.000Z</time>
      </trkpt>
      <trkpt lat="48.69101" lon="1.96031">
        <ele>184.23</ele>
        <time>2008-04-06T08:54:00.000Z</time>
      </trkpt>
      <trkpt lat="48.69107" lon="1.96034">
        <ele>174.14</ele>
        <time>2008-04-06T08:54:54.000Z</time>
      </trkpt>
      <trkpt lat="48.69107" lon="1.9604">
        <ele>176.06</ele>
        <time>2008-04-06T08:55:05.000Z</time>
      </trkpt>
      <trkpt lat="48.69106" lon="1.96039">
        <ele>177.98</ele>
        <time>2008-04-06T08:55:16.000Z</time>
      </trkpt>
      <trkpt lat="48.69108" lon="1.96043">
        <ele>174.14</ele>
        <time>2008-04-06T08:55:29.000Z</time>
      </trkpt>
      <trkpt lat="48.6911" lon="1.96042">
        <ele>175.1</ele>
        <time>2008-04-06T08:55:30.000Z</time>
      </trkpt>
      <trkpt lat="48.69115" lon="1.96032">
        <ele>173.66</ele>
        <time>2008-04-06T08:55:36.000Z</time>
      </trkpt>
      <trkpt lat="48.69124" lon="1.96023">
        <ele>171.73</ele>
        <time>2008-04-06T08:55:43.000Z</time>
      </trkpt>
      <trkpt lat="48.69125" lon="1.96022">
        <ele>171.73</ele>
        <time>2008-04-06T08:55:44.000Z</time>
      </trkpt>
      <trkpt lat="48.69129" lon="1.96014">
        <ele>170.77</ele>
        <time>2008-04-06T08:55:49.000Z</time>
      </trkpt>
      <trkpt lat="48.69137" lon="1.96006">
        <ele>172.69</ele>
        <time>2008-04-06T08:55:56.000Z</time>
      </trkpt>
      <trkpt lat="48.69144" lon="1.96002">
        <ele>173.17</ele>
        <time>2008-04-06T08:56:01.000Z</time>
      </trkpt>
      <trkpt lat="48.69152" lon="1.95993">
        <ele>174.14</ele>
        <time>2008-04-06T08:56:08.000Z</time>
      </trkpt>
      <trkpt lat="48.69154" lon="1.95991">
        <ele>173.66</ele>
        <time>2008-04-06T08:56:10.000Z</time>
      </trkpt>
      <trkpt lat="48.69162" lon="1.95987">
        <ele>172.69</ele>
        <time>2008-04-06T08:56:16.000Z</time>
      </trkpt>
      <trkpt lat="48.6917" lon="1.95984">
        <ele>172.21</ele>
        <time>2008-04-06T08:56:22.000Z</time>
      </trkpt>
      <trkpt lat="48.69178" lon="1.95978">
        <ele>169.33</ele>
        <time>2008-04-06T08:56:27.000Z</time>
      </trkpt>
      <trkpt lat="48.69182" lon="1.95976">
        <ele>168.37</ele>
        <time>2008-04-06T08:56:30.000Z</time>
      </trkpt>
      <trkpt lat="48.6919" lon="1.95968">
        <ele>167.41</ele>
        <time>2008-04-06T08:56:37.000Z</time>
      </trkpt>
      <trkpt lat="48.69197" lon="1.95962">
        <ele>167.41</ele>
        <time>2008-04-06T08:56:42.000Z</time>
      </trkpt>
      <trkpt lat="48.692" lon="1.9596">
        <ele>166.93</ele>
        <time>2008-04-06T08:56:44.000Z</time>
      </trkpt>
      <trkpt lat="48.69206" lon="1.95955">
        <ele>167.41</ele>
        <time>2008-04-06T08:56:50.000Z</time>
      </trkpt>
      <trkpt lat="48.69207" lon="1.95953">
        <ele>167.89</ele>
        <time>2008-04-06T08:56:51.000Z</time>
      </trkpt>
      <trkpt lat="48.69215" lon="1.95954">
        <ele>168.37</ele>
        <time>2008-04-06T08:56:56.000Z</time>
      </trkpt>
      <trkpt lat="48.69223" lon="1.95961">
        <ele>166.93</ele>
        <time>2008-04-06T08:57:01.000Z</time>
      </trkpt>
      <trkpt lat="48.69229" lon="1.95965">
        <ele>166.45</ele>
        <time>2008-04-06T08:57:06.000Z</time>
      </trkpt>
      <trkpt lat="48.69231" lon="1.95967">
        <ele>166.45</ele>
        <time>2008-04-06T08:57:08.000Z</time>
      </trkpt>
      <trkpt lat="48.69236" lon="1.95977">
        <ele>166.93</ele>
        <time>2008-04-06T08:57:14.000Z</time>
      </trkpt>
      <trkpt lat="48.69237" lon="1.95979">
        <ele>166.93</ele>
        <time>2008-04-06T08:57:16.000Z</time>
      </trkpt>
      <trkpt lat="48.69242" lon="1.95987">
        <ele>164.52</ele>
        <time>2008-04-06T08:57:22.000Z</time>
      </trkpt>
      <trkpt lat="48.69246" lon="1.95992">
        <ele>164.04</ele>
        <time>2008-04-06T08:57:25.000Z</time>
      </trkpt>
      <trkpt lat="48.69247" lon="1.95994">
        <ele>163.08</ele>
        <time>2008-04-06T08:57:27.000Z</time>
      </trkpt>
      <trkpt lat="48.69251" lon="1.96">
        <ele>163.08</ele>
        <time>2008-04-06T08:57:31.000Z</time>
      </trkpt>
      <trkpt lat="48.69257" lon="1.96007">
        <ele>161.64</ele>
        <time>2008-04-06T08:57:35.000Z</time>
      </trkpt>
      <trkpt lat="48.69261" lon="1.96014">
        <ele>162.12</ele>
        <time>2008-04-06T08:57:39.000Z</time>
      </trkpt>
      <trkpt lat="48.69263" lon="1.96015">
        <ele>160.2</ele>
        <time>2008-04-06T08:57:41.000Z</time>
      </trkpt>
      <trkpt lat="48.69266" lon="1.96023">
        <ele>157.31</ele>
        <time>2008-04-06T08:57:46.000Z</time>
      </trkpt>
      <trkpt lat="48.69273" lon="1.96035">
        <ele>152.03</ele>
        <time>2008-04-06T08:57:53.000Z</time>
      </trkpt>
      <trkpt lat="48.69274" lon="1.96037">
        <ele>151.54</ele>
        <time>2008-04-06T08:57:54.000Z</time>
      </trkpt>
      <trkpt lat="48.69276" lon="1.96039">
        <ele>152.03</ele>
        <time>2008-04-06T08:57:56.000Z</time>
      </trkpt>
      <trkpt lat="48.69281" lon="1.96047">
        <ele>151.54</ele>
        <time>2008-04-06T08:58:01.000Z</time>
      </trkpt>
      <trkpt lat="48.69283" lon="1.96053">
        <ele>152.03</ele>
        <time>2008-04-06T08:58:04.000Z</time>
      </trkpt>
      <trkpt lat="48.69288" lon="1.96062">
        <ele>153.47</ele>
        <time>2008-04-06T08:58:10.000Z</time>
      </trkpt>
      <trkpt lat="48.69289" lon="1.96064">
        <ele>153.47</ele>
        <time>2008-04-06T08:58:12.000Z</time>
      </trkpt>
      <trkpt lat="48.69295" lon="1.96071">
        <ele>154.43</ele>
        <time>2008-04-06T08:58:16.000Z</time>
      </trkpt>
      <trkpt lat="48.69304" lon="1.96085">
        <ele>155.87</ele>
        <time>2008-04-06T08:58:24.000Z</time>
      </trkpt>
      <trkpt lat="48.69305" lon="1.96086">
        <ele>155.39</ele>
        <time>2008-04-06T08:58:25.000Z</time>
      </trkpt>
      <trkpt lat="48.69308" lon="1.96092">
        <ele>154.43</ele>
        <time>2008-04-06T08:58:29.000Z</time>
      </trkpt>
      <trkpt lat="48.69316" lon="1.96106">
        <ele>155.39</ele>
        <time>2008-04-06T08:58:36.000Z</time>
      </trkpt>
      <trkpt lat="48.69326" lon="1.96124">
        <ele>153.95</ele>
        <time>2008-04-06T08:58:43.000Z</time>
      </trkpt>
      <trkpt lat="48.69334" lon="1.96138">
        <ele>153.95</ele>
        <time>2008-04-06T08:58:48.000Z</time>
      </trkpt>
      <trkpt lat="48.69344" lon="1.96154">
        <ele>151.54</ele>
        <time>2008-04-06T08:58:53.000Z</time>
      </trkpt>
      <trkpt lat="48.69347" lon="1.96157">
        <ele>151.06</ele>
        <time>2008-04-06T08:58:54.000Z</time>
      </trkpt>
      <trkpt lat="48.69354" lon="1.96175">
        <ele>148.18</ele>
        <time>2008-04-06T08:59:00.000Z</time>
      </trkpt>
      <trkpt lat="48.6936" lon="1.96186">
        <ele>150.1</ele>
        <time>2008-04-06T08:59:03.000Z</time>
      </trkpt>
      <trkpt lat="48.69363" lon="1.96194">
        <ele>148.18</ele>
        <time>2008-04-06T08:59:06.000Z</time>
      </trkpt>
      <trkpt lat="48.69373" lon="1.9621">
        <ele>145.78</ele>
        <time>2008-04-06T08:59:12.000Z</time>
      </trkpt>
      <trkpt lat="48.69383" lon="1.96222">
        <ele>143.85</ele>
        <time>2008-04-06T08:59:17.000Z</time>
      </trkpt>
      <trkpt lat="48.69385" lon="1.96225">
        <ele>143.85</ele>
        <time>2008-04-06T08:59:18.000Z</time>
      </trkpt>
      <trkpt lat="48.6939" lon="1.96249">
        <ele>146.74</ele>
        <time>2008-04-06T08:59:26.000Z</time>
      </trkpt>
      <trkpt lat="48.69403" lon="1.96262">
        <ele>147.7</ele>
        <time>2008-04-06T08:59:31.000Z</time>
      </trkpt>
      <trkpt lat="48.69408" lon="1.96272">
        <ele>153.95</ele>
        <time>2008-04-06T08:59:34.000Z</time>
      </trkpt>
      <trkpt lat="48.69415" lon="1.96285">
        <ele>156.83</ele>
        <time>2008-04-06T08:59:39.000Z</time>
      </trkpt>
      <trkpt lat="48.69415" lon="1.96287">
        <ele>155.87</ele>
        <time>2008-04-06T08:59:40.000Z</time>
      </trkpt>
      <trkpt lat="48.69414" lon="1.96301">
        <ele>151.54</ele>
        <time>2008-04-06T08:59:46.000Z</time>
      </trkpt>
      <trkpt lat="48.69413" lon="1.96316">
        <ele>148.66</ele>
        <time>2008-04-06T08:59:51.000Z</time>
      </trkpt>
      <trkpt lat="48.69415" lon="1.96327">
        <ele>144.82</ele>
        <time>2008-04-06T08:59:56.000Z</time>
      </trkpt>
      <trkpt lat="48.69416" lon="1.96329">
        <ele>144.82</ele>
        <time>2008-04-06T08:59:57.000Z</time>
      </trkpt>
      <trkpt lat="48.69417" lon="1.96337">
        <ele>140.97</ele>
        <time>2008-04-06T09:00:00.000Z</time>
      </trkpt>
      <trkpt lat="48.69413" lon="1.9635">
        <ele>142.41</ele>
        <time>2008-04-06T09:00:05.000Z</time>
      </trkpt>
      <trkpt lat="48.6941" lon="1.96356">
        <ele>139.05</ele>
        <time>2008-04-06T09:00:08.000Z</time>
      </trkpt>
      <trkpt lat="48.69403" lon="1.9637">
        <ele>134.24</ele>
        <time>2008-04-06T09:00:14.000Z</time>
      </trkpt>
      <trkpt lat="48.69402" lon="1.96389">
        <ele>130.4</ele>
        <time>2008-04-06T09:00:20.000Z</time>
      </trkpt>
      <trkpt lat="48.694" lon="1.96407">
        <ele>131.84</ele>
        <time>2008-04-06T09:00:25.000Z</time>
      </trkpt>
      <trkpt lat="48.69395" lon="1.96426">
        <ele>133.76</ele>
        <time>2008-04-06T09:00:30.000Z</time>
      </trkpt>
      <trkpt lat="48.69392" lon="1.96447">
        <ele>132.32</ele>
        <time>2008-04-06T09:00:35.000Z</time>
      </trkpt>
      <trkpt lat="48.6939" lon="1.96466">
        <ele>129.43</ele>
        <time>2008-04-06T09:00:40.000Z</time>
      </trkpt>
      <trkpt lat="48.69392" lon="1.96474">
        <ele>128.47</ele>
        <time>2008-04-06T09:00:43.000Z</time>
      </trkpt>
      <trkpt lat="48.69396" lon="1.96489">
        <ele>125.11</ele>
        <time>2008-04-06T09:00:49.000Z</time>
      </trkpt>
      <trkpt lat="48.69398" lon="1.96504">
        <ele>125.11</ele>
        <time>2008-04-06T09:00:53.000Z</time>
      </trkpt>
      <trkpt lat="48.694" lon="1.96517">
        <ele>123.67</ele>
        <time>2008-04-06T09:00:57.000Z</time>
      </trkpt>
      <trkpt lat="48.69406" lon="1.96536">
        <ele>126.55</ele>
        <time>2008-04-06T09:01:03.000Z</time>
      </trkpt>
      <trkpt lat="48.69406" lon="1.96556">
        <ele>121.74</ele>
        <time>2008-04-06T09:01:09.000Z</time>
      </trkpt>
      <trkpt lat="48.69415" lon="1.96569">
        <ele>121.26</ele>
        <time>2008-04-06T09:01:15.000Z</time>
      </trkpt>
      <trkpt lat="48.69424" lon="1.96575">
        <ele>119.82</ele>
        <time>2008-04-06T09:01:19.000Z</time>
      </trkpt>
      <trkpt lat="48.69435" lon="1.96589">
        <ele>127.03</ele>
        <time>2008-04-06T09:01:25.000Z</time>
      </trkpt>
      <trkpt lat="48.69445" lon="1.966">
        <ele>130.88</ele>
        <time>2008-04-06T09:01:31.000Z</time>
      </trkpt>
      <trkpt lat="48.6945" lon="1.96616">
        <ele>138.09</ele>
        <time>2008-04-06T09:01:36.000Z</time>
      </trkpt>
      <trkpt lat="48.69447" lon="1.96632">
        <ele>136.64</ele>
        <time>2008-04-06T09:01:41.000Z</time>
      </trkpt>
      <trkpt lat="48.69445" lon="1.96646">
        <ele>136.64</ele>
        <time>2008-04-06T09:01:46.000Z</time>
      </trkpt>
      <trkpt lat="48.69447" lon="1.96648">
        <ele>136.16</ele>
        <time>2008-04-06T09:01:47.000Z</time>
      </trkpt>
      <trkpt lat="48.69451" lon="1.96664">
        <ele>138.57</ele>
        <time>2008-04-06T09:01:55.000Z</time>
      </trkpt>
      <trkpt lat="48.69452" lon="1.96665">
        <ele>138.09</ele>
        <time>2008-04-06T09:01:56.000Z</time>
      </trkpt>
      <trkpt lat="48.69456" lon="1.96673">
        <ele>132.8</ele>
        <time>2008-04-06T09:02:01.000Z</time>
      </trkpt>
      <trkpt lat="48.6946" lon="1.96679">
        <ele>131.84</ele>
        <time>2008-04-06T09:02:05.000Z</time>
      </trkpt>
      <trkpt lat="48.69461" lon="1.96684">
        <ele>133.76</ele>
        <time>2008-04-06T09:02:08.000Z</time>
      </trkpt>
      <trkpt lat="48.69466" lon="1.96689">
        <ele>132.32</ele>
        <time>2008-04-06T09:02:12.000Z</time>
      </trkpt>
      <trkpt lat="48.69468" lon="1.96695">
        <ele>132.32</ele>
        <time>2008-04-06T09:02:17.000Z</time>
      </trkpt>
      <trkpt lat="48.69472" lon="1.96703">
        <ele>132.8</ele>
        <time>2008-04-06T09:02:22.000Z</time>
      </trkpt>
      <trkpt lat="48.69477" lon="1.96719">
        <ele>139.53</ele>
        <time>2008-04-06T09:02:30.000Z</time>
      </trkpt>
      <trkpt lat="48.6948" lon="1.9673">
        <ele>142.41</ele>
        <time>2008-04-06T09:02:36.000Z</time>
      </trkpt>
      <trkpt lat="48.6948" lon="1.96733">
        <ele>142.89</ele>
        <time>2008-04-06T09:02:37.000Z</time>
      </trkpt>
      <trkpt lat="48.69485" lon="1.9674">
        <ele>148.18</ele>
        <time>2008-04-06T09:02:44.000Z</time>
      </trkpt>
      <trkpt lat="48.69487" lon="1.96745">
        <ele>150.1</ele>
        <time>2008-04-06T09:02:47.000Z</time>
      </trkpt>
      <trkpt lat="48.69493" lon="1.96752">
        <ele>154.91</ele>
        <time>2008-04-06T09:02:55.000Z</time>
      </trkpt>
      <trkpt lat="48.69498" lon="1.9676">
        <ele>155.87</ele>
        <time>2008-04-06T09:03:02.000Z</time>
      </trkpt>
      <trkpt lat="48.69501" lon="1.96769">
        <ele>155.39</ele>
        <time>2008-04-06T09:03:11.000Z</time>
      </trkpt>
      <trkpt lat="48.69501" lon="1.96774">
        <ele>155.87</ele>
        <time>2008-04-06T09:03:16.000Z</time>
      </trkpt>
      <trkpt lat="48.69503" lon="1.96782">
        <ele>159.24</ele>
        <time>2008-04-06T09:03:22.000Z</time>
      </trkpt>
      <trkpt lat="48.69505" lon="1.9679">
        <ele>158.27</ele>
        <time>2008-04-06T09:03:30.000Z</time>
      </trkpt>
      <trkpt lat="48.69505" lon="1.96797">
        <ele>158.75</ele>
        <time>2008-04-06T09:03:35.000Z</time>
      </trkpt>
      <trkpt lat="48.69503" lon="1.96801">
        <ele>158.75</ele>
        <time>2008-04-06T09:03:38.000Z</time>
      </trkpt>
      <trkpt lat="48.69492" lon="1.96809">
        <ele>157.79</ele>
        <time>2008-04-06T09:03:45.000Z</time>
      </trkpt>
      <trkpt lat="48.69479" lon="1.9681">
        <ele>153.95</ele>
        <time>2008-04-06T09:03:51.000Z</time>
      </trkpt>
      <trkpt lat="48.6947" lon="1.9681">
        <ele>152.99</ele>
        <time>2008-04-06T09:03:55.000Z</time>
      </trkpt>
      <trkpt lat="48.69459" lon="1.96815">
        <ele>150.1</ele>
        <time>2008-04-06T09:04:00.000Z</time>
      </trkpt>
      <trkpt lat="48.6945" lon="1.96819">
        <ele>149.62</ele>
        <time>2008-04-06T09:04:04.000Z</time>
      </trkpt>
      <trkpt lat="48.69437" lon="1.96828">
        <ele>147.22</ele>
        <time>2008-04-06T09:04:09.000Z</time>
      </trkpt>
      <trkpt lat="48.69429" lon="1.96836">
        <ele>145.78</ele>
        <time>2008-04-06T09:04:13.000Z</time>
      </trkpt>
      <trkpt lat="48.69425" lon="1.96843">
        <ele>146.74</ele>
        <time>2008-04-06T09:04:18.000Z</time>
      </trkpt>
      <trkpt lat="48.69419" lon="1.96845">
        <ele>148.66</ele>
        <time>2008-04-06T09:04:27.000Z</time>
      </trkpt>
      <trkpt lat="48.69416" lon="1.96848">
        <ele>150.1</ele>
        <time>2008-04-06T09:04:32.000Z</time>
      </trkpt>
      <trkpt lat="48.6941" lon="1.96853">
        <ele>153.47</ele>
        <time>2008-04-06T09:04:39.000Z</time>
      </trkpt>
      <trkpt lat="48.69405" lon="1.96859">
        <ele>156.35</ele>
        <time>2008-04-06T09:04:46.000Z</time>
      </trkpt>
      <trkpt lat="48.69402" lon="1.96865">
        <ele>158.75</ele>
        <time>2008-04-06T09:04:52.000Z</time>
      </trkpt>
      <trkpt lat="48.69402" lon="1.9687">
        <ele>160.2</ele>
        <time>2008-04-06T09:04:55.000Z</time>
      </trkpt>
      <trkpt lat="48.69405" lon="1.9688">
        <ele>160.2</ele>
        <time>2008-04-06T09:05:02.000Z</time>
      </trkpt>
      <trkpt lat="48.69407" lon="1.96881">
        <ele>160.2</ele>
        <time>2008-04-06T09:05:04.000Z</time>
      </trkpt>
      <trkpt lat="48.69407" lon="1.96895">
        <ele>158.27</ele>
        <time>2008-04-06T09:05:10.000Z</time>
      </trkpt>
      <trkpt lat="48.69408" lon="1.96904">
        <ele>157.31</ele>
        <time>2008-04-06T09:05:13.000Z</time>
      </trkpt>
      <trkpt lat="48.69408" lon="1.96909">
        <ele>155.87</ele>
        <time>2008-04-06T09:05:15.000Z</time>
      </trkpt>
      <trkpt lat="48.69405" lon="1.96921">
        <ele>152.03</ele>
        <time>2008-04-06T09:05:20.000Z</time>
      </trkpt>
      <trkpt lat="48.69405" lon="1.96924">
        <ele>151.54</ele>
        <time>2008-04-06T09:05:21.000Z</time>
      </trkpt>
      <trkpt lat="48.69402" lon="1.96934">
        <ele>149.14</ele>
        <time>2008-04-06T09:05:27.000Z</time>
      </trkpt>
      <trkpt lat="48.69402" lon="1.96936">
        <ele>149.62</ele>
        <time>2008-04-06T09:05:28.000Z</time>
      </trkpt>
      <trkpt lat="48.69403" lon="1.96953">
        <ele>146.74</ele>
        <time>2008-04-06T09:05:34.000Z</time>
      </trkpt>
      <trkpt lat="48.69408" lon="1.96965">
        <ele>141.93</ele>
        <time>2008-04-06T09:05:39.000Z</time>
      </trkpt>
      <trkpt lat="48.69409" lon="1.9698">
        <ele>136.64</ele>
        <time>2008-04-06T09:05:45.000Z</time>
      </trkpt>
      <trkpt lat="48.6941" lon="1.96983">
        <ele>136.16</ele>
        <time>2008-04-06T09:05:46.000Z</time>
      </trkpt>
      <trkpt lat="48.69417" lon="1.97">
        <ele>131.36</ele>
        <time>2008-04-06T09:05:52.000Z</time>
      </trkpt>
      <trkpt lat="48.69426" lon="1.97009">
        <ele>129.92</ele>
        <time>2008-04-06T09:05:57.000Z</time>
      </trkpt>
      <trkpt lat="48.69443" lon="1.97012">
        <ele>132.32</ele>
        <time>2008-04-06T09:06:03.000Z</time>
      </trkpt>
      <trkpt lat="48.69452" lon="1.97014">
        <ele>137.13</ele>
        <time>2008-04-06T09:06:09.000Z</time>
      </trkpt>
      <trkpt lat="48.69456" lon="1.97015">
        <ele>139.05</ele>
        <time>2008-04-06T09:06:13.000Z</time>
      </trkpt>
      <trkpt lat="48.69463" lon="1.9702">
        <ele>143.37</ele>
        <time>2008-04-06T09:06:19.000Z</time>
      </trkpt>
      <trkpt lat="48.69467" lon="1.97022">
        <ele>142.89</ele>
        <time>2008-04-06T09:06:22.000Z</time>
      </trkpt>
      <trkpt lat="48.69473" lon="1.97023">
        <ele>143.37</ele>
        <time>2008-04-06T09:06:25.000Z</time>
      </trkpt>
      <trkpt lat="48.69479" lon="1.97027">
        <ele>143.37</ele>
        <time>2008-04-06T09:06:29.000Z</time>
      </trkpt>
      <trkpt lat="48.69488" lon="1.97036">
        <ele>142.41</ele>
        <time>2008-04-06T09:06:34.000Z</time>
      </trkpt>
      <trkpt lat="48.69489" lon="1.97038">
        <ele>140.49</ele>
        <time>2008-04-06T09:06:35.000Z</time>
      </trkpt>
      <trkpt lat="48.69501" lon="1.97051">
        <ele>134.24</ele>
        <time>2008-04-06T09:06:41.000Z</time>
      </trkpt>
      <trkpt lat="48.6951" lon="1.9706">
        <ele>132.8</ele>
        <time>2008-04-06T09:06:45.000Z</time>
      </trkpt>
      <trkpt lat="48.69511" lon="1.97062">
        <ele>132.8</ele>
        <time>2008-04-06T09:06:46.000Z</time>
      </trkpt>
      <trkpt lat="48.69518" lon="1.97079">
        <ele>135.68</ele>
        <time>2008-04-06T09:06:53.000Z</time>
      </trkpt>
      <trkpt lat="48.69524" lon="1.97086">
        <ele>137.13</ele>
        <time>2008-04-06T09:06:57.000Z</time>
      </trkpt>
      <trkpt lat="48.69529" lon="1.97086">
        <ele>131.84</ele>
        <time>2008-04-06T09:07:01.000Z</time>
      </trkpt>
      <trkpt lat="48.69531" lon="1.97088">
        <ele>132.8</ele>
        <time>2008-04-06T09:07:03.000Z</time>
      </trkpt>
      <trkpt lat="48.6954" lon="1.97091">
        <ele>136.16</ele>
        <time>2008-04-06T09:07:08.000Z</time>
      </trkpt>
      <trkpt lat="48.69544" lon="1.97091">
        <ele>135.2</ele>
        <time>2008-04-06T09:07:10.000Z</time>
      </trkpt>
      <trkpt lat="48.69549" lon="1.97092">
        <ele>139.53</ele>
        <time>2008-04-06T09:07:14.000Z</time>
      </trkpt>
      <trkpt lat="48.69564" lon="1.97095">
        <ele>139.53</ele>
        <time>2008-04-06T09:07:21.000Z</time>
      </trkpt>
      <trkpt lat="48.69572" lon="1.97097">
        <ele>139.53</ele>
        <time>2008-04-06T09:07:26.000Z</time>
      </trkpt>
      <trkpt lat="48.69572" lon="1.97098">
        <ele>139.05</ele>
        <time>2008-04-06T09:07:27.000Z</time>
      </trkpt>
      <trkpt lat="48.69582" lon="1.97102">
        <ele>138.57</ele>
        <time>2008-04-06T09:07:33.000Z</time>
      </trkpt>
      <trkpt lat="48.6959" lon="1.97107">
        <ele>142.41</ele>
        <time>2008-04-06T09:07:39.000Z</time>
      </trkpt>
      <trkpt lat="48.69592" lon="1.9711">
        <ele>144.34</ele>
        <time>2008-04-06T09:07:43.000Z</time>
      </trkpt>
      <trkpt lat="48.69601" lon="1.97109">
        <ele>145.3</ele>
        <time>2008-04-06T09:07:48.000Z</time>
      </trkpt>
      <trkpt lat="48.69609" lon="1.97104">
        <ele>142.89</ele>
        <time>2008-04-06T09:07:53.000Z</time>
      </trkpt>
      <trkpt lat="48.69622" lon="1.97102">
        <ele>147.22</ele>
        <time>2008-04-06T09:07:59.000Z</time>
      </trkpt>
      <trkpt lat="48.69633" lon="1.97097">
        <ele>149.14</ele>
        <time>2008-04-06T09:08:05.000Z</time>
      </trkpt>
      <trkpt lat="48.69643" lon="1.97087">
        <ele>148.66</ele>
        <time>2008-04-06T09:08:10.000Z</time>
      </trkpt>
      <trkpt lat="48.69645" lon="1.97086">
        <ele>147.22</ele>
        <time>2008-04-06T09:08:11.000Z</time>
      </trkpt>
      <trkpt lat="48.69653" lon="1.97078">
        <ele>144.34</ele>
        <time>2008-04-06T09:08:16.000Z</time>
      </trkpt>
      <trkpt lat="48.69653" lon="1.97078">
        <ele>143.37</ele>
        <time>2008-04-06T09:08:17.000Z</time>
      </trkpt>
      <trkpt lat="48.6965" lon="1.97062">
        <ele>148.18</ele>
        <time>2008-04-06T09:08:25.000Z</time>
      </trkpt>
      <trkpt lat="48.69648" lon="1.97051">
        <ele>147.22</ele>
        <time>2008-04-06T09:08:32.000Z</time>
      </trkpt>
      <trkpt lat="48.69648" lon="1.97047">
        <ele>146.26</ele>
        <time>2008-04-06T09:08:35.000Z</time>
      </trkpt>
      <trkpt lat="48.69646" lon="1.97038">
        <ele>144.34</ele>
        <time>2008-04-06T09:08:41.000Z</time>
      </trkpt>
      <trkpt lat="48.69646" lon="1.97037">
        <ele>144.34</ele>
        <time>2008-04-06T09:08:42.000Z</time>
      </trkpt>
      <trkpt lat="48.69642" lon="1.97029">
        <ele>145.78</ele>
        <time>2008-04-06T09:08:48.000Z</time>
      </trkpt>
      <trkpt lat="48.69639" lon="1.97021">
        <ele>147.7</ele>
        <time>2008-04-06T09:08:54.000Z</time>
      </trkpt>
      <trkpt lat="48.69635" lon="1.97014">
        <ele>153.47</ele>
        <time>2008-04-06T09:08:57.000Z</time>
      </trkpt>
      <trkpt lat="48.69638" lon="1.97001">
        <ele>151.54</ele>
        <time>2008-04-06T09:09:02.000Z</time>
      </trkpt>
      <trkpt lat="48.6964" lon="1.96991">
        <ele>153.47</ele>
        <time>2008-04-06T09:09:07.000Z</time>
      </trkpt>
      <trkpt lat="48.69643" lon="1.96977">
        <ele>154.43</ele>
        <time>2008-04-06T09:09:12.000Z</time>
      </trkpt>
      <trkpt lat="48.69649" lon="1.96967">
        <ele>149.62</ele>
        <time>2008-04-06T09:09:17.000Z</time>
      </trkpt>
      <trkpt lat="48.69654" lon="1.9695">
        <ele>143.37</ele>
        <time>2008-04-06T09:09:23.000Z</time>
      </trkpt>
      <trkpt lat="48.69659" lon="1.9694">
        <ele>140.01</ele>
        <time>2008-04-06T09:09:27.000Z</time>
      </trkpt>
      <trkpt lat="48.69662" lon="1.96936">
        <ele>140.49</ele>
        <time>2008-04-06T09:09:29.000Z</time>
      </trkpt>
      <trkpt lat="48.69669" lon="1.96928">
        <ele>142.41</ele>
        <time>2008-04-06T09:09:33.000Z</time>
      </trkpt>
      <trkpt lat="48.69674" lon="1.96918">
        <ele>142.89</ele>
        <time>2008-04-06T09:09:38.000Z</time>
      </trkpt>
      <trkpt lat="48.69676" lon="1.96909">
        <ele>147.22</ele>
        <time>2008-04-06T09:09:42.000Z</time>
      </trkpt>
      <trkpt lat="48.69677" lon="1.96902">
        <ele>148.18</ele>
        <time>2008-04-06T09:09:45.000Z</time>
      </trkpt>
      <trkpt lat="48.69681" lon="1.96895">
        <ele>149.14</ele>
        <time>2008-04-06T09:09:49.000Z</time>
      </trkpt>
      <trkpt lat="48.69683" lon="1.96887">
        <ele>152.99</ele>
        <time>2008-04-06T09:09:53.000Z</time>
      </trkpt>
      <trkpt lat="48.69687" lon="1.96876">
        <ele>151.06</ele>
        <time>2008-04-06T09:10:00.000Z</time>
      </trkpt>
      <trkpt lat="48.6969" lon="1.96867">
        <ele>153.95</ele>
        <time>2008-04-06T09:10:05.000Z</time>
      </trkpt>
      <trkpt lat="48.69699" lon="1.96856">
        <ele>155.87</ele>
        <time>2008-04-06T09:10:11.000Z</time>
      </trkpt>
      <trkpt lat="48.69707" lon="1.96853">
        <ele>156.35</ele>
        <time>2008-04-06T09:10:16.000Z</time>
      </trkpt>
      <trkpt lat="48.69721" lon="1.96848">
        <ele>155.87</ele>
        <time>2008-04-06T09:10:22.000Z</time>
      </trkpt>
      <trkpt lat="48.69731" lon="1.96844">
        <ele>155.39</ele>
        <time>2008-04-06T09:10:27.000Z</time>
      </trkpt>
      <trkpt lat="48.69733" lon="1.96844">
        <ele>155.39</ele>
        <time>2008-04-06T09:10:29.000Z</time>
      </trkpt>
      <trkpt lat="48.69744" lon="1.96839">
        <ele>155.87</ele>
        <time>2008-04-06T09:10:34.000Z</time>
      </trkpt>
      <trkpt lat="48.69749" lon="1.96841">
        <ele>156.35</ele>
        <time>2008-04-06T09:10:38.000Z</time>
      </trkpt>
      <trkpt lat="48.69753" lon="1.96838">
        <ele>154.91</ele>
        <time>2008-04-06T09:10:41.000Z</time>
      </trkpt>
      <trkpt lat="48.69756" lon="1.9683">
        <ele>152.99</ele>
        <time>2008-04-06T09:10:45.000Z</time>
      </trkpt>
      <trkpt lat="48.69764" lon="1.96823">
        <ele>150.58</ele>
        <time>2008-04-06T09:10:52.000Z</time>
      </trkpt>
      <trkpt lat="48.69769" lon="1.9681">
        <ele>152.99</ele>
        <time>2008-04-06T09:10:56.000Z</time>
      </trkpt>
      <trkpt lat="48.69778" lon="1.96802">
        <ele>151.54</ele>
        <time>2008-04-06T09:10:59.000Z</time>
      </trkpt>
      <trkpt lat="48.69783" lon="1.96802">
        <ele>150.1</ele>
        <time>2008-04-06T09:11:03.000Z</time>
      </trkpt>
      <trkpt lat="48.69784" lon="1.96801">
        <ele>147.7</ele>
        <time>2008-04-06T09:11:05.000Z</time>
      </trkpt>
      <trkpt lat="48.69788" lon="1.96808">
        <ele>144.34</ele>
        <time>2008-04-06T09:11:11.000Z</time>
      </trkpt>
      <trkpt lat="48.6979" lon="1.96809">
        <ele>141.93</ele>
        <time>2008-04-06T09:11:13.000Z</time>
      </trkpt>
      <trkpt lat="48.69807" lon="1.96799">
        <ele>144.34</ele>
        <time>2008-04-06T09:11:19.000Z</time>
      </trkpt>
      <trkpt lat="48.69815" lon="1.96793">
        <ele>145.3</ele>
        <time>2008-04-06T09:11:23.000Z</time>
      </trkpt>
      <trkpt lat="48.69823" lon="1.96786">
        <ele>144.34</ele>
        <time>2008-04-06T09:11:27.000Z</time>
      </trkpt>
      <trkpt lat="48.6983" lon="1.96781">
        <ele>147.22</ele>
        <time>2008-04-06T09:11:32.000Z</time>
      </trkpt>
      <trkpt lat="48.69833" lon="1.96775">
        <ele>152.03</ele>
        <time>2008-04-06T09:11:38.000Z</time>
      </trkpt>
      <trkpt lat="48.69839" lon="1.96772">
        <ele>156.83</ele>
        <time>2008-04-06T09:11:44.000Z</time>
      </trkpt>
      <trkpt lat="48.69841" lon="1.96769">
        <ele>158.75</ele>
        <time>2008-04-06T09:11:47.000Z</time>
      </trkpt>
      <trkpt lat="48.69845" lon="1.96762">
        <ele>157.31</ele>
        <time>2008-04-06T09:11:53.000Z</time>
      </trkpt>
      <trkpt lat="48.69852" lon="1.96754">
        <ele>158.27</ele>
        <time>2008-04-06T09:11:59.000Z</time>
      </trkpt>
      <trkpt lat="48.69852" lon="1.96753">
        <ele>158.27</ele>
        <time>2008-04-06T09:12:00.000Z</time>
      </trkpt>
      <trkpt lat="48.69856" lon="1.96748">
        <ele>158.75</ele>
        <time>2008-04-06T09:12:04.000Z</time>
      </trkpt>
      <trkpt lat="48.69862" lon="1.96742">
        <ele>163.08</ele>
        <time>2008-04-06T09:12:11.000Z</time>
      </trkpt>
      <trkpt lat="48.69865" lon="1.96739">
        <ele>164.52</ele>
        <time>2008-04-06T09:12:15.000Z</time>
      </trkpt>
      <trkpt lat="48.69871" lon="1.96734">
        <ele>165.48</ele>
        <time>2008-04-06T09:12:19.000Z</time>
      </trkpt>
      <trkpt lat="48.69883" lon="1.96732">
        <ele>163.08</ele>
        <time>2008-04-06T09:12:25.000Z</time>
      </trkpt>
      <trkpt lat="48.69889" lon="1.96729">
        <ele>161.16</ele>
        <time>2008-04-06T09:12:28.000Z</time>
      </trkpt>
      <trkpt lat="48.69897" lon="1.96721">
        <ele>157.79</ele>
        <time>2008-04-06T09:12:33.000Z</time>
      </trkpt>
      <trkpt lat="48.69898" lon="1.96719">
        <ele>156.35</ele>
        <time>2008-04-06T09:12:34.000Z</time>
      </trkpt>
      <trkpt lat="48.69907" lon="1.96709">
        <ele>152.51</ele>
        <time>2008-04-06T09:12:40.000Z</time>
      </trkpt>
      <trkpt lat="48.69914" lon="1.96701">
        <ele>148.18</ele>
        <time>2008-04-06T09:12:46.000Z</time>
      </trkpt>
      <trkpt lat="48.69917" lon="1.96699">
        <ele>147.22</ele>
        <time>2008-04-06T09:12:48.000Z</time>
      </trkpt>
      <trkpt lat="48.69924" lon="1.96694">
        <ele>147.7</ele>
        <time>2008-04-06T09:12:54.000Z</time>
      </trkpt>
      <trkpt lat="48.69933" lon="1.96685">
        <ele>147.22</ele>
        <time>2008-04-06T09:13:00.000Z</time>
      </trkpt>
      <trkpt lat="48.69938" lon="1.9668">
        <ele>147.22</ele>
        <time>2008-04-06T09:13:03.000Z</time>
      </trkpt>
      <trkpt lat="48.69944" lon="1.96671">
        <ele>145.78</ele>
        <time>2008-04-06T09:13:09.000Z</time>
      </trkpt>
      <trkpt lat="48.69948" lon="1.96667">
        <ele>145.3</ele>
        <time>2008-04-06T09:13:12.000Z</time>
      </trkpt>
      <trkpt lat="48.69955" lon="1.96665">
        <ele>145.3</ele>
        <time>2008-04-06T09:13:17.000Z</time>
      </trkpt>
      <trkpt lat="48.6996" lon="1.96668">
        <ele>145.3</ele>
        <time>2008-04-06T09:13:21.000Z</time>
      </trkpt>
      <trkpt lat="48.69963" lon="1.9668">
        <ele>139.05</ele>
        <time>2008-04-06T09:13:27.000Z</time>
      </trkpt>
      <trkpt lat="48.69966" lon="1.96691">
        <ele>137.13</ele>
        <time>2008-04-06T09:13:32.000Z</time>
      </trkpt>
      <trkpt lat="48.69972" lon="1.96703">
        <ele>133.76</ele>
        <time>2008-04-06T09:13:37.000Z</time>
      </trkpt>
      <trkpt lat="48.69978" lon="1.96716">
        <ele>130.88</ele>
        <time>2008-04-06T09:13:43.000Z</time>
      </trkpt>
      <trkpt lat="48.69983" lon="1.9672">
        <ele>131.36</ele>
        <time>2008-04-06T09:13:46.000Z</time>
      </trkpt>
      <trkpt lat="48.69992" lon="1.96719">
        <ele>132.8</ele>
        <time>2008-04-06T09:13:49.000Z</time>
      </trkpt>
      <trkpt lat="48.69998" lon="1.96726">
        <ele>130.88</ele>
        <time>2008-04-06T09:13:56.000Z</time>
      </trkpt>
      <trkpt lat="48.70011" lon="1.96726">
        <ele>127.51</ele>
        <time>2008-04-06T09:14:01.000Z</time>
      </trkpt>
      <trkpt lat="48.70021" lon="1.96724">
        <ele>125.11</ele>
        <time>2008-04-06T09:14:06.000Z</time>
      </trkpt>
      <trkpt lat="48.70025" lon="1.9672">
        <ele>125.11</ele>
        <time>2008-04-06T09:14:08.000Z</time>
      </trkpt>
      <trkpt lat="48.70041" lon="1.96711">
        <ele>127.03</ele>
        <time>2008-04-06T09:14:14.000Z</time>
      </trkpt>
      <trkpt lat="48.70044" lon="1.9671">
        <ele>127.03</ele>
        <time>2008-04-06T09:14:15.000Z</time>
      </trkpt>
      <trkpt lat="48.70052" lon="1.96708">
        <ele>127.51</ele>
        <time>2008-04-06T09:14:17.000Z</time>
      </trkpt>
      <trkpt lat="48.70064" lon="1.96702">
        <ele>128.95</ele>
        <time>2008-04-06T09:14:22.000Z</time>
      </trkpt>
      <trkpt lat="48.70072" lon="1.967">
        <ele>131.84</ele>
        <time>2008-04-06T09:14:26.000Z</time>
      </trkpt>
      <trkpt lat="48.70081" lon="1.967">
        <ele>131.84</ele>
        <time>2008-04-06T09:14:30.000Z</time>
      </trkpt>
      <trkpt lat="48.70085" lon="1.967">
        <ele>132.8</ele>
        <time>2008-04-06T09:14:32.000Z</time>
      </trkpt>
      <trkpt lat="48.70102" lon="1.96694">
        <ele>131.36</ele>
        <time>2008-04-06T09:14:39.000Z</time>
      </trkpt>
      <trkpt lat="48.70109" lon="1.96691">
        <ele>130.4</ele>
        <time>2008-04-06T09:14:42.000Z</time>
      </trkpt>
      <trkpt lat="48.70115" lon="1.96689">
        <ele>129.43</ele>
        <time>2008-04-06T09:14:46.000Z</time>
      </trkpt>
      <trkpt lat="48.70123" lon="1.96683">
        <ele>131.36</ele>
        <time>2008-04-06T09:14:51.000Z</time>
      </trkpt>
      <trkpt lat="48.70132" lon="1.96677">
        <ele>133.28</ele>
        <time>2008-04-06T09:14:56.000Z</time>
      </trkpt>
      <trkpt lat="48.7014" lon="1.96674">
        <ele>131.36</ele>
        <time>2008-04-06T09:15:00.000Z</time>
      </trkpt>
      <trkpt lat="48.70152" lon="1.96665">
        <ele>126.07</ele>
        <time>2008-04-06T09:15:06.000Z</time>
      </trkpt>
      <trkpt lat="48.70156" lon="1.9666">
        <ele>127.03</ele>
        <time>2008-04-06T09:15:11.000Z</time>
      </trkpt>
      <trkpt lat="48.70161" lon="1.96652">
        <ele>124.15</ele>
        <time>2008-04-06T09:15:17.000Z</time>
      </trkpt>
      <trkpt lat="48.70165" lon="1.96649">
        <ele>124.63</ele>
        <time>2008-04-06T09:15:20.000Z</time>
      </trkpt>
      <trkpt lat="48.70173" lon="1.96647">
        <ele>124.15</ele>
        <time>2008-04-06T09:15:25.000Z</time>
      </trkpt>
      <trkpt lat="48.70182" lon="1.96646">
        <ele>124.15</ele>
        <time>2008-04-06T09:15:30.000Z</time>
      </trkpt>
      <trkpt lat="48.70193" lon="1.96644">
        <ele>124.63</ele>
        <time>2008-04-06T09:15:35.000Z</time>
      </trkpt>
      <trkpt lat="48.70199" lon="1.96647">
        <ele>124.15</ele>
        <time>2008-04-06T09:15:39.000Z</time>
      </trkpt>
      <trkpt lat="48.70201" lon="1.96648">
        <ele>124.15</ele>
        <time>2008-04-06T09:15:40.000Z</time>
      </trkpt>
      <trkpt lat="48.70206" lon="1.96649">
        <ele>122.22</ele>
        <time>2008-04-06T09:15:43.000Z</time>
      </trkpt>
      <trkpt lat="48.70219" lon="1.96646">
        <ele>120.78</ele>
        <time>2008-04-06T09:15:48.000Z</time>
      </trkpt>
      <trkpt lat="48.70229" lon="1.96646">
        <ele>119.82</ele>
        <time>2008-04-06T09:15:52.000Z</time>
      </trkpt>
      <trkpt lat="48.70237" lon="1.96649">
        <ele>119.34</ele>
        <time>2008-04-06T09:15:57.000Z</time>
      </trkpt>
      <trkpt lat="48.7024" lon="1.96649">
        <ele>118.86</ele>
        <time>2008-04-06T09:15:59.000Z</time>
      </trkpt>
      <trkpt lat="48.70242" lon="1.96648">
        <ele>119.34</ele>
        <time>2008-04-06T09:16:01.000Z</time>
      </trkpt>
      <trkpt lat="48.70249" lon="1.96649">
        <ele>119.34</ele>
        <time>2008-04-06T09:16:05.000Z</time>
      </trkpt>
      <trkpt lat="48.70258" lon="1.9665">
        <ele>116.46</ele>
        <time>2008-04-06T09:16:10.000Z</time>
      </trkpt>
      <trkpt lat="48.70266" lon="1.96653">
        <ele>115.98</ele>
        <time>2008-04-06T09:16:14.000Z</time>
      </trkpt>
      <trkpt lat="48.70268" lon="1.96665">
        <ele>114.53</ele>
        <time>2008-04-06T09:16:19.000Z</time>
      </trkpt>
      <trkpt lat="48.70274" lon="1.96678">
        <ele>113.57</ele>
        <time>2008-04-06T09:16:23.000Z</time>
      </trkpt>
      <trkpt lat="48.70276" lon="1.9668">
        <ele>114.53</ele>
        <time>2008-04-06T09:16:24.000Z</time>
      </trkpt>
      <trkpt lat="48.70282" lon="1.96697">
        <ele>116.94</ele>
        <time>2008-04-06T09:16:30.000Z</time>
      </trkpt>
      <trkpt lat="48.7029" lon="1.96712">
        <ele>115.01</ele>
        <time>2008-04-06T09:16:36.000Z</time>
      </trkpt>
      <trkpt lat="48.70296" lon="1.96726">
        <ele>115.5</ele>
        <time>2008-04-06T09:16:41.000Z</time>
      </trkpt>
      <trkpt lat="48.70297" lon="1.96728">
        <ele>115.5</ele>
        <time>2008-04-06T09:16:42.000Z</time>
      </trkpt>
      <trkpt lat="48.70298" lon="1.96732">
        <ele>114.53</ele>
        <time>2008-04-06T09:16:44.000Z</time>
      </trkpt>
      <trkpt lat="48.70303" lon="1.96751">
        <ele>117.9</ele>
        <time>2008-04-06T09:16:51.000Z</time>
      </trkpt>
      <trkpt lat="48.70303" lon="1.96753">
        <ele>118.86</ele>
        <time>2008-04-06T09:16:52.000Z</time>
      </trkpt>
      <trkpt lat="48.70308" lon="1.9677">
        <ele>114.05</ele>
        <time>2008-04-06T09:16:58.000Z</time>
      </trkpt>
      <trkpt lat="48.70311" lon="1.9679">
        <ele>113.57</ele>
        <time>2008-04-06T09:17:04.000Z</time>
      </trkpt>
      <trkpt lat="48.70312" lon="1.96804">
        <ele>112.13</ele>
        <time>2008-04-06T09:17:08.000Z</time>
      </trkpt>
      <trkpt lat="48.70315" lon="1.96823">
        <ele>108.77</ele>
        <time>2008-04-06T09:17:14.000Z</time>
      </trkpt>
      <trkpt lat="48.70317" lon="1.96832">
        <ele>107.32</ele>
        <time>2008-04-06T09:17:17.000Z</time>
      </trkpt>
      <trkpt lat="48.70323" lon="1.96851">
        <ele>114.05</ele>
        <time>2008-04-06T09:17:22.000Z</time>
      </trkpt>
      <trkpt lat="48.70323" lon="1.9687">
        <ele>111.65</ele>
        <time>2008-04-06T09:17:27.000Z</time>
      </trkpt>
      <trkpt lat="48.70324" lon="1.96886">
        <ele>113.09</ele>
        <time>2008-04-06T09:17:32.000Z</time>
      </trkpt>
      <trkpt lat="48.70325" lon="1.96891">
        <ele>115.5</ele>
        <time>2008-04-06T09:17:34.000Z</time>
      </trkpt>
      <trkpt lat="48.70328" lon="1.96889">
        <ele>117.42</ele>
        <time>2008-04-06T09:17:38.000Z</time>
      </trkpt>
      <trkpt lat="48.7033" lon="1.96885">
        <ele>117.42</ele>
        <time>2008-04-06T09:17:40.000Z</time>
      </trkpt>
      <trkpt lat="48.70331" lon="1.96875">
        <ele>118.38</ele>
        <time>2008-04-06T09:17:47.000Z</time>
      </trkpt>
      <trkpt lat="48.70333" lon="1.96863">
        <ele>117.9</ele>
        <time>2008-04-06T09:17:55.000Z</time>
      </trkpt>
      <trkpt lat="48.70336" lon="1.96852">
        <ele>117.9</ele>
        <time>2008-04-06T09:18:02.000Z</time>
      </trkpt>
      <trkpt lat="48.70339" lon="1.96842">
        <ele>116.46</ele>
        <time>2008-04-06T09:18:08.000Z</time>
      </trkpt>
      <trkpt lat="48.70344" lon="1.96832">
        <ele>114.53</ele>
        <time>2008-04-06T09:18:15.000Z</time>
      </trkpt>
      <trkpt lat="48.70347" lon="1.96821">
        <ele>115.98</ele>
        <time>2008-04-06T09:18:20.000Z</time>
      </trkpt>
      <trkpt lat="48.70351" lon="1.96814">
        <ele>117.42</ele>
        <time>2008-04-06T09:18:25.000Z</time>
      </trkpt>
      <trkpt lat="48.70355" lon="1.96802">
        <ele>126.55</ele>
        <time>2008-04-06T09:18:36.000Z</time>
      </trkpt>
      <trkpt lat="48.70359" lon="1.96793">
        <ele>131.84</ele>
        <time>2008-04-06T09:18:42.000Z</time>
      </trkpt>
      <trkpt lat="48.70363" lon="1.96781">
        <ele>141.45</ele>
        <time>2008-04-06T09:18:49.000Z</time>
      </trkpt>
      <trkpt lat="48.70367" lon="1.96772">
        <ele>145.3</ele>
        <time>2008-04-06T09:18:55.000Z</time>
      </trkpt>
      <trkpt lat="48.70372" lon="1.96763">
        <ele>142.89</ele>
        <time>2008-04-06T09:19:01.000Z</time>
      </trkpt>
      <trkpt lat="48.70373" lon="1.96762">
        <ele>141.45</ele>
        <time>2008-04-06T09:19:02.000Z</time>
      </trkpt>
      <trkpt lat="48.70373" lon="1.9675">
        <ele>144.34</ele>
        <time>2008-04-06T09:19:07.000Z</time>
      </trkpt>
      <trkpt lat="48.70374" lon="1.96741">
        <ele>149.14</ele>
        <time>2008-04-06T09:19:12.000Z</time>
      </trkpt>
      <trkpt lat="48.70377" lon="1.96736">
        <ele>149.62</ele>
        <time>2008-04-06T09:19:16.000Z</time>
      </trkpt>
      <trkpt lat="48.70379" lon="1.96732">
        <ele>147.7</ele>
        <time>2008-04-06T09:19:19.000Z</time>
      </trkpt>
      <trkpt lat="48.70384" lon="1.96727">
        <ele>144.82</ele>
        <time>2008-04-06T09:19:23.000Z</time>
      </trkpt>
      <trkpt lat="48.70388" lon="1.9672">
        <ele>140.97</ele>
        <time>2008-04-06T09:19:27.000Z</time>
      </trkpt>
      <trkpt lat="48.70393" lon="1.96705">
        <ele>144.34</ele>
        <time>2008-04-06T09:19:36.000Z</time>
      </trkpt>
      <trkpt lat="48.70393" lon="1.96704">
        <ele>145.78</ele>
        <time>2008-04-06T09:19:37.000Z</time>
      </trkpt>
      <trkpt lat="48.704" lon="1.96695">
        <ele>145.78</ele>
        <time>2008-04-06T09:19:44.000Z</time>
      </trkpt>
      <trkpt lat="48.70406" lon="1.96685">
        <ele>143.37</ele>
        <time>2008-04-06T09:19:51.000Z</time>
      </trkpt>
      <trkpt lat="48.70409" lon="1.9668">
        <ele>143.37</ele>
        <time>2008-04-06T09:19:56.000Z</time>
      </trkpt>
      <trkpt lat="48.70417" lon="1.96662">
        <ele>142.89</ele>
        <time>2008-04-06T09:20:06.000Z</time>
      </trkpt>
      <trkpt lat="48.7042" lon="1.96652">
        <ele>147.7</ele>
        <time>2008-04-06T09:20:13.000Z</time>
      </trkpt>
      <trkpt lat="48.7042" lon="1.96643">
        <ele>152.51</ele>
        <time>2008-04-06T09:20:19.000Z</time>
      </trkpt>
      <trkpt lat="48.70423" lon="1.96636">
        <ele>154.43</ele>
        <time>2008-04-06T09:20:25.000Z</time>
      </trkpt>
      <trkpt lat="48.70423" lon="1.96633">
        <ele>156.35</ele>
        <time>2008-04-06T09:20:27.000Z</time>
      </trkpt>
      <trkpt lat="48.70425" lon="1.9662">
        <ele>154.91</ele>
        <time>2008-04-06T09:20:33.000Z</time>
      </trkpt>
      <trkpt lat="48.70426" lon="1.96616">
        <ele>152.51</ele>
        <time>2008-04-06T09:20:36.000Z</time>
      </trkpt>
      <trkpt lat="48.70427" lon="1.96607">
        <ele>151.54</ele>
        <time>2008-04-06T09:20:41.000Z</time>
      </trkpt>
      <trkpt lat="48.70429" lon="1.96595">
        <ele>152.99</ele>
        <time>2008-04-06T09:20:49.000Z</time>
      </trkpt>
      <trkpt lat="48.70433" lon="1.96595">
        <ele>155.39</ele>
        <time>2008-04-06T09:20:55.000Z</time>
      </trkpt>
      <trkpt lat="48.70434" lon="1.96599">
        <ele>160.2</ele>
        <time>2008-04-06T09:21:00.000Z</time>
      </trkpt>
      <trkpt lat="48.70435" lon="1.96602">
        <ele>161.16</ele>
        <time>2008-04-06T09:21:02.000Z</time>
      </trkpt>
      <trkpt lat="48.70438" lon="1.96609">
        <ele>164.04</ele>
        <time>2008-04-06T09:21:06.000Z</time>
      </trkpt>
      <trkpt lat="48.70441" lon="1.96617">
        <ele>164.52</ele>
        <time>2008-04-06T09:21:12.000Z</time>
      </trkpt>
      <trkpt lat="48.70443" lon="1.96625">
        <ele>164.52</ele>
        <time>2008-04-06T09:21:15.000Z</time>
      </trkpt>
      <trkpt lat="48.70443" lon="1.96639">
        <ele>164.52</ele>
        <time>2008-04-06T09:21:20.000Z</time>
      </trkpt>
      <trkpt lat="48.70443" lon="1.96653">
        <ele>162.6</ele>
        <time>2008-04-06T09:21:25.000Z</time>
      </trkpt>
      <trkpt lat="48.70442" lon="1.96673">
        <ele>168.85</ele>
        <time>2008-04-06T09:21:30.000Z</time>
      </trkpt>
      <trkpt lat="48.70447" lon="1.96681">
        <ele>168.37</ele>
        <time>2008-04-06T09:21:36.000Z</time>
      </trkpt>
      <trkpt lat="48.70449" lon="1.96691">
        <ele>167.89</ele>
        <time>2008-04-06T09:21:42.000Z</time>
      </trkpt>
      <trkpt lat="48.70449" lon="1.96705">
        <ele>169.81</ele>
        <time>2008-04-06T09:21:48.000Z</time>
      </trkpt>
      <trkpt lat="48.70449" lon="1.9671">
        <ele>171.25</ele>
        <time>2008-04-06T09:21:49.000Z</time>
      </trkpt>
      <trkpt lat="48.70452" lon="1.9673">
        <ele>172.21</ele>
        <time>2008-04-06T09:21:55.000Z</time>
      </trkpt>
      <trkpt lat="48.70451" lon="1.96748">
        <ele>173.66</ele>
        <time>2008-04-06T09:21:59.000Z</time>
      </trkpt>
      <trkpt lat="48.70451" lon="1.96751">
        <ele>173.66</ele>
        <time>2008-04-06T09:22:00.000Z</time>
      </trkpt>
      <trkpt lat="48.70454" lon="1.96768">
        <ele>173.66</ele>
        <time>2008-04-06T09:22:06.000Z</time>
      </trkpt>
      <trkpt lat="48.70451" lon="1.96778">
        <ele>173.66</ele>
        <time>2008-04-06T09:22:09.000Z</time>
      </trkpt>
      <trkpt lat="48.70451" lon="1.96804">
        <ele>175.58</ele>
        <time>2008-04-06T09:22:15.000Z</time>
      </trkpt>
      <trkpt lat="48.7045" lon="1.96814">
        <ele>171.73</ele>
        <time>2008-04-06T09:22:19.000Z</time>
      </trkpt>
      <trkpt lat="48.70453" lon="1.96829">
        <ele>168.85</ele>
        <time>2008-04-06T09:22:24.000Z</time>
      </trkpt>
      <trkpt lat="48.70453" lon="1.96845">
        <ele>169.33</ele>
        <time>2008-04-06T09:22:29.000Z</time>
      </trkpt>
      <trkpt lat="48.70453" lon="1.96851">
        <ele>168.37</ele>
        <time>2008-04-06T09:22:31.000Z</time>
      </trkpt>
      <trkpt lat="48.70458" lon="1.96871">
        <ele>169.33</ele>
        <time>2008-04-06T09:22:37.000Z</time>
      </trkpt>
      <trkpt lat="48.70452" lon="1.96887">
        <ele>167.89</ele>
        <time>2008-04-06T09:22:42.000Z</time>
      </trkpt>
      <trkpt lat="48.70446" lon="1.96906">
        <ele>169.81</ele>
        <time>2008-04-06T09:22:48.000Z</time>
      </trkpt>
      <trkpt lat="48.70441" lon="1.96916">
        <ele>169.81</ele>
        <time>2008-04-06T09:22:52.000Z</time>
      </trkpt>
      <trkpt lat="48.70444" lon="1.96925">
        <ele>170.77</ele>
        <time>2008-04-06T09:22:57.000Z</time>
      </trkpt>
      <trkpt lat="48.70446" lon="1.9693">
        <ele>171.73</ele>
        <time>2008-04-06T09:23:00.000Z</time>
      </trkpt>
      <trkpt lat="48.70442" lon="1.96939">
        <ele>169.33</ele>
        <time>2008-04-06T09:23:04.000Z</time>
      </trkpt>
      <trkpt lat="48.70435" lon="1.96948">
        <ele>165.48</ele>
        <time>2008-04-06T09:23:09.000Z</time>
      </trkpt>
      <trkpt lat="48.7043" lon="1.96963">
        <ele>164.04</ele>
        <time>2008-04-06T09:23:13.000Z</time>
      </trkpt>
      <trkpt lat="48.70425" lon="1.96982">
        <ele>165.96</ele>
        <time>2008-04-06T09:23:19.000Z</time>
      </trkpt>
      <trkpt lat="48.70423" lon="1.96989">
        <ele>164.52</ele>
        <time>2008-04-06T09:23:22.000Z</time>
      </trkpt>
      <trkpt lat="48.70422" lon="1.97">
        <ele>161.16</ele>
        <time>2008-04-06T09:23:27.000Z</time>
      </trkpt>
      <trkpt lat="48.7042" lon="1.97016">
        <ele>155.87</ele>
        <time>2008-04-06T09:23:32.000Z</time>
      </trkpt>
      <trkpt lat="48.70416" lon="1.9703">
        <ele>153.95</ele>
        <time>2008-04-06T09:23:36.000Z</time>
      </trkpt>
      <trkpt lat="48.70412" lon="1.9704">
        <ele>152.03</ele>
        <time>2008-04-06T09:23:39.000Z</time>
      </trkpt>
      <trkpt lat="48.70414" lon="1.9706">
        <ele>150.58</ele>
        <time>2008-04-06T09:23:45.000Z</time>
      </trkpt>
      <trkpt lat="48.70411" lon="1.97081">
        <ele>148.18</ele>
        <time>2008-04-06T09:23:51.000Z</time>
      </trkpt>
      <trkpt lat="48.70405" lon="1.97105">
        <ele>155.39</ele>
        <time>2008-04-06T09:23:56.000Z</time>
      </trkpt>
      <trkpt lat="48.70403" lon="1.97122">
        <ele>162.12</ele>
        <time>2008-04-06T09:23:59.000Z</time>
      </trkpt>
      <trkpt lat="48.70394" lon="1.97145">
        <ele>169.81</ele>
        <time>2008-04-06T09:24:04.000Z</time>
      </trkpt>
      <trkpt lat="48.70395" lon="1.97165">
        <ele>172.69</ele>
        <time>2008-04-06T09:24:09.000Z</time>
      </trkpt>
      <trkpt lat="48.70396" lon="1.97188">
        <ele>170.77</ele>
        <time>2008-04-06T09:24:16.000Z</time>
      </trkpt>
      <trkpt lat="48.70396" lon="1.97191">
        <ele>170.77</ele>
        <time>2008-04-06T09:24:17.000Z</time>
      </trkpt>
      <trkpt lat="48.70404" lon="1.97206">
        <ele>167.41</ele>
        <time>2008-04-06T09:24:23.000Z</time>
      </trkpt>
      <trkpt lat="48.70405" lon="1.97209">
        <ele>166.93</ele>
        <time>2008-04-06T09:24:24.000Z</time>
      </trkpt>
      <trkpt lat="48.70408" lon="1.97222">
        <ele>167.89</ele>
        <time>2008-04-06T09:24:28.000Z</time>
      </trkpt>
      <trkpt lat="48.70412" lon="1.97243">
        <ele>169.33</ele>
        <time>2008-04-06T09:24:35.000Z</time>
      </trkpt>
      <trkpt lat="48.70411" lon="1.97254">
        <ele>169.33</ele>
        <time>2008-04-06T09:24:38.000Z</time>
      </trkpt>
      <trkpt lat="48.70402" lon="1.97266">
        <ele>169.33</ele>
        <time>2008-04-06T09:24:43.000Z</time>
      </trkpt>
      <trkpt lat="48.70395" lon="1.97275">
        <ele>169.33</ele>
        <time>2008-04-06T09:24:47.000Z</time>
      </trkpt>
      <trkpt lat="48.7039" lon="1.97283">
        <ele>171.73</ele>
        <time>2008-04-06T09:24:50.000Z</time>
      </trkpt>
      <trkpt lat="48.70382" lon="1.97302">
        <ele>171.73</ele>
        <time>2008-04-06T09:24:57.000Z</time>
      </trkpt>
      <trkpt lat="48.70375" lon="1.9732">
        <ele>170.77</ele>
        <time>2008-04-06T09:25:02.000Z</time>
      </trkpt>
      <trkpt lat="48.70368" lon="1.97343">
        <ele>168.37</ele>
        <time>2008-04-06T09:25:08.000Z</time>
      </trkpt>
      <trkpt lat="48.70363" lon="1.97355">
        <ele>169.81</ele>
        <time>2008-04-06T09:25:11.000Z</time>
      </trkpt>
      <trkpt lat="48.70357" lon="1.97369">
        <ele>167.89</ele>
        <time>2008-04-06T09:25:16.000Z</time>
      </trkpt>
      <trkpt lat="48.70353" lon="1.97385">
        <ele>166.93</ele>
        <time>2008-04-06T09:25:20.000Z</time>
      </trkpt>
      <trkpt lat="48.70353" lon="1.97393">
        <ele>165.96</ele>
        <time>2008-04-06T09:25:22.000Z</time>
      </trkpt>
      <trkpt lat="48.70351" lon="1.97398">
        <ele>164.04</ele>
        <time>2008-04-06T09:25:25.000Z</time>
      </trkpt>
      <trkpt lat="48.70345" lon="1.9742">
        <ele>161.64</ele>
        <time>2008-04-06T09:25:31.000Z</time>
      </trkpt>
      <trkpt lat="48.70342" lon="1.97428">
        <ele>159.24</ele>
        <time>2008-04-06T09:25:34.000Z</time>
      </trkpt>
      <trkpt lat="48.70339" lon="1.97443">
        <ele>155.87</ele>
        <time>2008-04-06T09:25:38.000Z</time>
      </trkpt>
      <trkpt lat="48.70334" lon="1.97463">
        <ele>152.99</ele>
        <time>2008-04-06T09:25:43.000Z</time>
      </trkpt>
      <trkpt lat="48.70328" lon="1.97481">
        <ele>153.95</ele>
        <time>2008-04-06T09:25:47.000Z</time>
      </trkpt>
      <trkpt lat="48.70324" lon="1.97492">
        <ele>154.91</ele>
        <time>2008-04-06T09:25:51.000Z</time>
      </trkpt>
      <trkpt lat="48.70324" lon="1.97498">
        <ele>157.31</ele>
        <time>2008-04-06T09:25:57.000Z</time>
      </trkpt>
      <trkpt lat="48.70326" lon="1.97501">
        <ele>154.91</ele>
        <time>2008-04-06T09:25:59.000Z</time>
      </trkpt>
      <trkpt lat="48.7033" lon="1.97513">
        <ele>152.99</ele>
        <time>2008-04-06T09:26:08.000Z</time>
      </trkpt>
      <trkpt lat="48.7033" lon="1.97522">
        <ele>156.83</ele>
        <time>2008-04-06T09:26:14.000Z</time>
      </trkpt>
      <trkpt lat="48.70331" lon="1.97523">
        <ele>156.35</ele>
        <time>2008-04-06T09:26:15.000Z</time>
      </trkpt>
      <trkpt lat="48.70335" lon="1.97532">
        <ele>155.87</ele>
        <time>2008-04-06T09:26:23.000Z</time>
      </trkpt>
      <trkpt lat="48.70335" lon="1.97534">
        <ele>156.83</ele>
        <time>2008-04-06T09:26:25.000Z</time>
      </trkpt>
      <trkpt lat="48.70335" lon="1.97542">
        <ele>158.27</ele>
        <time>2008-04-06T09:26:30.000Z</time>
      </trkpt>
      <trkpt lat="48.70337" lon="1.97545">
        <ele>159.72</ele>
        <time>2008-04-06T09:26:35.000Z</time>
      </trkpt>
      <trkpt lat="48.70337" lon="1.97555">
        <ele>163.56</ele>
        <time>2008-04-06T09:26:42.000Z</time>
      </trkpt>
      <trkpt lat="48.70338" lon="1.97561">
        <ele>163.56</ele>
        <time>2008-04-06T09:26:48.000Z</time>
      </trkpt>
      <trkpt lat="48.7034" lon="1.97571">
        <ele>163.56</ele>
        <time>2008-04-06T09:26:56.000Z</time>
      </trkpt>
      <trkpt lat="48.70338" lon="1.97583">
        <ele>165.48</ele>
        <time>2008-04-06T09:27:03.000Z</time>
      </trkpt>
      <trkpt lat="48.70339" lon="1.97585">
        <ele>164.52</ele>
        <time>2008-04-06T09:27:05.000Z</time>
      </trkpt>
      <trkpt lat="48.70338" lon="1.97593">
        <ele>163.56</ele>
        <time>2008-04-06T09:27:10.000Z</time>
      </trkpt>
      <trkpt lat="48.70339" lon="1.976">
        <ele>165</ele>
        <time>2008-04-06T09:27:16.000Z</time>
      </trkpt>
      <trkpt lat="48.70338" lon="1.97607">
        <ele>164.52</ele>
        <time>2008-04-06T09:27:20.000Z</time>
      </trkpt>
      <trkpt lat="48.70339" lon="1.97616">
        <ele>164.52</ele>
        <time>2008-04-06T09:27:24.000Z</time>
      </trkpt>
      <trkpt lat="48.70338" lon="1.97628">
        <ele>165.48</ele>
        <time>2008-04-06T09:27:31.000Z</time>
      </trkpt>
      <trkpt lat="48.70335" lon="1.97641">
        <ele>167.89</ele>
        <time>2008-04-06T09:27:37.000Z</time>
      </trkpt>
      <trkpt lat="48.70332" lon="1.97661">
        <ele>166.93</ele>
        <time>2008-04-06T09:27:42.000Z</time>
      </trkpt>
      <trkpt lat="48.70331" lon="1.9767">
        <ele>166.45</ele>
        <time>2008-04-06T09:27:44.000Z</time>
      </trkpt>
      <trkpt lat="48.70331" lon="1.97693">
        <ele>165.96</ele>
        <time>2008-04-06T09:27:49.000Z</time>
      </trkpt>
      <trkpt lat="48.70339" lon="1.97712">
        <ele>165</ele>
        <time>2008-04-06T09:27:55.000Z</time>
      </trkpt>
      <trkpt lat="48.70341" lon="1.97714">
        <ele>164.52</ele>
        <time>2008-04-06T09:27:56.000Z</time>
      </trkpt>
      <trkpt lat="48.70349" lon="1.97728">
        <ele>164.04</ele>
        <time>2008-04-06T09:28:02.000Z</time>
      </trkpt>
      <trkpt lat="48.70357" lon="1.97736">
        <ele>163.08</ele>
        <time>2008-04-06T09:28:06.000Z</time>
      </trkpt>
      <trkpt lat="48.70365" lon="1.97743">
        <ele>163.08</ele>
        <time>2008-04-06T09:28:10.000Z</time>
      </trkpt>
      <trkpt lat="48.70376" lon="1.97754">
        <ele>161.16</ele>
        <time>2008-04-06T09:28:15.000Z</time>
      </trkpt>
      <trkpt lat="48.70385" lon="1.97771">
        <ele>159.24</ele>
        <time>2008-04-06T09:28:21.000Z</time>
      </trkpt>
      <trkpt lat="48.70389" lon="1.97782">
        <ele>158.75</ele>
        <time>2008-04-06T09:28:25.000Z</time>
      </trkpt>
      <trkpt lat="48.70401" lon="1.97783">
        <ele>156.83</ele>
        <time>2008-04-06T09:28:30.000Z</time>
      </trkpt>
      <trkpt lat="48.70404" lon="1.97783">
        <ele>157.79</ele>
        <time>2008-04-06T09:28:31.000Z</time>
      </trkpt>
      <trkpt lat="48.7041" lon="1.97785">
        <ele>157.79</ele>
        <time>2008-04-06T09:28:34.000Z</time>
      </trkpt>
      <trkpt lat="48.70421" lon="1.97792">
        <ele>157.31</ele>
        <time>2008-04-06T09:28:39.000Z</time>
      </trkpt>
      <trkpt lat="48.7043" lon="1.97801">
        <ele>156.83</ele>
        <time>2008-04-06T09:28:43.000Z</time>
      </trkpt>
      <trkpt lat="48.7044" lon="1.97809">
        <ele>156.35</ele>
        <time>2008-04-06T09:28:47.000Z</time>
      </trkpt>
      <trkpt lat="48.70444" lon="1.97814">
        <ele>156.83</ele>
        <time>2008-04-06T09:28:49.000Z</time>
      </trkpt>
      <trkpt lat="48.70454" lon="1.97824">
        <ele>155.87</ele>
        <time>2008-04-06T09:28:54.000Z</time>
      </trkpt>
      <trkpt lat="48.70462" lon="1.97837">
        <ele>155.87</ele>
        <time>2008-04-06T09:28:58.000Z</time>
      </trkpt>
      <trkpt lat="48.70471" lon="1.97851">
        <ele>155.39</ele>
        <time>2008-04-06T09:29:03.000Z</time>
      </trkpt>
      <trkpt lat="48.70476" lon="1.97861">
        <ele>154.91</ele>
        <time>2008-04-06T09:29:06.000Z</time>
      </trkpt>
      <trkpt lat="48.70485" lon="1.97872">
        <ele>154.43</ele>
        <time>2008-04-06T09:29:10.000Z</time>
      </trkpt>
      <trkpt lat="48.70505" lon="1.97882">
        <ele>155.39</ele>
        <time>2008-04-06T09:29:16.000Z</time>
      </trkpt>
      <trkpt lat="48.70509" lon="1.97885">
        <ele>157.79</ele>
        <time>2008-04-06T09:29:18.000Z</time>
      </trkpt>
      <trkpt lat="48.70523" lon="1.97887">
        <ele>161.16</ele>
        <time>2008-04-06T09:29:24.000Z</time>
      </trkpt>
      <trkpt lat="48.70529" lon="1.97892">
        <ele>161.16</ele>
        <time>2008-04-06T09:29:27.000Z</time>
      </trkpt>
      <trkpt lat="48.70539" lon="1.97896">
        <ele>161.64</ele>
        <time>2008-04-06T09:29:31.000Z</time>
      </trkpt>
      <trkpt lat="48.70546" lon="1.97899">
        <ele>160.68</ele>
        <time>2008-04-06T09:29:34.000Z</time>
      </trkpt>
      <trkpt lat="48.70553" lon="1.97908">
        <ele>160.2</ele>
        <time>2008-04-06T09:29:40.000Z</time>
      </trkpt>
      <trkpt lat="48.70561" lon="1.9792">
        <ele>160.2</ele>
        <time>2008-04-06T09:29:45.000Z</time>
      </trkpt>
      <trkpt lat="48.70566" lon="1.97928">
        <ele>159.24</ele>
        <time>2008-04-06T09:29:47.000Z</time>
      </trkpt>
      <trkpt lat="48.70574" lon="1.97943">
        <ele>157.31</ele>
        <time>2008-04-06T09:29:52.000Z</time>
      </trkpt>
      <trkpt lat="48.70576" lon="1.97945">
        <ele>157.31</ele>
        <time>2008-04-06T09:29:53.000Z</time>
      </trkpt>
      <trkpt lat="48.70583" lon="1.97955">
        <ele>155.87</ele>
        <time>2008-04-06T09:29:57.000Z</time>
      </trkpt>
      <trkpt lat="48.70591" lon="1.97969">
        <ele>155.87</ele>
        <time>2008-04-06T09:30:03.000Z</time>
      </trkpt>
      <trkpt lat="48.70592" lon="1.97972">
        <ele>155.39</ele>
        <time>2008-04-06T09:30:04.000Z</time>
      </trkpt>
      <trkpt lat="48.70603" lon="1.97984">
        <ele>154.91</ele>
        <time>2008-04-06T09:30:10.000Z</time>
      </trkpt>
      <trkpt lat="48.70606" lon="1.9799">
        <ele>155.39</ele>
        <time>2008-04-06T09:30:12.000Z</time>
      </trkpt>
      <trkpt lat="48.7061" lon="1.98011">
        <ele>157.79</ele>
        <time>2008-04-06T09:30:18.000Z</time>
      </trkpt>
      <trkpt lat="48.70611" lon="1.98031">
        <ele>158.75</ele>
        <time>2008-04-06T09:30:23.000Z</time>
      </trkpt>
      <trkpt lat="48.70612" lon="1.98049">
        <ele>158.75</ele>
        <time>2008-04-06T09:30:28.000Z</time>
      </trkpt>
      <trkpt lat="48.70615" lon="1.98067">
        <ele>157.79</ele>
        <time>2008-04-06T09:30:33.000Z</time>
      </trkpt>
      <trkpt lat="48.70618" lon="1.98084">
        <ele>157.31</ele>
        <time>2008-04-06T09:30:38.000Z</time>
      </trkpt>
      <trkpt lat="48.70619" lon="1.98103">
        <ele>159.24</ele>
        <time>2008-04-06T09:30:43.000Z</time>
      </trkpt>
      <trkpt lat="48.70619" lon="1.98119">
        <ele>159.24</ele>
        <time>2008-04-06T09:30:47.000Z</time>
      </trkpt>
      <trkpt lat="48.70614" lon="1.98143">
        <ele>158.27</ele>
        <time>2008-04-06T09:30:53.000Z</time>
      </trkpt>
      <trkpt lat="48.70611" lon="1.98146">
        <ele>157.79</ele>
        <time>2008-04-06T09:30:54.000Z</time>
      </trkpt>
      <trkpt lat="48.70597" lon="1.98158">
        <ele>159.72</ele>
        <time>2008-04-06T09:30:59.000Z</time>
      </trkpt>
      <trkpt lat="48.70596" lon="1.98174">
        <ele>161.16</ele>
        <time>2008-04-06T09:31:04.000Z</time>
      </trkpt>
      <trkpt lat="48.70596" lon="1.98179">
        <ele>161.16</ele>
        <time>2008-04-06T09:31:05.000Z</time>
      </trkpt>
      <trkpt lat="48.70596" lon="1.982">
        <ele>164.52</ele>
        <time>2008-04-06T09:31:11.000Z</time>
      </trkpt>
      <trkpt lat="48.706" lon="1.98215">
        <ele>164.04</ele>
        <time>2008-04-06T09:31:16.000Z</time>
      </trkpt>
      <trkpt lat="48.70602" lon="1.9824">
        <ele>163.56</ele>
        <time>2008-04-06T09:31:22.000Z</time>
      </trkpt>
      <trkpt lat="48.70601" lon="1.98259">
        <ele>163.08</ele>
        <time>2008-04-06T09:31:27.000Z</time>
      </trkpt>
      <trkpt lat="48.70601" lon="1.98263">
        <ele>163.08</ele>
        <time>2008-04-06T09:31:28.000Z</time>
      </trkpt>
      <trkpt lat="48.70606" lon="1.98279">
        <ele>155.39</ele>
        <time>2008-04-06T09:31:34.000Z</time>
      </trkpt>
      <trkpt lat="48.70607" lon="1.98298">
        <ele>152.99</ele>
        <time>2008-04-06T09:31:39.000Z</time>
      </trkpt>
      <trkpt lat="48.70613" lon="1.98317">
        <ele>152.99</ele>
        <time>2008-04-06T09:31:44.000Z</time>
      </trkpt>
      <trkpt lat="48.70612" lon="1.98342">
        <ele>151.06</ele>
        <time>2008-04-06T09:31:50.000Z</time>
      </trkpt>
      <trkpt lat="48.70608" lon="1.98367">
        <ele>149.62</ele>
        <time>2008-04-06T09:31:56.000Z</time>
      </trkpt>
      <trkpt lat="48.70608" lon="1.98385">
        <ele>149.14</ele>
        <time>2008-04-06T09:32:01.000Z</time>
      </trkpt>
      <trkpt lat="48.70609" lon="1.98389">
        <ele>147.22</ele>
        <time>2008-04-06T09:32:03.000Z</time>
      </trkpt>
      <trkpt lat="48.70601" lon="1.98404">
        <ele>144.34</ele>
        <time>2008-04-06T09:32:08.000Z</time>
      </trkpt>
      <trkpt lat="48.70595" lon="1.98418">
        <ele>141.93</ele>
        <time>2008-04-06T09:32:13.000Z</time>
      </trkpt>
      <trkpt lat="48.70595" lon="1.98421">
        <ele>140.49</ele>
        <time>2008-04-06T09:32:14.000Z</time>
      </trkpt>
      <trkpt lat="48.70597" lon="1.98436">
        <ele>137.61</ele>
        <time>2008-04-06T09:32:19.000Z</time>
      </trkpt>
      <trkpt lat="48.70592" lon="1.98453">
        <ele>134.72</ele>
        <time>2008-04-06T09:32:25.000Z</time>
      </trkpt>
      <trkpt lat="48.70591" lon="1.98459">
        <ele>133.76</ele>
        <time>2008-04-06T09:32:27.000Z</time>
      </trkpt>
      <trkpt lat="48.70591" lon="1.98475">
        <ele>128.95</ele>
        <time>2008-04-06T09:32:32.000Z</time>
      </trkpt>
      <trkpt lat="48.70591" lon="1.98482">
        <ele>127.03</ele>
        <time>2008-04-06T09:32:34.000Z</time>
      </trkpt>
      <trkpt lat="48.70591" lon="1.98493">
        <ele>126.55</ele>
        <time>2008-04-06T09:32:37.000Z</time>
      </trkpt>
      <trkpt lat="48.70598" lon="1.985">
        <ele>123.67</ele>
        <time>2008-04-06T09:32:43.000Z</time>
      </trkpt>
      <trkpt lat="48.70604" lon="1.98509">
        <ele>122.22</ele>
        <time>2008-04-06T09:32:48.000Z</time>
      </trkpt>
      <trkpt lat="48.7061" lon="1.98512">
        <ele>123.19</ele>
        <time>2008-04-06T09:32:53.000Z</time>
      </trkpt>
      <trkpt lat="48.70613" lon="1.98512">
        <ele>122.71</ele>
        <time>2008-04-06T09:32:55.000Z</time>
      </trkpt>
      <trkpt lat="48.70619" lon="1.9852">
        <ele>124.15</ele>
        <time>2008-04-06T09:33:01.000Z</time>
      </trkpt>
      <trkpt lat="48.70621" lon="1.98523">
        <ele>124.63</ele>
        <time>2008-04-06T09:33:03.000Z</time>
      </trkpt>
      <trkpt lat="48.70626" lon="1.98528">
        <ele>127.03</ele>
        <time>2008-04-06T09:33:10.000Z</time>
      </trkpt>
      <trkpt lat="48.70628" lon="1.98534">
        <ele>130.88</ele>
        <time>2008-04-06T09:33:16.000Z</time>
      </trkpt>
      <trkpt lat="48.7063" lon="1.98543">
        <ele>131.84</ele>
        <time>2008-04-06T09:33:22.000Z</time>
      </trkpt>
      <trkpt lat="48.7063" lon="1.98545">
        <ele>131.36</ele>
        <time>2008-04-06T09:33:23.000Z</time>
      </trkpt>
      <trkpt lat="48.70633" lon="1.9856">
        <ele>129.92</ele>
        <time>2008-04-06T09:33:29.000Z</time>
      </trkpt>
      <trkpt lat="48.70635" lon="1.98562">
        <ele>129.43</ele>
        <time>2008-04-06T09:33:30.000Z</time>
      </trkpt>
      <trkpt lat="48.70647" lon="1.98568">
        <ele>128.47</ele>
        <time>2008-04-06T09:33:36.000Z</time>
      </trkpt>
      <trkpt lat="48.7065" lon="1.98569">
        <ele>128.47</ele>
        <time>2008-04-06T09:33:38.000Z</time>
      </trkpt>
      <trkpt lat="48.70657" lon="1.98571">
        <ele>127.51</ele>
        <time>2008-04-06T09:33:43.000Z</time>
      </trkpt>
      <trkpt lat="48.70658" lon="1.98571">
        <ele>127.51</ele>
        <time>2008-04-06T09:33:44.000Z</time>
      </trkpt>
      <trkpt lat="48.70667" lon="1.98561">
        <ele>124.15</ele>
        <time>2008-04-06T09:33:50.000Z</time>
      </trkpt>
      <trkpt lat="48.70673" lon="1.98552">
        <ele>121.74</ele>
        <time>2008-04-06T09:33:55.000Z</time>
      </trkpt>
      <trkpt lat="48.70681" lon="1.98545">
        <ele>123.67</ele>
        <time>2008-04-06T09:34:01.000Z</time>
      </trkpt>
      <trkpt lat="48.70689" lon="1.98537">
        <ele>121.74</ele>
        <time>2008-04-06T09:34:07.000Z</time>
      </trkpt>
      <trkpt lat="48.707" lon="1.98528">
        <ele>121.26</ele>
        <time>2008-04-06T09:34:12.000Z</time>
      </trkpt>
      <trkpt lat="48.70705" lon="1.98523">
        <ele>122.22</ele>
        <time>2008-04-06T09:34:14.000Z</time>
      </trkpt>
      <trkpt lat="48.7071" lon="1.9852">
        <ele>123.67</ele>
        <time>2008-04-06T09:34:18.000Z</time>
      </trkpt>
      <trkpt lat="48.70718" lon="1.98525">
        <ele>123.67</ele>
        <time>2008-04-06T09:34:21.000Z</time>
      </trkpt>
      <trkpt lat="48.70729" lon="1.98544">
        <ele>119.82</ele>
        <time>2008-04-06T09:34:27.000Z</time>
      </trkpt>
      <trkpt lat="48.70736" lon="1.98561">
        <ele>118.38</ele>
        <time>2008-04-06T09:34:32.000Z</time>
      </trkpt>
      <trkpt lat="48.7075" lon="1.98576">
        <ele>117.9</ele>
        <time>2008-04-06T09:34:37.000Z</time>
      </trkpt>
      <trkpt lat="48.70759" lon="1.98591">
        <ele>116.46</ele>
        <time>2008-04-06T09:34:41.000Z</time>
      </trkpt>
      <trkpt lat="48.70769" lon="1.98607">
        <ele>114.05</ele>
        <time>2008-04-06T09:34:46.000Z</time>
      </trkpt>
      <trkpt lat="48.70774" lon="1.98617">
        <ele>111.65</ele>
        <time>2008-04-06T09:34:49.000Z</time>
      </trkpt>
      <trkpt lat="48.70783" lon="1.98637">
        <ele>109.73</ele>
        <time>2008-04-06T09:34:55.000Z</time>
      </trkpt>
      <trkpt lat="48.70789" lon="1.98642">
        <ele>108.29</ele>
        <time>2008-04-06T09:34:59.000Z</time>
      </trkpt>
      <trkpt lat="48.70793" lon="1.9863">
        <ele>108.77</ele>
        <time>2008-04-06T09:35:03.000Z</time>
      </trkpt>
      <trkpt lat="48.70796" lon="1.98621">
        <ele>108.77</ele>
        <time>2008-04-06T09:35:06.000Z</time>
      </trkpt>
      <trkpt lat="48.70804" lon="1.98607">
        <ele>109.73</ele>
        <time>2008-04-06T09:35:11.000Z</time>
      </trkpt>
      <trkpt lat="48.70808" lon="1.986">
        <ele>109.25</ele>
        <time>2008-04-06T09:35:14.000Z</time>
      </trkpt>
      <trkpt lat="48.70816" lon="1.98588">
        <ele>110.21</ele>
        <time>2008-04-06T09:35:19.000Z</time>
      </trkpt>
      <trkpt lat="48.70817" lon="1.98585">
        <ele>110.21</ele>
        <time>2008-04-06T09:35:20.000Z</time>
      </trkpt>
      <trkpt lat="48.70818" lon="1.98576">
        <ele>110.21</ele>
        <time>2008-04-06T09:35:22.000Z</time>
      </trkpt>
      <trkpt lat="48.70829" lon="1.98561">
        <ele>110.69</ele>
        <time>2008-04-06T09:35:28.000Z</time>
      </trkpt>
      <trkpt lat="48.7084" lon="1.98552">
        <ele>112.61</ele>
        <time>2008-04-06T09:35:33.000Z</time>
      </trkpt>
      <trkpt lat="48.70854" lon="1.98547">
        <ele>113.57</ele>
        <time>2008-04-06T09:35:38.000Z</time>
      </trkpt>
      <trkpt lat="48.70865" lon="1.98546">
        <ele>112.13</ele>
        <time>2008-04-06T09:35:42.000Z</time>
      </trkpt>
      <trkpt lat="48.70876" lon="1.98546">
        <ele>110.21</ele>
        <time>2008-04-06T09:35:47.000Z</time>
      </trkpt>
      <trkpt lat="48.70886" lon="1.98549">
        <ele>108.29</ele>
        <time>2008-04-06T09:35:51.000Z</time>
      </trkpt>
      <trkpt lat="48.70898" lon="1.98551">
        <ele>104.92</ele>
        <time>2008-04-06T09:35:55.000Z</time>
      </trkpt>
      <trkpt lat="48.70914" lon="1.98559">
        <ele>101.56</ele>
        <time>2008-04-06T09:36:01.000Z</time>
      </trkpt>
      <trkpt lat="48.70926" lon="1.98564">
        <ele>99.15</ele>
        <time>2008-04-06T09:36:05.000Z</time>
      </trkpt>
      <trkpt lat="48.70939" lon="1.98575">
        <ele>96.75</ele>
        <time>2008-04-06T09:36:10.000Z</time>
      </trkpt>
      <trkpt lat="48.7095" lon="1.98584">
        <ele>94.35</ele>
        <time>2008-04-06T09:36:14.000Z</time>
      </trkpt>
      <trkpt lat="48.70961" lon="1.98592">
        <ele>91.94</ele>
        <time>2008-04-06T09:36:19.000Z</time>
      </trkpt>
      <trkpt lat="48.70971" lon="1.98598">
        <ele>90.02</ele>
        <time>2008-04-06T09:36:23.000Z</time>
      </trkpt>
      <trkpt lat="48.70983" lon="1.98599">
        <ele>88.58</ele>
        <time>2008-04-06T09:36:28.000Z</time>
      </trkpt>
      <trkpt lat="48.71002" lon="1.98594">
        <ele>91.94</ele>
        <time>2008-04-06T09:36:33.000Z</time>
      </trkpt>
      <trkpt lat="48.71016" lon="1.98588">
        <ele>92.9</ele>
        <time>2008-04-06T09:36:37.000Z</time>
      </trkpt>
      <trkpt lat="48.71029" lon="1.98582">
        <ele>94.83</ele>
        <time>2008-04-06T09:36:42.000Z</time>
      </trkpt>
      <trkpt lat="48.71042" lon="1.98578">
        <ele>95.79</ele>
        <time>2008-04-06T09:36:47.000Z</time>
      </trkpt>
      <trkpt lat="48.71058" lon="1.98577">
        <ele>95.79</ele>
        <time>2008-04-06T09:36:52.000Z</time>
      </trkpt>
      <trkpt lat="48.71069" lon="1.98577">
        <ele>96.75</ele>
        <time>2008-04-06T09:36:56.000Z</time>
      </trkpt>
      <trkpt lat="48.71085" lon="1.98578">
        <ele>95.31</ele>
        <time>2008-04-06T09:37:02.000Z</time>
      </trkpt>
      <trkpt lat="48.711" lon="1.98578">
        <ele>93.87</ele>
        <time>2008-04-06T09:37:08.000Z</time>
      </trkpt>
      <trkpt lat="48.71112" lon="1.98579">
        <ele>93.87</ele>
        <time>2008-04-06T09:37:12.000Z</time>
      </trkpt>
      <trkpt lat="48.71122" lon="1.9858">
        <ele>93.87</ele>
        <time>2008-04-06T09:37:16.000Z</time>
      </trkpt>
      <trkpt lat="48.71133" lon="1.98583">
        <ele>93.39</ele>
        <time>2008-04-06T09:37:20.000Z</time>
      </trkpt>
      <trkpt lat="48.71148" lon="1.98582">
        <ele>95.31</ele>
        <time>2008-04-06T09:37:25.000Z</time>
      </trkpt>
      <trkpt lat="48.71159" lon="1.98586">
        <ele>94.83</ele>
        <time>2008-04-06T09:37:30.000Z</time>
      </trkpt>
      <trkpt lat="48.71161" lon="1.98587">
        <ele>94.83</ele>
        <time>2008-04-06T09:37:31.000Z</time>
      </trkpt>
      <trkpt lat="48.71174" lon="1.98593">
        <ele>92.9</ele>
        <time>2008-04-06T09:37:37.000Z</time>
      </trkpt>
      <trkpt lat="48.71186" lon="1.9859">
        <ele>93.39</ele>
        <time>2008-04-06T09:37:42.000Z</time>
      </trkpt>
      <trkpt lat="48.71198" lon="1.98581">
        <ele>92.9</ele>
        <time>2008-04-06T09:37:47.000Z</time>
      </trkpt>
      <trkpt lat="48.7121" lon="1.98573">
        <ele>92.42</ele>
        <time>2008-04-06T09:37:53.000Z</time>
      </trkpt>
      <trkpt lat="48.71222" lon="1.98569">
        <ele>93.39</ele>
        <time>2008-04-06T09:37:58.000Z</time>
      </trkpt>
      <trkpt lat="48.71236" lon="1.98554">
        <ele>94.83</ele>
        <time>2008-04-06T09:38:05.000Z</time>
      </trkpt>
      <trkpt lat="48.71246" lon="1.98539">
        <ele>96.27</ele>
        <time>2008-04-06T09:38:11.000Z</time>
      </trkpt>
      <trkpt lat="48.71254" lon="1.98525">
        <ele>97.23</ele>
        <time>2008-04-06T09:38:16.000Z</time>
      </trkpt>
      <trkpt lat="48.71261" lon="1.98514">
        <ele>98.67</ele>
        <time>2008-04-06T09:38:20.000Z</time>
      </trkpt>
      <trkpt lat="48.71271" lon="1.98506">
        <ele>99.15</ele>
        <time>2008-04-06T09:38:24.000Z</time>
      </trkpt>
      <trkpt lat="48.71281" lon="1.98501">
        <ele>99.63</ele>
        <time>2008-04-06T09:38:29.000Z</time>
      </trkpt>
      <trkpt lat="48.71289" lon="1.98499">
        <ele>103</ele>
        <time>2008-04-06T09:38:33.000Z</time>
      </trkpt>
      <trkpt lat="48.71302" lon="1.98499">
        <ele>107.32</ele>
        <time>2008-04-06T09:38:39.000Z</time>
      </trkpt>
      <trkpt lat="48.71316" lon="1.98499">
        <ele>110.69</ele>
        <time>2008-04-06T09:38:43.000Z</time>
      </trkpt>
      <trkpt lat="48.7132" lon="1.98497">
        <ele>112.61</ele>
        <time>2008-04-06T09:38:45.000Z</time>
      </trkpt>
      <trkpt lat="48.71326" lon="1.98501">
        <ele>113.09</ele>
        <time>2008-04-06T09:38:50.000Z</time>
      </trkpt>
      <trkpt lat="48.71331" lon="1.98505">
        <ele>114.05</ele>
        <time>2008-04-06T09:38:54.000Z</time>
      </trkpt>
      <trkpt lat="48.71337" lon="1.98511">
        <ele>114.53</ele>
        <time>2008-04-06T09:38:59.000Z</time>
      </trkpt>
      <trkpt lat="48.71344" lon="1.98518">
        <ele>117.9</ele>
        <time>2008-04-06T09:39:04.000Z</time>
      </trkpt>
      <trkpt lat="48.71354" lon="1.98521">
        <ele>114.05</ele>
        <time>2008-04-06T09:39:10.000Z</time>
      </trkpt>
      <trkpt lat="48.71357" lon="1.98521">
        <ele>120.3</ele>
        <time>2008-04-06T09:39:15.000Z</time>
      </trkpt>
      <trkpt lat="48.71369" lon="1.98523">
        <ele>123.67</ele>
        <time>2008-04-06T09:39:23.000Z</time>
      </trkpt>
      <trkpt lat="48.71376" lon="1.98529">
        <ele>121.74</ele>
        <time>2008-04-06T09:39:30.000Z</time>
      </trkpt>
      <trkpt lat="48.71379" lon="1.98531">
        <ele>121.26</ele>
        <time>2008-04-06T09:39:32.000Z</time>
      </trkpt>
      <trkpt lat="48.71387" lon="1.98537">
        <ele>117.42</ele>
        <time>2008-04-06T09:39:37.000Z</time>
      </trkpt>
      <trkpt lat="48.71395" lon="1.98553">
        <ele>110.69</ele>
        <time>2008-04-06T09:39:44.000Z</time>
      </trkpt>
      <trkpt lat="48.71404" lon="1.9856">
        <ele>106.84</ele>
        <time>2008-04-06T09:39:49.000Z</time>
      </trkpt>
      <trkpt lat="48.71406" lon="1.98561">
        <ele>105.88</ele>
        <time>2008-04-06T09:39:50.000Z</time>
      </trkpt>
      <trkpt lat="48.7142" lon="1.98569">
        <ele>103.96</ele>
        <time>2008-04-06T09:39:57.000Z</time>
      </trkpt>
      <trkpt lat="48.71432" lon="1.98575">
        <ele>109.73</ele>
        <time>2008-04-06T09:40:02.000Z</time>
      </trkpt>
      <trkpt lat="48.71441" lon="1.98576">
        <ele>111.17</ele>
        <time>2008-04-06T09:40:07.000Z</time>
      </trkpt>
      <trkpt lat="48.71448" lon="1.98579">
        <ele>112.61</ele>
        <time>2008-04-06T09:40:11.000Z</time>
      </trkpt>
      <trkpt lat="48.71456" lon="1.98581">
        <ele>117.42</ele>
        <time>2008-04-06T09:40:16.000Z</time>
      </trkpt>
      <trkpt lat="48.71461" lon="1.98589">
        <ele>122.71</ele>
        <time>2008-04-06T09:40:22.000Z</time>
      </trkpt>
      <trkpt lat="48.71461" lon="1.9859">
        <ele>123.19</ele>
        <time>2008-04-06T09:40:23.000Z</time>
      </trkpt>
      <trkpt lat="48.71468" lon="1.9859">
        <ele>125.11</ele>
        <time>2008-04-06T09:40:29.000Z</time>
      </trkpt>
      <trkpt lat="48.71475" lon="1.98588">
        <ele>127.03</ele>
        <time>2008-04-06T09:40:35.000Z</time>
      </trkpt>
      <trkpt lat="48.71476" lon="1.98588">
        <ele>126.55</ele>
        <time>2008-04-06T09:40:36.000Z</time>
      </trkpt>
      <trkpt lat="48.71479" lon="1.98585">
        <ele>125.11</ele>
        <time>2008-04-06T09:40:38.000Z</time>
      </trkpt>
      <trkpt lat="48.71484" lon="1.98583">
        <ele>125.11</ele>
        <time>2008-04-06T09:40:42.000Z</time>
      </trkpt>
      <trkpt lat="48.7149" lon="1.98579">
        <ele>122.22</ele>
        <time>2008-04-06T09:40:47.000Z</time>
      </trkpt>
      <trkpt lat="48.71493" lon="1.98576">
        <ele>121.26</ele>
        <time>2008-04-06T09:40:51.000Z</time>
      </trkpt>
      <trkpt lat="48.71497" lon="1.98568">
        <ele>124.63</ele>
        <time>2008-04-06T09:40:58.000Z</time>
      </trkpt>
      <trkpt lat="48.71494" lon="1.98563">
        <ele>127.51</ele>
        <time>2008-04-06T09:41:03.000Z</time>
      </trkpt>
      <trkpt lat="48.7149" lon="1.98556">
        <ele>127.51</ele>
        <time>2008-04-06T09:41:08.000Z</time>
      </trkpt>
      <trkpt lat="48.71488" lon="1.98555">
        <ele>126.07</ele>
        <time>2008-04-06T09:41:10.000Z</time>
      </trkpt>
      <trkpt lat="48.71488" lon="1.98551">
        <ele>119.34</ele>
        <time>2008-04-06T09:41:18.000Z</time>
      </trkpt>
      <trkpt lat="48.71488" lon="1.98547">
        <ele>117.9</ele>
        <time>2008-04-06T09:41:25.000Z</time>
      </trkpt>
      <trkpt lat="48.71484" lon="1.9854">
        <ele>120.78</ele>
        <time>2008-04-06T09:41:32.000Z</time>
      </trkpt>
      <trkpt lat="48.71474" lon="1.9853">
        <ele>132.32</ele>
        <time>2008-04-06T09:41:54.000Z</time>
      </trkpt>
      <trkpt lat="48.71471" lon="1.98523">
        <ele>130.4</ele>
        <time>2008-04-06T09:42:06.000Z</time>
      </trkpt>
      <trkpt lat="48.71468" lon="1.98521">
        <ele>135.68</ele>
        <time>2008-04-06T09:42:15.000Z</time>
      </trkpt>
      <trkpt lat="48.71465" lon="1.98512">
        <ele>134.24</ele>
        <time>2008-04-06T09:42:32.000Z</time>
      </trkpt>
      <trkpt lat="48.7146" lon="1.98506">
        <ele>138.09</ele>
        <time>2008-04-06T09:42:43.000Z</time>
      </trkpt>
      <trkpt lat="48.71458" lon="1.98508">
        <ele>135.68</ele>
        <time>2008-04-06T09:42:47.000Z</time>
      </trkpt>
      <trkpt lat="48.7145" lon="1.985">
        <ele>135.2</ele>
        <time>2008-04-06T09:42:52.000Z</time>
      </trkpt>
      <trkpt lat="48.71444" lon="1.98496">
        <ele>135.68</ele>
        <time>2008-04-06T09:42:57.000Z</time>
      </trkpt>
      <trkpt lat="48.71442" lon="1.98491">
        <ele>137.13</ele>
        <time>2008-04-06T09:43:01.000Z</time>
      </trkpt>
      <trkpt lat="48.71439" lon="1.98486">
        <ele>137.61</ele>
        <time>2008-04-06T09:43:04.000Z</time>
      </trkpt>
      <trkpt lat="48.71439" lon="1.98481">
        <ele>136.64</ele>
        <time>2008-04-06T09:43:07.000Z</time>
      </trkpt>
      <trkpt lat="48.71439" lon="1.98476">
        <ele>139.05</ele>
        <time>2008-04-06T09:43:12.000Z</time>
      </trkpt>
      <trkpt lat="48.71442" lon="1.98467">
        <ele>143.37</ele>
        <time>2008-04-06T09:43:20.000Z</time>
      </trkpt>
      <trkpt lat="48.71441" lon="1.98458">
        <ele>142.41</ele>
        <time>2008-04-06T09:43:25.000Z</time>
      </trkpt>
      <trkpt lat="48.71436" lon="1.98449">
        <ele>142.89</ele>
        <time>2008-04-06T09:43:31.000Z</time>
      </trkpt>
      <trkpt lat="48.71428" lon="1.98444">
        <ele>141.45</ele>
        <time>2008-04-06T09:43:35.000Z</time>
      </trkpt>
      <trkpt lat="48.71426" lon="1.98444">
        <ele>140.97</ele>
        <time>2008-04-06T09:43:36.000Z</time>
      </trkpt>
      <trkpt lat="48.71422" lon="1.98443">
        <ele>140.49</ele>
        <time>2008-04-06T09:43:38.000Z</time>
      </trkpt>
      <trkpt lat="48.71416" lon="1.98437">
        <ele>137.13</ele>
        <time>2008-04-06T09:43:44.000Z</time>
      </trkpt>
      <trkpt lat="48.7141" lon="1.98433">
        <ele>136.64</ele>
        <time>2008-04-06T09:43:48.000Z</time>
      </trkpt>
      <trkpt lat="48.71408" lon="1.98421">
        <ele>131.84</ele>
        <time>2008-04-06T09:43:53.000Z</time>
      </trkpt>
      <trkpt lat="48.7141" lon="1.98417">
        <ele>131.84</ele>
        <time>2008-04-06T09:43:55.000Z</time>
      </trkpt>
      <trkpt lat="48.71415" lon="1.984">
        <ele>130.88</ele>
        <time>2008-04-06T09:44:02.000Z</time>
      </trkpt>
      <trkpt lat="48.71416" lon="1.98395">
        <ele>131.36</ele>
        <time>2008-04-06T09:44:04.000Z</time>
      </trkpt>
      <trkpt lat="48.71426" lon="1.98377">
        <ele>130.4</ele>
        <time>2008-04-06T09:44:11.000Z</time>
      </trkpt>
      <trkpt lat="48.71428" lon="1.98372">
        <ele>129.43</ele>
        <time>2008-04-06T09:44:13.000Z</time>
      </trkpt>
      <trkpt lat="48.71432" lon="1.98365">
        <ele>127.99</ele>
        <time>2008-04-06T09:44:17.000Z</time>
      </trkpt>
      <trkpt lat="48.71435" lon="1.98362">
        <ele>127.03</ele>
        <time>2008-04-06T09:44:19.000Z</time>
      </trkpt>
      <trkpt lat="48.71439" lon="1.98352">
        <ele>123.19</ele>
        <time>2008-04-06T09:44:24.000Z</time>
      </trkpt>
      <trkpt lat="48.71448" lon="1.98339">
        <ele>122.71</ele>
        <time>2008-04-06T09:44:30.000Z</time>
      </trkpt>
      <trkpt lat="48.71447" lon="1.98332">
        <ele>120.3</ele>
        <time>2008-04-06T09:44:33.000Z</time>
      </trkpt>
      <trkpt lat="48.71446" lon="1.98316">
        <ele>114.53</ele>
        <time>2008-04-06T09:44:39.000Z</time>
      </trkpt>
      <trkpt lat="48.71446" lon="1.98312">
        <ele>111.17</ele>
        <time>2008-04-06T09:44:41.000Z</time>
      </trkpt>
      <trkpt lat="48.71444" lon="1.98298">
        <ele>106.84</ele>
        <time>2008-04-06T09:44:47.000Z</time>
      </trkpt>
      <trkpt lat="48.71448" lon="1.98285">
        <ele>110.21</ele>
        <time>2008-04-06T09:44:51.000Z</time>
      </trkpt>
      <trkpt lat="48.7145" lon="1.98284">
        <ele>109.25</ele>
        <time>2008-04-06T09:44:54.000Z</time>
      </trkpt>
      <trkpt lat="48.71455" lon="1.98282">
        <ele>111.17</ele>
        <time>2008-04-06T09:44:58.000Z</time>
      </trkpt>
      <trkpt lat="48.7146" lon="1.98277">
        <ele>111.65</ele>
        <time>2008-04-06T09:45:00.000Z</time>
      </trkpt>
      <trkpt lat="48.71469" lon="1.98284">
        <ele>114.05</ele>
        <time>2008-04-06T09:45:06.000Z</time>
      </trkpt>
      <trkpt lat="48.7148" lon="1.98284">
        <ele>117.42</ele>
        <time>2008-04-06T09:45:12.000Z</time>
      </trkpt>
      <trkpt lat="48.71497" lon="1.98277">
        <ele>123.19</ele>
        <time>2008-04-06T09:45:17.000Z</time>
      </trkpt>
      <trkpt lat="48.71507" lon="1.98272">
        <ele>126.07</ele>
        <time>2008-04-06T09:45:21.000Z</time>
      </trkpt>
      <trkpt lat="48.71513" lon="1.98277">
        <ele>129.92</ele>
        <time>2008-04-06T09:45:24.000Z</time>
      </trkpt>
      <trkpt lat="48.7152" lon="1.98291">
        <ele>126.07</ele>
        <time>2008-04-06T09:45:30.000Z</time>
      </trkpt>
      <trkpt lat="48.71525" lon="1.98296">
        <ele>124.63</ele>
        <time>2008-04-06T09:45:34.000Z</time>
      </trkpt>
      <trkpt lat="48.71529" lon="1.98299">
        <ele>124.15</ele>
        <time>2008-04-06T09:45:37.000Z</time>
      </trkpt>
      <trkpt lat="48.7154" lon="1.98299">
        <ele>131.36</ele>
        <time>2008-04-06T09:45:43.000Z</time>
      </trkpt>
      <trkpt lat="48.71544" lon="1.98299">
        <ele>133.28</ele>
        <time>2008-04-06T09:45:51.000Z</time>
      </trkpt>
      <trkpt lat="48.71547" lon="1.98297">
        <ele>135.2</ele>
        <time>2008-04-06T09:45:56.000Z</time>
      </trkpt>
      <trkpt lat="48.71552" lon="1.98297">
        <ele>135.68</ele>
        <time>2008-04-06T09:45:59.000Z</time>
      </trkpt>
      <trkpt lat="48.7156" lon="1.98303">
        <ele>137.13</ele>
        <time>2008-04-06T09:46:06.000Z</time>
      </trkpt>
      <trkpt lat="48.71573" lon="1.98307">
        <ele>137.13</ele>
        <time>2008-04-06T09:46:12.000Z</time>
      </trkpt>
      <trkpt lat="48.7158" lon="1.98315">
        <ele>140.01</ele>
        <time>2008-04-06T09:46:17.000Z</time>
      </trkpt>
      <trkpt lat="48.71589" lon="1.98324">
        <ele>137.61</ele>
        <time>2008-04-06T09:46:24.000Z</time>
      </trkpt>
      <trkpt lat="48.71598" lon="1.98331">
        <ele>137.13</ele>
        <time>2008-04-06T09:46:32.000Z</time>
      </trkpt>
      <trkpt lat="48.71605" lon="1.9834">
        <ele>138.09</ele>
        <time>2008-04-06T09:46:38.000Z</time>
      </trkpt>
      <trkpt lat="48.71605" lon="1.98342">
        <ele>142.41</ele>
        <time>2008-04-06T09:46:43.000Z</time>
      </trkpt>
      <trkpt lat="48.7161" lon="1.98343">
        <ele>141.45</ele>
        <time>2008-04-06T09:46:49.000Z</time>
      </trkpt>
      <trkpt lat="48.71612" lon="1.98345">
        <ele>140.97</ele>
        <time>2008-04-06T09:46:51.000Z</time>
      </trkpt>
      <trkpt lat="48.71617" lon="1.98341">
        <ele>142.89</ele>
        <time>2008-04-06T09:47:00.000Z</time>
      </trkpt>
      <trkpt lat="48.71621" lon="1.98341">
        <ele>144.82</ele>
        <time>2008-04-06T09:47:04.000Z</time>
      </trkpt>
      <trkpt lat="48.71627" lon="1.98339">
        <ele>144.34</ele>
        <time>2008-04-06T09:47:09.000Z</time>
      </trkpt>
      <trkpt lat="48.71636" lon="1.98337">
        <ele>148.66</ele>
        <time>2008-04-06T09:47:16.000Z</time>
      </trkpt>
      <trkpt lat="48.71643" lon="1.98335">
        <ele>146.26</ele>
        <time>2008-04-06T09:47:22.000Z</time>
      </trkpt>
      <trkpt lat="48.71648" lon="1.98334">
        <ele>144.34</ele>
        <time>2008-04-06T09:47:26.000Z</time>
      </trkpt>
      <trkpt lat="48.71649" lon="1.98328">
        <ele>144.34</ele>
        <time>2008-04-06T09:47:30.000Z</time>
      </trkpt>
      <trkpt lat="48.71657" lon="1.9832">
        <ele>146.74</ele>
        <time>2008-04-06T09:47:37.000Z</time>
      </trkpt>
      <trkpt lat="48.71661" lon="1.98303">
        <ele>148.66</ele>
        <time>2008-04-06T09:47:48.000Z</time>
      </trkpt>
      <trkpt lat="48.71663" lon="1.98294">
        <ele>142.41</ele>
        <time>2008-04-06T09:47:54.000Z</time>
      </trkpt>
      <trkpt lat="48.71664" lon="1.98284">
        <ele>147.7</ele>
        <time>2008-04-06T09:48:00.000Z</time>
      </trkpt>
      <trkpt lat="48.71664" lon="1.9828">
        <ele>151.06</ele>
        <time>2008-04-06T09:48:06.000Z</time>
      </trkpt>
      <trkpt lat="48.71664" lon="1.98275">
        <ele>153.95</ele>
        <time>2008-04-06T09:48:09.000Z</time>
      </trkpt>
      <trkpt lat="48.71667" lon="1.98268">
        <ele>155.39</ele>
        <time>2008-04-06T09:48:18.000Z</time>
      </trkpt>
      <trkpt lat="48.71668" lon="1.98256">
        <ele>153.95</ele>
        <time>2008-04-06T09:48:27.000Z</time>
      </trkpt>
      <trkpt lat="48.71672" lon="1.98238">
        <ele>156.83</ele>
        <time>2008-04-06T09:48:42.000Z</time>
      </trkpt>
      <trkpt lat="48.71673" lon="1.98231">
        <ele>159.24</ele>
        <time>2008-04-06T09:48:51.000Z</time>
      </trkpt>
      <trkpt lat="48.71671" lon="1.98224">
        <ele>159.24</ele>
        <time>2008-04-06T09:48:58.000Z</time>
      </trkpt>
      <trkpt lat="48.71672" lon="1.98219">
        <ele>156.83</ele>
        <time>2008-04-06T09:49:04.000Z</time>
      </trkpt>
      <trkpt lat="48.71672" lon="1.98215">
        <ele>156.83</ele>
        <time>2008-04-06T09:49:09.000Z</time>
      </trkpt>
      <trkpt lat="48.71672" lon="1.98203">
        <ele>160.2</ele>
        <time>2008-04-06T09:49:16.000Z</time>
      </trkpt>
      <trkpt lat="48.71675" lon="1.98196">
        <ele>160.68</ele>
        <time>2008-04-06T09:49:22.000Z</time>
      </trkpt>
      <trkpt lat="48.71678" lon="1.98191">
        <ele>160.68</ele>
        <time>2008-04-06T09:49:28.000Z</time>
      </trkpt>
      <trkpt lat="48.71675" lon="1.98186">
        <ele>160.68</ele>
        <time>2008-04-06T09:49:32.000Z</time>
      </trkpt>
      <trkpt lat="48.7167" lon="1.98175">
        <ele>158.27</ele>
        <time>2008-04-06T09:49:38.000Z</time>
      </trkpt>
      <trkpt lat="48.71663" lon="1.98174">
        <ele>157.31</ele>
        <time>2008-04-06T09:49:41.000Z</time>
      </trkpt>
      <trkpt lat="48.71648" lon="1.98175">
        <ele>152.99</ele>
        <time>2008-04-06T09:49:47.000Z</time>
      </trkpt>
      <trkpt lat="48.71638" lon="1.9817">
        <ele>150.1</ele>
        <time>2008-04-06T09:49:52.000Z</time>
      </trkpt>
      <trkpt lat="48.71629" lon="1.98163">
        <ele>150.1</ele>
        <time>2008-04-06T09:49:57.000Z</time>
      </trkpt>
      <trkpt lat="48.71627" lon="1.98161">
        <ele>149.14</ele>
        <time>2008-04-06T09:49:58.000Z</time>
      </trkpt>
      <trkpt lat="48.7161" lon="1.9815">
        <ele>147.7</ele>
        <time>2008-04-06T09:50:06.000Z</time>
      </trkpt>
      <trkpt lat="48.716" lon="1.98142">
        <ele>150.1</ele>
        <time>2008-04-06T09:50:10.000Z</time>
      </trkpt>
      <trkpt lat="48.7159" lon="1.98128">
        <ele>150.1</ele>
        <time>2008-04-06T09:50:15.000Z</time>
      </trkpt>
      <trkpt lat="48.71584" lon="1.98115">
        <ele>149.14</ele>
        <time>2008-04-06T09:50:20.000Z</time>
      </trkpt>
      <trkpt lat="48.7158" lon="1.98105">
        <ele>148.18</ele>
        <time>2008-04-06T09:50:23.000Z</time>
      </trkpt>
      <trkpt lat="48.71577" lon="1.98087">
        <ele>148.18</ele>
        <time>2008-04-06T09:50:30.000Z</time>
      </trkpt>
      <trkpt lat="48.71577" lon="1.98083">
        <ele>147.22</ele>
        <time>2008-04-06T09:50:32.000Z</time>
      </trkpt>
      <trkpt lat="48.71575" lon="1.98065">
        <ele>150.58</ele>
        <time>2008-04-06T09:50:38.000Z</time>
      </trkpt>
      <trkpt lat="48.71571" lon="1.98054">
        <ele>151.54</ele>
        <time>2008-04-06T09:50:43.000Z</time>
      </trkpt>
      <trkpt lat="48.71569" lon="1.98052">
        <ele>152.03</ele>
        <time>2008-04-06T09:50:44.000Z</time>
      </trkpt>
      <trkpt lat="48.71554" lon="1.98047">
        <ele>155.87</ele>
        <time>2008-04-06T09:50:51.000Z</time>
      </trkpt>
      <trkpt lat="48.71552" lon="1.98045">
        <ele>156.83</ele>
        <time>2008-04-06T09:50:52.000Z</time>
      </trkpt>
      <trkpt lat="48.71539" lon="1.98043">
        <ele>155.87</ele>
        <time>2008-04-06T09:50:57.000Z</time>
      </trkpt>
      <trkpt lat="48.71531" lon="1.98032">
        <ele>152.99</ele>
        <time>2008-04-06T09:51:02.000Z</time>
      </trkpt>
      <trkpt lat="48.71527" lon="1.98025">
        <ele>149.62</ele>
        <time>2008-04-06T09:51:06.000Z</time>
      </trkpt>
      <trkpt lat="48.71526" lon="1.98022">
        <ele>149.62</ele>
        <time>2008-04-06T09:51:07.000Z</time>
      </trkpt>
      <trkpt lat="48.71524" lon="1.98018">
        <ele>146.74</ele>
        <time>2008-04-06T09:51:10.000Z</time>
      </trkpt>
      <trkpt lat="48.71518" lon="1.98012">
        <ele>144.82</ele>
        <time>2008-04-06T09:51:16.000Z</time>
      </trkpt>
      <trkpt lat="48.71516" lon="1.98013">
        <ele>143.37</ele>
        <time>2008-04-06T09:51:18.000Z</time>
      </trkpt>
      <trkpt lat="48.71515" lon="1.9801">
        <ele>139.05</ele>
        <time>2008-04-06T09:51:22.000Z</time>
      </trkpt>
      <trkpt lat="48.71511" lon="1.98007">
        <ele>136.64</ele>
        <time>2008-04-06T09:51:26.000Z</time>
      </trkpt>
      <trkpt lat="48.71508" lon="1.98004">
        <ele>134.24</ele>
        <time>2008-04-06T09:51:30.000Z</time>
      </trkpt>
      <trkpt lat="48.71508" lon="1.97996">
        <ele>131.36</ele>
        <time>2008-04-06T09:51:34.000Z</time>
      </trkpt>
      <trkpt lat="48.71507" lon="1.97982">
        <ele>128.47</ele>
        <time>2008-04-06T09:51:40.000Z</time>
      </trkpt>
      <trkpt lat="48.71513" lon="1.97969">
        <ele>128.95</ele>
        <time>2008-04-06T09:51:46.000Z</time>
      </trkpt>
      <trkpt lat="48.71516" lon="1.97963">
        <ele>129.43</ele>
        <time>2008-04-06T09:51:51.000Z</time>
      </trkpt>
      <trkpt lat="48.71525" lon="1.97954">
        <ele>134.72</ele>
        <time>2008-04-06T09:51:56.000Z</time>
      </trkpt>
      <trkpt lat="48.71525" lon="1.97944">
        <ele>135.2</ele>
        <time>2008-04-06T09:52:03.000Z</time>
      </trkpt>
      <trkpt lat="48.71524" lon="1.9794">
        <ele>139.53</ele>
        <time>2008-04-06T09:52:06.000Z</time>
      </trkpt>
      <trkpt lat="48.71524" lon="1.97931">
        <ele>144.34</ele>
        <time>2008-04-06T09:52:13.000Z</time>
      </trkpt>
      <trkpt lat="48.71525" lon="1.97928">
        <ele>143.37</ele>
        <time>2008-04-06T09:52:15.000Z</time>
      </trkpt>
      <trkpt lat="48.71525" lon="1.97912">
        <ele>139.53</ele>
        <time>2008-04-06T09:52:22.000Z</time>
      </trkpt>
      <trkpt lat="48.7153" lon="1.97902">
        <ele>135.68</ele>
        <time>2008-04-06T09:52:26.000Z</time>
      </trkpt>
      <trkpt lat="48.71532" lon="1.97896">
        <ele>134.24</ele>
        <time>2008-04-06T09:52:28.000Z</time>
      </trkpt>
      <trkpt lat="48.71531" lon="1.97887">
        <ele>130.4</ele>
        <time>2008-04-06T09:52:34.000Z</time>
      </trkpt>
      <trkpt lat="48.71529" lon="1.97885">
        <ele>129.92</ele>
        <time>2008-04-06T09:52:35.000Z</time>
      </trkpt>
      <trkpt lat="48.71527" lon="1.97884">
        <ele>128.47</ele>
        <time>2008-04-06T09:52:39.000Z</time>
      </trkpt>
      <trkpt lat="48.71525" lon="1.9787">
        <ele>127.51</ele>
        <time>2008-04-06T09:52:45.000Z</time>
      </trkpt>
      <trkpt lat="48.71525" lon="1.97865">
        <ele>126.07</ele>
        <time>2008-04-06T09:52:48.000Z</time>
      </trkpt>
      <trkpt lat="48.71524" lon="1.97853">
        <ele>123.19</ele>
        <time>2008-04-06T09:52:54.000Z</time>
      </trkpt>
      <trkpt lat="48.71524" lon="1.97841">
        <ele>119.82</ele>
        <time>2008-04-06T09:52:59.000Z</time>
      </trkpt>
      <trkpt lat="48.71525" lon="1.97831">
        <ele>115.01</ele>
        <time>2008-04-06T09:53:04.000Z</time>
      </trkpt>
      <trkpt lat="48.71525" lon="1.97828">
        <ele>114.05</ele>
        <time>2008-04-06T09:53:05.000Z</time>
      </trkpt>
      <trkpt lat="48.71528" lon="1.97814">
        <ele>114.53</ele>
        <time>2008-04-06T09:53:12.000Z</time>
      </trkpt>
      <trkpt lat="48.71534" lon="1.97798">
        <ele>120.3</ele>
        <time>2008-04-06T09:53:18.000Z</time>
      </trkpt>
      <trkpt lat="48.71537" lon="1.97791">
        <ele>125.59</ele>
        <time>2008-04-06T09:53:25.000Z</time>
      </trkpt>
      <trkpt lat="48.71541" lon="1.97787">
        <ele>128.47</ele>
        <time>2008-04-06T09:53:29.000Z</time>
      </trkpt>
      <trkpt lat="48.71542" lon="1.97782">
        <ele>128.95</ele>
        <time>2008-04-06T09:53:31.000Z</time>
      </trkpt>
      <trkpt lat="48.71544" lon="1.97774">
        <ele>121.74</ele>
        <time>2008-04-06T09:53:37.000Z</time>
      </trkpt>
      <trkpt lat="48.71547" lon="1.97762">
        <ele>120.3</ele>
        <time>2008-04-06T09:53:41.000Z</time>
      </trkpt>
      <trkpt lat="48.7155" lon="1.97751">
        <ele>121.26</ele>
        <time>2008-04-06T09:53:47.000Z</time>
      </trkpt>
      <trkpt lat="48.71549" lon="1.97744">
        <ele>119.82</ele>
        <time>2008-04-06T09:53:52.000Z</time>
      </trkpt>
      <trkpt lat="48.7155" lon="1.97732">
        <ele>124.63</ele>
        <time>2008-04-06T09:53:58.000Z</time>
      </trkpt>
      <trkpt lat="48.71558" lon="1.97729">
        <ele>127.51</ele>
        <time>2008-04-06T09:54:09.000Z</time>
      </trkpt>
      <trkpt lat="48.71574" lon="1.97733">
        <ele>128.95</ele>
        <time>2008-04-06T09:54:14.000Z</time>
      </trkpt>
      <trkpt lat="48.71573" lon="1.97746">
        <ele>131.36</ele>
        <time>2008-04-06T09:54:21.000Z</time>
      </trkpt>
      <trkpt lat="48.71576" lon="1.97747">
        <ele>139.53</ele>
        <time>2008-04-06T09:54:29.000Z</time>
      </trkpt>
      <trkpt lat="48.7158" lon="1.97741">
        <ele>140.01</ele>
        <time>2008-04-06T09:54:38.000Z</time>
      </trkpt>
      <trkpt lat="48.71583" lon="1.97734">
        <ele>141.93</ele>
        <time>2008-04-06T09:54:43.000Z</time>
      </trkpt>
      <trkpt lat="48.71585" lon="1.97738">
        <ele>143.37</ele>
        <time>2008-04-06T09:54:46.000Z</time>
      </trkpt>
      <trkpt lat="48.71587" lon="1.97741">
        <ele>141.45</ele>
        <time>2008-04-06T09:54:52.000Z</time>
      </trkpt>
      <trkpt lat="48.7159" lon="1.9774">
        <ele>145.3</ele>
        <time>2008-04-06T09:55:00.000Z</time>
      </trkpt>
      <trkpt lat="48.71587" lon="1.97731">
        <ele>143.37</ele>
        <time>2008-04-06T09:55:05.000Z</time>
      </trkpt>
      <trkpt lat="48.71585" lon="1.97721">
        <ele>141.45</ele>
        <time>2008-04-06T09:55:10.000Z</time>
      </trkpt>
      <trkpt lat="48.7159" lon="1.97712">
        <ele>133.28</ele>
        <time>2008-04-06T09:55:16.000Z</time>
      </trkpt>
      <trkpt lat="48.71589" lon="1.97706">
        <ele>131.36</ele>
        <time>2008-04-06T09:55:19.000Z</time>
      </trkpt>
      <trkpt lat="48.71583" lon="1.97698">
        <ele>129.92</ele>
        <time>2008-04-06T09:55:24.000Z</time>
      </trkpt>
      <trkpt lat="48.71583" lon="1.97688">
        <ele>127.51</ele>
        <time>2008-04-06T09:55:28.000Z</time>
      </trkpt>
      <trkpt lat="48.71584" lon="1.9768">
        <ele>124.15</ele>
        <time>2008-04-06T09:55:31.000Z</time>
      </trkpt>
      <trkpt lat="48.71585" lon="1.97666">
        <ele>119.82</ele>
        <time>2008-04-06T09:55:36.000Z</time>
      </trkpt>
      <trkpt lat="48.71586" lon="1.97647">
        <ele>116.94</ele>
        <time>2008-04-06T09:55:41.000Z</time>
      </trkpt>
      <trkpt lat="48.71585" lon="1.97628">
        <ele>114.53</ele>
        <time>2008-04-06T09:55:45.000Z</time>
      </trkpt>
      <trkpt lat="48.71592" lon="1.97619">
        <ele>114.53</ele>
        <time>2008-04-06T09:55:51.000Z</time>
      </trkpt>
      <trkpt lat="48.71591" lon="1.97614">
        <ele>114.05</ele>
        <time>2008-04-06T09:55:53.000Z</time>
      </trkpt>
      <trkpt lat="48.71588" lon="1.97605">
        <ele>114.53</ele>
        <time>2008-04-06T09:55:57.000Z</time>
      </trkpt>
      <trkpt lat="48.7159" lon="1.97599">
        <ele>118.38</ele>
        <time>2008-04-06T09:56:00.000Z</time>
      </trkpt>
      <trkpt lat="48.71597" lon="1.97583">
        <ele>125.59</ele>
        <time>2008-04-06T09:56:09.000Z</time>
      </trkpt>
      <trkpt lat="48.71608" lon="1.97578">
        <ele>134.24</ele>
        <time>2008-04-06T09:56:15.000Z</time>
      </trkpt>
      <trkpt lat="48.71618" lon="1.97574">
        <ele>140.97</ele>
        <time>2008-04-06T09:56:21.000Z</time>
      </trkpt>
      <trkpt lat="48.71625" lon="1.97574">
        <ele>141.45</ele>
        <time>2008-04-06T09:56:27.000Z</time>
      </trkpt>
      <trkpt lat="48.71632" lon="1.97577">
        <ele>136.16</ele>
        <time>2008-04-06T09:56:34.000Z</time>
      </trkpt>
      <trkpt lat="48.71635" lon="1.97582">
        <ele>135.2</ele>
        <time>2008-04-06T09:56:37.000Z</time>
      </trkpt>
      <trkpt lat="48.71633" lon="1.97595">
        <ele>132.32</ele>
        <time>2008-04-06T09:56:44.000Z</time>
      </trkpt>
      <trkpt lat="48.71632" lon="1.97598">
        <ele>133.28</ele>
        <time>2008-04-06T09:56:49.000Z</time>
      </trkpt>
      <trkpt lat="48.71636" lon="1.97601">
        <ele>137.13</ele>
        <time>2008-04-06T09:56:54.000Z</time>
      </trkpt>
      <trkpt lat="48.71638" lon="1.97601">
        <ele>138.09</ele>
        <time>2008-04-06T09:56:57.000Z</time>
      </trkpt>
      <trkpt lat="48.71642" lon="1.97602">
        <ele>138.09</ele>
        <time>2008-04-06T09:57:02.000Z</time>
      </trkpt>
      <trkpt lat="48.71646" lon="1.97607">
        <ele>140.97</ele>
        <time>2008-04-06T09:57:09.000Z</time>
      </trkpt>
      <trkpt lat="48.71651" lon="1.97609">
        <ele>138.57</ele>
        <time>2008-04-06T09:57:14.000Z</time>
      </trkpt>
      <trkpt lat="48.71657" lon="1.97615">
        <ele>137.61</ele>
        <time>2008-04-06T09:57:19.000Z</time>
      </trkpt>
      <trkpt lat="48.71658" lon="1.97618">
        <ele>138.57</ele>
        <time>2008-04-06T09:57:21.000Z</time>
      </trkpt>
      <trkpt lat="48.71665" lon="1.97616">
        <ele>145.3</ele>
        <time>2008-04-06T09:57:27.000Z</time>
      </trkpt>
      <trkpt lat="48.71667" lon="1.97615">
        <ele>146.26</ele>
        <time>2008-04-06T09:57:29.000Z</time>
      </trkpt>
      <trkpt lat="48.71677" lon="1.97612">
        <ele>151.06</ele>
        <time>2008-04-06T09:57:36.000Z</time>
      </trkpt>
      <trkpt lat="48.71681" lon="1.97615">
        <ele>150.1</ele>
        <time>2008-04-06T09:57:42.000Z</time>
      </trkpt>
      <trkpt lat="48.71685" lon="1.97611">
        <ele>149.62</ele>
        <time>2008-04-06T09:57:48.000Z</time>
      </trkpt>
      <trkpt lat="48.71692" lon="1.97611">
        <ele>152.99</ele>
        <time>2008-04-06T09:57:58.000Z</time>
      </trkpt>
      <trkpt lat="48.717" lon="1.97607">
        <ele>158.27</ele>
        <time>2008-04-06T09:58:10.000Z</time>
      </trkpt>
      <trkpt lat="48.71704" lon="1.97601">
        <ele>156.83</ele>
        <time>2008-04-06T09:58:16.000Z</time>
      </trkpt>
      <trkpt lat="48.71704" lon="1.97599">
        <ele>157.31</ele>
        <time>2008-04-06T09:58:17.000Z</time>
      </trkpt>
      <trkpt lat="48.71707" lon="1.97594">
        <ele>157.79</ele>
        <time>2008-04-06T09:58:21.000Z</time>
      </trkpt>
      <trkpt lat="48.71708" lon="1.9759">
        <ele>155.39</ele>
        <time>2008-04-06T09:58:24.000Z</time>
      </trkpt>
      <trkpt lat="48.71712" lon="1.97587">
        <ele>156.83</ele>
        <time>2008-04-06T09:58:29.000Z</time>
      </trkpt>
      <trkpt lat="48.71711" lon="1.97584">
        <ele>153.47</ele>
        <time>2008-04-06T09:58:32.000Z</time>
      </trkpt>
      <trkpt lat="48.71714" lon="1.97577">
        <ele>152.99</ele>
        <time>2008-04-06T09:58:35.000Z</time>
      </trkpt>
      <trkpt lat="48.71713" lon="1.97561">
        <ele>152.99</ele>
        <time>2008-04-06T09:58:41.000Z</time>
      </trkpt>
      <trkpt lat="48.71716" lon="1.9755">
        <ele>151.06</ele>
        <time>2008-04-06T09:58:45.000Z</time>
      </trkpt>
      <trkpt lat="48.71715" lon="1.97541">
        <ele>148.18</ele>
        <time>2008-04-06T09:58:50.000Z</time>
      </trkpt>
      <trkpt lat="48.71714" lon="1.97536">
        <ele>147.22</ele>
        <time>2008-04-06T09:58:53.000Z</time>
      </trkpt>
      <trkpt lat="48.71714" lon="1.97524">
        <ele>147.7</ele>
        <time>2008-04-06T09:58:57.000Z</time>
      </trkpt>
      <trkpt lat="48.71721" lon="1.97516">
        <ele>146.74</ele>
        <time>2008-04-06T09:59:03.000Z</time>
      </trkpt>
      <trkpt lat="48.71723" lon="1.97512">
        <ele>146.74</ele>
        <time>2008-04-06T09:59:05.000Z</time>
      </trkpt>
      <trkpt lat="48.71727" lon="1.97495">
        <ele>145.78</ele>
        <time>2008-04-06T09:59:12.000Z</time>
      </trkpt>
      <trkpt lat="48.71737" lon="1.97486">
        <ele>150.58</ele>
        <time>2008-04-06T09:59:19.000Z</time>
      </trkpt>
      <trkpt lat="48.71741" lon="1.97483">
        <ele>152.51</ele>
        <time>2008-04-06T09:59:28.000Z</time>
      </trkpt>
      <trkpt lat="48.71742" lon="1.97479">
        <ele>152.51</ele>
        <time>2008-04-06T09:59:31.000Z</time>
      </trkpt>
      <trkpt lat="48.71745" lon="1.97469">
        <ele>152.51</ele>
        <time>2008-04-06T09:59:37.000Z</time>
      </trkpt>
      <trkpt lat="48.71746" lon="1.97458">
        <ele>152.03</ele>
        <time>2008-04-06T09:59:43.000Z</time>
      </trkpt>
      <trkpt lat="48.71748" lon="1.9745">
        <ele>153.47</ele>
        <time>2008-04-06T09:59:48.000Z</time>
      </trkpt>
      <trkpt lat="48.7175" lon="1.9744">
        <ele>150.1</ele>
        <time>2008-04-06T09:59:53.000Z</time>
      </trkpt>
      <trkpt lat="48.71751" lon="1.97428">
        <ele>147.22</ele>
        <time>2008-04-06T09:59:58.000Z</time>
      </trkpt>
      <trkpt lat="48.71749" lon="1.97415">
        <ele>142.89</ele>
        <time>2008-04-06T10:00:03.000Z</time>
      </trkpt>
      <trkpt lat="48.71752" lon="1.97398">
        <ele>139.53</ele>
        <time>2008-04-06T10:00:08.000Z</time>
      </trkpt>
      <trkpt lat="48.71756" lon="1.97383">
        <ele>138.09</ele>
        <time>2008-04-06T10:00:13.000Z</time>
      </trkpt>
      <trkpt lat="48.71757" lon="1.97376">
        <ele>137.13</ele>
        <time>2008-04-06T10:00:16.000Z</time>
      </trkpt>
      <trkpt lat="48.71763" lon="1.97364">
        <ele>135.68</ele>
        <time>2008-04-06T10:00:22.000Z</time>
      </trkpt>
      <trkpt lat="48.71764" lon="1.97361">
        <ele>136.16</ele>
        <time>2008-04-06T10:00:23.000Z</time>
      </trkpt>
      <trkpt lat="48.71764" lon="1.97358">
        <ele>135.2</ele>
        <time>2008-04-06T10:00:25.000Z</time>
      </trkpt>
      <trkpt lat="48.71764" lon="1.97349">
        <ele>134.24</ele>
        <time>2008-04-06T10:00:29.000Z</time>
      </trkpt>
      <trkpt lat="48.71762" lon="1.97345">
        <ele>130.88</ele>
        <time>2008-04-06T10:00:31.000Z</time>
      </trkpt>
      <trkpt lat="48.71753" lon="1.97346">
        <ele>131.84</ele>
        <time>2008-04-06T10:00:37.000Z</time>
      </trkpt>
      <trkpt lat="48.71749" lon="1.97342">
        <ele>131.84</ele>
        <time>2008-04-06T10:00:40.000Z</time>
      </trkpt>
      <trkpt lat="48.71749" lon="1.97338">
        <ele>131.36</ele>
        <time>2008-04-06T10:00:42.000Z</time>
      </trkpt>
      <trkpt lat="48.71747" lon="1.97326">
        <ele>130.4</ele>
        <time>2008-04-06T10:00:47.000Z</time>
      </trkpt>
      <trkpt lat="48.71746" lon="1.97323">
        <ele>128.95</ele>
        <time>2008-04-06T10:00:49.000Z</time>
      </trkpt>
      <trkpt lat="48.71742" lon="1.97305">
        <ele>127.03</ele>
        <time>2008-04-06T10:00:54.000Z</time>
      </trkpt>
      <trkpt lat="48.71742" lon="1.97303">
        <ele>126.07</ele>
        <time>2008-04-06T10:00:55.000Z</time>
      </trkpt>
      <trkpt lat="48.71741" lon="1.97297">
        <ele>125.11</ele>
        <time>2008-04-06T10:00:57.000Z</time>
      </trkpt>
      <trkpt lat="48.71745" lon="1.97278">
        <ele>123.67</ele>
        <time>2008-04-06T10:01:03.000Z</time>
      </trkpt>
      <trkpt lat="48.71747" lon="1.97275">
        <ele>122.22</ele>
        <time>2008-04-06T10:01:04.000Z</time>
      </trkpt>
      <trkpt lat="48.71751" lon="1.97269">
        <ele>123.67</ele>
        <time>2008-04-06T10:01:06.000Z</time>
      </trkpt>
      <trkpt lat="48.71757" lon="1.97251">
        <ele>123.67</ele>
        <time>2008-04-06T10:01:11.000Z</time>
      </trkpt>
      <trkpt lat="48.7176" lon="1.97245">
        <ele>125.11</ele>
        <time>2008-04-06T10:01:13.000Z</time>
      </trkpt>
      <trkpt lat="48.71769" lon="1.9723">
        <ele>130.4</ele>
        <time>2008-04-06T10:01:19.000Z</time>
      </trkpt>
      <trkpt lat="48.7178" lon="1.9722">
        <ele>136.16</ele>
        <time>2008-04-06T10:01:25.000Z</time>
      </trkpt>
      <trkpt lat="48.71781" lon="1.97224">
        <ele>136.64</ele>
        <time>2008-04-06T10:01:28.000Z</time>
      </trkpt>
      <trkpt lat="48.71783" lon="1.97222">
        <ele>133.28</ele>
        <time>2008-04-06T10:01:36.000Z</time>
      </trkpt>
      <trkpt lat="48.71788" lon="1.97223">
        <ele>137.13</ele>
        <time>2008-04-06T10:01:42.000Z</time>
      </trkpt>
      <trkpt lat="48.7179" lon="1.97222">
        <ele>136.64</ele>
        <time>2008-04-06T10:01:47.000Z</time>
      </trkpt>
      <trkpt lat="48.71793" lon="1.97218">
        <ele>136.16</ele>
        <time>2008-04-06T10:01:54.000Z</time>
      </trkpt>
      <trkpt lat="48.71796" lon="1.97214">
        <ele>138.09</ele>
        <time>2008-04-06T10:02:03.000Z</time>
      </trkpt>
      <trkpt lat="48.718" lon="1.97213">
        <ele>139.05</ele>
        <time>2008-04-06T10:02:08.000Z</time>
      </trkpt>
      <trkpt lat="48.71803" lon="1.97209">
        <ele>139.05</ele>
        <time>2008-04-06T10:02:14.000Z</time>
      </trkpt>
      <trkpt lat="48.71805" lon="1.97204">
        <ele>140.97</ele>
        <time>2008-04-06T10:02:20.000Z</time>
      </trkpt>
      <trkpt lat="48.71807" lon="1.97199">
        <ele>141.93</ele>
        <time>2008-04-06T10:02:26.000Z</time>
      </trkpt>
      <trkpt lat="48.71812" lon="1.972">
        <ele>141.93</ele>
        <time>2008-04-06T10:02:33.000Z</time>
      </trkpt>
      <trkpt lat="48.71814" lon="1.97193">
        <ele>140.49</ele>
        <time>2008-04-06T10:02:39.000Z</time>
      </trkpt>
      <trkpt lat="48.71815" lon="1.97187">
        <ele>140.01</ele>
        <time>2008-04-06T10:02:44.000Z</time>
      </trkpt>
      <trkpt lat="48.71817" lon="1.97184">
        <ele>140.49</ele>
        <time>2008-04-06T10:02:46.000Z</time>
      </trkpt>
      <trkpt lat="48.71822" lon="1.97176">
        <ele>141.45</ele>
        <time>2008-04-06T10:02:51.000Z</time>
      </trkpt>
      <trkpt lat="48.71824" lon="1.97174">
        <ele>141.45</ele>
        <time>2008-04-06T10:02:54.000Z</time>
      </trkpt>
      <trkpt lat="48.71829" lon="1.97177">
        <ele>140.49</ele>
        <time>2008-04-06T10:03:00.000Z</time>
      </trkpt>
      <trkpt lat="48.71831" lon="1.97178">
        <ele>141.93</ele>
        <time>2008-04-06T10:03:01.000Z</time>
      </trkpt>
      <trkpt lat="48.71835" lon="1.97181">
        <ele>140.97</ele>
        <time>2008-04-06T10:03:05.000Z</time>
      </trkpt>
      <trkpt lat="48.7184" lon="1.9718">
        <ele>142.89</ele>
        <time>2008-04-06T10:03:10.000Z</time>
      </trkpt>
      <trkpt lat="48.71845" lon="1.9718">
        <ele>142.41</ele>
        <time>2008-04-06T10:03:14.000Z</time>
      </trkpt>
      <trkpt lat="48.71846" lon="1.9718">
        <ele>142.89</ele>
        <time>2008-04-06T10:03:15.000Z</time>
      </trkpt>
      <trkpt lat="48.71847" lon="1.97181">
        <ele>142.41</ele>
        <time>2008-04-06T10:03:17.000Z</time>
      </trkpt>
      <trkpt lat="48.71848" lon="1.97182">
        <ele>142.89</ele>
        <time>2008-04-06T10:03:19.000Z</time>
      </trkpt>
      <trkpt lat="48.7186" lon="1.97173">
        <ele>148.18</ele>
        <time>2008-04-06T10:03:27.000Z</time>
      </trkpt>
      <trkpt lat="48.71862" lon="1.97166">
        <ele>145.3</ele>
        <time>2008-04-06T10:03:32.000Z</time>
      </trkpt>
      <trkpt lat="48.71868" lon="1.97159">
        <ele>144.82</ele>
        <time>2008-04-06T10:03:36.000Z</time>
      </trkpt>
      <trkpt lat="48.71877" lon="1.9716">
        <ele>140.49</ele>
        <time>2008-04-06T10:03:41.000Z</time>
      </trkpt>
      <trkpt lat="48.71887" lon="1.97149">
        <ele>139.05</ele>
        <time>2008-04-06T10:03:47.000Z</time>
      </trkpt>
      <trkpt lat="48.71889" lon="1.97144">
        <ele>136.16</ele>
        <time>2008-04-06T10:03:50.000Z</time>
      </trkpt>
      <trkpt lat="48.71893" lon="1.97133">
        <ele>130.4</ele>
        <time>2008-04-06T10:03:54.000Z</time>
      </trkpt>
      <trkpt lat="48.71898" lon="1.9712">
        <ele>129.43</ele>
        <time>2008-04-06T10:03:59.000Z</time>
      </trkpt>
      <trkpt lat="48.71904" lon="1.97107">
        <ele>131.84</ele>
        <time>2008-04-06T10:04:04.000Z</time>
      </trkpt>
      <trkpt lat="48.71909" lon="1.97095">
        <ele>130.4</ele>
        <time>2008-04-06T10:04:09.000Z</time>
      </trkpt>
      <trkpt lat="48.71908" lon="1.97089">
        <ele>129.43</ele>
        <time>2008-04-06T10:04:14.000Z</time>
      </trkpt>
      <trkpt lat="48.71909" lon="1.97085">
        <ele>127.03</ele>
        <time>2008-04-06T10:04:16.000Z</time>
      </trkpt>
      <trkpt lat="48.71911" lon="1.97078">
        <ele>125.59</ele>
        <time>2008-04-06T10:04:21.000Z</time>
      </trkpt>
      <trkpt lat="48.7191" lon="1.97073">
        <ele>123.19</ele>
        <time>2008-04-06T10:04:24.000Z</time>
      </trkpt>
      <trkpt lat="48.71913" lon="1.97065">
        <ele>121.26</ele>
        <time>2008-04-06T10:04:28.000Z</time>
      </trkpt>
      <trkpt lat="48.71914" lon="1.97064">
        <ele>119.82</ele>
        <time>2008-04-06T10:04:30.000Z</time>
      </trkpt>
      <trkpt lat="48.71924" lon="1.97054">
        <ele>119.34</ele>
        <time>2008-04-06T10:04:37.000Z</time>
      </trkpt>
      <trkpt lat="48.71935" lon="1.9705">
        <ele>120.78</ele>
        <time>2008-04-06T10:04:43.000Z</time>
      </trkpt>
      <trkpt lat="48.71938" lon="1.97052">
        <ele>120.78</ele>
        <time>2008-04-06T10:04:45.000Z</time>
      </trkpt>
      <trkpt lat="48.71949" lon="1.97055">
        <ele>121.26</ele>
        <time>2008-04-06T10:04:52.000Z</time>
      </trkpt>
      <trkpt lat="48.71952" lon="1.97065">
        <ele>121.74</ele>
        <time>2008-04-06T10:04:57.000Z</time>
      </trkpt>
      <trkpt lat="48.71961" lon="1.9707">
        <ele>116.46</ele>
        <time>2008-04-06T10:05:04.000Z</time>
      </trkpt>
      <trkpt lat="48.71964" lon="1.97074">
        <ele>118.86</ele>
        <time>2008-04-06T10:05:09.000Z</time>
      </trkpt>
      <trkpt lat="48.71965" lon="1.97079">
        <ele>120.3</ele>
        <time>2008-04-06T10:05:11.000Z</time>
      </trkpt>
      <trkpt lat="48.71971" lon="1.97091">
        <ele>119.82</ele>
        <time>2008-04-06T10:05:19.000Z</time>
      </trkpt>
      <trkpt lat="48.71976" lon="1.97098">
        <ele>112.13</ele>
        <time>2008-04-06T10:05:26.000Z</time>
      </trkpt>
      <trkpt lat="48.71977" lon="1.97101">
        <ele>110.69</ele>
        <time>2008-04-06T10:05:28.000Z</time>
      </trkpt>
      <trkpt lat="48.71981" lon="1.97099">
        <ele>107.81</ele>
        <time>2008-04-06T10:05:31.000Z</time>
      </trkpt>
      <trkpt lat="48.71987" lon="1.9709">
        <ele>105.4</ele>
        <time>2008-04-06T10:05:35.000Z</time>
      </trkpt>
      <trkpt lat="48.71997" lon="1.97087">
        <ele>114.05</ele>
        <time>2008-04-06T10:05:42.000Z</time>
      </trkpt>
      <trkpt lat="48.72002" lon="1.97078">
        <ele>122.22</ele>
        <time>2008-04-06T10:05:46.000Z</time>
      </trkpt>
      <trkpt lat="48.72011" lon="1.97082">
        <ele>138.09</ele>
        <time>2008-04-06T10:05:51.000Z</time>
      </trkpt>
      <trkpt lat="48.72015" lon="1.97078">
        <ele>140.49</ele>
        <time>2008-04-06T10:05:54.000Z</time>
      </trkpt>
      <trkpt lat="48.72021" lon="1.9708">
        <ele>146.74</ele>
        <time>2008-04-06T10:06:01.000Z</time>
      </trkpt>
      <trkpt lat="48.72021" lon="1.97084">
        <ele>149.14</ele>
        <time>2008-04-06T10:06:06.000Z</time>
      </trkpt>
      <trkpt lat="48.72022" lon="1.97088">
        <ele>150.1</ele>
        <time>2008-04-06T10:06:13.000Z</time>
      </trkpt>
      <trkpt lat="48.72024" lon="1.97086">
        <ele>143.37</ele>
        <time>2008-04-06T10:06:19.000Z</time>
      </trkpt>
      <trkpt lat="48.72025" lon="1.97079">
        <ele>140.97</ele>
        <time>2008-04-06T10:06:25.000Z</time>
      </trkpt>
      <trkpt lat="48.72026" lon="1.97072">
        <ele>140.97</ele>
        <time>2008-04-06T10:06:28.000Z</time>
      </trkpt>
      <trkpt lat="48.72032" lon="1.97068">
        <ele>145.78</ele>
        <time>2008-04-06T10:06:34.000Z</time>
      </trkpt>
      <trkpt lat="48.72036" lon="1.97063">
        <ele>143.85</ele>
        <time>2008-04-06T10:06:37.000Z</time>
      </trkpt>
      <trkpt lat="48.72039" lon="1.97062">
        <ele>145.3</ele>
        <time>2008-04-06T10:06:40.000Z</time>
      </trkpt>
      <trkpt lat="48.72041" lon="1.97059">
        <ele>143.85</ele>
        <time>2008-04-06T10:06:45.000Z</time>
      </trkpt>
      <trkpt lat="48.72041" lon="1.97058">
        <ele>143.37</ele>
        <time>2008-04-06T10:06:46.000Z</time>
      </trkpt>
      <trkpt lat="48.72045" lon="1.97053">
        <ele>140.01</ele>
        <time>2008-04-06T10:06:50.000Z</time>
      </trkpt>
      <trkpt lat="48.72049" lon="1.97049">
        <ele>139.05</ele>
        <time>2008-04-06T10:06:58.000Z</time>
      </trkpt>
      <trkpt lat="48.72049" lon="1.97049">
        <ele>139.53</ele>
        <time>2008-04-06T10:06:59.000Z</time>
      </trkpt>
      <trkpt lat="48.72058" lon="1.97043">
        <ele>142.89</ele>
        <time>2008-04-06T10:07:06.000Z</time>
      </trkpt>
      <trkpt lat="48.72063" lon="1.97033">
        <ele>147.7</ele>
        <time>2008-04-06T10:07:18.000Z</time>
      </trkpt>
      <trkpt lat="48.72062" lon="1.97027">
        <ele>148.66</ele>
        <time>2008-04-06T10:07:24.000Z</time>
      </trkpt>
      <trkpt lat="48.72063" lon="1.97017">
        <ele>153.95</ele>
        <time>2008-04-06T10:07:31.000Z</time>
      </trkpt>
      <trkpt lat="48.72066" lon="1.97016">
        <ele>157.79</ele>
        <time>2008-04-06T10:07:34.000Z</time>
      </trkpt>
      <trkpt lat="48.7207" lon="1.97013">
        <ele>158.75</ele>
        <time>2008-04-06T10:07:41.000Z</time>
      </trkpt>
      <trkpt lat="48.72075" lon="1.97012">
        <ele>157.31</ele>
        <time>2008-04-06T10:07:47.000Z</time>
      </trkpt>
      <trkpt lat="48.72078" lon="1.97013">
        <ele>157.79</ele>
        <time>2008-04-06T10:07:53.000Z</time>
      </trkpt>
      <trkpt lat="48.72081" lon="1.97013">
        <ele>159.72</ele>
        <time>2008-04-06T10:08:00.000Z</time>
      </trkpt>
      <trkpt lat="48.72089" lon="1.97015">
        <ele>161.16</ele>
        <time>2008-04-06T10:08:05.000Z</time>
      </trkpt>
      <trkpt lat="48.72092" lon="1.97003">
        <ele>162.12</ele>
        <time>2008-04-06T10:08:12.000Z</time>
      </trkpt>
      <trkpt lat="48.72091" lon="1.96993">
        <ele>162.12</ele>
        <time>2008-04-06T10:08:19.000Z</time>
      </trkpt>
      <trkpt lat="48.72091" lon="1.96987">
        <ele>160.2</ele>
        <time>2008-04-06T10:08:25.000Z</time>
      </trkpt>
      <trkpt lat="48.72091" lon="1.96984">
        <ele>159.72</ele>
        <time>2008-04-06T10:08:26.000Z</time>
      </trkpt>
      <trkpt lat="48.72092" lon="1.9698">
        <ele>160.68</ele>
        <time>2008-04-06T10:08:29.000Z</time>
      </trkpt>
      <trkpt lat="48.7209" lon="1.96971">
        <ele>160.2</ele>
        <time>2008-04-06T10:08:35.000Z</time>
      </trkpt>
      <trkpt lat="48.72089" lon="1.96963">
        <ele>161.16</ele>
        <time>2008-04-06T10:08:39.000Z</time>
      </trkpt>
      <trkpt lat="48.72089" lon="1.96951">
        <ele>162.6</ele>
        <time>2008-04-06T10:08:44.000Z</time>
      </trkpt>
      <trkpt lat="48.72083" lon="1.96943">
        <ele>165</ele>
        <time>2008-04-06T10:08:49.000Z</time>
      </trkpt>
      <trkpt lat="48.72081" lon="1.96935">
        <ele>164.52</ele>
        <time>2008-04-06T10:08:52.000Z</time>
      </trkpt>
      <trkpt lat="48.72083" lon="1.96921">
        <ele>165.96</ele>
        <time>2008-04-06T10:08:56.000Z</time>
      </trkpt>
      <trkpt lat="48.72085" lon="1.96898">
        <ele>166.45</ele>
        <time>2008-04-06T10:09:03.000Z</time>
      </trkpt>
      <trkpt lat="48.72089" lon="1.96884">
        <ele>165.48</ele>
        <time>2008-04-06T10:09:08.000Z</time>
      </trkpt>
      <trkpt lat="48.7209" lon="1.96872">
        <ele>165.48</ele>
        <time>2008-04-06T10:09:12.000Z</time>
      </trkpt>
      <trkpt lat="48.72095" lon="1.96856">
        <ele>164.04</ele>
        <time>2008-04-06T10:09:18.000Z</time>
      </trkpt>
      <trkpt lat="48.72104" lon="1.96839">
        <ele>166.45</ele>
        <time>2008-04-06T10:09:24.000Z</time>
      </trkpt>
      <trkpt lat="48.72108" lon="1.96825">
        <ele>166.45</ele>
        <time>2008-04-06T10:09:29.000Z</time>
      </trkpt>
      <trkpt lat="48.72111" lon="1.96814">
        <ele>167.41</ele>
        <time>2008-04-06T10:09:33.000Z</time>
      </trkpt>
      <trkpt lat="48.72114" lon="1.96803">
        <ele>165.48</ele>
        <time>2008-04-06T10:09:37.000Z</time>
      </trkpt>
      <trkpt lat="48.72116" lon="1.96795">
        <ele>165</ele>
        <time>2008-04-06T10:09:42.000Z</time>
      </trkpt>
      <trkpt lat="48.72118" lon="1.96777">
        <ele>165.96</ele>
        <time>2008-04-06T10:09:49.000Z</time>
      </trkpt>
      <trkpt lat="48.72123" lon="1.96763">
        <ele>166.45</ele>
        <time>2008-04-06T10:09:53.000Z</time>
      </trkpt>
      <trkpt lat="48.72131" lon="1.96748">
        <ele>168.85</ele>
        <time>2008-04-06T10:09:58.000Z</time>
      </trkpt>
      <trkpt lat="48.72134" lon="1.96732">
        <ele>169.33</ele>
        <time>2008-04-06T10:10:03.000Z</time>
      </trkpt>
      <trkpt lat="48.72138" lon="1.96709">
        <ele>169.33</ele>
        <time>2008-04-06T10:10:10.000Z</time>
      </trkpt>
      <trkpt lat="48.72139" lon="1.96705">
        <ele>169.33</ele>
        <time>2008-04-06T10:10:11.000Z</time>
      </trkpt>
      <trkpt lat="48.72144" lon="1.96688">
        <ele>170.29</ele>
        <time>2008-04-06T10:10:16.000Z</time>
      </trkpt>
      <trkpt lat="48.72151" lon="1.96674">
        <ele>170.29</ele>
        <time>2008-04-06T10:10:21.000Z</time>
      </trkpt>
      <trkpt lat="48.72157" lon="1.96656">
        <ele>170.77</ele>
        <time>2008-04-06T10:10:26.000Z</time>
      </trkpt>
      <trkpt lat="48.72164" lon="1.96644">
        <ele>169.81</ele>
        <time>2008-04-06T10:10:31.000Z</time>
      </trkpt>
      <trkpt lat="48.72169" lon="1.96623">
        <ele>166.45</ele>
        <time>2008-04-06T10:10:37.000Z</time>
      </trkpt>
      <trkpt lat="48.72172" lon="1.96615">
        <ele>165.96</ele>
        <time>2008-04-06T10:10:40.000Z</time>
      </trkpt>
      <trkpt lat="48.72176" lon="1.96597">
        <ele>166.45</ele>
        <time>2008-04-06T10:10:45.000Z</time>
      </trkpt>
      <trkpt lat="48.72182" lon="1.96584">
        <ele>167.41</ele>
        <time>2008-04-06T10:10:49.000Z</time>
      </trkpt>
      <trkpt lat="48.7219" lon="1.96569">
        <ele>168.85</ele>
        <time>2008-04-06T10:10:54.000Z</time>
      </trkpt>
      <trkpt lat="48.72192" lon="1.96553">
        <ele>170.29</ele>
        <time>2008-04-06T10:10:59.000Z</time>
      </trkpt>
      <trkpt lat="48.72188" lon="1.9653">
        <ele>169.81</ele>
        <time>2008-04-06T10:11:04.000Z</time>
      </trkpt>
      <trkpt lat="48.72188" lon="1.96514">
        <ele>170.29</ele>
        <time>2008-04-06T10:11:09.000Z</time>
      </trkpt>
      <trkpt lat="48.72189" lon="1.96509">
        <ele>170.29</ele>
        <time>2008-04-06T10:11:11.000Z</time>
      </trkpt>
      <trkpt lat="48.72189" lon="1.96493">
        <ele>169.81</ele>
        <time>2008-04-06T10:11:16.000Z</time>
      </trkpt>
      <trkpt lat="48.72188" lon="1.96485">
        <ele>170.77</ele>
        <time>2008-04-06T10:11:19.000Z</time>
      </trkpt>
      <trkpt lat="48.72187" lon="1.96479">
        <ele>171.73</ele>
        <time>2008-04-06T10:11:21.000Z</time>
      </trkpt>
      <trkpt lat="48.72181" lon="1.96477">
        <ele>171.25</ele>
        <time>2008-04-06T10:11:25.000Z</time>
      </trkpt>
      <trkpt lat="48.72173" lon="1.96467">
        <ele>170.77</ele>
        <time>2008-04-06T10:11:30.000Z</time>
      </trkpt>
      <trkpt lat="48.72167" lon="1.96464">
        <ele>171.25</ele>
        <time>2008-04-06T10:11:33.000Z</time>
      </trkpt>
      <trkpt lat="48.7215" lon="1.96443">
        <ele>171.73</ele>
        <time>2008-04-06T10:11:40.000Z</time>
      </trkpt>
      <trkpt lat="48.72148" lon="1.96437">
        <ele>170.77</ele>
        <time>2008-04-06T10:11:42.000Z</time>
      </trkpt>
      <trkpt lat="48.72141" lon="1.96426">
        <ele>171.73</ele>
        <time>2008-04-06T10:11:46.000Z</time>
      </trkpt>
      <trkpt lat="48.7213" lon="1.96419">
        <ele>171.25</ele>
        <time>2008-04-06T10:11:52.000Z</time>
      </trkpt>
      <trkpt lat="48.72125" lon="1.96406">
        <ele>164.04</ele>
        <time>2008-04-06T10:11:58.000Z</time>
      </trkpt>
      <trkpt lat="48.72113" lon="1.964">
        <ele>164.52</ele>
        <time>2008-04-06T10:12:03.000Z</time>
      </trkpt>
      <trkpt lat="48.72107" lon="1.96387">
        <ele>161.64</ele>
        <time>2008-04-06T10:12:07.000Z</time>
      </trkpt>
      <trkpt lat="48.72102" lon="1.9638">
        <ele>161.16</ele>
        <time>2008-04-06T10:12:10.000Z</time>
      </trkpt>
      <trkpt lat="48.72094" lon="1.96369">
        <ele>160.2</ele>
        <time>2008-04-06T10:12:15.000Z</time>
      </trkpt>
      <trkpt lat="48.72094" lon="1.9636">
        <ele>160.2</ele>
        <time>2008-04-06T10:12:20.000Z</time>
      </trkpt>
      <trkpt lat="48.72095" lon="1.96346">
        <ele>156.35</ele>
        <time>2008-04-06T10:12:25.000Z</time>
      </trkpt>
      <trkpt lat="48.72093" lon="1.9633">
        <ele>154.91</ele>
        <time>2008-04-06T10:12:29.000Z</time>
      </trkpt>
      <trkpt lat="48.72089" lon="1.96318">
        <ele>153.95</ele>
        <time>2008-04-06T10:12:33.000Z</time>
      </trkpt>
      <trkpt lat="48.72084" lon="1.9631">
        <ele>155.39</ele>
        <time>2008-04-06T10:12:36.000Z</time>
      </trkpt>
      <trkpt lat="48.72085" lon="1.96305">
        <ele>154.43</ele>
        <time>2008-04-06T10:12:39.000Z</time>
      </trkpt>
      <trkpt lat="48.7208" lon="1.96295">
        <ele>152.99</ele>
        <time>2008-04-06T10:12:43.000Z</time>
      </trkpt>
      <trkpt lat="48.72069" lon="1.96285">
        <ele>153.47</ele>
        <time>2008-04-06T10:12:49.000Z</time>
      </trkpt>
      <trkpt lat="48.72067" lon="1.96285">
        <ele>152.99</ele>
        <time>2008-04-06T10:12:50.000Z</time>
      </trkpt>
      <trkpt lat="48.72054" lon="1.96282">
        <ele>153.47</ele>
        <time>2008-04-06T10:12:56.000Z</time>
      </trkpt>
      <trkpt lat="48.72045" lon="1.9628">
        <ele>152.03</ele>
        <time>2008-04-06T10:13:00.000Z</time>
      </trkpt>
      <trkpt lat="48.7204" lon="1.96274">
        <ele>149.14</ele>
        <time>2008-04-06T10:13:05.000Z</time>
      </trkpt>
      <trkpt lat="48.72038" lon="1.9627">
        <ele>148.18</ele>
        <time>2008-04-06T10:13:08.000Z</time>
      </trkpt>
      <trkpt lat="48.72034" lon="1.96266">
        <ele>147.7</ele>
        <time>2008-04-06T10:13:12.000Z</time>
      </trkpt>
      <trkpt lat="48.7203" lon="1.96249">
        <ele>146.26</ele>
        <time>2008-04-06T10:13:17.000Z</time>
      </trkpt>
      <trkpt lat="48.7203" lon="1.96234">
        <ele>144.34</ele>
        <time>2008-04-06T10:13:23.000Z</time>
      </trkpt>
      <trkpt lat="48.7203" lon="1.96232">
        <ele>143.37</ele>
        <time>2008-04-06T10:13:24.000Z</time>
      </trkpt>
      <trkpt lat="48.7203" lon="1.96227">
        <ele>144.34</ele>
        <time>2008-04-06T10:13:27.000Z</time>
      </trkpt>
      <trkpt lat="48.72034" lon="1.9622">
        <ele>142.89</ele>
        <time>2008-04-06T10:13:31.000Z</time>
      </trkpt>
      <trkpt lat="48.72033" lon="1.96203">
        <ele>140.49</ele>
        <time>2008-04-06T10:13:38.000Z</time>
      </trkpt>
      <trkpt lat="48.72028" lon="1.96186">
        <ele>140.01</ele>
        <time>2008-04-06T10:13:45.000Z</time>
      </trkpt>
      <trkpt lat="48.72022" lon="1.96187">
        <ele>142.41</ele>
        <time>2008-04-06T10:13:49.000Z</time>
      </trkpt>
      <trkpt lat="48.7202" lon="1.96191">
        <ele>140.97</ele>
        <time>2008-04-06T10:13:51.000Z</time>
      </trkpt>
      <trkpt lat="48.72015" lon="1.9619">
        <ele>136.16</ele>
        <time>2008-04-06T10:13:56.000Z</time>
      </trkpt>
      <trkpt lat="48.72012" lon="1.96188">
        <ele>133.28</ele>
        <time>2008-04-06T10:14:02.000Z</time>
      </trkpt>
      <trkpt lat="48.7201" lon="1.96185">
        <ele>130.88</ele>
        <time>2008-04-06T10:14:05.000Z</time>
      </trkpt>
      <trkpt lat="48.72005" lon="1.96172">
        <ele>127.03</ele>
        <time>2008-04-06T10:14:10.000Z</time>
      </trkpt>
      <trkpt lat="48.72003" lon="1.96162">
        <ele>126.07</ele>
        <time>2008-04-06T10:14:14.000Z</time>
      </trkpt>
      <trkpt lat="48.72001" lon="1.96156">
        <ele>124.63</ele>
        <time>2008-04-06T10:14:17.000Z</time>
      </trkpt>
      <trkpt lat="48.72001" lon="1.96144">
        <ele>122.71</ele>
        <time>2008-04-06T10:14:22.000Z</time>
      </trkpt>
      <trkpt lat="48.71999" lon="1.96137">
        <ele>122.71</ele>
        <time>2008-04-06T10:14:26.000Z</time>
      </trkpt>
      <trkpt lat="48.71999" lon="1.96131">
        <ele>120.78</ele>
        <time>2008-04-06T10:14:29.000Z</time>
      </trkpt>
      <trkpt lat="48.71988" lon="1.96122">
        <ele>115.5</ele>
        <time>2008-04-06T10:14:36.000Z</time>
      </trkpt>
      <trkpt lat="48.71986" lon="1.96121">
        <ele>115.01</ele>
        <time>2008-04-06T10:14:37.000Z</time>
      </trkpt>
      <trkpt lat="48.7198" lon="1.96115">
        <ele>113.57</ele>
        <time>2008-04-06T10:14:40.000Z</time>
      </trkpt>
      <trkpt lat="48.71976" lon="1.96118">
        <ele>109.73</ele>
        <time>2008-04-06T10:14:44.000Z</time>
      </trkpt>
      <trkpt lat="48.71972" lon="1.96119">
        <ele>107.32</ele>
        <time>2008-04-06T10:14:47.000Z</time>
      </trkpt>
      <trkpt lat="48.71963" lon="1.96114">
        <ele>107.81</ele>
        <time>2008-04-06T10:14:52.000Z</time>
      </trkpt>
      <trkpt lat="48.7195" lon="1.96112">
        <ele>109.73</ele>
        <time>2008-04-06T10:14:59.000Z</time>
      </trkpt>
      <trkpt lat="48.71946" lon="1.96112">
        <ele>110.69</ele>
        <time>2008-04-06T10:15:02.000Z</time>
      </trkpt>
      <trkpt lat="48.71941" lon="1.9611">
        <ele>110.69</ele>
        <time>2008-04-06T10:15:06.000Z</time>
      </trkpt>
      <trkpt lat="48.71939" lon="1.9611">
        <ele>110.21</ele>
        <time>2008-04-06T10:15:08.000Z</time>
      </trkpt>
      <trkpt lat="48.71932" lon="1.96108">
        <ele>110.21</ele>
        <time>2008-04-06T10:15:13.000Z</time>
      </trkpt>
      <trkpt lat="48.71928" lon="1.96104">
        <ele>108.77</ele>
        <time>2008-04-06T10:15:16.000Z</time>
      </trkpt>
      <trkpt lat="48.71924" lon="1.96102">
        <ele>109.73</ele>
        <time>2008-04-06T10:15:19.000Z</time>
      </trkpt>
      <trkpt lat="48.71916" lon="1.96099">
        <ele>113.57</ele>
        <time>2008-04-06T10:15:25.000Z</time>
      </trkpt>
      <trkpt lat="48.71912" lon="1.96098">
        <ele>114.05</ele>
        <time>2008-04-06T10:15:28.000Z</time>
      </trkpt>
      <trkpt lat="48.71909" lon="1.96096">
        <ele>114.53</ele>
        <time>2008-04-06T10:15:31.000Z</time>
      </trkpt>
      <trkpt lat="48.71906" lon="1.96093">
        <ele>113.09</ele>
        <time>2008-04-06T10:15:34.000Z</time>
      </trkpt>
      <trkpt lat="48.71906" lon="1.96087">
        <ele>105.88</ele>
        <time>2008-04-06T10:15:43.000Z</time>
      </trkpt>
      <trkpt lat="48.71905" lon="1.96087">
        <ele>100.11</ele>
        <time>2008-04-06T10:15:58.000Z</time>
      </trkpt>
      <trkpt lat="48.71901" lon="1.96091">
        <ele>98.67</ele>
        <time>2008-04-06T10:16:03.000Z</time>
      </trkpt>
      <trkpt lat="48.719" lon="1.96092">
        <ele>98.67</ele>
        <time>2008-04-06T10:16:04.000Z</time>
      </trkpt>
      <trkpt lat="48.71896" lon="1.96095">
        <ele>100.6</ele>
        <time>2008-04-06T10:16:08.000Z</time>
      </trkpt>
      <trkpt lat="48.71896" lon="1.96097">
        <ele>101.08</ele>
        <time>2008-04-06T10:16:09.000Z</time>
      </trkpt>
      <trkpt lat="48.71895" lon="1.96098">
        <ele>101.09</ele>
        <time>2008-04-06T10:16:10.000Z</time>
      </trkpt>
      <trkpt lat="48.71512" lon="1.96842">
        <ele>111.17</ele>
        <time>2008-04-06T10:30:00.000Z</time>
      </trkpt>
      <trkpt lat="48.71507" lon="1.96841">
        <ele>111.17</ele>
        <time>2008-04-06T10:30:02.000Z</time>
      </trkpt>
      <trkpt lat="48.715" lon="1.96838">
        <ele>112.61</ele>
        <time>2008-04-06T10:30:07.000Z</time>
      </trkpt>
      <trkpt lat="48.71497" lon="1.96836">
        <ele>113.57</ele>
        <time>2008-04-06T10:30:09.000Z</time>
      </trkpt>
      <trkpt lat="48.7149" lon="1.9683">
        <ele>115.5</ele>
        <time>2008-04-06T10:30:15.000Z</time>
      </trkpt>
      <trkpt lat="48.71479" lon="1.96823">
        <ele>115.01</ele>
        <time>2008-04-06T10:30:22.000Z</time>
      </trkpt>
      <trkpt lat="48.71471" lon="1.96807">
        <ele>115.01</ele>
        <time>2008-04-06T10:30:27.000Z</time>
      </trkpt>
      <trkpt lat="48.71471" lon="1.96803">
        <ele>115.01</ele>
        <time>2008-04-06T10:30:28.000Z</time>
      </trkpt>
      <trkpt lat="48.71476" lon="1.96782">
        <ele>113.09</ele>
        <time>2008-04-06T10:30:34.000Z</time>
      </trkpt>
      <trkpt lat="48.71487" lon="1.96763">
        <ele>114.05</ele>
        <time>2008-04-06T10:30:40.000Z</time>
      </trkpt>
      <trkpt lat="48.71498" lon="1.96744">
        <ele>115.5</ele>
        <time>2008-04-06T10:30:46.000Z</time>
      </trkpt>
      <trkpt lat="48.71505" lon="1.96732">
        <ele>118.38</ele>
        <time>2008-04-06T10:30:50.000Z</time>
      </trkpt>
      <trkpt lat="48.71505" lon="1.96726">
        <ele>116.94</ele>
        <time>2008-04-06T10:30:52.000Z</time>
      </trkpt>
      <trkpt lat="48.71492" lon="1.96715">
        <ele>113.09</ele>
        <time>2008-04-06T10:30:58.000Z</time>
      </trkpt>
      <trkpt lat="48.71485" lon="1.96705">
        <ele>114.05</ele>
        <time>2008-04-06T10:31:04.000Z</time>
      </trkpt>
      <trkpt lat="48.71484" lon="1.96703">
        <ele>113.57</ele>
        <time>2008-04-06T10:31:05.000Z</time>
      </trkpt>
      <trkpt lat="48.71476" lon="1.96698">
        <ele>112.61</ele>
        <time>2008-04-06T10:31:11.000Z</time>
      </trkpt>
      <trkpt lat="48.71471" lon="1.96695">
        <ele>112.61</ele>
        <time>2008-04-06T10:31:15.000Z</time>
      </trkpt>
      <trkpt lat="48.71466" lon="1.9669">
        <ele>114.05</ele>
        <time>2008-04-06T10:31:20.000Z</time>
      </trkpt>
      <trkpt lat="48.71456" lon="1.96683">
        <ele>113.57</ele>
        <time>2008-04-06T10:31:27.000Z</time>
      </trkpt>
      <trkpt lat="48.71445" lon="1.96671">
        <ele>113.57</ele>
        <time>2008-04-06T10:31:34.000Z</time>
      </trkpt>
      <trkpt lat="48.71443" lon="1.96667">
        <ele>114.05</ele>
        <time>2008-04-06T10:31:36.000Z</time>
      </trkpt>
      <trkpt lat="48.71436" lon="1.96662">
        <ele>114.53</ele>
        <time>2008-04-06T10:31:41.000Z</time>
      </trkpt>
      <trkpt lat="48.71428" lon="1.96657">
        <ele>114.05</ele>
        <time>2008-04-06T10:31:46.000Z</time>
      </trkpt>
      <trkpt lat="48.71422" lon="1.96649">
        <ele>116.46</ele>
        <time>2008-04-06T10:31:52.000Z</time>
      </trkpt>
      <trkpt lat="48.71415" lon="1.96647">
        <ele>117.42</ele>
        <time>2008-04-06T10:31:56.000Z</time>
      </trkpt>
      <trkpt lat="48.7141" lon="1.96641">
        <ele>121.26</ele>
        <time>2008-04-06T10:32:01.000Z</time>
      </trkpt>
      <trkpt lat="48.71409" lon="1.9664">
        <ele>121.74</ele>
        <time>2008-04-06T10:32:02.000Z</time>
      </trkpt>
      <trkpt lat="48.71399" lon="1.96635">
        <ele>123.19</ele>
        <time>2008-04-06T10:32:08.000Z</time>
      </trkpt>
      <trkpt lat="48.71397" lon="1.96633">
        <ele>124.15</ele>
        <time>2008-04-06T10:32:10.000Z</time>
      </trkpt>
      <trkpt lat="48.7139" lon="1.96629">
        <ele>126.07</ele>
        <time>2008-04-06T10:32:15.000Z</time>
      </trkpt>
      <trkpt lat="48.71377" lon="1.96621">
        <ele>128.95</ele>
        <time>2008-04-06T10:32:23.000Z</time>
      </trkpt>
      <trkpt lat="48.7137" lon="1.96613">
        <ele>128.95</ele>
        <time>2008-04-06T10:32:30.000Z</time>
      </trkpt>
      <trkpt lat="48.71363" lon="1.96602">
        <ele>128.95</ele>
        <time>2008-04-06T10:32:36.000Z</time>
      </trkpt>
      <trkpt lat="48.71358" lon="1.96595">
        <ele>129.43</ele>
        <time>2008-04-06T10:32:40.000Z</time>
      </trkpt>
      <trkpt lat="48.71356" lon="1.96591">
        <ele>130.4</ele>
        <time>2008-04-06T10:32:43.000Z</time>
      </trkpt>
      <trkpt lat="48.7135" lon="1.96583">
        <ele>132.32</ele>
        <time>2008-04-06T10:32:49.000Z</time>
      </trkpt>
      <trkpt lat="48.7135" lon="1.96582">
        <ele>133.76</ele>
        <time>2008-04-06T10:32:50.000Z</time>
      </trkpt>
      <trkpt lat="48.71343" lon="1.96578">
        <ele>136.64</ele>
        <time>2008-04-06T10:32:56.000Z</time>
      </trkpt>
      <trkpt lat="48.71339" lon="1.9657">
        <ele>144.34</ele>
        <time>2008-04-06T10:33:03.000Z</time>
      </trkpt>
      <trkpt lat="48.71336" lon="1.96562">
        <ele>149.14</ele>
        <time>2008-04-06T10:33:09.000Z</time>
      </trkpt>
      <trkpt lat="48.71329" lon="1.96553">
        <ele>150.58</ele>
        <time>2008-04-06T10:33:16.000Z</time>
      </trkpt>
      <trkpt lat="48.71326" lon="1.96552">
        <ele>148.66</ele>
        <time>2008-04-06T10:33:17.000Z</time>
      </trkpt>
      <trkpt lat="48.71313" lon="1.96548">
        <ele>145.3</ele>
        <time>2008-04-06T10:33:24.000Z</time>
      </trkpt>
      <trkpt lat="48.71307" lon="1.96542">
        <ele>144.82</ele>
        <time>2008-04-06T10:33:29.000Z</time>
      </trkpt>
      <trkpt lat="48.71305" lon="1.96542">
        <ele>144.82</ele>
        <time>2008-04-06T10:33:30.000Z</time>
      </trkpt>
      <trkpt lat="48.71304" lon="1.96541">
        <ele>145.78</ele>
        <time>2008-04-06T10:33:32.000Z</time>
      </trkpt>
      <trkpt lat="48.71304" lon="1.96526">
        <ele>141.45</ele>
        <time>2008-04-06T10:33:39.000Z</time>
      </trkpt>
      <trkpt lat="48.71302" lon="1.96512">
        <ele>138.57</ele>
        <time>2008-04-06T10:33:46.000Z</time>
      </trkpt>
      <trkpt lat="48.71296" lon="1.96506">
        <ele>136.64</ele>
        <time>2008-04-06T10:33:51.000Z</time>
      </trkpt>
      <trkpt lat="48.71289" lon="1.96501">
        <ele>136.64</ele>
        <time>2008-04-06T10:33:57.000Z</time>
      </trkpt>
      <trkpt lat="48.71286" lon="1.96498">
        <ele>136.16</ele>
        <time>2008-04-06T10:34:00.000Z</time>
      </trkpt>
      <trkpt lat="48.71284" lon="1.96497">
        <ele>135.68</ele>
        <time>2008-04-06T10:34:03.000Z</time>
      </trkpt>
      <trkpt lat="48.7128" lon="1.96494">
        <ele>139.53</ele>
        <time>2008-04-06T10:34:08.000Z</time>
      </trkpt>
      <trkpt lat="48.71271" lon="1.96488">
        <ele>142.41</ele>
        <time>2008-04-06T10:34:13.000Z</time>
      </trkpt>
      <trkpt lat="48.71267" lon="1.96485">
        <ele>143.37</ele>
        <time>2008-04-06T10:34:16.000Z</time>
      </trkpt>
      <trkpt lat="48.71259" lon="1.96479">
        <ele>144.82</ele>
        <time>2008-04-06T10:34:22.000Z</time>
      </trkpt>
      <trkpt lat="48.71254" lon="1.96474">
        <ele>146.74</ele>
        <time>2008-04-06T10:34:27.000Z</time>
      </trkpt>
      <trkpt lat="48.71246" lon="1.96464">
        <ele>148.18</ele>
        <time>2008-04-06T10:34:34.000Z</time>
      </trkpt>
      <trkpt lat="48.7124" lon="1.96455">
        <ele>149.62</ele>
        <time>2008-04-06T10:34:41.000Z</time>
      </trkpt>
      <trkpt lat="48.71235" lon="1.96445">
        <ele>150.58</ele>
        <time>2008-04-06T10:34:49.000Z</time>
      </trkpt>
      <trkpt lat="48.71233" lon="1.96441">
        <ele>151.54</ele>
        <time>2008-04-06T10:34:52.000Z</time>
      </trkpt>
      <trkpt lat="48.7123" lon="1.96436">
        <ele>153.47</ele>
        <time>2008-04-06T10:34:56.000Z</time>
      </trkpt>
      <trkpt lat="48.71225" lon="1.96428">
        <ele>154.43</ele>
        <time>2008-04-06T10:35:02.000Z</time>
      </trkpt>
      <trkpt lat="48.71219" lon="1.96417">
        <ele>153.95</ele>
        <time>2008-04-06T10:35:10.000Z</time>
      </trkpt>
      <trkpt lat="48.71218" lon="1.96417">
        <ele>154.43</ele>
        <time>2008-04-06T10:35:11.000Z</time>
      </trkpt>
      <trkpt lat="48.71209" lon="1.96416">
        <ele>156.83</ele>
        <time>2008-04-06T10:35:18.000Z</time>
      </trkpt>
      <trkpt lat="48.71208" lon="1.96415">
        <ele>156.35</ele>
        <time>2008-04-06T10:35:20.000Z</time>
      </trkpt>
      <trkpt lat="48.71199" lon="1.96406">
        <ele>155.87</ele>
        <time>2008-04-06T10:35:29.000Z</time>
      </trkpt>
      <trkpt lat="48.71198" lon="1.96405">
        <ele>156.35</ele>
        <time>2008-04-06T10:35:30.000Z</time>
      </trkpt>
      <trkpt lat="48.7119" lon="1.96395">
        <ele>157.79</ele>
        <time>2008-04-06T10:35:37.000Z</time>
      </trkpt>
      <trkpt lat="48.71181" lon="1.96391">
        <ele>162.12</ele>
        <time>2008-04-06T10:35:44.000Z</time>
      </trkpt>
      <trkpt lat="48.71179" lon="1.96391">
        <ele>162.12</ele>
        <time>2008-04-06T10:35:46.000Z</time>
      </trkpt>
      <trkpt lat="48.7117" lon="1.96383">
        <ele>163.08</ele>
        <time>2008-04-06T10:35:54.000Z</time>
      </trkpt>
      <trkpt lat="48.71169" lon="1.96382">
        <ele>163.08</ele>
        <time>2008-04-06T10:35:55.000Z</time>
      </trkpt>
      <trkpt lat="48.71165" lon="1.9638">
        <ele>163.08</ele>
        <time>2008-04-06T10:35:58.000Z</time>
      </trkpt>
      <trkpt lat="48.71161" lon="1.96375">
        <ele>163.08</ele>
        <time>2008-04-06T10:36:02.000Z</time>
      </trkpt>
      <trkpt lat="48.7116" lon="1.96374">
        <ele>162.6</ele>
        <time>2008-04-06T10:36:03.000Z</time>
      </trkpt>
      <trkpt lat="48.71152" lon="1.96368">
        <ele>161.64</ele>
        <time>2008-04-06T10:36:10.000Z</time>
      </trkpt>
      <trkpt lat="48.71145" lon="1.96364">
        <ele>161.16</ele>
        <time>2008-04-06T10:36:16.000Z</time>
      </trkpt>
      <trkpt lat="48.71137" lon="1.96358">
        <ele>159.72</ele>
        <time>2008-04-06T10:36:23.000Z</time>
      </trkpt>
      <trkpt lat="48.71126" lon="1.96347">
        <ele>159.24</ele>
        <time>2008-04-06T10:36:31.000Z</time>
      </trkpt>
      <trkpt lat="48.71119" lon="1.96336">
        <ele>159.72</ele>
        <time>2008-04-06T10:36:36.000Z</time>
      </trkpt>
      <trkpt lat="48.71109" lon="1.96328">
        <ele>159.72</ele>
        <time>2008-04-06T10:36:41.000Z</time>
      </trkpt>
      <trkpt lat="48.71098" lon="1.96319">
        <ele>160.2</ele>
        <time>2008-04-06T10:36:47.000Z</time>
      </trkpt>
      <trkpt lat="48.71088" lon="1.96313">
        <ele>160.2</ele>
        <time>2008-04-06T10:36:52.000Z</time>
      </trkpt>
      <trkpt lat="48.71077" lon="1.96305">
        <ele>160.2</ele>
        <time>2008-04-06T10:36:58.000Z</time>
      </trkpt>
      <trkpt lat="48.71065" lon="1.96296">
        <ele>160.2</ele>
        <time>2008-04-06T10:37:04.000Z</time>
      </trkpt>
      <trkpt lat="48.71056" lon="1.9629">
        <ele>160.68</ele>
        <time>2008-04-06T10:37:09.000Z</time>
      </trkpt>
      <trkpt lat="48.71041" lon="1.96276">
        <ele>160.68</ele>
        <time>2008-04-06T10:37:17.000Z</time>
      </trkpt>
      <trkpt lat="48.71029" lon="1.96265">
        <ele>160.68</ele>
        <time>2008-04-06T10:37:24.000Z</time>
      </trkpt>
      <trkpt lat="48.71018" lon="1.96255">
        <ele>159.72</ele>
        <time>2008-04-06T10:37:30.000Z</time>
      </trkpt>
      <trkpt lat="48.71007" lon="1.96246">
        <ele>159.72</ele>
        <time>2008-04-06T10:37:36.000Z</time>
      </trkpt>
      <trkpt lat="48.70995" lon="1.96237">
        <ele>160.68</ele>
        <time>2008-04-06T10:37:42.000Z</time>
      </trkpt>
      <trkpt lat="48.70984" lon="1.96229">
        <ele>162.12</ele>
        <time>2008-04-06T10:37:48.000Z</time>
      </trkpt>
      <trkpt lat="48.70973" lon="1.96222">
        <ele>162.6</ele>
        <time>2008-04-06T10:37:54.000Z</time>
      </trkpt>
      <trkpt lat="48.70962" lon="1.96214">
        <ele>163.56</ele>
        <time>2008-04-06T10:38:00.000Z</time>
      </trkpt>
      <trkpt lat="48.7095" lon="1.96206">
        <ele>164.52</ele>
        <time>2008-04-06T10:38:06.000Z</time>
      </trkpt>
      <trkpt lat="48.70935" lon="1.96194">
        <ele>165</ele>
        <time>2008-04-06T10:38:14.000Z</time>
      </trkpt>
      <trkpt lat="48.70924" lon="1.96184">
        <ele>164.52</ele>
        <time>2008-04-06T10:38:20.000Z</time>
      </trkpt>
      <trkpt lat="48.70916" lon="1.96175">
        <ele>163.56</ele>
        <time>2008-04-06T10:38:25.000Z</time>
      </trkpt>
      <trkpt lat="48.70908" lon="1.96167">
        <ele>163.56</ele>
        <time>2008-04-06T10:38:30.000Z</time>
      </trkpt>
      <trkpt lat="48.70899" lon="1.96156">
        <ele>163.08</ele>
        <time>2008-04-06T10:38:38.000Z</time>
      </trkpt>
      <trkpt lat="48.70898" lon="1.9614">
        <ele>162.12</ele>
        <time>2008-04-06T10:38:46.000Z</time>
      </trkpt>
      <trkpt lat="48.70893" lon="1.96128">
        <ele>162.12</ele>
        <time>2008-04-06T10:38:54.000Z</time>
      </trkpt>
      <trkpt lat="48.70891" lon="1.96126">
        <ele>162.12</ele>
        <time>2008-04-06T10:38:56.000Z</time>
      </trkpt>
      <trkpt lat="48.7088" lon="1.96114">
        <ele>164.04</ele>
        <time>2008-04-06T10:39:02.000Z</time>
      </trkpt>
      <trkpt lat="48.7087" lon="1.96101">
        <ele>165.48</ele>
        <time>2008-04-06T10:39:08.000Z</time>
      </trkpt>
      <trkpt lat="48.7086" lon="1.96089">
        <ele>166.45</ele>
        <time>2008-04-06T10:39:14.000Z</time>
      </trkpt>
      <trkpt lat="48.70858" lon="1.96088">
        <ele>166.45</ele>
        <time>2008-04-06T10:39:15.000Z</time>
      </trkpt>
      <trkpt lat="48.70849" lon="1.96081">
        <ele>167.89</ele>
        <time>2008-04-06T10:39:20.000Z</time>
      </trkpt>
      <trkpt lat="48.70843" lon="1.96075">
        <ele>168.85</ele>
        <time>2008-04-06T10:39:23.000Z</time>
      </trkpt>
      <trkpt lat="48.70837" lon="1.96062">
        <ele>171.25</ele>
        <time>2008-04-06T10:39:30.000Z</time>
      </trkpt>
      <trkpt lat="48.70836" lon="1.96061">
        <ele>171.73</ele>
        <time>2008-04-06T10:39:31.000Z</time>
      </trkpt>
      <trkpt lat="48.70825" lon="1.96057">
        <ele>171.73</ele>
        <time>2008-04-06T10:39:36.000Z</time>
      </trkpt>
      <trkpt lat="48.70805" lon="1.9604">
        <ele>168.85</ele>
        <time>2008-04-06T10:39:44.000Z</time>
      </trkpt>
      <trkpt lat="48.7079" lon="1.96027">
        <ele>170.77</ele>
        <time>2008-04-06T10:39:50.000Z</time>
      </trkpt>
      <trkpt lat="48.70776" lon="1.96014">
        <ele>172.69</ele>
        <time>2008-04-06T10:39:56.000Z</time>
      </trkpt>
      <trkpt lat="48.70768" lon="1.96">
        <ele>170.29</ele>
        <time>2008-04-06T10:40:01.000Z</time>
      </trkpt>
      <trkpt lat="48.70758" lon="1.95983">
        <ele>170.77</ele>
        <time>2008-04-06T10:40:08.000Z</time>
      </trkpt>
      <trkpt lat="48.70753" lon="1.95973">
        <ele>171.73</ele>
        <time>2008-04-06T10:40:13.000Z</time>
      </trkpt>
      <trkpt lat="48.70747" lon="1.95969">
        <ele>170.29</ele>
        <time>2008-04-06T10:40:16.000Z</time>
      </trkpt>
      <trkpt lat="48.70733" lon="1.9596">
        <ele>171.73</ele>
        <time>2008-04-06T10:40:22.000Z</time>
      </trkpt>
      <trkpt lat="48.70727" lon="1.95958">
        <ele>172.69</ele>
        <time>2008-04-06T10:40:24.000Z</time>
      </trkpt>
      <trkpt lat="48.70714" lon="1.95941">
        <ele>173.17</ele>
        <time>2008-04-06T10:40:31.000Z</time>
      </trkpt>
      <trkpt lat="48.70706" lon="1.95926">
        <ele>172.21</ele>
        <time>2008-04-06T10:40:36.000Z</time>
      </trkpt>
      <trkpt lat="48.70697" lon="1.95904">
        <ele>170.77</ele>
        <time>2008-04-06T10:40:42.000Z</time>
      </trkpt>
      <trkpt lat="48.70689" lon="1.95885">
        <ele>171.25</ele>
        <time>2008-04-06T10:40:48.000Z</time>
      </trkpt>
      <trkpt lat="48.70686" lon="1.95869">
        <ele>169.81</ele>
        <time>2008-04-06T10:40:53.000Z</time>
      </trkpt>
      <trkpt lat="48.70678" lon="1.95853">
        <ele>168.85</ele>
        <time>2008-04-06T10:40:59.000Z</time>
      </trkpt>
      <trkpt lat="48.70671" lon="1.95834">
        <ele>169.81</ele>
        <time>2008-04-06T10:41:05.000Z</time>
      </trkpt>
      <trkpt lat="48.70662" lon="1.95817">
        <ele>170.29</ele>
        <time>2008-04-06T10:41:11.000Z</time>
      </trkpt>
      <trkpt lat="48.70654" lon="1.95806">
        <ele>170.29</ele>
        <time>2008-04-06T10:41:16.000Z</time>
      </trkpt>
      <trkpt lat="48.70642" lon="1.9579">
        <ele>168.37</ele>
        <time>2008-04-06T10:41:23.000Z</time>
      </trkpt>
      <trkpt lat="48.70629" lon="1.95782">
        <ele>168.37</ele>
        <time>2008-04-06T10:41:29.000Z</time>
      </trkpt>
      <trkpt lat="48.70615" lon="1.95776">
        <ele>171.73</ele>
        <time>2008-04-06T10:41:34.000Z</time>
      </trkpt>
      <trkpt lat="48.70602" lon="1.95772">
        <ele>172.69</ele>
        <time>2008-04-06T10:41:39.000Z</time>
      </trkpt>
      <trkpt lat="48.70585" lon="1.95761">
        <ele>176.06</ele>
        <time>2008-04-06T10:41:45.000Z</time>
      </trkpt>
      <trkpt lat="48.70573" lon="1.95757">
        <ele>176.06</ele>
        <time>2008-04-06T10:41:50.000Z</time>
      </trkpt>
      <trkpt lat="48.70559" lon="1.95757">
        <ele>177.02</ele>
        <time>2008-04-06T10:41:56.000Z</time>
      </trkpt>
      <trkpt lat="48.70549" lon="1.95754">
        <ele>177.02</ele>
        <time>2008-04-06T10:42:00.000Z</time>
      </trkpt>
      <trkpt lat="48.70543" lon="1.95752">
        <ele>176.54</ele>
        <time>2008-04-06T10:42:03.000Z</time>
      </trkpt>
      <trkpt lat="48.70531" lon="1.95747">
        <ele>177.5</ele>
        <time>2008-04-06T10:42:08.000Z</time>
      </trkpt>
      <trkpt lat="48.70518" lon="1.95747">
        <ele>177.02</ele>
        <time>2008-04-06T10:42:13.000Z</time>
      </trkpt>
      <trkpt lat="48.70505" lon="1.95742">
        <ele>174.14</ele>
        <time>2008-04-06T10:42:19.000Z</time>
      </trkpt>
      <trkpt lat="48.70499" lon="1.95745">
        <ele>171.73</ele>
        <time>2008-04-06T10:42:22.000Z</time>
      </trkpt>
      <trkpt lat="48.70498" lon="1.95747">
        <ele>170.29</ele>
        <time>2008-04-06T10:42:24.000Z</time>
      </trkpt>
      <trkpt lat="48.70491" lon="1.95747">
        <ele>166.93</ele>
        <time>2008-04-06T10:42:29.000Z</time>
      </trkpt>
      <trkpt lat="48.70485" lon="1.95748">
        <ele>165.48</ele>
        <time>2008-04-06T10:42:32.000Z</time>
      </trkpt>
      <trkpt lat="48.7048" lon="1.95749">
        <ele>164.52</ele>
        <time>2008-04-06T10:42:34.000Z</time>
      </trkpt>
      <trkpt lat="48.70467" lon="1.95748">
        <ele>161.16</ele>
        <time>2008-04-06T10:42:41.000Z</time>
      </trkpt>
      <trkpt lat="48.70464" lon="1.95742">
        <ele>159.72</ele>
        <time>2008-04-06T10:42:43.000Z</time>
      </trkpt>
      <trkpt lat="48.70461" lon="1.95738">
        <ele>157.79</ele>
        <time>2008-04-06T10:42:45.000Z</time>
      </trkpt>
      <trkpt lat="48.70455" lon="1.95732">
        <ele>156.83</ele>
        <time>2008-04-06T10:42:49.000Z</time>
      </trkpt>
      <trkpt lat="48.70443" lon="1.95727">
        <ele>155.39</ele>
        <time>2008-04-06T10:42:55.000Z</time>
      </trkpt>
      <trkpt lat="48.70436" lon="1.9572">
        <ele>152.99</ele>
        <time>2008-04-06T10:42:59.000Z</time>
      </trkpt>
      <trkpt lat="48.70432" lon="1.95719">
        <ele>152.03</ele>
        <time>2008-04-06T10:43:01.000Z</time>
      </trkpt>
      <trkpt lat="48.70424" lon="1.95716">
        <ele>153.47</ele>
        <time>2008-04-06T10:43:04.000Z</time>
      </trkpt>
      <trkpt lat="48.70417" lon="1.95709">
        <ele>150.1</ele>
        <time>2008-04-06T10:43:09.000Z</time>
      </trkpt>
      <trkpt lat="48.70408" lon="1.95707">
        <ele>150.58</ele>
        <time>2008-04-06T10:43:17.000Z</time>
      </trkpt>
      <trkpt lat="48.70401" lon="1.95705">
        <ele>148.18</ele>
        <time>2008-04-06T10:43:24.000Z</time>
      </trkpt>
      <trkpt lat="48.70399" lon="1.95702">
        <ele>147.7</ele>
        <time>2008-04-06T10:43:27.000Z</time>
      </trkpt>
      <trkpt lat="48.70389" lon="1.95699">
        <ele>152.03</ele>
        <time>2008-04-06T10:43:33.000Z</time>
      </trkpt>
      <trkpt lat="48.70376" lon="1.95696">
        <ele>153.95</ele>
        <time>2008-04-06T10:43:41.000Z</time>
      </trkpt>
      <trkpt lat="48.70371" lon="1.95696">
        <ele>151.06</ele>
        <time>2008-04-06T10:43:46.000Z</time>
      </trkpt>
      <trkpt lat="48.7037" lon="1.95714">
        <ele>145.78</ele>
        <time>2008-04-06T10:43:53.000Z</time>
      </trkpt>
      <trkpt lat="48.70367" lon="1.95734">
        <ele>141.45</ele>
        <time>2008-04-06T10:43:59.000Z</time>
      </trkpt>
      <trkpt lat="48.70367" lon="1.95743">
        <ele>138.57</ele>
        <time>2008-04-06T10:44:02.000Z</time>
      </trkpt>
      <trkpt lat="48.70364" lon="1.95755">
        <ele>135.2</ele>
        <time>2008-04-06T10:44:06.000Z</time>
      </trkpt>
      <trkpt lat="48.70361" lon="1.95778">
        <ele>132.8</ele>
        <time>2008-04-06T10:44:13.000Z</time>
      </trkpt>
      <trkpt lat="48.70361" lon="1.95801">
        <ele>133.76</ele>
        <time>2008-04-06T10:44:19.000Z</time>
      </trkpt>
      <trkpt lat="48.70361" lon="1.95823">
        <ele>135.2</ele>
        <time>2008-04-06T10:44:25.000Z</time>
      </trkpt>
      <trkpt lat="48.70359" lon="1.95841">
        <ele>136.64</ele>
        <time>2008-04-06T10:44:30.000Z</time>
      </trkpt>
      <trkpt lat="48.70359" lon="1.95865">
        <ele>137.13</ele>
        <time>2008-04-06T10:44:36.000Z</time>
      </trkpt>
      <trkpt lat="48.70356" lon="1.95888">
        <ele>137.61</ele>
        <time>2008-04-06T10:44:42.000Z</time>
      </trkpt>
      <trkpt lat="48.70353" lon="1.9591">
        <ele>141.45</ele>
        <time>2008-04-06T10:44:47.000Z</time>
      </trkpt>
      <trkpt lat="48.70353" lon="1.9592">
        <ele>143.37</ele>
        <time>2008-04-06T10:44:50.000Z</time>
      </trkpt>
      <trkpt lat="48.70351" lon="1.95935">
        <ele>142.41</ele>
        <time>2008-04-06T10:44:55.000Z</time>
      </trkpt>
      <trkpt lat="48.70349" lon="1.9595">
        <ele>142.41</ele>
        <time>2008-04-06T10:44:59.000Z</time>
      </trkpt>
      <trkpt lat="48.70347" lon="1.95968">
        <ele>142.41</ele>
        <time>2008-04-06T10:45:04.000Z</time>
      </trkpt>
      <trkpt lat="48.70345" lon="1.95975">
        <ele>141.93</ele>
        <time>2008-04-06T10:45:07.000Z</time>
      </trkpt>
      <trkpt lat="48.70338" lon="1.95988">
        <ele>137.61</ele>
        <time>2008-04-06T10:45:12.000Z</time>
      </trkpt>
      <trkpt lat="48.70332" lon="1.96002">
        <ele>136.16</ele>
        <time>2008-04-06T10:45:17.000Z</time>
      </trkpt>
      <trkpt lat="48.70331" lon="1.96004">
        <ele>136.16</ele>
        <time>2008-04-06T10:45:18.000Z</time>
      </trkpt>
      <trkpt lat="48.70331" lon="1.96013">
        <ele>135.68</ele>
        <time>2008-04-06T10:45:21.000Z</time>
      </trkpt>
      <trkpt lat="48.70328" lon="1.96023">
        <ele>136.16</ele>
        <time>2008-04-06T10:45:25.000Z</time>
      </trkpt>
      <trkpt lat="48.7031" lon="1.96045">
        <ele>135.2</ele>
        <time>2008-04-06T10:45:33.000Z</time>
      </trkpt>
      <trkpt lat="48.70309" lon="1.9605">
        <ele>135.2</ele>
        <time>2008-04-06T10:45:35.000Z</time>
      </trkpt>
      <trkpt lat="48.70306" lon="1.96059">
        <ele>135.2</ele>
        <time>2008-04-06T10:45:40.000Z</time>
      </trkpt>
      <trkpt lat="48.70298" lon="1.96074">
        <ele>134.24</ele>
        <time>2008-04-06T10:45:45.000Z</time>
      </trkpt>
      <trkpt lat="48.7029" lon="1.96091">
        <ele>131.36</ele>
        <time>2008-04-06T10:45:50.000Z</time>
      </trkpt>
      <trkpt lat="48.7029" lon="1.96094">
        <ele>131.36</ele>
        <time>2008-04-06T10:45:51.000Z</time>
      </trkpt>
      <trkpt lat="48.70288" lon="1.96099">
        <ele>130.88</ele>
        <time>2008-04-06T10:45:53.000Z</time>
      </trkpt>
      <trkpt lat="48.70285" lon="1.9611">
        <ele>130.4</ele>
        <time>2008-04-06T10:45:57.000Z</time>
      </trkpt>
      <trkpt lat="48.7028" lon="1.96136">
        <ele>133.28</ele>
        <time>2008-04-06T10:46:05.000Z</time>
      </trkpt>
      <trkpt lat="48.70277" lon="1.96155">
        <ele>133.76</ele>
        <time>2008-04-06T10:46:10.000Z</time>
      </trkpt>
      <trkpt lat="48.7027" lon="1.96173">
        <ele>133.28</ele>
        <time>2008-04-06T10:46:16.000Z</time>
      </trkpt>
      <trkpt lat="48.70262" lon="1.96188">
        <ele>131.36</ele>
        <time>2008-04-06T10:46:21.000Z</time>
      </trkpt>
      <trkpt lat="48.70258" lon="1.96197">
        <ele>128.95</ele>
        <time>2008-04-06T10:46:25.000Z</time>
      </trkpt>
      <trkpt lat="48.70251" lon="1.9622">
        <ele>126.55</ele>
        <time>2008-04-06T10:46:32.000Z</time>
      </trkpt>
      <trkpt lat="48.70247" lon="1.96238">
        <ele>123.67</ele>
        <time>2008-04-06T10:46:38.000Z</time>
      </trkpt>
      <trkpt lat="48.70248" lon="1.96255">
        <ele>126.07</ele>
        <time>2008-04-06T10:46:43.000Z</time>
      </trkpt>
      <trkpt lat="48.70242" lon="1.9627">
        <ele>125.11</ele>
        <time>2008-04-06T10:46:48.000Z</time>
      </trkpt>
      <trkpt lat="48.70242" lon="1.96279">
        <ele>125.59</ele>
        <time>2008-04-06T10:46:50.000Z</time>
      </trkpt>
      <trkpt lat="48.7024" lon="1.96298">
        <ele>127.51</ele>
        <time>2008-04-06T10:46:54.000Z</time>
      </trkpt>
      <trkpt lat="48.70241" lon="1.96305">
        <ele>128.95</ele>
        <time>2008-04-06T10:46:56.000Z</time>
      </trkpt>
      <trkpt lat="48.70237" lon="1.96325">
        <ele>131.36</ele>
        <time>2008-04-06T10:47:01.000Z</time>
      </trkpt>
      <trkpt lat="48.70229" lon="1.96344">
        <ele>131.36</ele>
        <time>2008-04-06T10:47:06.000Z</time>
      </trkpt>
      <trkpt lat="48.70227" lon="1.9635">
        <ele>131.84</ele>
        <time>2008-04-06T10:47:08.000Z</time>
      </trkpt>
      <trkpt lat="48.70223" lon="1.96359">
        <ele>133.28</ele>
        <time>2008-04-06T10:47:14.000Z</time>
      </trkpt>
      <trkpt lat="48.70219" lon="1.96357">
        <ele>133.28</ele>
        <time>2008-04-06T10:47:18.000Z</time>
      </trkpt>
      <trkpt lat="48.70215" lon="1.96348">
        <ele>126.55</ele>
        <time>2008-04-06T10:47:26.000Z</time>
      </trkpt>
      <trkpt lat="48.7021" lon="1.96342">
        <ele>127.51</ele>
        <time>2008-04-06T10:47:35.000Z</time>
      </trkpt>
      <trkpt lat="48.70203" lon="1.96352">
        <ele>131.36</ele>
        <time>2008-04-06T10:47:42.000Z</time>
      </trkpt>
      <trkpt lat="48.70199" lon="1.96359">
        <ele>133.76</ele>
        <time>2008-04-06T10:47:50.000Z</time>
      </trkpt>
      <trkpt lat="48.70193" lon="1.96356">
        <ele>134.72</ele>
        <time>2008-04-06T10:47:56.000Z</time>
      </trkpt>
      <trkpt lat="48.70189" lon="1.96351">
        <ele>132.32</ele>
        <time>2008-04-06T10:48:02.000Z</time>
      </trkpt>
      <trkpt lat="48.70186" lon="1.96346">
        <ele>132.8</ele>
        <time>2008-04-06T10:48:07.000Z</time>
      </trkpt>
      <trkpt lat="48.70184" lon="1.96347">
        <ele>133.76</ele>
        <time>2008-04-06T10:48:08.000Z</time>
      </trkpt>
      <trkpt lat="48.70182" lon="1.9635">
        <ele>134.72</ele>
        <time>2008-04-06T10:48:10.000Z</time>
      </trkpt>
      <trkpt lat="48.70175" lon="1.96352">
        <ele>136.16</ele>
        <time>2008-04-06T10:48:16.000Z</time>
      </trkpt>
      <trkpt lat="48.70173" lon="1.96352">
        <ele>137.13</ele>
        <time>2008-04-06T10:48:18.000Z</time>
      </trkpt>
      <trkpt lat="48.70168" lon="1.96349">
        <ele>138.57</ele>
        <time>2008-04-06T10:48:23.000Z</time>
      </trkpt>
      <trkpt lat="48.70161" lon="1.96347">
        <ele>142.41</ele>
        <time>2008-04-06T10:48:28.000Z</time>
      </trkpt>
      <trkpt lat="48.70155" lon="1.96342">
        <ele>141.45</ele>
        <time>2008-04-06T10:48:34.000Z</time>
      </trkpt>
      <trkpt lat="48.70151" lon="1.96331">
        <ele>135.2</ele>
        <time>2008-04-06T10:48:39.000Z</time>
      </trkpt>
      <trkpt lat="48.70149" lon="1.96331">
        <ele>135.2</ele>
        <time>2008-04-06T10:48:41.000Z</time>
      </trkpt>
      <trkpt lat="48.70136" lon="1.96342">
        <ele>140.01</ele>
        <time>2008-04-06T10:48:48.000Z</time>
      </trkpt>
      <trkpt lat="48.70135" lon="1.96343">
        <ele>140.49</ele>
        <time>2008-04-06T10:48:49.000Z</time>
      </trkpt>
      <trkpt lat="48.7013" lon="1.96354">
        <ele>141.45</ele>
        <time>2008-04-06T10:48:55.000Z</time>
      </trkpt>
      <trkpt lat="48.70128" lon="1.96359">
        <ele>144.34</ele>
        <time>2008-04-06T10:48:59.000Z</time>
      </trkpt>
      <trkpt lat="48.70127" lon="1.96365">
        <ele>148.66</ele>
        <time>2008-04-06T10:49:04.000Z</time>
      </trkpt>
      <trkpt lat="48.70123" lon="1.96371">
        <ele>149.14</ele>
        <time>2008-04-06T10:49:08.000Z</time>
      </trkpt>
      <trkpt lat="48.70121" lon="1.96376">
        <ele>152.03</ele>
        <time>2008-04-06T10:49:14.000Z</time>
      </trkpt>
      <trkpt lat="48.70115" lon="1.96381">
        <ele>154.43</ele>
        <time>2008-04-06T10:49:22.000Z</time>
      </trkpt>
      <trkpt lat="48.70113" lon="1.96382">
        <ele>152.99</ele>
        <time>2008-04-06T10:49:23.000Z</time>
      </trkpt>
      <trkpt lat="48.70106" lon="1.96383">
        <ele>149.62</ele>
        <time>2008-04-06T10:49:30.000Z</time>
      </trkpt>
      <trkpt lat="48.70101" lon="1.96387">
        <ele>152.03</ele>
        <time>2008-04-06T10:49:36.000Z</time>
      </trkpt>
      <trkpt lat="48.70097" lon="1.9639">
        <ele>153.47</ele>
        <time>2008-04-06T10:49:41.000Z</time>
      </trkpt>
      <trkpt lat="48.70091" lon="1.96392">
        <ele>156.83</ele>
        <time>2008-04-06T10:49:48.000Z</time>
      </trkpt>
      <trkpt lat="48.70082" lon="1.96395">
        <ele>157.79</ele>
        <time>2008-04-06T10:49:54.000Z</time>
      </trkpt>
      <trkpt lat="48.70078" lon="1.96394">
        <ele>158.75</ele>
        <time>2008-04-06T10:50:00.000Z</time>
      </trkpt>
      <trkpt lat="48.70076" lon="1.96395">
        <ele>160.68</ele>
        <time>2008-04-06T10:50:04.000Z</time>
      </trkpt>
      <trkpt lat="48.70069" lon="1.96396">
        <ele>159.72</ele>
        <time>2008-04-06T10:50:10.000Z</time>
      </trkpt>
      <trkpt lat="48.70061" lon="1.96403">
        <ele>161.64</ele>
        <time>2008-04-06T10:50:18.000Z</time>
      </trkpt>
      <trkpt lat="48.70048" lon="1.96407">
        <ele>165</ele>
        <time>2008-04-06T10:50:27.000Z</time>
      </trkpt>
      <trkpt lat="48.70042" lon="1.96402">
        <ele>166.93</ele>
        <time>2008-04-06T10:50:33.000Z</time>
      </trkpt>
      <trkpt lat="48.70041" lon="1.96402">
        <ele>166.45</ele>
        <time>2008-04-06T10:50:34.000Z</time>
      </trkpt>
      <trkpt lat="48.70038" lon="1.96396">
        <ele>166.93</ele>
        <time>2008-04-06T10:50:38.000Z</time>
      </trkpt>
      <trkpt lat="48.70027" lon="1.96394">
        <ele>168.37</ele>
        <time>2008-04-06T10:50:47.000Z</time>
      </trkpt>
      <trkpt lat="48.70018" lon="1.96395">
        <ele>165.96</ele>
        <time>2008-04-06T10:50:53.000Z</time>
      </trkpt>
      <trkpt lat="48.70011" lon="1.964">
        <ele>165.96</ele>
        <time>2008-04-06T10:50:57.000Z</time>
      </trkpt>
      <trkpt lat="48.70003" lon="1.96405">
        <ele>165.96</ele>
        <time>2008-04-06T10:51:01.000Z</time>
      </trkpt>
      <trkpt lat="48.69996" lon="1.96405">
        <ele>165</ele>
        <time>2008-04-06T10:51:06.000Z</time>
      </trkpt>
      <trkpt lat="48.69985" lon="1.96404">
        <ele>163.56</ele>
        <time>2008-04-06T10:51:12.000Z</time>
      </trkpt>
      <trkpt lat="48.69977" lon="1.96406">
        <ele>164.04</ele>
        <time>2008-04-06T10:51:16.000Z</time>
      </trkpt>
      <trkpt lat="48.69971" lon="1.96406">
        <ele>165.48</ele>
        <time>2008-04-06T10:51:20.000Z</time>
      </trkpt>
      <trkpt lat="48.69969" lon="1.96405">
        <ele>165.48</ele>
        <time>2008-04-06T10:51:21.000Z</time>
      </trkpt>
      <trkpt lat="48.69959" lon="1.96404">
        <ele>165.48</ele>
        <time>2008-04-06T10:51:27.000Z</time>
      </trkpt>
      <trkpt lat="48.69953" lon="1.96407">
        <ele>166.93</ele>
        <time>2008-04-06T10:51:30.000Z</time>
      </trkpt>
      <trkpt lat="48.69949" lon="1.96409">
        <ele>163.56</ele>
        <time>2008-04-06T10:51:34.000Z</time>
      </trkpt>
      <trkpt lat="48.69942" lon="1.96418">
        <ele>164.52</ele>
        <time>2008-04-06T10:51:41.000Z</time>
      </trkpt>
      <trkpt lat="48.69941" lon="1.96424">
        <ele>167.41</ele>
        <time>2008-04-06T10:51:44.000Z</time>
      </trkpt>
      <trkpt lat="48.69936" lon="1.96429">
        <ele>171.25</ele>
        <time>2008-04-06T10:51:48.000Z</time>
      </trkpt>
      <trkpt lat="48.69928" lon="1.96434">
        <ele>172.69</ele>
        <time>2008-04-06T10:51:53.000Z</time>
      </trkpt>
      <trkpt lat="48.69924" lon="1.96436">
        <ele>173.66</ele>
        <time>2008-04-06T10:51:56.000Z</time>
      </trkpt>
      <trkpt lat="48.69923" lon="1.96436">
        <ele>173.66</ele>
        <time>2008-04-06T10:51:58.000Z</time>
      </trkpt>
      <trkpt lat="48.69914" lon="1.9644">
        <ele>174.62</ele>
        <time>2008-04-06T10:52:04.000Z</time>
      </trkpt>
      <trkpt lat="48.69912" lon="1.96441">
        <ele>175.58</ele>
        <time>2008-04-06T10:52:05.000Z</time>
      </trkpt>
      <trkpt lat="48.69902" lon="1.96442">
        <ele>175.1</ele>
        <time>2008-04-06T10:52:11.000Z</time>
      </trkpt>
      <trkpt lat="48.699" lon="1.96442">
        <ele>174.62</ele>
        <time>2008-04-06T10:52:12.000Z</time>
      </trkpt>
      <trkpt lat="48.69888" lon="1.96441">
        <ele>171.73</ele>
        <time>2008-04-06T10:52:17.000Z</time>
      </trkpt>
      <trkpt lat="48.69878" lon="1.96439">
        <ele>170.77</ele>
        <time>2008-04-06T10:52:22.000Z</time>
      </trkpt>
      <trkpt lat="48.69875" lon="1.96442">
        <ele>171.73</ele>
        <time>2008-04-06T10:52:24.000Z</time>
      </trkpt>
      <trkpt lat="48.69868" lon="1.9643">
        <ele>172.69</ele>
        <time>2008-04-06T10:52:29.000Z</time>
      </trkpt>
      <trkpt lat="48.69858" lon="1.96432">
        <ele>174.62</ele>
        <time>2008-04-06T10:52:34.000Z</time>
      </trkpt>
      <trkpt lat="48.69851" lon="1.96432">
        <ele>173.17</ele>
        <time>2008-04-06T10:52:39.000Z</time>
      </trkpt>
      <trkpt lat="48.69841" lon="1.96439">
        <ele>172.69</ele>
        <time>2008-04-06T10:52:44.000Z</time>
      </trkpt>
      <trkpt lat="48.69838" lon="1.9644">
        <ele>173.66</ele>
        <time>2008-04-06T10:52:45.000Z</time>
      </trkpt>
      <trkpt lat="48.69825" lon="1.96442">
        <ele>176.54</ele>
        <time>2008-04-06T10:52:51.000Z</time>
      </trkpt>
      <trkpt lat="48.69817" lon="1.96444">
        <ele>177.02</ele>
        <time>2008-04-06T10:52:55.000Z</time>
      </trkpt>
      <trkpt lat="48.69813" lon="1.96448">
        <ele>177.02</ele>
        <time>2008-04-06T10:52:57.000Z</time>
      </trkpt>
      <trkpt lat="48.6981" lon="1.96451">
        <ele>177.02</ele>
        <time>2008-04-06T10:52:59.000Z</time>
      </trkpt>
      <trkpt lat="48.69804" lon="1.96463">
        <ele>175.1</ele>
        <time>2008-04-06T10:53:05.000Z</time>
      </trkpt>
      <trkpt lat="48.69798" lon="1.96475">
        <ele>173.66</ele>
        <time>2008-04-06T10:53:10.000Z</time>
      </trkpt>
      <trkpt lat="48.69791" lon="1.96487">
        <ele>171.25</ele>
        <time>2008-04-06T10:53:15.000Z</time>
      </trkpt>
      <trkpt lat="48.69784" lon="1.96501">
        <ele>170.77</ele>
        <time>2008-04-06T10:53:20.000Z</time>
      </trkpt>
      <trkpt lat="48.69777" lon="1.96518">
        <ele>174.62</ele>
        <time>2008-04-06T10:53:26.000Z</time>
      </trkpt>
      <trkpt lat="48.69775" lon="1.96535">
        <ele>178.94</ele>
        <time>2008-04-06T10:53:31.000Z</time>
      </trkpt>
      <trkpt lat="48.69769" lon="1.9655">
        <ele>178.94</ele>
        <time>2008-04-06T10:53:36.000Z</time>
      </trkpt>
      <trkpt lat="48.69761" lon="1.96569">
        <ele>178.46</ele>
        <time>2008-04-06T10:53:41.000Z</time>
      </trkpt>
      <trkpt lat="48.69755" lon="1.96584">
        <ele>177.5</ele>
        <time>2008-04-06T10:53:46.000Z</time>
      </trkpt>
      <trkpt lat="48.69748" lon="1.96601">
        <ele>178.46</ele>
        <time>2008-04-06T10:53:51.000Z</time>
      </trkpt>
      <trkpt lat="48.69739" lon="1.9662">
        <ele>179.42</ele>
        <time>2008-04-06T10:53:57.000Z</time>
      </trkpt>
      <trkpt lat="48.69737" lon="1.96623">
        <ele>179.42</ele>
        <time>2008-04-06T10:53:58.000Z</time>
      </trkpt>
      <trkpt lat="48.69731" lon="1.9664">
        <ele>179.42</ele>
        <time>2008-04-06T10:54:03.000Z</time>
      </trkpt>
      <trkpt lat="48.69719" lon="1.96657">
        <ele>176.06</ele>
        <time>2008-04-06T10:54:09.000Z</time>
      </trkpt>
      <trkpt lat="48.69711" lon="1.96668">
        <ele>175.1</ele>
        <time>2008-04-06T10:54:14.000Z</time>
      </trkpt>
      <trkpt lat="48.69703" lon="1.96671">
        <ele>175.58</ele>
        <time>2008-04-06T10:54:18.000Z</time>
      </trkpt>
      <trkpt lat="48.69691" lon="1.96667">
        <ele>176.54</ele>
        <time>2008-04-06T10:54:24.000Z</time>
      </trkpt>
      <trkpt lat="48.69683" lon="1.96664">
        <ele>176.54</ele>
        <time>2008-04-06T10:54:29.000Z</time>
      </trkpt>
      <trkpt lat="48.69674" lon="1.96657">
        <ele>175.58</ele>
        <time>2008-04-06T10:54:34.000Z</time>
      </trkpt>
      <trkpt lat="48.69662" lon="1.96654">
        <ele>177.02</ele>
        <time>2008-04-06T10:54:39.000Z</time>
      </trkpt>
      <trkpt lat="48.69651" lon="1.96647">
        <ele>171.73</ele>
        <time>2008-04-06T10:54:46.000Z</time>
      </trkpt>
      <trkpt lat="48.69641" lon="1.96641">
        <ele>169.33</ele>
        <time>2008-04-06T10:54:51.000Z</time>
      </trkpt>
      <trkpt lat="48.69628" lon="1.96635">
        <ele>169.33</ele>
        <time>2008-04-06T10:54:57.000Z</time>
      </trkpt>
      <trkpt lat="48.69626" lon="1.96633">
        <ele>168.85</ele>
        <time>2008-04-06T10:54:58.000Z</time>
      </trkpt>
      <trkpt lat="48.6962" lon="1.96621">
        <ele>167.41</ele>
        <time>2008-04-06T10:55:02.000Z</time>
      </trkpt>
      <trkpt lat="48.69613" lon="1.96607">
        <ele>165</ele>
        <time>2008-04-06T10:55:08.000Z</time>
      </trkpt>
      <trkpt lat="48.69608" lon="1.96602">
        <ele>160.68</ele>
        <time>2008-04-06T10:55:12.000Z</time>
      </trkpt>
      <trkpt lat="48.69602" lon="1.96592">
        <ele>154.91</ele>
        <time>2008-04-06T10:55:18.000Z</time>
      </trkpt>
      <trkpt lat="48.696" lon="1.96591">
        <ele>153.95</ele>
        <time>2008-04-06T10:55:19.000Z</time>
      </trkpt>
      <trkpt lat="48.69591" lon="1.96579">
        <ele>146.74</ele>
        <time>2008-04-06T10:55:26.000Z</time>
      </trkpt>
      <trkpt lat="48.6959" lon="1.96576">
        <ele>145.78</ele>
        <time>2008-04-06T10:55:27.000Z</time>
      </trkpt>
      <trkpt lat="48.69584" lon="1.96563">
        <ele>138.57</ele>
        <time>2008-04-06T10:55:33.000Z</time>
      </trkpt>
      <trkpt lat="48.6958" lon="1.96557">
        <ele>134.72</ele>
        <time>2008-04-06T10:55:36.000Z</time>
      </trkpt>
      <trkpt lat="48.69578" lon="1.9655">
        <ele>132.32</ele>
        <time>2008-04-06T10:55:39.000Z</time>
      </trkpt>
      <trkpt lat="48.69572" lon="1.96542">
        <ele>124.63</ele>
        <time>2008-04-06T10:55:45.000Z</time>
      </trkpt>
      <trkpt lat="48.69573" lon="1.96538">
        <ele>122.71</ele>
        <time>2008-04-06T10:55:47.000Z</time>
      </trkpt>
      <trkpt lat="48.69576" lon="1.96524">
        <ele>112.61</ele>
        <time>2008-04-06T10:55:54.000Z</time>
      </trkpt>
      <trkpt lat="48.69576" lon="1.96522">
        <ele>111.65</ele>
        <time>2008-04-06T10:55:55.000Z</time>
      </trkpt>
      <trkpt lat="48.69573" lon="1.96505">
        <ele>104.44</ele>
        <time>2008-04-06T10:56:01.000Z</time>
      </trkpt>
      <trkpt lat="48.69572" lon="1.96502">
        <ele>104.44</ele>
        <time>2008-04-06T10:56:02.000Z</time>
      </trkpt>
      <trkpt lat="48.69567" lon="1.96487">
        <ele>101.08</ele>
        <time>2008-04-06T10:56:08.000Z</time>
      </trkpt>
      <trkpt lat="48.69562" lon="1.96475">
        <ele>97.23</ele>
        <time>2008-04-06T10:56:13.000Z</time>
      </trkpt>
      <trkpt lat="48.69561" lon="1.96469">
        <ele>95.31</ele>
        <time>2008-04-06T10:56:15.000Z</time>
      </trkpt>
      <trkpt lat="48.69557" lon="1.96462">
        <ele>93.87</ele>
        <time>2008-04-06T10:56:18.000Z</time>
      </trkpt>
      <trkpt lat="48.6955" lon="1.96456">
        <ele>88.1</ele>
        <time>2008-04-06T10:56:23.000Z</time>
      </trkpt>
      <trkpt lat="48.69546" lon="1.96437">
        <ele>81.85</ele>
        <time>2008-04-06T10:56:29.000Z</time>
      </trkpt>
      <trkpt lat="48.69542" lon="1.96416">
        <ele>79.93</ele>
        <time>2008-04-06T10:56:34.000Z</time>
      </trkpt>
      <trkpt lat="48.69542" lon="1.96412">
        <ele>79.45</ele>
        <time>2008-04-06T10:56:35.000Z</time>
      </trkpt>
      <trkpt lat="48.69542" lon="1.96402">
        <ele>78</ele>
        <time>2008-04-06T10:56:39.000Z</time>
      </trkpt>
      <trkpt lat="48.6954" lon="1.96393">
        <ele>76.56</ele>
        <time>2008-04-06T10:56:43.000Z</time>
      </trkpt>
      <trkpt lat="48.6953" lon="1.96377">
        <ele>78.48</ele>
        <time>2008-04-06T10:56:50.000Z</time>
      </trkpt>
      <trkpt lat="48.69524" lon="1.96372">
        <ele>77.04</ele>
        <time>2008-04-06T10:56:54.000Z</time>
      </trkpt>
      <trkpt lat="48.69513" lon="1.9636">
        <ele>75.12</ele>
        <time>2008-04-06T10:57:00.000Z</time>
      </trkpt>
      <trkpt lat="48.69511" lon="1.96359">
        <ele>76.08</ele>
        <time>2008-04-06T10:57:01.000Z</time>
      </trkpt>
      <trkpt lat="48.69505" lon="1.96349">
        <ele>74.64</ele>
        <time>2008-04-06T10:57:06.000Z</time>
      </trkpt>
      <trkpt lat="48.69501" lon="1.96343">
        <ele>74.16</ele>
        <time>2008-04-06T10:57:09.000Z</time>
      </trkpt>
      <trkpt lat="48.69492" lon="1.96328">
        <ele>82.33</ele>
        <time>2008-04-06T10:57:14.000Z</time>
      </trkpt>
      <trkpt lat="48.69478" lon="1.96305">
        <ele>93.39</ele>
        <time>2008-04-06T10:57:18.000Z</time>
      </trkpt>
      <trkpt lat="48.69471" lon="1.9629">
        <ele>96.27</ele>
        <time>2008-04-06T10:57:21.000Z</time>
      </trkpt>
      <trkpt lat="48.69464" lon="1.96279">
        <ele>96.75</ele>
        <time>2008-04-06T10:57:26.000Z</time>
      </trkpt>
      <trkpt lat="48.69461" lon="1.96275">
        <ele>96.27</ele>
        <time>2008-04-06T10:57:28.000Z</time>
      </trkpt>
      <trkpt lat="48.69458" lon="1.96261">
        <ele>93.39</ele>
        <time>2008-04-06T10:57:33.000Z</time>
      </trkpt>
      <trkpt lat="48.69457" lon="1.96245">
        <ele>87.62</ele>
        <time>2008-04-06T10:57:40.000Z</time>
      </trkpt>
      <trkpt lat="48.69456" lon="1.96244">
        <ele>86.66</ele>
        <time>2008-04-06T10:57:41.000Z</time>
      </trkpt>
      <trkpt lat="48.69453" lon="1.96233">
        <ele>84.73</ele>
        <time>2008-04-06T10:57:45.000Z</time>
      </trkpt>
      <trkpt lat="48.69451" lon="1.96221">
        <ele>81.85</ele>
        <time>2008-04-06T10:57:49.000Z</time>
      </trkpt>
      <trkpt lat="48.69453" lon="1.96212">
        <ele>78</ele>
        <time>2008-04-06T10:57:54.000Z</time>
      </trkpt>
      <trkpt lat="48.69451" lon="1.96209">
        <ele>74.64</ele>
        <time>2008-04-06T10:57:56.000Z</time>
      </trkpt>
      <trkpt lat="48.6944" lon="1.96188">
        <ele>80.89</ele>
        <time>2008-04-06T10:58:01.000Z</time>
      </trkpt>
      <trkpt lat="48.69419" lon="1.96158">
        <ele>105.88</ele>
        <time>2008-04-06T10:58:20.000Z</time>
      </trkpt>
      <trkpt lat="48.69415" lon="1.96155">
        <ele>108.77</ele>
        <time>2008-04-06T10:58:22.000Z</time>
      </trkpt>
      <trkpt lat="48.69407" lon="1.96148">
        <ele>109.25</ele>
        <time>2008-04-06T10:58:27.000Z</time>
      </trkpt>
      <trkpt lat="48.69401" lon="1.96136">
        <ele>110.21</ele>
        <time>2008-04-06T10:58:35.000Z</time>
      </trkpt>
      <trkpt lat="48.69398" lon="1.9613">
        <ele>113.09</ele>
        <time>2008-04-06T10:58:40.000Z</time>
      </trkpt>
      <trkpt lat="48.69395" lon="1.96122">
        <ele>115.98</ele>
        <time>2008-04-06T10:58:45.000Z</time>
      </trkpt>
      <trkpt lat="48.69387" lon="1.96114">
        <ele>122.22</ele>
        <time>2008-04-06T10:58:51.000Z</time>
      </trkpt>
      <trkpt lat="48.69378" lon="1.96103">
        <ele>132.32</ele>
        <time>2008-04-06T10:58:56.000Z</time>
      </trkpt>
      <trkpt lat="48.69376" lon="1.96103">
        <ele>132.32</ele>
        <time>2008-04-06T10:58:57.000Z</time>
      </trkpt>
      <trkpt lat="48.69368" lon="1.96097">
        <ele>131.36</ele>
        <time>2008-04-06T10:59:01.000Z</time>
      </trkpt>
      <trkpt lat="48.69361" lon="1.96086">
        <ele>132.32</ele>
        <time>2008-04-06T10:59:06.000Z</time>
      </trkpt>
      <trkpt lat="48.69358" lon="1.9608">
        <ele>130.88</ele>
        <time>2008-04-06T10:59:09.000Z</time>
      </trkpt>
      <trkpt lat="48.69352" lon="1.96078">
        <ele>132.32</ele>
        <time>2008-04-06T10:59:12.000Z</time>
      </trkpt>
      <trkpt lat="48.69342" lon="1.96067">
        <ele>134.72</ele>
        <time>2008-04-06T10:59:18.000Z</time>
      </trkpt>
      <trkpt lat="48.6934" lon="1.9606">
        <ele>133.28</ele>
        <time>2008-04-06T10:59:20.000Z</time>
      </trkpt>
      <trkpt lat="48.69339" lon="1.96054">
        <ele>130.4</ele>
        <time>2008-04-06T10:59:23.000Z</time>
      </trkpt>
      <trkpt lat="48.69338" lon="1.96044">
        <ele>128.47</ele>
        <time>2008-04-06T10:59:28.000Z</time>
      </trkpt>
      <trkpt lat="48.69334" lon="1.96032">
        <ele>125.11</ele>
        <time>2008-04-06T10:59:35.000Z</time>
      </trkpt>
      <trkpt lat="48.69331" lon="1.96023">
        <ele>123.19</ele>
        <time>2008-04-06T10:59:40.000Z</time>
      </trkpt>
      <trkpt lat="48.69327" lon="1.96014">
        <ele>119.82</ele>
        <time>2008-04-06T10:59:47.000Z</time>
      </trkpt>
      <trkpt lat="48.69323" lon="1.9601">
        <ele>117.9</ele>
        <time>2008-04-06T10:59:51.000Z</time>
      </trkpt>
      <trkpt lat="48.6932" lon="1.96002">
        <ele>116.94</ele>
        <time>2008-04-06T10:59:56.000Z</time>
      </trkpt>
      <trkpt lat="48.69318" lon="1.95995">
        <ele>115.5</ele>
        <time>2008-04-06T11:00:00.000Z</time>
      </trkpt>
      <trkpt lat="48.69318" lon="1.9599">
        <ele>114.05</ele>
        <time>2008-04-06T11:00:02.000Z</time>
      </trkpt>
      <trkpt lat="48.69317" lon="1.95979">
        <ele>115.01</ele>
        <time>2008-04-06T11:00:08.000Z</time>
      </trkpt>
      <trkpt lat="48.69318" lon="1.95966">
        <ele>117.9</ele>
        <time>2008-04-06T11:00:17.000Z</time>
      </trkpt>
      <trkpt lat="48.69315" lon="1.95959">
        <ele>121.74</ele>
        <time>2008-04-06T11:00:22.000Z</time>
      </trkpt>
      <trkpt lat="48.69307" lon="1.95959">
        <ele>128.47</ele>
        <time>2008-04-06T11:00:27.000Z</time>
      </trkpt>
      <trkpt lat="48.69296" lon="1.95957">
        <ele>134.24</ele>
        <time>2008-04-06T11:00:32.000Z</time>
      </trkpt>
      <trkpt lat="48.69282" lon="1.95955">
        <ele>140.49</ele>
        <time>2008-04-06T11:00:37.000Z</time>
      </trkpt>
      <trkpt lat="48.6927" lon="1.95955">
        <ele>148.18</ele>
        <time>2008-04-06T11:00:42.000Z</time>
      </trkpt>
      <trkpt lat="48.69257" lon="1.9595">
        <ele>163.56</ele>
        <time>2008-04-06T11:00:47.000Z</time>
      </trkpt>
      <trkpt lat="48.69249" lon="1.95951">
        <ele>168.37</ele>
        <time>2008-04-06T11:00:50.000Z</time>
      </trkpt>
      <trkpt lat="48.69238" lon="1.95951">
        <ele>171.25</ele>
        <time>2008-04-06T11:00:55.000Z</time>
      </trkpt>
      <trkpt lat="48.6923" lon="1.95956">
        <ele>176.54</ele>
        <time>2008-04-06T11:00:58.000Z</time>
      </trkpt>
      <trkpt lat="48.69217" lon="1.95963">
        <ele>182.79</ele>
        <time>2008-04-06T11:01:03.000Z</time>
      </trkpt>
      <trkpt lat="48.69209" lon="1.95962">
        <ele>183.27</ele>
        <time>2008-04-06T11:01:08.000Z</time>
      </trkpt>
      <trkpt lat="48.69208" lon="1.95962">
        <ele>182.79</ele>
        <time>2008-04-06T11:01:09.000Z</time>
      </trkpt>
      <trkpt lat="48.69198" lon="1.95971">
        <ele>181.35</ele>
        <time>2008-04-06T11:01:14.000Z</time>
      </trkpt>
      <trkpt lat="48.69186" lon="1.95984">
        <ele>183.75</ele>
        <time>2008-04-06T11:01:19.000Z</time>
      </trkpt>
      <trkpt lat="48.69174" lon="1.95999">
        <ele>187.11</ele>
        <time>2008-04-06T11:01:24.000Z</time>
      </trkpt>
      <trkpt lat="48.69165" lon="1.96001">
        <ele>186.63</ele>
        <time>2008-04-06T11:01:29.000Z</time>
      </trkpt>
      <trkpt lat="48.69154" lon="1.96012">
        <ele>188.56</ele>
        <time>2008-04-06T11:01:33.000Z</time>
      </trkpt>
      <trkpt lat="48.69145" lon="1.96015">
        <ele>184.71</ele>
        <time>2008-04-06T11:01:38.000Z</time>
      </trkpt>
      <trkpt lat="48.69136" lon="1.96019">
        <ele>180.38</ele>
        <time>2008-04-06T11:01:43.000Z</time>
      </trkpt>
      <trkpt lat="48.69134" lon="1.96019">
        <ele>179.42</ele>
        <time>2008-04-06T11:01:44.000Z</time>
      </trkpt>
      <trkpt lat="48.69123" lon="1.96028">
        <ele>176.06</ele>
        <time>2008-04-06T11:01:51.000Z</time>
      </trkpt>
      <trkpt lat="48.69116" lon="1.96034">
        <ele>176.06</ele>
        <time>2008-04-06T11:01:57.000Z</time>
      </trkpt>
      <trkpt lat="48.69112" lon="1.96038">
        <ele>177.5</ele>
        <time>2008-04-06T11:02:02.000Z</time>
      </trkpt>
      <trkpt lat="48.69107" lon="1.96036">
        <ele>178.46</ele>
        <time>2008-04-06T11:02:07.000Z</time>
      </trkpt>
      <trkpt lat="48.6911" lon="1.96038">
        <ele>181.35</ele>
        <time>2008-04-06T11:02:47.000Z</time>
      </trkpt>
      <trkpt lat="48.69104" lon="1.96045">
        <ele>192.88</ele>
        <time>2008-04-06T11:02:56.000Z</time>
      </trkpt>
      <trkpt lat="48.69101" lon="1.96042">
        <ele>194.32</ele>
        <time>2008-04-06T11:03:04.000Z</time>
      </trkpt>
      <trkpt lat="48.6911" lon="1.96033">
        <ele>194.32</ele>
        <time>2008-04-06T11:03:24.000Z</time>
      </trkpt>
      <trkpt lat="48.69112" lon="1.96036">
        <ele>195.77</ele>
        <time>2008-04-06T11:03:43.000Z</time>
      </trkpt>
      <trkpt lat="48.69114" lon="1.96048">
        <ele>194.32</ele>
        <time>2008-04-06T11:04:02.000Z</time>
      </trkpt>
      <trkpt lat="48.69123" lon="1.96043">
        <ele>201.53</ele>
        <time>2008-04-06T11:04:17.000Z</time>
      </trkpt>
      <trkpt lat="48.69111" lon="1.96035">
        <ele>183.75</ele>
        <time>2008-04-06T11:04:31.000Z</time>
      </trkpt>
      <trkpt lat="48.69104" lon="1.96033">
        <ele>177.02</ele>
        <time>2008-04-06T11:04:38.000Z</time>
      </trkpt>
      <trkpt lat="48.69103" lon="1.96036">
        <ele>187.11</ele>
        <time>2008-04-06T11:04:53.000Z</time>
      </trkpt>
      <trkpt lat="48.69102" lon="1.9604">
        <ele>189.52</ele>
        <time>2008-04-06T11:05:22.000Z</time>
      </trkpt>
      <trkpt lat="48.69102" lon="1.96035">
        <ele>185.19</ele>
        <time>2008-04-06T11:05:33.000Z</time>
      </trkpt>
      <trkpt lat="48.69101" lon="1.96039">
        <ele>192.88</ele>
        <time>2008-04-06T11:05:51.000Z</time>
      </trkpt>
      <trkpt lat="48.69101" lon="1.96044">
        <ele>193.84</ele>
        <time>2008-04-06T11:05:53.000Z</time>
      </trkpt>
      <trkpt lat="48.69097" lon="1.96041">
        <ele>190</ele>
        <time>2008-04-06T11:06:00.000Z</time>
      </trkpt>
      <trkpt lat="48.69096" lon="1.96035">
        <ele>186.15</ele>
        <time>2008-04-06T11:06:06.000Z</time>
      </trkpt>
      <trkpt lat="48.69095" lon="1.96024">
        <ele>181.35</ele>
        <time>2008-04-06T11:06:13.000Z</time>
      </trkpt>
      <trkpt lat="48.69093" lon="1.9602">
        <ele>178.94</ele>
        <time>2008-04-06T11:06:19.000Z</time>
      </trkpt>
      <trkpt lat="48.6909" lon="1.96017">
        <ele>178.46</ele>
        <time>2008-04-06T11:06:25.000Z</time>
      </trkpt>
      <trkpt lat="48.69086" lon="1.96012">
        <ele>177.5</ele>
        <time>2008-04-06T11:06:28.000Z</time>
      </trkpt>
      <trkpt lat="48.69081" lon="1.96003">
        <ele>177.5</ele>
        <time>2008-04-06T11:06:35.000Z</time>
      </trkpt>
      <trkpt lat="48.69078" lon="1.95989">
        <ele>172.69</ele>
        <time>2008-04-06T11:06:43.000Z</time>
      </trkpt>
      <trkpt lat="48.69075" lon="1.95983">
        <ele>171.25</ele>
        <time>2008-04-06T11:06:47.000Z</time>
      </trkpt>
      <trkpt lat="48.69073" lon="1.95978">
        <ele>170.77</ele>
        <time>2008-04-06T11:06:50.000Z</time>
      </trkpt>
      <trkpt lat="48.69075" lon="1.95967">
        <ele>170.77</ele>
        <time>2008-04-06T11:06:55.000Z</time>
      </trkpt>
      <trkpt lat="48.69075" lon="1.95954">
        <ele>173.17</ele>
        <time>2008-04-06T11:07:02.000Z</time>
      </trkpt>
      <trkpt lat="48.69075" lon="1.95954">
        <ele>174.62</ele>
        <time>2008-04-06T11:07:04.000Z</time>
      </trkpt>
      <trkpt lat="48.69072" lon="1.95946">
        <ele>172.69</ele>
        <time>2008-04-06T11:07:09.000Z</time>
      </trkpt>
      <trkpt lat="48.69074" lon="1.95931">
        <ele>176.06</ele>
        <time>2008-04-06T11:07:16.000Z</time>
      </trkpt>
      <trkpt lat="48.69077" lon="1.95924">
        <ele>175.58</ele>
        <time>2008-04-06T11:07:21.000Z</time>
      </trkpt>
      <trkpt lat="48.69077" lon="1.95915">
        <ele>175.58</ele>
        <time>2008-04-06T11:07:26.000Z</time>
      </trkpt>
      <trkpt lat="48.69078" lon="1.95904">
        <ele>174.62</ele>
        <time>2008-04-06T11:07:31.000Z</time>
      </trkpt>
      <trkpt lat="48.69081" lon="1.95889">
        <ele>178.46</ele>
        <time>2008-04-06T11:07:38.000Z</time>
      </trkpt>
      <trkpt lat="48.69081" lon="1.95885">
        <ele>179.9</ele>
        <time>2008-04-06T11:07:40.000Z</time>
      </trkpt>
      <trkpt lat="48.69081" lon="1.95875">
        <ele>177.98</ele>
        <time>2008-04-06T11:07:44.000Z</time>
      </trkpt>
      <trkpt lat="48.69086" lon="1.95862">
        <ele>179.42</ele>
        <time>2008-04-06T11:07:51.000Z</time>
      </trkpt>
      <trkpt lat="48.69089" lon="1.95852">
        <ele>178.46</ele>
        <time>2008-04-06T11:07:56.000Z</time>
      </trkpt>
      <trkpt lat="48.69094" lon="1.95844">
        <ele>178.46</ele>
        <time>2008-04-06T11:08:01.000Z</time>
      </trkpt>
      <trkpt lat="48.69097" lon="1.95834">
        <ele>177.02</ele>
        <time>2008-04-06T11:08:06.000Z</time>
      </trkpt>
      <trkpt lat="48.691" lon="1.95824">
        <ele>177.5</ele>
        <time>2008-04-06T11:08:11.000Z</time>
      </trkpt>
      <trkpt lat="48.69107" lon="1.95808">
        <ele>178.46</ele>
        <time>2008-04-06T11:08:18.000Z</time>
      </trkpt>
      <trkpt lat="48.6911" lon="1.95801">
        <ele>179.42</ele>
        <time>2008-04-06T11:08:22.000Z</time>
      </trkpt>
      <trkpt lat="48.69111" lon="1.95797">
        <ele>179.42</ele>
        <time>2008-04-06T11:08:24.000Z</time>
      </trkpt>
      <trkpt lat="48.69113" lon="1.95793">
        <ele>179.9</ele>
        <time>2008-04-06T11:08:26.000Z</time>
      </trkpt>
      <trkpt lat="48.69118" lon="1.9578">
        <ele>179.9</ele>
        <time>2008-04-06T11:08:32.000Z</time>
      </trkpt>
      <trkpt lat="48.6912" lon="1.95778">
        <ele>177.98</ele>
        <time>2008-04-06T11:08:34.000Z</time>
      </trkpt>
      <trkpt lat="48.69124" lon="1.95773">
        <ele>180.87</ele>
        <time>2008-04-06T11:08:39.000Z</time>
      </trkpt>
      <trkpt lat="48.69129" lon="1.95759">
        <ele>180.87</ele>
        <time>2008-04-06T11:08:47.000Z</time>
      </trkpt>
      <trkpt lat="48.69138" lon="1.95744">
        <ele>178.94</ele>
        <time>2008-04-06T11:08:53.000Z</time>
      </trkpt>
      <trkpt lat="48.69145" lon="1.95735">
        <ele>176.06</ele>
        <time>2008-04-06T11:08:58.000Z</time>
      </trkpt>
      <trkpt lat="48.69152" lon="1.9572">
        <ele>172.69</ele>
        <time>2008-04-06T11:09:04.000Z</time>
      </trkpt>
      <trkpt lat="48.69159" lon="1.95709">
        <ele>173.66</ele>
        <time>2008-04-06T11:09:09.000Z</time>
      </trkpt>
      <trkpt lat="48.69165" lon="1.95695">
        <ele>175.1</ele>
        <time>2008-04-06T11:09:14.000Z</time>
      </trkpt>
      <trkpt lat="48.69169" lon="1.95686">
        <ele>176.06</ele>
        <time>2008-04-06T11:09:18.000Z</time>
      </trkpt>
      <trkpt lat="48.69175" lon="1.95672">
        <ele>178.46</ele>
        <time>2008-04-06T11:09:24.000Z</time>
      </trkpt>
      <trkpt lat="48.69173" lon="1.95671">
        <ele>178.94</ele>
        <time>2008-04-06T11:09:27.000Z</time>
      </trkpt>
      <trkpt lat="48.69168" lon="1.95669">
        <ele>178.46</ele>
        <time>2008-04-06T11:09:32.000Z</time>
      </trkpt>
      <trkpt lat="48.69165" lon="1.95667">
        <ele>177.98</ele>
        <time>2008-04-06T11:09:34.000Z</time>
      </trkpt>
      <trkpt lat="48.69159" lon="1.95658">
        <ele>178.46</ele>
        <time>2008-04-06T11:09:38.000Z</time>
      </trkpt>
      <trkpt lat="48.69152" lon="1.95656">
        <ele>177.98</ele>
        <time>2008-04-06T11:09:41.000Z</time>
      </trkpt>
      <trkpt lat="48.69142" lon="1.95645">
        <ele>174.14</ele>
        <time>2008-04-06T11:09:49.000Z</time>
      </trkpt>
      <trkpt lat="48.69139" lon="1.9564">
        <ele>173.17</ele>
        <time>2008-04-06T11:09:51.000Z</time>
      </trkpt>
      <trkpt lat="48.69136" lon="1.95637">
        <ele>172.69</ele>
        <time>2008-04-06T11:09:53.000Z</time>
      </trkpt>
      <trkpt lat="48.69123" lon="1.95628">
        <ele>173.17</ele>
        <time>2008-04-06T11:10:00.000Z</time>
      </trkpt>
      <trkpt lat="48.69118" lon="1.95625">
        <ele>173.17</ele>
        <time>2008-04-06T11:10:02.000Z</time>
      </trkpt>
      <trkpt lat="48.6911" lon="1.95621">
        <ele>176.54</ele>
        <time>2008-04-06T11:10:06.000Z</time>
      </trkpt>
      <trkpt lat="48.69104" lon="1.95611">
        <ele>177.5</ele>
        <time>2008-04-06T11:10:10.000Z</time>
      </trkpt>
      <trkpt lat="48.691" lon="1.95609">
        <ele>178.46</ele>
        <time>2008-04-06T11:10:12.000Z</time>
      </trkpt>
      <trkpt lat="48.69088" lon="1.95601">
        <ele>175.1</ele>
        <time>2008-04-06T11:10:19.000Z</time>
      </trkpt>
      <trkpt lat="48.69078" lon="1.95586">
        <ele>170.77</ele>
        <time>2008-04-06T11:10:25.000Z</time>
      </trkpt>
      <trkpt lat="48.69068" lon="1.95576">
        <ele>172.69</ele>
        <time>2008-04-06T11:10:30.000Z</time>
      </trkpt>
      <trkpt lat="48.69064" lon="1.95574">
        <ele>175.58</ele>
        <time>2008-04-06T11:10:32.000Z</time>
      </trkpt>
      <trkpt lat="48.6906" lon="1.95567">
        <ele>176.54</ele>
        <time>2008-04-06T11:10:36.000Z</time>
      </trkpt>
      <trkpt lat="48.69051" lon="1.95562">
        <ele>178.46</ele>
        <time>2008-04-06T11:10:41.000Z</time>
      </trkpt>
      <trkpt lat="48.6904" lon="1.9555">
        <ele>174.62</ele>
        <time>2008-04-06T11:10:47.000Z</time>
      </trkpt>
      <trkpt lat="48.69036" lon="1.95548">
        <ele>174.62</ele>
        <time>2008-04-06T11:10:49.000Z</time>
      </trkpt>
      <trkpt lat="48.69032" lon="1.95543">
        <ele>176.54</ele>
        <time>2008-04-06T11:10:52.000Z</time>
      </trkpt>
      <trkpt lat="48.69032" lon="1.95539">
        <ele>178.94</ele>
        <time>2008-04-06T11:10:54.000Z</time>
      </trkpt>
      <trkpt lat="48.69025" lon="1.9553">
        <ele>178.94</ele>
        <time>2008-04-06T11:10:58.000Z</time>
      </trkpt>
      <trkpt lat="48.69013" lon="1.95524">
        <ele>185.67</ele>
        <time>2008-04-06T11:11:04.000Z</time>
      </trkpt>
      <trkpt lat="48.69009" lon="1.95519">
        <ele>188.08</ele>
        <time>2008-04-06T11:11:06.000Z</time>
      </trkpt>
      <trkpt lat="48.68999" lon="1.95513">
        <ele>186.15</ele>
        <time>2008-04-06T11:11:10.000Z</time>
      </trkpt>
      <trkpt lat="48.68987" lon="1.95501">
        <ele>189.04</ele>
        <time>2008-04-06T11:11:16.000Z</time>
      </trkpt>
      <trkpt lat="48.68982" lon="1.95498">
        <ele>189.52</ele>
        <time>2008-04-06T11:11:18.000Z</time>
      </trkpt>
      <trkpt lat="48.68975" lon="1.95494">
        <ele>193.36</ele>
        <time>2008-04-06T11:11:22.000Z</time>
      </trkpt>
      <trkpt lat="48.68965" lon="1.95486">
        <ele>192.4</ele>
        <time>2008-04-06T11:11:27.000Z</time>
      </trkpt>
      <trkpt lat="48.6896" lon="1.95479">
        <ele>190</ele>
        <time>2008-04-06T11:11:30.000Z</time>
      </trkpt>
      <trkpt lat="48.68955" lon="1.95473">
        <ele>188.56</ele>
        <time>2008-04-06T11:11:34.000Z</time>
      </trkpt>
      <trkpt lat="48.68945" lon="1.95462">
        <ele>180.38</ele>
        <time>2008-04-06T11:11:40.000Z</time>
      </trkpt>
      <trkpt lat="48.68935" lon="1.95461">
        <ele>177.5</ele>
        <time>2008-04-06T11:11:45.000Z</time>
      </trkpt>
      <trkpt lat="48.68925" lon="1.95455">
        <ele>177.98</ele>
        <time>2008-04-06T11:11:50.000Z</time>
      </trkpt>
      <trkpt lat="48.68917" lon="1.95446">
        <ele>177.5</ele>
        <time>2008-04-06T11:11:55.000Z</time>
      </trkpt>
      <trkpt lat="48.68905" lon="1.95436">
        <ele>184.23</ele>
        <time>2008-04-06T11:12:01.000Z</time>
      </trkpt>
      <trkpt lat="48.68894" lon="1.9543">
        <ele>188.08</ele>
        <time>2008-04-06T11:12:06.000Z</time>
      </trkpt>
      <trkpt lat="48.68882" lon="1.95418">
        <ele>184.23</ele>
        <time>2008-04-06T11:12:13.000Z</time>
      </trkpt>
      <trkpt lat="48.68879" lon="1.95414">
        <ele>182.31</ele>
        <time>2008-04-06T11:12:15.000Z</time>
      </trkpt>
      <trkpt lat="48.68872" lon="1.9541">
        <ele>181.83</ele>
        <time>2008-04-06T11:12:18.000Z</time>
      </trkpt>
      <trkpt lat="48.68858" lon="1.95396">
        <ele>178.46</ele>
        <time>2008-04-06T11:12:25.000Z</time>
      </trkpt>
      <trkpt lat="48.68856" lon="1.95395">
        <ele>177.98</ele>
        <time>2008-04-06T11:12:26.000Z</time>
      </trkpt>
      <trkpt lat="48.68844" lon="1.95383">
        <ele>171.25</ele>
        <time>2008-04-06T11:12:32.000Z</time>
      </trkpt>
      <trkpt lat="48.68831" lon="1.95373">
        <ele>170.29</ele>
        <time>2008-04-06T11:12:37.000Z</time>
      </trkpt>
      <trkpt lat="48.68824" lon="1.95366">
        <ele>173.17</ele>
        <time>2008-04-06T11:12:41.000Z</time>
      </trkpt>
      <trkpt lat="48.68815" lon="1.95358">
        <ele>171.25</ele>
        <time>2008-04-06T11:12:46.000Z</time>
      </trkpt>
      <trkpt lat="48.68809" lon="1.95355">
        <ele>165.96</ele>
        <time>2008-04-06T11:12:50.000Z</time>
      </trkpt>
      <trkpt lat="48.68801" lon="1.95348">
        <ele>163.56</ele>
        <time>2008-04-06T11:12:56.000Z</time>
      </trkpt>
      <trkpt lat="48.68795" lon="1.95344">
        <ele>160.2</ele>
        <time>2008-04-06T11:12:59.000Z</time>
      </trkpt>
      <trkpt lat="48.68788" lon="1.95336">
        <ele>158.75</ele>
        <time>2008-04-06T11:13:04.000Z</time>
      </trkpt>
      <trkpt lat="48.68773" lon="1.9532">
        <ele>157.79</ele>
        <time>2008-04-06T11:13:11.000Z</time>
      </trkpt>
      <trkpt lat="48.68762" lon="1.95307">
        <ele>165</ele>
        <time>2008-04-06T11:13:16.000Z</time>
      </trkpt>
      <trkpt lat="48.68758" lon="1.95302">
        <ele>165</ele>
        <time>2008-04-06T11:13:18.000Z</time>
      </trkpt>
      <trkpt lat="48.68742" lon="1.95289">
        <ele>166.93</ele>
        <time>2008-04-06T11:13:24.000Z</time>
      </trkpt>
      <trkpt lat="48.68737" lon="1.95287">
        <ele>167.41</ele>
        <time>2008-04-06T11:13:26.000Z</time>
      </trkpt>
      <trkpt lat="48.68729" lon="1.9528">
        <ele>170.29</ele>
        <time>2008-04-06T11:13:30.000Z</time>
      </trkpt>
      <trkpt lat="48.68716" lon="1.95273">
        <ele>173.17</ele>
        <time>2008-04-06T11:13:36.000Z</time>
      </trkpt>
      <trkpt lat="48.6871" lon="1.95266">
        <ele>172.69</ele>
        <time>2008-04-06T11:13:39.000Z</time>
      </trkpt>
      <trkpt lat="48.687" lon="1.95259">
        <ele>172.21</ele>
        <time>2008-04-06T11:13:43.000Z</time>
      </trkpt>
      <trkpt lat="48.68686" lon="1.95245">
        <ele>174.14</ele>
        <time>2008-04-06T11:13:49.000Z</time>
      </trkpt>
      <trkpt lat="48.68679" lon="1.95237">
        <ele>175.1</ele>
        <time>2008-04-06T11:13:53.000Z</time>
      </trkpt>
      <trkpt lat="48.68669" lon="1.95229">
        <ele>172.69</ele>
        <time>2008-04-06T11:13:59.000Z</time>
      </trkpt>
      <trkpt lat="48.68663" lon="1.95224">
        <ele>172.69</ele>
        <time>2008-04-06T11:14:03.000Z</time>
      </trkpt>
      <trkpt lat="48.68661" lon="1.95223">
        <ele>172.21</ele>
        <time>2008-04-06T11:14:04.000Z</time>
      </trkpt>
      <trkpt lat="48.68647" lon="1.95207">
        <ele>173.66</ele>
        <time>2008-04-06T11:14:11.000Z</time>
      </trkpt>
      <trkpt lat="48.68645" lon="1.95204">
        <ele>173.17</ele>
        <time>2008-04-06T11:14:12.000Z</time>
      </trkpt>
      <trkpt lat="48.68634" lon="1.95193">
        <ele>175.58</ele>
        <time>2008-04-06T11:14:17.000Z</time>
      </trkpt>
      <trkpt lat="48.6863" lon="1.9519">
        <ele>177.98</ele>
        <time>2008-04-06T11:14:19.000Z</time>
      </trkpt>
      <trkpt lat="48.68621" lon="1.95181">
        <ele>179.42</ele>
        <time>2008-04-06T11:14:25.000Z</time>
      </trkpt>
      <trkpt lat="48.68616" lon="1.95177">
        <ele>178.94</ele>
        <time>2008-04-06T11:14:29.000Z</time>
      </trkpt>
      <trkpt lat="48.68608" lon="1.9517">
        <ele>173.17</ele>
        <time>2008-04-06T11:14:33.000Z</time>
      </trkpt>
      <trkpt lat="48.68599" lon="1.95166">
        <ele>174.62</ele>
        <time>2008-04-06T11:14:37.000Z</time>
      </trkpt>
      <trkpt lat="48.68587" lon="1.95153">
        <ele>173.17</ele>
        <time>2008-04-06T11:14:42.000Z</time>
      </trkpt>
      <trkpt lat="48.68573" lon="1.95143">
        <ele>170.77</ele>
        <time>2008-04-06T11:14:48.000Z</time>
      </trkpt>
      <trkpt lat="48.68566" lon="1.95139">
        <ele>171.25</ele>
        <time>2008-04-06T11:14:51.000Z</time>
      </trkpt>
      <trkpt lat="48.68558" lon="1.95132">
        <ele>173.66</ele>
        <time>2008-04-06T11:14:56.000Z</time>
      </trkpt>
      <trkpt lat="48.68554" lon="1.95128">
        <ele>174.14</ele>
        <time>2008-04-06T11:14:58.000Z</time>
      </trkpt>
      <trkpt lat="48.6855" lon="1.95122">
        <ele>177.5</ele>
        <time>2008-04-06T11:15:00.000Z</time>
      </trkpt>
      <trkpt lat="48.68542" lon="1.95104">
        <ele>180.38</ele>
        <time>2008-04-06T11:15:05.000Z</time>
      </trkpt>
      <trkpt lat="48.68539" lon="1.95092">
        <ele>183.75</ele>
        <time>2008-04-06T11:15:09.000Z</time>
      </trkpt>
      <trkpt lat="48.68531" lon="1.95089">
        <ele>180.87</ele>
        <time>2008-04-06T11:15:13.000Z</time>
      </trkpt>
      <trkpt lat="48.68525" lon="1.95087">
        <ele>182.31</ele>
        <time>2008-04-06T11:15:16.000Z</time>
      </trkpt>
      <trkpt lat="48.68512" lon="1.95088">
        <ele>176.54</ele>
        <time>2008-04-06T11:15:21.000Z</time>
      </trkpt>
      <trkpt lat="48.68502" lon="1.95094">
        <ele>174.14</ele>
        <time>2008-04-06T11:15:25.000Z</time>
      </trkpt>
      <trkpt lat="48.68494" lon="1.95098">
        <ele>173.66</ele>
        <time>2008-04-06T11:15:30.000Z</time>
      </trkpt>
      <trkpt lat="48.68487" lon="1.95089">
        <ele>174.14</ele>
        <time>2008-04-06T11:15:35.000Z</time>
      </trkpt>
      <trkpt lat="48.68483" lon="1.95083">
        <ele>174.14</ele>
        <time>2008-04-06T11:15:38.000Z</time>
      </trkpt>
      <trkpt lat="48.68479" lon="1.95071">
        <ele>172.69</ele>
        <time>2008-04-06T11:15:42.000Z</time>
      </trkpt>
      <trkpt lat="48.68478" lon="1.95068">
        <ele>171.25</ele>
        <time>2008-04-06T11:15:44.000Z</time>
      </trkpt>
      <trkpt lat="48.68475" lon="1.9507">
        <ele>169.81</ele>
        <time>2008-04-06T11:15:46.000Z</time>
      </trkpt>
      <trkpt lat="48.6847" lon="1.9508">
        <ele>171.73</ele>
        <time>2008-04-06T11:15:51.000Z</time>
      </trkpt>
      <trkpt lat="48.68467" lon="1.95092">
        <ele>172.69</ele>
        <time>2008-04-06T11:15:55.000Z</time>
      </trkpt>
      <trkpt lat="48.68464" lon="1.95105">
        <ele>171.73</ele>
        <time>2008-04-06T11:15:59.000Z</time>
      </trkpt>
      <trkpt lat="48.6846" lon="1.95112">
        <ele>169.81</ele>
        <time>2008-04-06T11:16:02.000Z</time>
      </trkpt>
      <trkpt lat="48.68457" lon="1.95129">
        <ele>168.37</ele>
        <time>2008-04-06T11:16:08.000Z</time>
      </trkpt>
      <trkpt lat="48.68454" lon="1.95145">
        <ele>165.48</ele>
        <time>2008-04-06T11:16:13.000Z</time>
      </trkpt>
      <trkpt lat="48.68453" lon="1.95152">
        <ele>165</ele>
        <time>2008-04-06T11:16:16.000Z</time>
      </trkpt>
      <trkpt lat="48.68451" lon="1.9516">
        <ele>165.48</ele>
        <time>2008-04-06T11:16:19.000Z</time>
      </trkpt>
      <trkpt lat="48.68451" lon="1.95171">
        <ele>165</ele>
        <time>2008-04-06T11:16:23.000Z</time>
      </trkpt>
      <trkpt lat="48.68453" lon="1.95188">
        <ele>168.85</ele>
        <time>2008-04-06T11:16:29.000Z</time>
      </trkpt>
      <trkpt lat="48.68452" lon="1.95206">
        <ele>169.81</ele>
        <time>2008-04-06T11:16:34.000Z</time>
      </trkpt>
      <trkpt lat="48.68449" lon="1.95218">
        <ele>171.25</ele>
        <time>2008-04-06T11:16:38.000Z</time>
      </trkpt>
      <trkpt lat="48.68447" lon="1.95227">
        <ele>171.73</ele>
        <time>2008-04-06T11:16:41.000Z</time>
      </trkpt>
      <trkpt lat="48.68444" lon="1.95232">
        <ele>172.69</ele>
        <time>2008-04-06T11:16:43.000Z</time>
      </trkpt>
      <trkpt lat="48.68442" lon="1.95238">
        <ele>172.69</ele>
        <time>2008-04-06T11:16:47.000Z</time>
      </trkpt>
      <trkpt lat="48.68442" lon="1.95255">
        <ele>169.33</ele>
        <time>2008-04-06T11:16:52.000Z</time>
      </trkpt>
      <trkpt lat="48.68434" lon="1.95275">
        <ele>169.81</ele>
        <time>2008-04-06T11:16:58.000Z</time>
      </trkpt>
      <trkpt lat="48.68422" lon="1.95288">
        <ele>168.85</ele>
        <time>2008-04-06T11:17:03.000Z</time>
      </trkpt>
      <trkpt lat="48.68415" lon="1.95299">
        <ele>165</ele>
        <time>2008-04-06T11:17:08.000Z</time>
      </trkpt>
      <trkpt lat="48.68412" lon="1.95309">
        <ele>164.04</ele>
        <time>2008-04-06T11:17:11.000Z</time>
      </trkpt>
      <trkpt lat="48.68409" lon="1.95328">
        <ele>163.08</ele>
        <time>2008-04-06T11:17:17.000Z</time>
      </trkpt>
      <trkpt lat="48.68407" lon="1.95347">
        <ele>160.68</ele>
        <time>2008-04-06T11:17:22.000Z</time>
      </trkpt>
      <trkpt lat="48.68402" lon="1.9536">
        <ele>160.68</ele>
        <time>2008-04-06T11:17:26.000Z</time>
      </trkpt>
      <trkpt lat="48.68401" lon="1.95364">
        <ele>160.68</ele>
        <time>2008-04-06T11:17:27.000Z</time>
      </trkpt>
      <trkpt lat="48.68394" lon="1.95383">
        <ele>161.64</ele>
        <time>2008-04-06T11:17:33.000Z</time>
      </trkpt>
      <trkpt lat="48.68393" lon="1.95401">
        <ele>164.52</ele>
        <time>2008-04-06T11:17:38.000Z</time>
      </trkpt>
      <trkpt lat="48.6839" lon="1.95419">
        <ele>163.08</ele>
        <time>2008-04-06T11:17:44.000Z</time>
      </trkpt>
      <trkpt lat="48.68386" lon="1.95432">
        <ele>162.12</ele>
        <time>2008-04-06T11:17:48.000Z</time>
      </trkpt>
      <trkpt lat="48.68385" lon="1.95435">
        <ele>162.12</ele>
        <time>2008-04-06T11:17:53.000Z</time>
      </trkpt>
      <trkpt lat="48.68385" lon="1.95445">
        <ele>165.48</ele>
        <time>2008-04-06T11:18:01.000Z</time>
      </trkpt>
      <trkpt lat="48.68383" lon="1.95451">
        <ele>163.08</ele>
        <time>2008-04-06T11:18:05.000Z</time>
      </trkpt>
      <trkpt lat="48.68381" lon="1.95459">
        <ele>162.6</ele>
        <time>2008-04-06T11:18:09.000Z</time>
      </trkpt>
      <trkpt lat="48.6838" lon="1.95462">
        <ele>162.12</ele>
        <time>2008-04-06T11:18:11.000Z</time>
      </trkpt>
      <trkpt lat="48.68375" lon="1.95472">
        <ele>169.33</ele>
        <time>2008-04-06T11:18:17.000Z</time>
      </trkpt>
      <trkpt lat="48.68368" lon="1.955">
        <ele>172.69</ele>
        <time>2008-04-06T11:18:52.000Z</time>
      </trkpt>
      <trkpt lat="48.68368" lon="1.95511">
        <ele>169.81</ele>
        <time>2008-04-06T11:18:57.000Z</time>
      </trkpt>
      <trkpt lat="48.68367" lon="1.95525">
        <ele>171.73</ele>
        <time>2008-04-06T11:19:03.000Z</time>
      </trkpt>
      <trkpt lat="48.68367" lon="1.95534">
        <ele>170.77</ele>
        <time>2008-04-06T11:19:06.000Z</time>
      </trkpt>
      <trkpt lat="48.68367" lon="1.95538">
        <ele>169.81</ele>
        <time>2008-04-06T11:19:08.000Z</time>
      </trkpt>
      <trkpt lat="48.68367" lon="1.95548">
        <ele>167.41</ele>
        <time>2008-04-06T11:19:12.000Z</time>
      </trkpt>
      <trkpt lat="48.68367" lon="1.95554">
        <ele>168.85</ele>
        <time>2008-04-06T11:19:14.000Z</time>
      </trkpt>
      <trkpt lat="48.68363" lon="1.95568">
        <ele>169.33</ele>
        <time>2008-04-06T11:19:19.000Z</time>
      </trkpt>
      <trkpt lat="48.68355" lon="1.95595">
        <ele>177.02</ele>
        <time>2008-04-06T11:19:24.000Z</time>
      </trkpt>
      <trkpt lat="48.68347" lon="1.95617">
        <ele>181.83</ele>
        <time>2008-04-06T11:19:29.000Z</time>
      </trkpt>
      <trkpt lat="48.68342" lon="1.95629">
        <ele>178.94</ele>
        <time>2008-04-06T11:19:34.000Z</time>
      </trkpt>
      <trkpt lat="48.68335" lon="1.95643">
        <ele>176.06</ele>
        <time>2008-04-06T11:19:40.000Z</time>
      </trkpt>
      <trkpt lat="48.6833" lon="1.95661">
        <ele>178.46</ele>
        <time>2008-04-06T11:19:45.000Z</time>
      </trkpt>
      <trkpt lat="48.68323" lon="1.95679">
        <ele>179.42</ele>
        <time>2008-04-06T11:19:50.000Z</time>
      </trkpt>
      <trkpt lat="48.68316" lon="1.95697">
        <ele>179.42</ele>
        <time>2008-04-06T11:19:56.000Z</time>
      </trkpt>
      <trkpt lat="48.68306" lon="1.95717">
        <ele>181.35</ele>
        <time>2008-04-06T11:20:02.000Z</time>
      </trkpt>
      <trkpt lat="48.68304" lon="1.95718">
        <ele>180.87</ele>
        <time>2008-04-06T11:20:03.000Z</time>
      </trkpt>
      <trkpt lat="48.68296" lon="1.95731">
        <ele>176.54</ele>
        <time>2008-04-06T11:20:09.000Z</time>
      </trkpt>
      <trkpt lat="48.6829" lon="1.95743">
        <ele>176.54</ele>
        <time>2008-04-06T11:20:14.000Z</time>
      </trkpt>
      <trkpt lat="48.68283" lon="1.95767">
        <ele>178.94</ele>
        <time>2008-04-06T11:20:21.000Z</time>
      </trkpt>
      <trkpt lat="48.68277" lon="1.95785">
        <ele>181.83</ele>
        <time>2008-04-06T11:20:26.000Z</time>
      </trkpt>
      <trkpt lat="48.68276" lon="1.95786">
        <ele>180.38</ele>
        <time>2008-04-06T11:20:27.000Z</time>
      </trkpt>
      <trkpt lat="48.68272" lon="1.95798">
        <ele>182.31</ele>
        <time>2008-04-06T11:20:30.000Z</time>
      </trkpt>
      <trkpt lat="48.68271" lon="1.95804">
        <ele>181.35</ele>
        <time>2008-04-06T11:20:32.000Z</time>
      </trkpt>
      <trkpt lat="48.68271" lon="1.95816">
        <ele>177.98</ele>
        <time>2008-04-06T11:20:37.000Z</time>
      </trkpt>
      <trkpt lat="48.68266" lon="1.9582">
        <ele>177.5</ele>
        <time>2008-04-06T11:20:41.000Z</time>
      </trkpt>
      <trkpt lat="48.68256" lon="1.95818">
        <ele>169.33</ele>
        <time>2008-04-06T11:20:48.000Z</time>
      </trkpt>
      <trkpt lat="48.68246" lon="1.95814">
        <ele>165.48</ele>
        <time>2008-04-06T11:20:52.000Z</time>
      </trkpt>
      <trkpt lat="48.68229" lon="1.95809">
        <ele>158.27</ele>
        <time>2008-04-06T11:20:58.000Z</time>
      </trkpt>
      <trkpt lat="48.68214" lon="1.95801">
        <ele>159.24</ele>
        <time>2008-04-06T11:21:03.000Z</time>
      </trkpt>
      <trkpt lat="48.68206" lon="1.958">
        <ele>161.64</ele>
        <time>2008-04-06T11:21:06.000Z</time>
      </trkpt>
      <trkpt lat="48.68192" lon="1.95791">
        <ele>159.72</ele>
        <time>2008-04-06T11:21:13.000Z</time>
      </trkpt>
      <trkpt lat="48.68182" lon="1.95783">
        <ele>165</ele>
        <time>2008-04-06T11:21:18.000Z</time>
      </trkpt>
      <trkpt lat="48.6817" lon="1.95784">
        <ele>166.45</ele>
        <time>2008-04-06T11:21:22.000Z</time>
      </trkpt>
      <trkpt lat="48.68153" lon="1.9577">
        <ele>170.29</ele>
        <time>2008-04-06T11:21:28.000Z</time>
      </trkpt>
      <trkpt lat="48.68148" lon="1.95764">
        <ele>171.73</ele>
        <time>2008-04-06T11:21:30.000Z</time>
      </trkpt>
      <trkpt lat="48.68132" lon="1.95755">
        <ele>164.04</ele>
        <time>2008-04-06T11:21:37.000Z</time>
      </trkpt>
      <trkpt lat="48.68125" lon="1.95756">
        <ele>162.6</ele>
        <time>2008-04-06T11:21:41.000Z</time>
      </trkpt>
      <trkpt lat="48.68118" lon="1.95755">
        <ele>167.89</ele>
        <time>2008-04-06T11:21:47.000Z</time>
      </trkpt>
      <trkpt lat="48.6811" lon="1.95751">
        <ele>168.37</ele>
        <time>2008-04-06T11:21:53.000Z</time>
      </trkpt>
      <trkpt lat="48.68102" lon="1.95753">
        <ele>166.45</ele>
        <time>2008-04-06T11:21:59.000Z</time>
      </trkpt>
      <trkpt lat="48.68098" lon="1.95752">
        <ele>169.81</ele>
        <time>2008-04-06T11:22:04.000Z</time>
      </trkpt>
      <trkpt lat="48.68093" lon="1.95748">
        <ele>172.69</ele>
        <time>2008-04-06T11:22:09.000Z</time>
      </trkpt>
      <trkpt lat="48.68077" lon="1.95745">
        <ele>168.85</ele>
        <time>2008-04-06T11:22:25.000Z</time>
      </trkpt>
      <trkpt lat="48.68071" lon="1.95747">
        <ele>173.17</ele>
        <time>2008-04-06T11:22:30.000Z</time>
      </trkpt>
      <trkpt lat="48.68067" lon="1.95736">
        <ele>173.17</ele>
        <time>2008-04-06T11:22:36.000Z</time>
      </trkpt>
      <trkpt lat="48.68063" lon="1.95717">
        <ele>171.73</ele>
        <time>2008-04-06T11:22:41.000Z</time>
      </trkpt>
      <trkpt lat="48.68061" lon="1.95701">
        <ele>171.73</ele>
        <time>2008-04-06T11:22:45.000Z</time>
      </trkpt>
      <trkpt lat="48.68062" lon="1.95694">
        <ele>172.69</ele>
        <time>2008-04-06T11:22:47.000Z</time>
      </trkpt>
      <trkpt lat="48.68063" lon="1.9568">
        <ele>172.69</ele>
        <time>2008-04-06T11:22:51.000Z</time>
      </trkpt>
      <trkpt lat="48.68066" lon="1.95664">
        <ele>170.29</ele>
        <time>2008-04-06T11:22:56.000Z</time>
      </trkpt>
      <trkpt lat="48.68066" lon="1.95644">
        <ele>168.85</ele>
        <time>2008-04-06T11:23:01.000Z</time>
      </trkpt>
      <trkpt lat="48.68065" lon="1.95626">
        <ele>167.41</ele>
        <time>2008-04-06T11:23:05.000Z</time>
      </trkpt>
      <trkpt lat="48.68061" lon="1.95619">
        <ele>169.33</ele>
        <time>2008-04-06T11:23:08.000Z</time>
      </trkpt>
      <trkpt lat="48.6805" lon="1.95622">
        <ele>173.17</ele>
        <time>2008-04-06T11:23:13.000Z</time>
      </trkpt>
      <trkpt lat="48.68042" lon="1.9563">
        <ele>172.21</ele>
        <time>2008-04-06T11:23:17.000Z</time>
      </trkpt>
      <trkpt lat="48.6804" lon="1.95633">
        <ele>173.17</ele>
        <time>2008-04-06T11:23:18.000Z</time>
      </trkpt>
      <trkpt lat="48.68038" lon="1.95637">
        <ele>176.54</ele>
        <time>2008-04-06T11:23:20.000Z</time>
      </trkpt>
      <trkpt lat="48.68029" lon="1.95642">
        <ele>175.58</ele>
        <time>2008-04-06T11:23:24.000Z</time>
      </trkpt>
      <trkpt lat="48.68017" lon="1.95664">
        <ele>177.5</ele>
        <time>2008-04-06T11:23:31.000Z</time>
      </trkpt>
      <trkpt lat="48.68009" lon="1.95678">
        <ele>180.38</ele>
        <time>2008-04-06T11:23:36.000Z</time>
      </trkpt>
      <trkpt lat="48.68003" lon="1.95675">
        <ele>177.98</ele>
        <time>2008-04-06T11:23:39.000Z</time>
      </trkpt>
      <trkpt lat="48.68" lon="1.95664">
        <ele>174.14</ele>
        <time>2008-04-06T11:23:43.000Z</time>
      </trkpt>
      <trkpt lat="48.67992" lon="1.9565">
        <ele>170.29</ele>
        <time>2008-04-06T11:23:49.000Z</time>
      </trkpt>
      <trkpt lat="48.67986" lon="1.95644">
        <ele>167.89</ele>
        <time>2008-04-06T11:23:52.000Z</time>
      </trkpt>
      <trkpt lat="48.67985" lon="1.9563">
        <ele>167.41</ele>
        <time>2008-04-06T11:23:56.000Z</time>
      </trkpt>
      <trkpt lat="48.6799" lon="1.95611">
        <ele>164.04</ele>
        <time>2008-04-06T11:24:01.000Z</time>
      </trkpt>
      <trkpt lat="48.67996" lon="1.95595">
        <ele>163.56</ele>
        <time>2008-04-06T11:24:06.000Z</time>
      </trkpt>
      <trkpt lat="48.68002" lon="1.95576">
        <ele>165</ele>
        <time>2008-04-06T11:24:12.000Z</time>
      </trkpt>
      <trkpt lat="48.68002" lon="1.95563">
        <ele>159.24</ele>
        <time>2008-04-06T11:24:17.000Z</time>
      </trkpt>
      <trkpt lat="48.67998" lon="1.95559">
        <ele>155.87</ele>
        <time>2008-04-06T11:24:21.000Z</time>
      </trkpt>
      <trkpt lat="48.67996" lon="1.95561">
        <ele>155.39</ele>
        <time>2008-04-06T11:24:23.000Z</time>
      </trkpt>
      <trkpt lat="48.67988" lon="1.95569">
        <ele>156.83</ele>
        <time>2008-04-06T11:24:29.000Z</time>
      </trkpt>
      <trkpt lat="48.67984" lon="1.95576">
        <ele>161.16</ele>
        <time>2008-04-06T11:24:33.000Z</time>
      </trkpt>
      <trkpt lat="48.67974" lon="1.9559">
        <ele>167.41</ele>
        <time>2008-04-06T11:24:38.000Z</time>
      </trkpt>
      <trkpt lat="48.67961" lon="1.95605">
        <ele>170.29</ele>
        <time>2008-04-06T11:24:44.000Z</time>
      </trkpt>
      <trkpt lat="48.6795" lon="1.95626">
        <ele>173.66</ele>
        <time>2008-04-06T11:24:50.000Z</time>
      </trkpt>
      <trkpt lat="48.67939" lon="1.95643">
        <ele>170.29</ele>
        <time>2008-04-06T11:24:55.000Z</time>
      </trkpt>
      <trkpt lat="48.67936" lon="1.95645">
        <ele>169.33</ele>
        <time>2008-04-06T11:24:57.000Z</time>
      </trkpt>
      <trkpt lat="48.67928" lon="1.95649">
        <ele>169.33</ele>
        <time>2008-04-06T11:25:01.000Z</time>
      </trkpt>
      <trkpt lat="48.67924" lon="1.95653">
        <ele>168.85</ele>
        <time>2008-04-06T11:25:03.000Z</time>
      </trkpt>
      <trkpt lat="48.67909" lon="1.95665">
        <ele>173.17</ele>
        <time>2008-04-06T11:25:09.000Z</time>
      </trkpt>
      <trkpt lat="48.679" lon="1.95689">
        <ele>173.66</ele>
        <time>2008-04-06T11:25:14.000Z</time>
      </trkpt>
      <trkpt lat="48.67891" lon="1.95699">
        <ele>170.29</ele>
        <time>2008-04-06T11:25:19.000Z</time>
      </trkpt>
      <trkpt lat="48.67889" lon="1.95694">
        <ele>164.04</ele>
        <time>2008-04-06T11:25:22.000Z</time>
      </trkpt>
      <trkpt lat="48.67888" lon="1.95687">
        <ele>159.72</ele>
        <time>2008-04-06T11:25:25.000Z</time>
      </trkpt>
      <trkpt lat="48.67883" lon="1.95682">
        <ele>154.43</ele>
        <time>2008-04-06T11:25:29.000Z</time>
      </trkpt>
      <trkpt lat="48.67872" lon="1.95674">
        <ele>144.82</ele>
        <time>2008-04-06T11:25:36.000Z</time>
      </trkpt>
      <trkpt lat="48.67862" lon="1.95657">
        <ele>138.57</ele>
        <time>2008-04-06T11:25:43.000Z</time>
      </trkpt>
      <trkpt lat="48.67858" lon="1.9565">
        <ele>137.61</ele>
        <time>2008-04-06T11:25:46.000Z</time>
      </trkpt>
      <trkpt lat="48.6785" lon="1.95647">
        <ele>137.13</ele>
        <time>2008-04-06T11:25:52.000Z</time>
      </trkpt>
      <trkpt lat="48.67849" lon="1.95646">
        <ele>135.2</ele>
        <time>2008-04-06T11:25:53.000Z</time>
      </trkpt>
      <trkpt lat="48.67846" lon="1.9564">
        <ele>131.84</ele>
        <time>2008-04-06T11:25:56.000Z</time>
      </trkpt>
      <trkpt lat="48.67844" lon="1.95629">
        <ele>125.59</ele>
        <time>2008-04-06T11:26:02.000Z</time>
      </trkpt>
      <trkpt lat="48.6784" lon="1.95618">
        <ele>124.63</ele>
        <time>2008-04-06T11:26:07.000Z</time>
      </trkpt>
      <trkpt lat="48.67841" lon="1.95615">
        <ele>124.15</ele>
        <time>2008-04-06T11:26:09.000Z</time>
      </trkpt>
      <trkpt lat="48.67847" lon="1.95606">
        <ele>119.34</ele>
        <time>2008-04-06T11:26:14.000Z</time>
      </trkpt>
      <trkpt lat="48.67853" lon="1.95593">
        <ele>113.09</ele>
        <time>2008-04-06T11:26:20.000Z</time>
      </trkpt>
      <trkpt lat="48.67854" lon="1.95581">
        <ele>109.73</ele>
        <time>2008-04-06T11:26:24.000Z</time>
      </trkpt>
      <trkpt lat="48.67857" lon="1.95563">
        <ele>105.88</ele>
        <time>2008-04-06T11:26:29.000Z</time>
      </trkpt>
      <trkpt lat="48.67855" lon="1.95554">
        <ele>105.4</ele>
        <time>2008-04-06T11:26:31.000Z</time>
      </trkpt>
      <trkpt lat="48.67856" lon="1.95535">
        <ele>101.08</ele>
        <time>2008-04-06T11:26:36.000Z</time>
      </trkpt>
      <trkpt lat="48.67856" lon="1.95531">
        <ele>98.67</ele>
        <time>2008-04-06T11:26:37.000Z</time>
      </trkpt>
      <trkpt lat="48.6786" lon="1.95512">
        <ele>95.31</ele>
        <time>2008-04-06T11:26:43.000Z</time>
      </trkpt>
      <trkpt lat="48.67861" lon="1.95506">
        <ele>95.31</ele>
        <time>2008-04-06T11:26:45.000Z</time>
      </trkpt>
      <trkpt lat="48.67861" lon="1.95492">
        <ele>91.46</ele>
        <time>2008-04-06T11:26:49.000Z</time>
      </trkpt>
      <trkpt lat="48.6786" lon="1.95485">
        <ele>89.06</ele>
        <time>2008-04-06T11:26:51.000Z</time>
      </trkpt>
      <trkpt lat="48.67859" lon="1.9547">
        <ele>83.77</ele>
        <time>2008-04-06T11:26:55.000Z</time>
      </trkpt>
      <trkpt lat="48.67861" lon="1.95453">
        <ele>81.37</ele>
        <time>2008-04-06T11:27:00.000Z</time>
      </trkpt>
      <trkpt lat="48.67866" lon="1.9544">
        <ele>83.77</ele>
        <time>2008-04-06T11:27:04.000Z</time>
      </trkpt>
      <trkpt lat="48.67873" lon="1.95424">
        <ele>86.18</ele>
        <time>2008-04-06T11:27:09.000Z</time>
      </trkpt>
      <trkpt lat="48.67879" lon="1.95412">
        <ele>92.42</ele>
        <time>2008-04-06T11:27:13.000Z</time>
      </trkpt>
      <trkpt lat="48.67879" lon="1.95397">
        <ele>93.39</ele>
        <time>2008-04-06T11:27:17.000Z</time>
      </trkpt>
      <trkpt lat="48.67881" lon="1.95383">
        <ele>94.83</ele>
        <time>2008-04-06T11:27:21.000Z</time>
      </trkpt>
      <trkpt lat="48.67882" lon="1.95379">
        <ele>96.27</ele>
        <time>2008-04-06T11:27:22.000Z</time>
      </trkpt>
      <trkpt lat="48.67883" lon="1.95359">
        <ele>99.63</ele>
        <time>2008-04-06T11:27:27.000Z</time>
      </trkpt>
      <trkpt lat="48.67883" lon="1.95356">
        <ele>100.6</ele>
        <time>2008-04-06T11:27:28.000Z</time>
      </trkpt>
      <trkpt lat="48.67889" lon="1.95337">
        <ele>105.88</ele>
        <time>2008-04-06T11:27:34.000Z</time>
      </trkpt>
      <trkpt lat="48.67896" lon="1.95322">
        <ele>117.9</ele>
        <time>2008-04-06T11:27:39.000Z</time>
      </trkpt>
      <trkpt lat="48.67904" lon="1.9531">
        <ele>121.74</ele>
        <time>2008-04-06T11:27:44.000Z</time>
      </trkpt>
      <trkpt lat="48.67906" lon="1.95295">
        <ele>125.11</ele>
        <time>2008-04-06T11:27:48.000Z</time>
      </trkpt>
      <trkpt lat="48.6791" lon="1.95284">
        <ele>131.84</ele>
        <time>2008-04-06T11:27:51.000Z</time>
      </trkpt>
      <trkpt lat="48.6792" lon="1.95264">
        <ele>136.64</ele>
        <time>2008-04-06T11:27:57.000Z</time>
      </trkpt>
      <trkpt lat="48.67923" lon="1.95252">
        <ele>139.53</ele>
        <time>2008-04-06T11:28:00.000Z</time>
      </trkpt>
      <trkpt lat="48.67923" lon="1.95222">
        <ele>147.22</ele>
        <time>2008-04-06T11:28:07.000Z</time>
      </trkpt>
      <trkpt lat="48.67926" lon="1.9521">
        <ele>138.57</ele>
        <time>2008-04-06T11:28:12.000Z</time>
      </trkpt>
      <trkpt lat="48.67929" lon="1.95198">
        <ele>130.88</ele>
        <time>2008-04-06T11:28:17.000Z</time>
      </trkpt>
      <trkpt lat="48.67935" lon="1.95181">
        <ele>128.95</ele>
        <time>2008-04-06T11:28:23.000Z</time>
      </trkpt>
      <trkpt lat="48.67934" lon="1.95166">
        <ele>127.51</ele>
        <time>2008-04-06T11:28:28.000Z</time>
      </trkpt>
      <trkpt lat="48.67934" lon="1.95159">
        <ele>127.51</ele>
        <time>2008-04-06T11:28:30.000Z</time>
      </trkpt>
      <trkpt lat="48.67939" lon="1.95141">
        <ele>126.07</ele>
        <time>2008-04-06T11:28:36.000Z</time>
      </trkpt>
      <trkpt lat="48.6794" lon="1.95127">
        <ele>127.03</ele>
        <time>2008-04-06T11:28:40.000Z</time>
      </trkpt>
      <trkpt lat="48.67936" lon="1.95108">
        <ele>131.36</ele>
        <time>2008-04-06T11:28:44.000Z</time>
      </trkpt>
      <trkpt lat="48.67944" lon="1.95095">
        <ele>137.13</ele>
        <time>2008-04-06T11:28:49.000Z</time>
      </trkpt>
      <trkpt lat="48.67954" lon="1.95081">
        <ele>135.68</ele>
        <time>2008-04-06T11:28:56.000Z</time>
      </trkpt>
      <trkpt lat="48.67965" lon="1.95069">
        <ele>127.99</ele>
        <time>2008-04-06T11:29:02.000Z</time>
      </trkpt>
      <trkpt lat="48.67968" lon="1.95045">
        <ele>116.46</ele>
        <time>2008-04-06T11:29:09.000Z</time>
      </trkpt>
      <trkpt lat="48.67973" lon="1.95034">
        <ele>115.98</ele>
        <time>2008-04-06T11:29:13.000Z</time>
      </trkpt>
      <trkpt lat="48.67981" lon="1.95022">
        <ele>125.11</ele>
        <time>2008-04-06T11:29:19.000Z</time>
      </trkpt>
      <trkpt lat="48.6799" lon="1.95015">
        <ele>129.92</ele>
        <time>2008-04-06T11:29:23.000Z</time>
      </trkpt>
      <trkpt lat="48.68" lon="1.94999">
        <ele>132.8</ele>
        <time>2008-04-06T11:29:29.000Z</time>
      </trkpt>
      <trkpt lat="48.68013" lon="1.9499">
        <ele>129.92</ele>
        <time>2008-04-06T11:29:34.000Z</time>
      </trkpt>
      <trkpt lat="48.68017" lon="1.94986">
        <ele>128.95</ele>
        <time>2008-04-06T11:29:36.000Z</time>
      </trkpt>
      <trkpt lat="48.68029" lon="1.94977">
        <ele>132.8</ele>
        <time>2008-04-06T11:29:42.000Z</time>
      </trkpt>
      <trkpt lat="48.68032" lon="1.94975">
        <ele>132.32</ele>
        <time>2008-04-06T11:29:43.000Z</time>
      </trkpt>
      <trkpt lat="48.68044" lon="1.94968">
        <ele>130.88</ele>
        <time>2008-04-06T11:29:48.000Z</time>
      </trkpt>
      <trkpt lat="48.68053" lon="1.94956">
        <ele>135.68</ele>
        <time>2008-04-06T11:29:54.000Z</time>
      </trkpt>
      <trkpt lat="48.68059" lon="1.94945">
        <ele>140.97</ele>
        <time>2008-04-06T11:29:59.000Z</time>
      </trkpt>
      <trkpt lat="48.68067" lon="1.94924">
        <ele>149.62</ele>
        <time>2008-04-06T11:30:06.000Z</time>
      </trkpt>
      <trkpt lat="48.68073" lon="1.94902">
        <ele>157.31</ele>
        <time>2008-04-06T11:30:13.000Z</time>
      </trkpt>
      <trkpt lat="48.68073" lon="1.94892">
        <ele>159.72</ele>
        <time>2008-04-06T11:30:16.000Z</time>
      </trkpt>
      <trkpt lat="48.68066" lon="1.94867">
        <ele>165.48</ele>
        <time>2008-04-06T11:30:22.000Z</time>
      </trkpt>
      <trkpt lat="48.68068" lon="1.94847">
        <ele>157.31</ele>
        <time>2008-04-06T11:30:29.000Z</time>
      </trkpt>
      <trkpt lat="48.68069" lon="1.94845">
        <ele>152.99</ele>
        <time>2008-04-06T11:30:30.000Z</time>
      </trkpt>
      <trkpt lat="48.68071" lon="1.94831">
        <ele>153.95</ele>
        <time>2008-04-06T11:30:35.000Z</time>
      </trkpt>
      <trkpt lat="48.68076" lon="1.94825">
        <ele>153.95</ele>
        <time>2008-04-06T11:30:38.000Z</time>
      </trkpt>
      <trkpt lat="48.68084" lon="1.94809">
        <ele>154.91</ele>
        <time>2008-04-06T11:30:45.000Z</time>
      </trkpt>
      <trkpt lat="48.68087" lon="1.94794">
        <ele>157.79</ele>
        <time>2008-04-06T11:30:49.000Z</time>
      </trkpt>
      <trkpt lat="48.68092" lon="1.9479">
        <ele>162.6</ele>
        <time>2008-04-06T11:30:53.000Z</time>
      </trkpt>
      <trkpt lat="48.68095" lon="1.94789">
        <ele>164.52</ele>
        <time>2008-04-06T11:30:56.000Z</time>
      </trkpt>
      <trkpt lat="48.68103" lon="1.94795">
        <ele>155.39</ele>
        <time>2008-04-06T11:31:03.000Z</time>
      </trkpt>
      <trkpt lat="48.68109" lon="1.94799">
        <ele>154.43</ele>
        <time>2008-04-06T11:31:09.000Z</time>
      </trkpt>
      <trkpt lat="48.68119" lon="1.94805">
        <ele>148.18</ele>
        <time>2008-04-06T11:31:17.000Z</time>
      </trkpt>
      <trkpt lat="48.68122" lon="1.94807">
        <ele>146.74</ele>
        <time>2008-04-06T11:31:22.000Z</time>
      </trkpt>
      <trkpt lat="48.6813" lon="1.94813">
        <ele>152.03</ele>
        <time>2008-04-06T11:31:29.000Z</time>
      </trkpt>
      <trkpt lat="48.68135" lon="1.9481">
        <ele>151.54</ele>
        <time>2008-04-06T11:31:36.000Z</time>
      </trkpt>
      <trkpt lat="48.68147" lon="1.94811">
        <ele>153.95</ele>
        <time>2008-04-06T11:31:51.000Z</time>
      </trkpt>
      <trkpt lat="48.68169" lon="1.948">
        <ele>154.43</ele>
        <time>2008-04-06T11:32:31.000Z</time>
      </trkpt>
      <trkpt lat="48.68177" lon="1.94791">
        <ele>150.58</ele>
        <time>2008-04-06T11:32:49.000Z</time>
      </trkpt>
      <trkpt lat="48.68177" lon="1.94785">
        <ele>147.22</ele>
        <time>2008-04-06T11:32:54.000Z</time>
      </trkpt>
      <trkpt lat="48.68185" lon="1.9478">
        <ele>152.03</ele>
        <time>2008-04-06T11:33:04.000Z</time>
      </trkpt>
      <trkpt lat="48.68188" lon="1.94778">
        <ele>150.1</ele>
        <time>2008-04-06T11:33:09.000Z</time>
      </trkpt>
      <trkpt lat="48.68188" lon="1.94774">
        <ele>152.51</ele>
        <time>2008-04-06T11:33:16.000Z</time>
      </trkpt>
      <trkpt lat="48.68192" lon="1.9477">
        <ele>152.03</ele>
        <time>2008-04-06T11:33:22.000Z</time>
      </trkpt>
      <trkpt lat="48.68206" lon="1.94764">
        <ele>156.35</ele>
        <time>2008-04-06T11:33:50.000Z</time>
      </trkpt>
      <trkpt lat="48.68211" lon="1.9477">
        <ele>156.35</ele>
        <time>2008-04-06T11:33:56.000Z</time>
      </trkpt>
      <trkpt lat="48.68217" lon="1.94767">
        <ele>153.47</ele>
        <time>2008-04-06T11:34:03.000Z</time>
      </trkpt>
      <trkpt lat="48.68221" lon="1.94764">
        <ele>150.58</ele>
        <time>2008-04-06T11:34:07.000Z</time>
      </trkpt>
      <trkpt lat="48.68226" lon="1.94762">
        <ele>150.58</ele>
        <time>2008-04-06T11:34:12.000Z</time>
      </trkpt>
      <trkpt lat="48.68232" lon="1.94755">
        <ele>150.58</ele>
        <time>2008-04-06T11:34:19.000Z</time>
      </trkpt>
      <trkpt lat="48.68238" lon="1.94743">
        <ele>153.47</ele>
        <time>2008-04-06T11:34:24.000Z</time>
      </trkpt>
      <trkpt lat="48.68251" lon="1.94733">
        <ele>159.72</ele>
        <time>2008-04-06T11:34:29.000Z</time>
      </trkpt>
      <trkpt lat="48.68255" lon="1.94725">
        <ele>161.64</ele>
        <time>2008-04-06T11:34:32.000Z</time>
      </trkpt>
      <trkpt lat="48.68255" lon="1.94719">
        <ele>163.56</ele>
        <time>2008-04-06T11:34:34.000Z</time>
      </trkpt>
      <trkpt lat="48.68258" lon="1.94713">
        <ele>165.48</ele>
        <time>2008-04-06T11:34:39.000Z</time>
      </trkpt>
      <trkpt lat="48.68257" lon="1.94706">
        <ele>165.96</ele>
        <time>2008-04-06T11:34:43.000Z</time>
      </trkpt>
      <trkpt lat="48.68256" lon="1.94706">
        <ele>164.52</ele>
        <time>2008-04-06T11:34:44.000Z</time>
      </trkpt>
      <trkpt lat="48.68244" lon="1.94699">
        <ele>163.56</ele>
        <time>2008-04-06T11:34:50.000Z</time>
      </trkpt>
      <trkpt lat="48.68239" lon="1.947">
        <ele>161.64</ele>
        <time>2008-04-06T11:34:55.000Z</time>
      </trkpt>
      <trkpt lat="48.68238" lon="1.94701">
        <ele>161.64</ele>
        <time>2008-04-06T11:34:56.000Z</time>
      </trkpt>
      <trkpt lat="48.68238" lon="1.94693">
        <ele>159.72</ele>
        <time>2008-04-06T11:35:00.000Z</time>
      </trkpt>
      <trkpt lat="48.68235" lon="1.94688">
        <ele>158.27</ele>
        <time>2008-04-06T11:35:02.000Z</time>
      </trkpt>
      <trkpt lat="48.68233" lon="1.94672">
        <ele>157.79</ele>
        <time>2008-04-06T11:35:07.000Z</time>
      </trkpt>
      <trkpt lat="48.68237" lon="1.9466">
        <ele>157.31</ele>
        <time>2008-04-06T11:35:12.000Z</time>
      </trkpt>
      <trkpt lat="48.6824" lon="1.94659">
        <ele>156.83</ele>
        <time>2008-04-06T11:35:13.000Z</time>
      </trkpt>
      <trkpt lat="48.68242" lon="1.94655">
        <ele>159.24</ele>
        <time>2008-04-06T11:35:16.000Z</time>
      </trkpt>
      <trkpt lat="48.68242" lon="1.94639">
        <ele>159.72</ele>
        <time>2008-04-06T11:35:22.000Z</time>
      </trkpt>
      <trkpt lat="48.68247" lon="1.94622">
        <ele>163.08</ele>
        <time>2008-04-06T11:35:27.000Z</time>
      </trkpt>
      <trkpt lat="48.68251" lon="1.94616">
        <ele>163.56</ele>
        <time>2008-04-06T11:35:30.000Z</time>
      </trkpt>
      <trkpt lat="48.68261" lon="1.94598">
        <ele>165.48</ele>
        <time>2008-04-06T11:35:36.000Z</time>
      </trkpt>
      <trkpt lat="48.68262" lon="1.94596">
        <ele>166.45</ele>
        <time>2008-04-06T11:35:37.000Z</time>
      </trkpt>
      <trkpt lat="48.68271" lon="1.94577">
        <ele>165</ele>
        <time>2008-04-06T11:35:44.000Z</time>
      </trkpt>
      <trkpt lat="48.68275" lon="1.94569">
        <ele>163.08</ele>
        <time>2008-04-06T11:35:47.000Z</time>
      </trkpt>
      <trkpt lat="48.68278" lon="1.94554">
        <ele>160.68</ele>
        <time>2008-04-06T11:35:53.000Z</time>
      </trkpt>
      <trkpt lat="48.68277" lon="1.94548">
        <ele>159.72</ele>
        <time>2008-04-06T11:35:55.000Z</time>
      </trkpt>
      <trkpt lat="48.6828" lon="1.94531">
        <ele>158.27</ele>
        <time>2008-04-06T11:36:01.000Z</time>
      </trkpt>
      <trkpt lat="48.68282" lon="1.94526">
        <ele>154.91</ele>
        <time>2008-04-06T11:36:04.000Z</time>
      </trkpt>
      <trkpt lat="48.68282" lon="1.94523">
        <ele>150.1</ele>
        <time>2008-04-06T11:36:06.000Z</time>
      </trkpt>
      <trkpt lat="48.68281" lon="1.94518">
        <ele>147.22</ele>
        <time>2008-04-06T11:36:08.000Z</time>
      </trkpt>
      <trkpt lat="48.68274" lon="1.945">
        <ele>138.57</ele>
        <time>2008-04-06T11:36:15.000Z</time>
      </trkpt>
      <trkpt lat="48.68274" lon="1.94488">
        <ele>134.72</ele>
        <time>2008-04-06T11:36:18.000Z</time>
      </trkpt>
      <trkpt lat="48.68277" lon="1.94479">
        <ele>130.88</ele>
        <time>2008-04-06T11:36:22.000Z</time>
      </trkpt>
      <trkpt lat="48.68279" lon="1.9446">
        <ele>128.95</ele>
        <time>2008-04-06T11:36:27.000Z</time>
      </trkpt>
      <trkpt lat="48.68288" lon="1.94445">
        <ele>127.99</ele>
        <time>2008-04-06T11:36:33.000Z</time>
      </trkpt>
      <trkpt lat="48.68289" lon="1.94443">
        <ele>127.99</ele>
        <time>2008-04-06T11:36:34.000Z</time>
      </trkpt>
      <trkpt lat="48.68287" lon="1.94433">
        <ele>126.07</ele>
        <time>2008-04-06T11:36:38.000Z</time>
      </trkpt>
      <trkpt lat="48.68284" lon="1.94426">
        <ele>124.15</ele>
        <time>2008-04-06T11:36:42.000Z</time>
      </trkpt>
      <trkpt lat="48.68283" lon="1.94411">
        <ele>124.15</ele>
        <time>2008-04-06T11:36:48.000Z</time>
      </trkpt>
      <trkpt lat="48.68284" lon="1.94401">
        <ele>127.99</ele>
        <time>2008-04-06T11:36:51.000Z</time>
      </trkpt>
      <trkpt lat="48.68293" lon="1.94393">
        <ele>121.74</ele>
        <time>2008-04-06T11:36:56.000Z</time>
      </trkpt>
      <trkpt lat="48.68298" lon="1.9439">
        <ele>119.34</ele>
        <time>2008-04-06T11:37:00.000Z</time>
      </trkpt>
      <trkpt lat="48.68307" lon="1.94379">
        <ele>118.38</ele>
        <time>2008-04-06T11:37:06.000Z</time>
      </trkpt>
      <trkpt lat="48.68311" lon="1.94377">
        <ele>120.78</ele>
        <time>2008-04-06T11:37:10.000Z</time>
      </trkpt>
      <trkpt lat="48.68308" lon="1.94361">
        <ele>120.78</ele>
        <time>2008-04-06T11:37:20.000Z</time>
      </trkpt>
      <trkpt lat="48.68309" lon="1.94358">
        <ele>123.19</ele>
        <time>2008-04-06T11:37:22.000Z</time>
      </trkpt>
      <trkpt lat="48.6832" lon="1.94349">
        <ele>129.92</ele>
        <time>2008-04-06T11:37:30.000Z</time>
      </trkpt>
      <trkpt lat="48.68327" lon="1.94349">
        <ele>132.32</ele>
        <time>2008-04-06T11:37:34.000Z</time>
      </trkpt>
      <trkpt lat="48.68331" lon="1.9435">
        <ele>133.76</ele>
        <time>2008-04-06T11:37:39.000Z</time>
      </trkpt>
      <trkpt lat="48.68335" lon="1.94337">
        <ele>133.28</ele>
        <time>2008-04-06T11:37:46.000Z</time>
      </trkpt>
      <trkpt lat="48.68338" lon="1.94335">
        <ele>134.24</ele>
        <time>2008-04-06T11:37:51.000Z</time>
      </trkpt>
      <trkpt lat="48.68341" lon="1.94323">
        <ele>135.2</ele>
        <time>2008-04-06T11:37:58.000Z</time>
      </trkpt>
      <trkpt lat="48.68344" lon="1.94317">
        <ele>132.8</ele>
        <time>2008-04-06T11:38:01.000Z</time>
      </trkpt>
      <trkpt lat="48.68346" lon="1.94313">
        <ele>130.88</ele>
        <time>2008-04-06T11:38:03.000Z</time>
      </trkpt>
      <trkpt lat="48.68348" lon="1.94303">
        <ele>125.59</ele>
        <time>2008-04-06T11:38:08.000Z</time>
      </trkpt>
      <trkpt lat="48.68353" lon="1.94292">
        <ele>118.86</ele>
        <time>2008-04-06T11:38:14.000Z</time>
      </trkpt>
      <trkpt lat="48.6836" lon="1.94285">
        <ele>116.94</ele>
        <time>2008-04-06T11:38:18.000Z</time>
      </trkpt>
      <trkpt lat="48.6837" lon="1.94274">
        <ele>119.34</ele>
        <time>2008-04-06T11:38:23.000Z</time>
      </trkpt>
      <trkpt lat="48.68378" lon="1.94263">
        <ele>116.46</ele>
        <time>2008-04-06T11:38:28.000Z</time>
      </trkpt>
      <trkpt lat="48.68381" lon="1.94257">
        <ele>115.5</ele>
        <time>2008-04-06T11:38:32.000Z</time>
      </trkpt>
      <trkpt lat="48.68378" lon="1.94245">
        <ele>118.38</ele>
        <time>2008-04-06T11:38:38.000Z</time>
      </trkpt>
      <trkpt lat="48.68377" lon="1.94243">
        <ele>119.34</ele>
        <time>2008-04-06T11:38:39.000Z</time>
      </trkpt>
      <trkpt lat="48.68379" lon="1.94237">
        <ele>121.26</ele>
        <time>2008-04-06T11:38:43.000Z</time>
      </trkpt>
      <trkpt lat="48.68381" lon="1.94234">
        <ele>122.22</ele>
        <time>2008-04-06T11:38:45.000Z</time>
      </trkpt>
      <trkpt lat="48.68382" lon="1.94232">
        <ele>121.26</ele>
        <time>2008-04-06T11:38:47.000Z</time>
      </trkpt>
      <trkpt lat="48.68382" lon="1.94217">
        <ele>118.38</ele>
        <time>2008-04-06T11:38:54.000Z</time>
      </trkpt>
      <trkpt lat="48.68385" lon="1.94212">
        <ele>117.42</ele>
        <time>2008-04-06T11:38:57.000Z</time>
      </trkpt>
      <trkpt lat="48.68386" lon="1.94204">
        <ele>119.34</ele>
        <time>2008-04-06T11:39:02.000Z</time>
      </trkpt>
      <trkpt lat="48.6839" lon="1.94189">
        <ele>124.15</ele>
        <time>2008-04-06T11:39:09.000Z</time>
      </trkpt>
      <trkpt lat="48.68387" lon="1.94175">
        <ele>122.22</ele>
        <time>2008-04-06T11:39:15.000Z</time>
      </trkpt>
      <trkpt lat="48.68385" lon="1.9416">
        <ele>123.67</ele>
        <time>2008-04-06T11:39:20.000Z</time>
      </trkpt>
      <trkpt lat="48.68391" lon="1.94151">
        <ele>126.55</ele>
        <time>2008-04-06T11:39:27.000Z</time>
      </trkpt>
      <trkpt lat="48.68395" lon="1.94147">
        <ele>126.07</ele>
        <time>2008-04-06T11:39:31.000Z</time>
      </trkpt>
      <trkpt lat="48.684" lon="1.94139">
        <ele>128.47</ele>
        <time>2008-04-06T11:39:37.000Z</time>
      </trkpt>
      <trkpt lat="48.68408" lon="1.94136">
        <ele>128.95</ele>
        <time>2008-04-06T11:39:43.000Z</time>
      </trkpt>
      <trkpt lat="48.68415" lon="1.94132">
        <ele>129.92</ele>
        <time>2008-04-06T11:39:50.000Z</time>
      </trkpt>
      <trkpt lat="48.68419" lon="1.94127">
        <ele>137.61</ele>
        <time>2008-04-06T11:39:55.000Z</time>
      </trkpt>
      <trkpt lat="48.68423" lon="1.94123">
        <ele>137.13</ele>
        <time>2008-04-06T11:40:00.000Z</time>
      </trkpt>
      <trkpt lat="48.68429" lon="1.94123">
        <ele>139.53</ele>
        <time>2008-04-06T11:40:06.000Z</time>
      </trkpt>
      <trkpt lat="48.68438" lon="1.94122">
        <ele>142.41</ele>
        <time>2008-04-06T11:40:14.000Z</time>
      </trkpt>
      <trkpt lat="48.68457" lon="1.94122">
        <ele>148.66</ele>
        <time>2008-04-06T11:40:38.000Z</time>
      </trkpt>
      <trkpt lat="48.6846" lon="1.94108">
        <ele>151.54</ele>
        <time>2008-04-06T11:40:53.000Z</time>
      </trkpt>
      <trkpt lat="48.6846" lon="1.941">
        <ele>153.95</ele>
        <time>2008-04-06T11:41:01.000Z</time>
      </trkpt>
      <trkpt lat="48.68459" lon="1.94094">
        <ele>150.58</ele>
        <time>2008-04-06T11:41:06.000Z</time>
      </trkpt>
      <trkpt lat="48.68458" lon="1.94091">
        <ele>151.06</ele>
        <time>2008-04-06T11:41:08.000Z</time>
      </trkpt>
      <trkpt lat="48.68458" lon="1.94086">
        <ele>146.74</ele>
        <time>2008-04-06T11:41:17.000Z</time>
      </trkpt>
      <trkpt lat="48.68456" lon="1.94084">
        <ele>137.61</ele>
        <time>2008-04-06T11:41:22.000Z</time>
      </trkpt>
      <trkpt lat="48.68452" lon="1.94073">
        <ele>132.8</ele>
        <time>2008-04-06T11:41:28.000Z</time>
      </trkpt>
      <trkpt lat="48.68456" lon="1.94062">
        <ele>139.05</ele>
        <time>2008-04-06T11:41:33.000Z</time>
      </trkpt>
      <trkpt lat="48.68459" lon="1.94058">
        <ele>141.93</ele>
        <time>2008-04-06T11:41:35.000Z</time>
      </trkpt>
      <trkpt lat="48.68465" lon="1.94048">
        <ele>147.7</ele>
        <time>2008-04-06T11:41:41.000Z</time>
      </trkpt>
      <trkpt lat="48.6847" lon="1.94044">
        <ele>150.58</ele>
        <time>2008-04-06T11:41:44.000Z</time>
      </trkpt>
      <trkpt lat="48.68473" lon="1.94039">
        <ele>151.06</ele>
        <time>2008-04-06T11:41:46.000Z</time>
      </trkpt>
      <trkpt lat="48.68473" lon="1.94032">
        <ele>153.47</ele>
        <time>2008-04-06T11:41:48.000Z</time>
      </trkpt>
      <trkpt lat="48.68478" lon="1.94019">
        <ele>152.99</ele>
        <time>2008-04-06T11:41:53.000Z</time>
      </trkpt>
      <trkpt lat="48.6848" lon="1.9401">
        <ele>151.54</ele>
        <time>2008-04-06T11:41:56.000Z</time>
      </trkpt>
      <trkpt lat="48.6848" lon="1.94006">
        <ele>150.58</ele>
        <time>2008-04-06T11:41:59.000Z</time>
      </trkpt>
      <trkpt lat="48.68474" lon="1.94">
        <ele>149.14</ele>
        <time>2008-04-06T11:42:03.000Z</time>
      </trkpt>
      <trkpt lat="48.68468" lon="1.94005">
        <ele>147.7</ele>
        <time>2008-04-06T11:42:07.000Z</time>
      </trkpt>
      <trkpt lat="48.68463" lon="1.94003">
        <ele>145.78</ele>
        <time>2008-04-06T11:42:12.000Z</time>
      </trkpt>
      <trkpt lat="48.6846" lon="1.93999">
        <ele>141.93</ele>
        <time>2008-04-06T11:42:16.000Z</time>
      </trkpt>
      <trkpt lat="48.68455" lon="1.93994">
        <ele>140.97</ele>
        <time>2008-04-06T11:42:20.000Z</time>
      </trkpt>
      <trkpt lat="48.68449" lon="1.93988">
        <ele>136.16</ele>
        <time>2008-04-06T11:42:26.000Z</time>
      </trkpt>
      <trkpt lat="48.68451" lon="1.93982">
        <ele>130.88</ele>
        <time>2008-04-06T11:42:30.000Z</time>
      </trkpt>
      <trkpt lat="48.68453" lon="1.93969">
        <ele>127.03</ele>
        <time>2008-04-06T11:42:37.000Z</time>
      </trkpt>
      <trkpt lat="48.68455" lon="1.93961">
        <ele>127.03</ele>
        <time>2008-04-06T11:42:40.000Z</time>
      </trkpt>
      <trkpt lat="48.68456" lon="1.93954">
        <ele>125.11</ele>
        <time>2008-04-06T11:42:43.000Z</time>
      </trkpt>
      <trkpt lat="48.6846" lon="1.93944">
        <ele>123.19</ele>
        <time>2008-04-06T11:42:48.000Z</time>
      </trkpt>
      <trkpt lat="48.68463" lon="1.93938">
        <ele>123.19</ele>
        <time>2008-04-06T11:42:51.000Z</time>
      </trkpt>
      <trkpt lat="48.68467" lon="1.93931">
        <ele>123.67</ele>
        <time>2008-04-06T11:42:57.000Z</time>
      </trkpt>
      <trkpt lat="48.68471" lon="1.93922">
        <ele>125.59</ele>
        <time>2008-04-06T11:43:03.000Z</time>
      </trkpt>
      <trkpt lat="48.68477" lon="1.93909">
        <ele>127.99</ele>
        <time>2008-04-06T11:43:11.000Z</time>
      </trkpt>
      <trkpt lat="48.68486" lon="1.93899">
        <ele>128.47</ele>
        <time>2008-04-06T11:43:18.000Z</time>
      </trkpt>
      <trkpt lat="48.68494" lon="1.93896">
        <ele>129.92</ele>
        <time>2008-04-06T11:43:23.000Z</time>
      </trkpt>
      <trkpt lat="48.68504" lon="1.93891">
        <ele>133.28</ele>
        <time>2008-04-06T11:43:30.000Z</time>
      </trkpt>
      <trkpt lat="48.68505" lon="1.93891">
        <ele>134.24</ele>
        <time>2008-04-06T11:43:32.000Z</time>
      </trkpt>
      <trkpt lat="48.68513" lon="1.93883">
        <ele>138.57</ele>
        <time>2008-04-06T11:43:39.000Z</time>
      </trkpt>
      <trkpt lat="48.68517" lon="1.9388">
        <ele>140.97</ele>
        <time>2008-04-06T11:43:45.000Z</time>
      </trkpt>
      <trkpt lat="48.68518" lon="1.93879">
        <ele>140.49</ele>
        <time>2008-04-06T11:43:46.000Z</time>
      </trkpt>
      <trkpt lat="48.68524" lon="1.93877">
        <ele>142.89</ele>
        <time>2008-04-06T11:43:52.000Z</time>
      </trkpt>
      <trkpt lat="48.68525" lon="1.93875">
        <ele>148.18</ele>
        <time>2008-04-06T11:44:01.000Z</time>
      </trkpt>
      <trkpt lat="48.68528" lon="1.93864">
        <ele>148.66</ele>
        <time>2008-04-06T11:44:05.000Z</time>
      </trkpt>
      <trkpt lat="48.68535" lon="1.93853">
        <ele>146.74</ele>
        <time>2008-04-06T11:44:10.000Z</time>
      </trkpt>
      <trkpt lat="48.68538" lon="1.93851">
        <ele>146.74</ele>
        <time>2008-04-06T11:44:13.000Z</time>
      </trkpt>
      <trkpt lat="48.68541" lon="1.9384">
        <ele>146.74</ele>
        <time>2008-04-06T11:44:19.000Z</time>
      </trkpt>
      <trkpt lat="48.68546" lon="1.93822">
        <ele>146.26</ele>
        <time>2008-04-06T11:44:25.000Z</time>
      </trkpt>
      <trkpt lat="48.68549" lon="1.93819">
        <ele>147.7</ele>
        <time>2008-04-06T11:44:28.000Z</time>
      </trkpt>
      <trkpt lat="48.68552" lon="1.93818">
        <ele>148.18</ele>
        <time>2008-04-06T11:44:32.000Z</time>
      </trkpt>
      <trkpt lat="48.68562" lon="1.93809">
        <ele>147.22</ele>
        <time>2008-04-06T11:44:37.000Z</time>
      </trkpt>
      <trkpt lat="48.68575" lon="1.93795">
        <ele>143.37</ele>
        <time>2008-04-06T11:44:43.000Z</time>
      </trkpt>
      <trkpt lat="48.68584" lon="1.93789">
        <ele>139.53</ele>
        <time>2008-04-06T11:44:48.000Z</time>
      </trkpt>
      <trkpt lat="48.68592" lon="1.93782">
        <ele>137.61</ele>
        <time>2008-04-06T11:44:52.000Z</time>
      </trkpt>
      <trkpt lat="48.68598" lon="1.9378">
        <ele>137.13</ele>
        <time>2008-04-06T11:44:55.000Z</time>
      </trkpt>
      <trkpt lat="48.68603" lon="1.93774">
        <ele>139.53</ele>
        <time>2008-04-06T11:44:59.000Z</time>
      </trkpt>
      <trkpt lat="48.68607" lon="1.93768">
        <ele>142.89</ele>
        <time>2008-04-06T11:45:04.000Z</time>
      </trkpt>
      <trkpt lat="48.68609" lon="1.93768">
        <ele>144.34</ele>
        <time>2008-04-06T11:45:06.000Z</time>
      </trkpt>
      <trkpt lat="48.68614" lon="1.93767">
        <ele>146.74</ele>
        <time>2008-04-06T11:45:11.000Z</time>
      </trkpt>
      <trkpt lat="48.68623" lon="1.93766">
        <ele>146.74</ele>
        <time>2008-04-06T11:45:23.000Z</time>
      </trkpt>
      <trkpt lat="48.68631" lon="1.93767">
        <ele>150.58</ele>
        <time>2008-04-06T11:45:32.000Z</time>
      </trkpt>
      <trkpt lat="48.68634" lon="1.93763">
        <ele>152.99</ele>
        <time>2008-04-06T11:45:40.000Z</time>
      </trkpt>
      <trkpt lat="48.68638" lon="1.93758">
        <ele>155.87</ele>
        <time>2008-04-06T11:45:49.000Z</time>
      </trkpt>
      <trkpt lat="48.68642" lon="1.93757">
        <ele>157.31</ele>
        <time>2008-04-06T11:45:56.000Z</time>
      </trkpt>
      <trkpt lat="48.68645" lon="1.93755">
        <ele>156.83</ele>
        <time>2008-04-06T11:46:01.000Z</time>
      </trkpt>
      <trkpt lat="48.68645" lon="1.93747">
        <ele>157.31</ele>
        <time>2008-04-06T11:46:07.000Z</time>
      </trkpt>
      <trkpt lat="48.68645" lon="1.93745">
        <ele>157.31</ele>
        <time>2008-04-06T11:46:08.000Z</time>
      </trkpt>
      <trkpt lat="48.6864" lon="1.93725">
        <ele>158.75</ele>
        <time>2008-04-06T11:46:14.000Z</time>
      </trkpt>
      <trkpt lat="48.68633" lon="1.93718">
        <ele>153.95</ele>
        <time>2008-04-06T11:46:20.000Z</time>
      </trkpt>
      <trkpt lat="48.68628" lon="1.93713">
        <ele>151.54</ele>
        <time>2008-04-06T11:46:23.000Z</time>
      </trkpt>
      <trkpt lat="48.68629" lon="1.937">
        <ele>146.26</ele>
        <time>2008-04-06T11:46:28.000Z</time>
      </trkpt>
      <trkpt lat="48.68621" lon="1.93691">
        <ele>142.89</ele>
        <time>2008-04-06T11:46:34.000Z</time>
      </trkpt>
      <trkpt lat="48.68616" lon="1.93686">
        <ele>140.49</ele>
        <time>2008-04-06T11:46:37.000Z</time>
      </trkpt>
      <trkpt lat="48.68607" lon="1.93681">
        <ele>139.05</ele>
        <time>2008-04-06T11:46:42.000Z</time>
      </trkpt>
      <trkpt lat="48.68595" lon="1.93673">
        <ele>136.16</ele>
        <time>2008-04-06T11:46:47.000Z</time>
      </trkpt>
      <trkpt lat="48.68586" lon="1.93663">
        <ele>134.24</ele>
        <time>2008-04-06T11:46:51.000Z</time>
      </trkpt>
      <trkpt lat="48.68581" lon="1.93658">
        <ele>132.32</ele>
        <time>2008-04-06T11:46:54.000Z</time>
      </trkpt>
      <trkpt lat="48.68574" lon="1.93651">
        <ele>133.76</ele>
        <time>2008-04-06T11:46:58.000Z</time>
      </trkpt>
      <trkpt lat="48.68568" lon="1.93646">
        <ele>131.84</ele>
        <time>2008-04-06T11:47:02.000Z</time>
      </trkpt>
      <trkpt lat="48.68562" lon="1.9364">
        <ele>131.36</ele>
        <time>2008-04-06T11:47:05.000Z</time>
      </trkpt>
      <trkpt lat="48.68556" lon="1.93625">
        <ele>130.88</ele>
        <time>2008-04-06T11:47:10.000Z</time>
      </trkpt>
      <trkpt lat="48.68562" lon="1.93617">
        <ele>127.03</ele>
        <time>2008-04-06T11:47:14.000Z</time>
      </trkpt>
      <trkpt lat="48.68571" lon="1.9361">
        <ele>124.63</ele>
        <time>2008-04-06T11:47:18.000Z</time>
      </trkpt>
      <trkpt lat="48.68582" lon="1.93601">
        <ele>123.19</ele>
        <time>2008-04-06T11:47:23.000Z</time>
      </trkpt>
      <trkpt lat="48.6859" lon="1.93595">
        <ele>122.71</ele>
        <time>2008-04-06T11:47:27.000Z</time>
      </trkpt>
      <trkpt lat="48.68599" lon="1.93583">
        <ele>119.82</ele>
        <time>2008-04-06T11:47:32.000Z</time>
      </trkpt>
      <trkpt lat="48.68603" lon="1.93568">
        <ele>117.9</ele>
        <time>2008-04-06T11:47:37.000Z</time>
      </trkpt>
      <trkpt lat="48.68608" lon="1.93564">
        <ele>124.15</ele>
        <time>2008-04-06T11:47:44.000Z</time>
      </trkpt>
      <trkpt lat="48.68609" lon="1.9356">
        <ele>129.43</ele>
        <time>2008-04-06T11:47:47.000Z</time>
      </trkpt>
      <trkpt lat="48.68611" lon="1.93558">
        <ele>132.32</ele>
        <time>2008-04-06T11:47:49.000Z</time>
      </trkpt>
      <trkpt lat="48.68616" lon="1.9356">
        <ele>136.16</ele>
        <time>2008-04-06T11:47:53.000Z</time>
      </trkpt>
      <trkpt lat="48.68619" lon="1.93558">
        <ele>135.68</ele>
        <time>2008-04-06T11:47:57.000Z</time>
      </trkpt>
      <trkpt lat="48.68624" lon="1.93558">
        <ele>142.41</ele>
        <time>2008-04-06T11:48:03.000Z</time>
      </trkpt>
      <trkpt lat="48.6863" lon="1.93558">
        <ele>148.18</ele>
        <time>2008-04-06T11:48:08.000Z</time>
      </trkpt>
      <trkpt lat="48.68629" lon="1.93559">
        <ele>148.18</ele>
        <time>2008-04-06T11:48:12.000Z</time>
      </trkpt>
      <trkpt lat="48.68634" lon="1.93556">
        <ele>146.74</ele>
        <time>2008-04-06T11:48:22.000Z</time>
      </trkpt>
      <trkpt lat="48.6864" lon="1.93559">
        <ele>140.49</ele>
        <time>2008-04-06T11:48:29.000Z</time>
      </trkpt>
      <trkpt lat="48.68641" lon="1.93558">
        <ele>143.85</ele>
        <time>2008-04-06T11:48:33.000Z</time>
      </trkpt>
      <trkpt lat="48.68632" lon="1.93548">
        <ele>143.85</ele>
        <time>2008-04-06T11:48:39.000Z</time>
      </trkpt>
      <trkpt lat="48.68625" lon="1.93537">
        <ele>141.93</ele>
        <time>2008-04-06T11:48:44.000Z</time>
      </trkpt>
      <trkpt lat="48.68626" lon="1.93525">
        <ele>139.05</ele>
        <time>2008-04-06T11:48:49.000Z</time>
      </trkpt>
      <trkpt lat="48.68627" lon="1.93517">
        <ele>135.2</ele>
        <time>2008-04-06T11:48:53.000Z</time>
      </trkpt>
      <trkpt lat="48.68629" lon="1.9351">
        <ele>133.28</ele>
        <time>2008-04-06T11:48:57.000Z</time>
      </trkpt>
      <trkpt lat="48.6863" lon="1.93501">
        <ele>131.84</ele>
        <time>2008-04-06T11:49:01.000Z</time>
      </trkpt>
      <trkpt lat="48.68633" lon="1.93496">
        <ele>135.68</ele>
        <time>2008-04-06T11:49:05.000Z</time>
      </trkpt>
      <trkpt lat="48.68637" lon="1.93494">
        <ele>136.64</ele>
        <time>2008-04-06T11:49:09.000Z</time>
      </trkpt>
      <trkpt lat="48.68638" lon="1.93485">
        <ele>136.64</ele>
        <time>2008-04-06T11:49:15.000Z</time>
      </trkpt>
      <trkpt lat="48.68638" lon="1.93473">
        <ele>139.05</ele>
        <time>2008-04-06T11:49:19.000Z</time>
      </trkpt>
      <trkpt lat="48.68642" lon="1.93467">
        <ele>138.09</ele>
        <time>2008-04-06T11:49:24.000Z</time>
      </trkpt>
      <trkpt lat="48.68644" lon="1.93457">
        <ele>135.68</ele>
        <time>2008-04-06T11:49:29.000Z</time>
      </trkpt>
      <trkpt lat="48.68645" lon="1.93457">
        <ele>135.68</ele>
        <time>2008-04-06T11:49:30.000Z</time>
      </trkpt>
      <trkpt lat="48.68652" lon="1.93446">
        <ele>138.09</ele>
        <time>2008-04-06T11:49:38.000Z</time>
      </trkpt>
      <trkpt lat="48.68655" lon="1.93442">
        <ele>139.05</ele>
        <time>2008-04-06T11:49:42.000Z</time>
      </trkpt>
      <trkpt lat="48.6866" lon="1.93431">
        <ele>140.01</ele>
        <time>2008-04-06T11:49:47.000Z</time>
      </trkpt>
      <trkpt lat="48.68663" lon="1.93432">
        <ele>138.57</ele>
        <time>2008-04-06T11:49:49.000Z</time>
      </trkpt>
      <trkpt lat="48.68667" lon="1.93434">
        <ele>139.53</ele>
        <time>2008-04-06T11:49:52.000Z</time>
      </trkpt>
      <trkpt lat="48.68675" lon="1.93427">
        <ele>146.26</ele>
        <time>2008-04-06T11:49:58.000Z</time>
      </trkpt>
      <trkpt lat="48.68684" lon="1.93419">
        <ele>145.78</ele>
        <time>2008-04-06T11:50:05.000Z</time>
      </trkpt>
      <trkpt lat="48.68688" lon="1.93409">
        <ele>139.53</ele>
        <time>2008-04-06T11:50:11.000Z</time>
      </trkpt>
      <trkpt lat="48.68693" lon="1.93402">
        <ele>140.49</ele>
        <time>2008-04-06T11:50:15.000Z</time>
      </trkpt>
      <trkpt lat="48.68694" lon="1.93402">
        <ele>140.01</ele>
        <time>2008-04-06T11:50:16.000Z</time>
      </trkpt>
      <trkpt lat="48.68697" lon="1.934">
        <ele>139.05</ele>
        <time>2008-04-06T11:50:19.000Z</time>
      </trkpt>
      <trkpt lat="48.68703" lon="1.9339">
        <ele>133.28</ele>
        <time>2008-04-06T11:50:25.000Z</time>
      </trkpt>
      <trkpt lat="48.68708" lon="1.93377">
        <ele>130.4</ele>
        <time>2008-04-06T11:50:31.000Z</time>
      </trkpt>
      <trkpt lat="48.6871" lon="1.93363">
        <ele>131.36</ele>
        <time>2008-04-06T11:50:36.000Z</time>
      </trkpt>
      <trkpt lat="48.6871" lon="1.93355">
        <ele>131.84</ele>
        <time>2008-04-06T11:50:39.000Z</time>
      </trkpt>
      <trkpt lat="48.68716" lon="1.93342">
        <ele>130.88</ele>
        <time>2008-04-06T11:50:46.000Z</time>
      </trkpt>
      <trkpt lat="48.68718" lon="1.93336">
        <ele>132.8</ele>
        <time>2008-04-06T11:50:51.000Z</time>
      </trkpt>
      <trkpt lat="48.68722" lon="1.93331">
        <ele>140.01</ele>
        <time>2008-04-06T11:50:56.000Z</time>
      </trkpt>
      <trkpt lat="48.68723" lon="1.9333">
        <ele>141.45</ele>
        <time>2008-04-06T11:50:57.000Z</time>
      </trkpt>
      <trkpt lat="48.68729" lon="1.93327">
        <ele>147.22</ele>
        <time>2008-04-06T11:51:05.000Z</time>
      </trkpt>
      <trkpt lat="48.68734" lon="1.93326">
        <ele>146.26</ele>
        <time>2008-04-06T11:51:10.000Z</time>
      </trkpt>
      <trkpt lat="48.68736" lon="1.93323">
        <ele>148.66</ele>
        <time>2008-04-06T11:51:15.000Z</time>
      </trkpt>
      <trkpt lat="48.68738" lon="1.93319">
        <ele>147.7</ele>
        <time>2008-04-06T11:51:20.000Z</time>
      </trkpt>
      <trkpt lat="48.68737" lon="1.93314">
        <ele>143.85</ele>
        <time>2008-04-06T11:51:28.000Z</time>
      </trkpt>
      <trkpt lat="48.68737" lon="1.93307">
        <ele>142.89</ele>
        <time>2008-04-06T11:51:34.000Z</time>
      </trkpt>
      <trkpt lat="48.68735" lon="1.93304">
        <ele>144.82</ele>
        <time>2008-04-06T11:51:38.000Z</time>
      </trkpt>
      <trkpt lat="48.68732" lon="1.93301">
        <ele>144.82</ele>
        <time>2008-04-06T11:51:42.000Z</time>
      </trkpt>
      <trkpt lat="48.68733" lon="1.93296">
        <ele>144.34</ele>
        <time>2008-04-06T11:51:48.000Z</time>
      </trkpt>
      <trkpt lat="48.68734" lon="1.93287">
        <ele>144.82</ele>
        <time>2008-04-06T11:51:56.000Z</time>
      </trkpt>
      <trkpt lat="48.68734" lon="1.93281">
        <ele>145.3</ele>
        <time>2008-04-06T11:52:00.000Z</time>
      </trkpt>
      <trkpt lat="48.68733" lon="1.93266">
        <ele>147.7</ele>
        <time>2008-04-06T11:52:05.000Z</time>
      </trkpt>
      <trkpt lat="48.68737" lon="1.93256">
        <ele>146.74</ele>
        <time>2008-04-06T11:52:10.000Z</time>
      </trkpt>
      <trkpt lat="48.68735" lon="1.9325">
        <ele>148.66</ele>
        <time>2008-04-06T11:52:13.000Z</time>
      </trkpt>
      <trkpt lat="48.68733" lon="1.9324">
        <ele>154.91</ele>
        <time>2008-04-06T11:52:16.000Z</time>
      </trkpt>
      <trkpt lat="48.6874" lon="1.93226">
        <ele>152.03</ele>
        <time>2008-04-06T11:52:21.000Z</time>
      </trkpt>
      <trkpt lat="48.68747" lon="1.93209">
        <ele>150.1</ele>
        <time>2008-04-06T11:52:28.000Z</time>
      </trkpt>
      <trkpt lat="48.68748" lon="1.93191">
        <ele>146.26</ele>
        <time>2008-04-06T11:52:33.000Z</time>
      </trkpt>
      <trkpt lat="48.68747" lon="1.93173">
        <ele>140.49</ele>
        <time>2008-04-06T11:52:38.000Z</time>
      </trkpt>
      <trkpt lat="48.68747" lon="1.93155">
        <ele>139.05</ele>
        <time>2008-04-06T11:52:43.000Z</time>
      </trkpt>
      <trkpt lat="48.68747" lon="1.93138">
        <ele>137.13</ele>
        <time>2008-04-06T11:52:48.000Z</time>
      </trkpt>
      <trkpt lat="48.68746" lon="1.93127">
        <ele>138.57</ele>
        <time>2008-04-06T11:52:54.000Z</time>
      </trkpt>
      <trkpt lat="48.6875" lon="1.93109">
        <ele>141.93</ele>
        <time>2008-04-06T11:53:02.000Z</time>
      </trkpt>
      <trkpt lat="48.68757" lon="1.93092">
        <ele>141.93</ele>
        <time>2008-04-06T11:53:08.000Z</time>
      </trkpt>
      <trkpt lat="48.68761" lon="1.93087">
        <ele>143.85</ele>
        <time>2008-04-06T11:53:13.000Z</time>
      </trkpt>
      <trkpt lat="48.68765" lon="1.93083">
        <ele>146.74</ele>
        <time>2008-04-06T11:53:18.000Z</time>
      </trkpt>
      <trkpt lat="48.68771" lon="1.93076">
        <ele>147.7</ele>
        <time>2008-04-06T11:53:26.000Z</time>
      </trkpt>
      <trkpt lat="48.68775" lon="1.93071">
        <ele>151.06</ele>
        <time>2008-04-06T11:53:31.000Z</time>
      </trkpt>
      <trkpt lat="48.68782" lon="1.93064">
        <ele>156.83</ele>
        <time>2008-04-06T11:53:40.000Z</time>
      </trkpt>
      <trkpt lat="48.68789" lon="1.93063">
        <ele>158.27</ele>
        <time>2008-04-06T11:53:45.000Z</time>
      </trkpt>
      <trkpt lat="48.688" lon="1.9306">
        <ele>157.31</ele>
        <time>2008-04-06T11:53:50.000Z</time>
      </trkpt>
      <trkpt lat="48.68807" lon="1.9305">
        <ele>152.03</ele>
        <time>2008-04-06T11:53:56.000Z</time>
      </trkpt>
      <trkpt lat="48.68806" lon="1.93036">
        <ele>147.22</ele>
        <time>2008-04-06T11:54:01.000Z</time>
      </trkpt>
      <trkpt lat="48.68806" lon="1.93012">
        <ele>138.09</ele>
        <time>2008-04-06T11:54:07.000Z</time>
      </trkpt>
      <trkpt lat="48.68811" lon="1.92996">
        <ele>130.4</ele>
        <time>2008-04-06T11:54:12.000Z</time>
      </trkpt>
      <trkpt lat="48.68819" lon="1.92981">
        <ele>127.51</ele>
        <time>2008-04-06T11:54:17.000Z</time>
      </trkpt>
      <trkpt lat="48.68825" lon="1.9297">
        <ele>127.99</ele>
        <time>2008-04-06T11:54:21.000Z</time>
      </trkpt>
      <trkpt lat="48.68822" lon="1.92953">
        <ele>127.03</ele>
        <time>2008-04-06T11:54:27.000Z</time>
      </trkpt>
      <trkpt lat="48.68822" lon="1.92931">
        <ele>127.03</ele>
        <time>2008-04-06T11:54:32.000Z</time>
      </trkpt>
      <trkpt lat="48.68812" lon="1.92917">
        <ele>128.95</ele>
        <time>2008-04-06T11:54:37.000Z</time>
      </trkpt>
      <trkpt lat="48.68808" lon="1.92912">
        <ele>130.88</ele>
        <time>2008-04-06T11:54:39.000Z</time>
      </trkpt>
      <trkpt lat="48.68805" lon="1.92902">
        <ele>127.99</ele>
        <time>2008-04-06T11:54:43.000Z</time>
      </trkpt>
      <trkpt lat="48.68808" lon="1.92887">
        <ele>125.11</ele>
        <time>2008-04-06T11:54:48.000Z</time>
      </trkpt>
      <trkpt lat="48.68814" lon="1.92877">
        <ele>125.59</ele>
        <time>2008-04-06T11:54:53.000Z</time>
      </trkpt>
      <trkpt lat="48.68822" lon="1.92866">
        <ele>130.4</ele>
        <time>2008-04-06T11:54:58.000Z</time>
      </trkpt>
      <trkpt lat="48.68825" lon="1.92862">
        <ele>129.92</ele>
        <time>2008-04-06T11:55:00.000Z</time>
      </trkpt>
      <trkpt lat="48.68835" lon="1.92849">
        <ele>128.47</ele>
        <time>2008-04-06T11:55:06.000Z</time>
      </trkpt>
      <trkpt lat="48.68836" lon="1.92847">
        <ele>127.51</ele>
        <time>2008-04-06T11:55:07.000Z</time>
      </trkpt>
      <trkpt lat="48.68838" lon="1.92835">
        <ele>125.11</ele>
        <time>2008-04-06T11:55:14.000Z</time>
      </trkpt>
      <trkpt lat="48.68839" lon="1.9283">
        <ele>125.11</ele>
        <time>2008-04-06T11:55:17.000Z</time>
      </trkpt>
      <trkpt lat="48.6884" lon="1.92823">
        <ele>126.55</ele>
        <time>2008-04-06T11:55:22.000Z</time>
      </trkpt>
      <trkpt lat="48.68839" lon="1.92815">
        <ele>126.55</ele>
        <time>2008-04-06T11:55:29.000Z</time>
      </trkpt>
      <trkpt lat="48.6884" lon="1.92807">
        <ele>126.07</ele>
        <time>2008-04-06T11:55:36.000Z</time>
      </trkpt>
      <trkpt lat="48.68838" lon="1.92802">
        <ele>129.43</ele>
        <time>2008-04-06T11:55:41.000Z</time>
      </trkpt>
      <trkpt lat="48.68835" lon="1.92795">
        <ele>132.8</ele>
        <time>2008-04-06T11:55:47.000Z</time>
      </trkpt>
      <trkpt lat="48.68836" lon="1.92791">
        <ele>133.28</ele>
        <time>2008-04-06T11:55:49.000Z</time>
      </trkpt>
      <trkpt lat="48.68841" lon="1.92783">
        <ele>134.72</ele>
        <time>2008-04-06T11:55:55.000Z</time>
      </trkpt>
      <trkpt lat="48.68845" lon="1.92774">
        <ele>133.28</ele>
        <time>2008-04-06T11:56:02.000Z</time>
      </trkpt>
      <trkpt lat="48.68846" lon="1.92772">
        <ele>134.72</ele>
        <time>2008-04-06T11:56:03.000Z</time>
      </trkpt>
      <trkpt lat="48.6885" lon="1.92765">
        <ele>135.68</ele>
        <time>2008-04-06T11:56:08.000Z</time>
      </trkpt>
      <trkpt lat="48.68855" lon="1.92756">
        <ele>135.68</ele>
        <time>2008-04-06T11:56:16.000Z</time>
      </trkpt>
      <trkpt lat="48.68859" lon="1.92744">
        <ele>141.45</ele>
        <time>2008-04-06T11:56:24.000Z</time>
      </trkpt>
      <trkpt lat="48.68861" lon="1.92739">
        <ele>144.34</ele>
        <time>2008-04-06T11:56:29.000Z</time>
      </trkpt>
      <trkpt lat="48.68863" lon="1.92733">
        <ele>147.22</ele>
        <time>2008-04-06T11:56:33.000Z</time>
      </trkpt>
      <trkpt lat="48.68866" lon="1.92727">
        <ele>148.18</ele>
        <time>2008-04-06T11:56:39.000Z</time>
      </trkpt>
      <trkpt lat="48.68869" lon="1.9272">
        <ele>149.62</ele>
        <time>2008-04-06T11:56:44.000Z</time>
      </trkpt>
      <trkpt lat="48.68877" lon="1.92711">
        <ele>147.7</ele>
        <time>2008-04-06T11:56:50.000Z</time>
      </trkpt>
      <trkpt lat="48.68881" lon="1.92707">
        <ele>146.74</ele>
        <time>2008-04-06T11:56:53.000Z</time>
      </trkpt>
      <trkpt lat="48.68884" lon="1.92692">
        <ele>144.34</ele>
        <time>2008-04-06T11:57:00.000Z</time>
      </trkpt>
      <trkpt lat="48.68886" lon="1.92678">
        <ele>141.45</ele>
        <time>2008-04-06T11:57:05.000Z</time>
      </trkpt>
      <trkpt lat="48.68883" lon="1.92668">
        <ele>139.53</ele>
        <time>2008-04-06T11:57:09.000Z</time>
      </trkpt>
      <trkpt lat="48.68887" lon="1.9265">
        <ele>133.76</ele>
        <time>2008-04-06T11:57:16.000Z</time>
      </trkpt>
      <trkpt lat="48.68888" lon="1.92648">
        <ele>132.8</ele>
        <time>2008-04-06T11:57:17.000Z</time>
      </trkpt>
      <trkpt lat="48.68893" lon="1.92638">
        <ele>132.8</ele>
        <time>2008-04-06T11:57:24.000Z</time>
      </trkpt>
      <trkpt lat="48.68898" lon="1.92633">
        <ele>135.2</ele>
        <time>2008-04-06T11:57:30.000Z</time>
      </trkpt>
      <trkpt lat="48.68899" lon="1.92634">
        <ele>134.24</ele>
        <time>2008-04-06T11:57:31.000Z</time>
      </trkpt>
      <trkpt lat="48.68902" lon="1.92638">
        <ele>132.8</ele>
        <time>2008-04-06T11:57:35.000Z</time>
      </trkpt>
      <trkpt lat="48.68909" lon="1.92641">
        <ele>136.64</ele>
        <time>2008-04-06T11:57:41.000Z</time>
      </trkpt>
      <trkpt lat="48.68915" lon="1.92642">
        <ele>141.45</ele>
        <time>2008-04-06T11:57:50.000Z</time>
      </trkpt>
      <trkpt lat="48.68922" lon="1.92643">
        <ele>140.97</ele>
        <time>2008-04-06T11:57:57.000Z</time>
      </trkpt>
      <trkpt lat="48.68924" lon="1.92645">
        <ele>140.49</ele>
        <time>2008-04-06T11:58:02.000Z</time>
      </trkpt>
      <trkpt lat="48.6893" lon="1.92642">
        <ele>144.82</ele>
        <time>2008-04-06T11:58:08.000Z</time>
      </trkpt>
      <trkpt lat="48.68938" lon="1.92631">
        <ele>153.47</ele>
        <time>2008-04-06T11:58:15.000Z</time>
      </trkpt>
      <trkpt lat="48.68941" lon="1.92625">
        <ele>152.03</ele>
        <time>2008-04-06T11:58:23.000Z</time>
      </trkpt>
      <trkpt lat="48.68943" lon="1.92619">
        <ele>151.54</ele>
        <time>2008-04-06T11:58:29.000Z</time>
      </trkpt>
      <trkpt lat="48.68947" lon="1.92613">
        <ele>153.47</ele>
        <time>2008-04-06T11:58:36.000Z</time>
      </trkpt>
      <trkpt lat="48.68951" lon="1.9261">
        <ele>155.39</ele>
        <time>2008-04-06T11:58:42.000Z</time>
      </trkpt>
      <trkpt lat="48.68954" lon="1.92606">
        <ele>152.03</ele>
        <time>2008-04-06T11:58:49.000Z</time>
      </trkpt>
      <trkpt lat="48.68955" lon="1.92601">
        <ele>150.1</ele>
        <time>2008-04-06T11:58:54.000Z</time>
      </trkpt>
      <trkpt lat="48.68957" lon="1.92593">
        <ele>151.54</ele>
        <time>2008-04-06T11:59:00.000Z</time>
      </trkpt>
      <trkpt lat="48.68958" lon="1.9258">
        <ele>151.54</ele>
        <time>2008-04-06T11:59:07.000Z</time>
      </trkpt>
      <trkpt lat="48.68958" lon="1.92565">
        <ele>151.06</ele>
        <time>2008-04-06T11:59:13.000Z</time>
      </trkpt>
      <trkpt lat="48.68949" lon="1.92545">
        <ele>150.1</ele>
        <time>2008-04-06T11:59:19.000Z</time>
      </trkpt>
      <trkpt lat="48.68946" lon="1.92524">
        <ele>150.58</ele>
        <time>2008-04-06T11:59:25.000Z</time>
      </trkpt>
      <trkpt lat="48.6895" lon="1.9251">
        <ele>147.7</ele>
        <time>2008-04-06T11:59:30.000Z</time>
      </trkpt>
      <trkpt lat="48.68951" lon="1.92507">
        <ele>146.74</ele>
        <time>2008-04-06T11:59:31.000Z</time>
      </trkpt>
      <trkpt lat="48.68957" lon="1.92496">
        <ele>148.18</ele>
        <time>2008-04-06T11:59:39.000Z</time>
      </trkpt>
      <trkpt lat="48.68961" lon="1.92494">
        <ele>149.62</ele>
        <time>2008-04-06T11:59:42.000Z</time>
      </trkpt>
      <trkpt lat="48.68966" lon="1.92484">
        <ele>153.47</ele>
        <time>2008-04-06T11:59:48.000Z</time>
      </trkpt>
      <trkpt lat="48.68973" lon="1.92475">
        <ele>150.58</ele>
        <time>2008-04-06T11:59:53.000Z</time>
      </trkpt>
      <trkpt lat="48.68977" lon="1.92472">
        <ele>149.62</ele>
        <time>2008-04-06T11:59:55.000Z</time>
      </trkpt>
      <trkpt lat="48.68986" lon="1.92463">
        <ele>148.66</ele>
        <time>2008-04-06T12:00:00.000Z</time>
      </trkpt>
      <trkpt lat="48.68994" lon="1.92452">
        <ele>145.78</ele>
        <time>2008-04-06T12:00:05.000Z</time>
      </trkpt>
      <trkpt lat="48.68995" lon="1.92446">
        <ele>145.78</ele>
        <time>2008-04-06T12:00:10.000Z</time>
      </trkpt>
      <trkpt lat="48.68996" lon="1.92444">
        <ele>145.3</ele>
        <time>2008-04-06T12:00:11.000Z</time>
      </trkpt>
      <trkpt lat="48.68999" lon="1.92437">
        <ele>142.41</ele>
        <time>2008-04-06T12:00:16.000Z</time>
      </trkpt>
      <trkpt lat="48.69" lon="1.92431">
        <ele>140.01</ele>
        <time>2008-04-06T12:00:19.000Z</time>
      </trkpt>
      <trkpt lat="48.69007" lon="1.92415">
        <ele>138.57</ele>
        <time>2008-04-06T12:00:26.000Z</time>
      </trkpt>
      <trkpt lat="48.69016" lon="1.924">
        <ele>133.76</ele>
        <time>2008-04-06T12:00:32.000Z</time>
      </trkpt>
      <trkpt lat="48.6902" lon="1.92384">
        <ele>126.55</ele>
        <time>2008-04-06T12:00:37.000Z</time>
      </trkpt>
      <trkpt lat="48.69026" lon="1.92364">
        <ele>124.15</ele>
        <time>2008-04-06T12:00:43.000Z</time>
      </trkpt>
      <trkpt lat="48.69026" lon="1.92361">
        <ele>123.19</ele>
        <time>2008-04-06T12:00:44.000Z</time>
      </trkpt>
      <trkpt lat="48.69028" lon="1.92356">
        <ele>122.22</ele>
        <time>2008-04-06T12:00:49.000Z</time>
      </trkpt>
      <trkpt lat="48.6903" lon="1.92351">
        <ele>124.63</ele>
        <time>2008-04-06T12:00:52.000Z</time>
      </trkpt>
      <trkpt lat="48.69032" lon="1.92344">
        <ele>126.07</ele>
        <time>2008-04-06T12:00:57.000Z</time>
      </trkpt>
      <trkpt lat="48.69028" lon="1.92329">
        <ele>129.43</ele>
        <time>2008-04-06T12:01:04.000Z</time>
      </trkpt>
      <trkpt lat="48.69028" lon="1.92327">
        <ele>129.92</ele>
        <time>2008-04-06T12:01:05.000Z</time>
      </trkpt>
      <trkpt lat="48.6903" lon="1.92314">
        <ele>129.92</ele>
        <time>2008-04-06T12:01:12.000Z</time>
      </trkpt>
      <trkpt lat="48.69031" lon="1.92304">
        <ele>130.4</ele>
        <time>2008-04-06T12:01:16.000Z</time>
      </trkpt>
      <trkpt lat="48.69031" lon="1.92301">
        <ele>129.92</ele>
        <time>2008-04-06T12:01:17.000Z</time>
      </trkpt>
      <trkpt lat="48.69031" lon="1.9228">
        <ele>129.43</ele>
        <time>2008-04-06T12:01:22.000Z</time>
      </trkpt>
      <trkpt lat="48.69033" lon="1.92269">
        <ele>126.07</ele>
        <time>2008-04-06T12:01:27.000Z</time>
      </trkpt>
      <trkpt lat="48.69035" lon="1.92258">
        <ele>128.47</ele>
        <time>2008-04-06T12:01:32.000Z</time>
      </trkpt>
      <trkpt lat="48.69041" lon="1.9225">
        <ele>131.36</ele>
        <time>2008-04-06T12:01:37.000Z</time>
      </trkpt>
      <trkpt lat="48.69043" lon="1.9225">
        <ele>132.8</ele>
        <time>2008-04-06T12:01:40.000Z</time>
      </trkpt>
      <trkpt lat="48.69051" lon="1.92246">
        <ele>148.66</ele>
        <time>2008-04-06T12:01:47.000Z</time>
      </trkpt>
      <trkpt lat="48.69053" lon="1.92241">
        <ele>153.95</ele>
        <time>2008-04-06T12:01:50.000Z</time>
      </trkpt>
      <trkpt lat="48.69055" lon="1.92239">
        <ele>152.99</ele>
        <time>2008-04-06T12:01:53.000Z</time>
      </trkpt>
      <trkpt lat="48.69057" lon="1.92237">
        <ele>148.66</ele>
        <time>2008-04-06T12:02:00.000Z</time>
      </trkpt>
      <trkpt lat="48.69064" lon="1.92229">
        <ele>151.06</ele>
        <time>2008-04-06T12:02:06.000Z</time>
      </trkpt>
      <trkpt lat="48.69067" lon="1.92227">
        <ele>148.66</ele>
        <time>2008-04-06T12:02:10.000Z</time>
      </trkpt>
      <trkpt lat="48.69072" lon="1.92216">
        <ele>147.22</ele>
        <time>2008-04-06T12:02:19.000Z</time>
      </trkpt>
      <trkpt lat="48.69074" lon="1.92208">
        <ele>148.18</ele>
        <time>2008-04-06T12:02:26.000Z</time>
      </trkpt>
      <trkpt lat="48.69076" lon="1.92202">
        <ele>146.26</ele>
        <time>2008-04-06T12:02:31.000Z</time>
      </trkpt>
      <trkpt lat="48.69079" lon="1.92197">
        <ele>138.57</ele>
        <time>2008-04-06T12:02:37.000Z</time>
      </trkpt>
      <trkpt lat="48.69081" lon="1.9219">
        <ele>137.61</ele>
        <time>2008-04-06T12:02:43.000Z</time>
      </trkpt>
      <trkpt lat="48.69083" lon="1.92182">
        <ele>143.85</ele>
        <time>2008-04-06T12:02:51.000Z</time>
      </trkpt>
      <trkpt lat="48.69085" lon="1.92175">
        <ele>147.22</ele>
        <time>2008-04-06T12:02:58.000Z</time>
      </trkpt>
      <trkpt lat="48.69087" lon="1.92164">
        <ele>152.99</ele>
        <time>2008-04-06T12:03:05.000Z</time>
      </trkpt>
      <trkpt lat="48.6909" lon="1.9216">
        <ele>153.95</ele>
        <time>2008-04-06T12:03:10.000Z</time>
      </trkpt>
      <trkpt lat="48.6909" lon="1.92153">
        <ele>153.95</ele>
        <time>2008-04-06T12:03:15.000Z</time>
      </trkpt>
      <trkpt lat="48.69092" lon="1.92144">
        <ele>154.91</ele>
        <time>2008-04-06T12:03:20.000Z</time>
      </trkpt>
      <trkpt lat="48.69092" lon="1.92137">
        <ele>152.51</ele>
        <time>2008-04-06T12:03:24.000Z</time>
      </trkpt>
      <trkpt lat="48.69091" lon="1.92129">
        <ele>150.58</ele>
        <time>2008-04-06T12:03:27.000Z</time>
      </trkpt>
      <trkpt lat="48.69094" lon="1.92118">
        <ele>146.26</ele>
        <time>2008-04-06T12:03:32.000Z</time>
      </trkpt>
      <trkpt lat="48.69095" lon="1.9211">
        <ele>146.74</ele>
        <time>2008-04-06T12:03:36.000Z</time>
      </trkpt>
      <trkpt lat="48.69091" lon="1.921">
        <ele>145.78</ele>
        <time>2008-04-06T12:03:40.000Z</time>
      </trkpt>
      <trkpt lat="48.69087" lon="1.92088">
        <ele>142.89</ele>
        <time>2008-04-06T12:03:44.000Z</time>
      </trkpt>
      <trkpt lat="48.69085" lon="1.92065">
        <ele>139.05</ele>
        <time>2008-04-06T12:03:51.000Z</time>
      </trkpt>
      <trkpt lat="48.69088" lon="1.92059">
        <ele>139.05</ele>
        <time>2008-04-06T12:03:54.000Z</time>
      </trkpt>
      <trkpt lat="48.69093" lon="1.92054">
        <ele>138.09</ele>
        <time>2008-04-06T12:03:59.000Z</time>
      </trkpt>
      <trkpt lat="48.69097" lon="1.92047">
        <ele>142.41</ele>
        <time>2008-04-06T12:04:02.000Z</time>
      </trkpt>
      <trkpt lat="48.69107" lon="1.92029">
        <ele>144.82</ele>
        <time>2008-04-06T12:04:09.000Z</time>
      </trkpt>
      <trkpt lat="48.69111" lon="1.92012">
        <ele>143.37</ele>
        <time>2008-04-06T12:04:14.000Z</time>
      </trkpt>
      <trkpt lat="48.69109" lon="1.92001">
        <ele>140.97</ele>
        <time>2008-04-06T12:04:18.000Z</time>
      </trkpt>
      <trkpt lat="48.69101" lon="1.91997">
        <ele>139.53</ele>
        <time>2008-04-06T12:04:21.000Z</time>
      </trkpt>
      <trkpt lat="48.69097" lon="1.91984">
        <ele>138.57</ele>
        <time>2008-04-06T12:04:26.000Z</time>
      </trkpt>
      <trkpt lat="48.69099" lon="1.91979">
        <ele>137.13</ele>
        <time>2008-04-06T12:04:29.000Z</time>
      </trkpt>
      <trkpt lat="48.69101" lon="1.91971">
        <ele>134.72</ele>
        <time>2008-04-06T12:04:34.000Z</time>
      </trkpt>
      <trkpt lat="48.69104" lon="1.91969">
        <ele>133.28</ele>
        <time>2008-04-06T12:04:37.000Z</time>
      </trkpt>
      <trkpt lat="48.69112" lon="1.91952">
        <ele>139.05</ele>
        <time>2008-04-06T12:04:46.000Z</time>
      </trkpt>
      <trkpt lat="48.69125" lon="1.91941">
        <ele>140.01</ele>
        <time>2008-04-06T12:04:52.000Z</time>
      </trkpt>
      <trkpt lat="48.69129" lon="1.91937">
        <ele>142.41</ele>
        <time>2008-04-06T12:04:56.000Z</time>
      </trkpt>
      <trkpt lat="48.69136" lon="1.91935">
        <ele>141.93</ele>
        <time>2008-04-06T12:05:03.000Z</time>
      </trkpt>
      <trkpt lat="48.69142" lon="1.91938">
        <ele>146.26</ele>
        <time>2008-04-06T12:05:10.000Z</time>
      </trkpt>
      <trkpt lat="48.69148" lon="1.91938">
        <ele>146.74</ele>
        <time>2008-04-06T12:05:16.000Z</time>
      </trkpt>
      <trkpt lat="48.69155" lon="1.91934">
        <ele>145.78</ele>
        <time>2008-04-06T12:05:22.000Z</time>
      </trkpt>
      <trkpt lat="48.69164" lon="1.91935">
        <ele>149.62</ele>
        <time>2008-04-06T12:05:27.000Z</time>
      </trkpt>
      <trkpt lat="48.69167" lon="1.91937">
        <ele>150.1</ele>
        <time>2008-04-06T12:05:29.000Z</time>
      </trkpt>
      <trkpt lat="48.69173" lon="1.91934">
        <ele>149.62</ele>
        <time>2008-04-06T12:05:34.000Z</time>
      </trkpt>
      <trkpt lat="48.69175" lon="1.91924">
        <ele>144.82</ele>
        <time>2008-04-06T12:05:40.000Z</time>
      </trkpt>
      <trkpt lat="48.69175" lon="1.91914">
        <ele>142.89</ele>
        <time>2008-04-06T12:05:44.000Z</time>
      </trkpt>
      <trkpt lat="48.69175" lon="1.91908">
        <ele>141.93</ele>
        <time>2008-04-06T12:05:46.000Z</time>
      </trkpt>
      <trkpt lat="48.69181" lon="1.91887">
        <ele>144.82</ele>
        <time>2008-04-06T12:05:52.000Z</time>
      </trkpt>
      <trkpt lat="48.69182" lon="1.91883">
        <ele>146.26</ele>
        <time>2008-04-06T12:05:53.000Z</time>
      </trkpt>
      <trkpt lat="48.69188" lon="1.91865">
        <ele>141.45</ele>
        <time>2008-04-06T12:05:59.000Z</time>
      </trkpt>
      <trkpt lat="48.69195" lon="1.91848">
        <ele>140.01</ele>
        <time>2008-04-06T12:06:05.000Z</time>
      </trkpt>
      <trkpt lat="48.692" lon="1.91838">
        <ele>139.05</ele>
        <time>2008-04-06T12:06:09.000Z</time>
      </trkpt>
      <trkpt lat="48.69205" lon="1.91828">
        <ele>142.89</ele>
        <time>2008-04-06T12:06:13.000Z</time>
      </trkpt>
      <trkpt lat="48.69212" lon="1.91816">
        <ele>144.34</ele>
        <time>2008-04-06T12:06:19.000Z</time>
      </trkpt>
      <trkpt lat="48.69219" lon="1.91807">
        <ele>148.18</ele>
        <time>2008-04-06T12:06:24.000Z</time>
      </trkpt>
      <trkpt lat="48.69221" lon="1.91806">
        <ele>148.66</ele>
        <time>2008-04-06T12:06:26.000Z</time>
      </trkpt>
      <trkpt lat="48.69229" lon="1.91798">
        <ele>155.87</ele>
        <time>2008-04-06T12:06:34.000Z</time>
      </trkpt>
      <trkpt lat="48.69234" lon="1.91799">
        <ele>158.27</ele>
        <time>2008-04-06T12:06:39.000Z</time>
      </trkpt>
      <trkpt lat="48.69238" lon="1.91795">
        <ele>158.27</ele>
        <time>2008-04-06T12:06:45.000Z</time>
      </trkpt>
      <trkpt lat="48.6924" lon="1.91793">
        <ele>153.95</ele>
        <time>2008-04-06T12:06:49.000Z</time>
      </trkpt>
      <trkpt lat="48.69245" lon="1.91788">
        <ele>154.43</ele>
        <time>2008-04-06T12:06:55.000Z</time>
      </trkpt>
      <trkpt lat="48.69249" lon="1.91781">
        <ele>150.1</ele>
        <time>2008-04-06T12:07:03.000Z</time>
      </trkpt>
      <trkpt lat="48.69251" lon="1.91778">
        <ele>150.58</ele>
        <time>2008-04-06T12:07:05.000Z</time>
      </trkpt>
      <trkpt lat="48.69253" lon="1.91768">
        <ele>147.22</ele>
        <time>2008-04-06T12:07:10.000Z</time>
      </trkpt>
      <trkpt lat="48.69255" lon="1.91753">
        <ele>142.41</ele>
        <time>2008-04-06T12:07:16.000Z</time>
      </trkpt>
      <trkpt lat="48.69258" lon="1.91742">
        <ele>140.49</ele>
        <time>2008-04-06T12:07:20.000Z</time>
      </trkpt>
      <trkpt lat="48.69262" lon="1.91726">
        <ele>139.05</ele>
        <time>2008-04-06T12:07:24.000Z</time>
      </trkpt>
      <trkpt lat="48.69262" lon="1.91713">
        <ele>134.24</ele>
        <time>2008-04-06T12:07:28.000Z</time>
      </trkpt>
      <trkpt lat="48.69268" lon="1.91697">
        <ele>134.72</ele>
        <time>2008-04-06T12:07:33.000Z</time>
      </trkpt>
      <trkpt lat="48.69276" lon="1.91691">
        <ele>138.09</ele>
        <time>2008-04-06T12:07:37.000Z</time>
      </trkpt>
      <trkpt lat="48.69285" lon="1.91688">
        <ele>142.89</ele>
        <time>2008-04-06T12:07:44.000Z</time>
      </trkpt>
      <trkpt lat="48.69294" lon="1.91682">
        <ele>154.91</ele>
        <time>2008-04-06T12:07:51.000Z</time>
      </trkpt>
      <trkpt lat="48.69298" lon="1.91674">
        <ele>160.2</ele>
        <time>2008-04-06T12:07:56.000Z</time>
      </trkpt>
      <trkpt lat="48.69304" lon="1.91662">
        <ele>155.87</ele>
        <time>2008-04-06T12:08:02.000Z</time>
      </trkpt>
      <trkpt lat="48.69308" lon="1.91656">
        <ele>154.43</ele>
        <time>2008-04-06T12:08:08.000Z</time>
      </trkpt>
      <trkpt lat="48.69308" lon="1.91655">
        <ele>154.43</ele>
        <time>2008-04-06T12:08:09.000Z</time>
      </trkpt>
      <trkpt lat="48.69314" lon="1.9165">
        <ele>153.47</ele>
        <time>2008-04-06T12:08:16.000Z</time>
      </trkpt>
      <trkpt lat="48.69318" lon="1.91644">
        <ele>158.27</ele>
        <time>2008-04-06T12:08:21.000Z</time>
      </trkpt>
      <trkpt lat="48.69318" lon="1.91643">
        <ele>159.24</ele>
        <time>2008-04-06T12:08:22.000Z</time>
      </trkpt>
      <trkpt lat="48.69322" lon="1.91643">
        <ele>158.75</ele>
        <time>2008-04-06T12:08:27.000Z</time>
      </trkpt>
      <trkpt lat="48.69328" lon="1.91643">
        <ele>153.95</ele>
        <time>2008-04-06T12:08:33.000Z</time>
      </trkpt>
      <trkpt lat="48.69331" lon="1.91638">
        <ele>151.06</ele>
        <time>2008-04-06T12:08:37.000Z</time>
      </trkpt>
      <trkpt lat="48.69334" lon="1.91627">
        <ele>148.66</ele>
        <time>2008-04-06T12:08:42.000Z</time>
      </trkpt>
      <trkpt lat="48.69334" lon="1.91626">
        <ele>147.22</ele>
        <time>2008-04-06T12:08:43.000Z</time>
      </trkpt>
      <trkpt lat="48.69338" lon="1.91609">
        <ele>142.89</ele>
        <time>2008-04-06T12:08:49.000Z</time>
      </trkpt>
      <trkpt lat="48.69343" lon="1.91593">
        <ele>138.09</ele>
        <time>2008-04-06T12:08:55.000Z</time>
      </trkpt>
      <trkpt lat="48.69345" lon="1.91588">
        <ele>137.13</ele>
        <time>2008-04-06T12:08:57.000Z</time>
      </trkpt>
      <trkpt lat="48.6935" lon="1.91576">
        <ele>132.32</ele>
        <time>2008-04-06T12:09:02.000Z</time>
      </trkpt>
      <trkpt lat="48.69351" lon="1.91574">
        <ele>131.84</ele>
        <time>2008-04-06T12:09:03.000Z</time>
      </trkpt>
      <trkpt lat="48.69348" lon="1.91565">
        <ele>128.47</ele>
        <time>2008-04-06T12:09:07.000Z</time>
      </trkpt>
      <trkpt lat="48.69347" lon="1.91558">
        <ele>126.07</ele>
        <time>2008-04-06T12:09:10.000Z</time>
      </trkpt>
      <trkpt lat="48.69349" lon="1.91546">
        <ele>120.78</ele>
        <time>2008-04-06T12:09:16.000Z</time>
      </trkpt>
      <trkpt lat="48.69351" lon="1.91537">
        <ele>118.38</ele>
        <time>2008-04-06T12:09:20.000Z</time>
      </trkpt>
      <trkpt lat="48.69356" lon="1.91529">
        <ele>117.42</ele>
        <time>2008-04-06T12:09:25.000Z</time>
      </trkpt>
      <trkpt lat="48.69361" lon="1.91516">
        <ele>118.86</ele>
        <time>2008-04-06T12:09:30.000Z</time>
      </trkpt>
      <trkpt lat="48.69369" lon="1.91505">
        <ele>117.9</ele>
        <time>2008-04-06T12:09:34.000Z</time>
      </trkpt>
      <trkpt lat="48.69371" lon="1.91496">
        <ele>117.42</ele>
        <time>2008-04-06T12:09:37.000Z</time>
      </trkpt>
      <trkpt lat="48.69366" lon="1.91483">
        <ele>115.5</ele>
        <time>2008-04-06T12:09:41.000Z</time>
      </trkpt>
      <trkpt lat="48.69357" lon="1.91464">
        <ele>112.61</ele>
        <time>2008-04-06T12:09:47.000Z</time>
      </trkpt>
      <trkpt lat="48.69348" lon="1.91452">
        <ele>116.46</ele>
        <time>2008-04-06T12:09:51.000Z</time>
      </trkpt>
      <trkpt lat="48.6934" lon="1.91438">
        <ele>121.26</ele>
        <time>2008-04-06T12:09:55.000Z</time>
      </trkpt>
      <trkpt lat="48.69335" lon="1.91422">
        <ele>123.19</ele>
        <time>2008-04-06T12:10:00.000Z</time>
      </trkpt>
      <trkpt lat="48.69328" lon="1.91402">
        <ele>124.63</ele>
        <time>2008-04-06T12:10:06.000Z</time>
      </trkpt>
      <trkpt lat="48.69323" lon="1.91386">
        <ele>126.55</ele>
        <time>2008-04-06T12:10:11.000Z</time>
      </trkpt>
      <trkpt lat="48.6932" lon="1.91375">
        <ele>123.67</ele>
        <time>2008-04-06T12:10:16.000Z</time>
      </trkpt>
      <trkpt lat="48.69317" lon="1.91366">
        <ele>126.07</ele>
        <time>2008-04-06T12:10:21.000Z</time>
      </trkpt>
      <trkpt lat="48.69319" lon="1.91354">
        <ele>125.11</ele>
        <time>2008-04-06T12:10:28.000Z</time>
      </trkpt>
      <trkpt lat="48.69321" lon="1.91352">
        <ele>125.59</ele>
        <time>2008-04-06T12:10:31.000Z</time>
      </trkpt>
      <trkpt lat="48.69325" lon="1.91345">
        <ele>126.07</ele>
        <time>2008-04-06T12:10:36.000Z</time>
      </trkpt>
      <trkpt lat="48.69331" lon="1.91335">
        <ele>126.55</ele>
        <time>2008-04-06T12:10:44.000Z</time>
      </trkpt>
      <trkpt lat="48.69339" lon="1.91327">
        <ele>126.07</ele>
        <time>2008-04-06T12:10:48.000Z</time>
      </trkpt>
      <trkpt lat="48.69342" lon="1.91321">
        <ele>127.03</ele>
        <time>2008-04-06T12:10:51.000Z</time>
      </trkpt>
      <trkpt lat="48.69346" lon="1.91311">
        <ele>125.59</ele>
        <time>2008-04-06T12:10:58.000Z</time>
      </trkpt>
      <trkpt lat="48.69356" lon="1.91296">
        <ele>127.03</ele>
        <time>2008-04-06T12:11:08.000Z</time>
      </trkpt>
      <trkpt lat="48.69357" lon="1.91295">
        <ele>127.99</ele>
        <time>2008-04-06T12:11:09.000Z</time>
      </trkpt>
      <trkpt lat="48.69362" lon="1.91285">
        <ele>131.36</ele>
        <time>2008-04-06T12:11:16.000Z</time>
      </trkpt>
      <trkpt lat="48.69367" lon="1.91276">
        <ele>133.76</ele>
        <time>2008-04-06T12:11:22.000Z</time>
      </trkpt>
      <trkpt lat="48.69374" lon="1.91266">
        <ele>132.32</ele>
        <time>2008-04-06T12:11:29.000Z</time>
      </trkpt>
      <trkpt lat="48.6938" lon="1.91252">
        <ele>135.68</ele>
        <time>2008-04-06T12:11:35.000Z</time>
      </trkpt>
      <trkpt lat="48.69387" lon="1.91238">
        <ele>133.28</ele>
        <time>2008-04-06T12:11:40.000Z</time>
      </trkpt>
      <trkpt lat="48.69391" lon="1.91225">
        <ele>132.32</ele>
        <time>2008-04-06T12:11:44.000Z</time>
      </trkpt>
      <trkpt lat="48.69397" lon="1.91213">
        <ele>131.36</ele>
        <time>2008-04-06T12:11:48.000Z</time>
      </trkpt>
      <trkpt lat="48.69403" lon="1.91197">
        <ele>131.36</ele>
        <time>2008-04-06T12:11:53.000Z</time>
      </trkpt>
      <trkpt lat="48.69405" lon="1.91179">
        <ele>129.92</ele>
        <time>2008-04-06T12:11:58.000Z</time>
      </trkpt>
      <trkpt lat="48.69407" lon="1.91157">
        <ele>128.47</ele>
        <time>2008-04-06T12:12:03.000Z</time>
      </trkpt>
      <trkpt lat="48.69411" lon="1.91149">
        <ele>127.99</ele>
        <time>2008-04-06T12:12:06.000Z</time>
      </trkpt>
      <trkpt lat="48.69414" lon="1.91144">
        <ele>127.99</ele>
        <time>2008-04-06T12:12:08.000Z</time>
      </trkpt>
      <trkpt lat="48.69417" lon="1.91121">
        <ele>128.47</ele>
        <time>2008-04-06T12:12:14.000Z</time>
      </trkpt>
      <trkpt lat="48.69422" lon="1.91108">
        <ele>127.99</ele>
        <time>2008-04-06T12:12:19.000Z</time>
      </trkpt>
      <trkpt lat="48.69429" lon="1.91087">
        <ele>133.28</ele>
        <time>2008-04-06T12:12:26.000Z</time>
      </trkpt>
      <trkpt lat="48.69434" lon="1.91071">
        <ele>134.72</ele>
        <time>2008-04-06T12:12:31.000Z</time>
      </trkpt>
      <trkpt lat="48.69437" lon="1.9106">
        <ele>135.68</ele>
        <time>2008-04-06T12:12:35.000Z</time>
      </trkpt>
      <trkpt lat="48.69442" lon="1.91051">
        <ele>135.2</ele>
        <time>2008-04-06T12:12:39.000Z</time>
      </trkpt>
      <trkpt lat="48.6945" lon="1.91037">
        <ele>134.72</ele>
        <time>2008-04-06T12:12:45.000Z</time>
      </trkpt>
      <trkpt lat="48.69455" lon="1.91021">
        <ele>133.28</ele>
        <time>2008-04-06T12:12:51.000Z</time>
      </trkpt>
      <trkpt lat="48.69458" lon="1.91005">
        <ele>130.88</ele>
        <time>2008-04-06T12:12:57.000Z</time>
      </trkpt>
      <trkpt lat="48.69457" lon="1.90998">
        <ele>129.92</ele>
        <time>2008-04-06T12:12:59.000Z</time>
      </trkpt>
      <trkpt lat="48.69461" lon="1.9098">
        <ele>127.03</ele>
        <time>2008-04-06T12:13:05.000Z</time>
      </trkpt>
      <trkpt lat="48.69462" lon="1.90961">
        <ele>130.88</ele>
        <time>2008-04-06T12:13:10.000Z</time>
      </trkpt>
      <trkpt lat="48.69464" lon="1.90951">
        <ele>129.43</ele>
        <time>2008-04-06T12:13:14.000Z</time>
      </trkpt>
      <trkpt lat="48.69466" lon="1.90936">
        <ele>127.03</ele>
        <time>2008-04-06T12:13:19.000Z</time>
      </trkpt>
      <trkpt lat="48.69466" lon="1.90929">
        <ele>127.99</ele>
        <time>2008-04-06T12:13:21.000Z</time>
      </trkpt>
      <trkpt lat="48.69468" lon="1.90912">
        <ele>131.36</ele>
        <time>2008-04-06T12:13:27.000Z</time>
      </trkpt>
      <trkpt lat="48.69471" lon="1.90896">
        <ele>131.84</ele>
        <time>2008-04-06T12:13:33.000Z</time>
      </trkpt>
      <trkpt lat="48.69474" lon="1.90891">
        <ele>130.4</ele>
        <time>2008-04-06T12:13:37.000Z</time>
      </trkpt>
      <trkpt lat="48.69481" lon="1.90878">
        <ele>130.4</ele>
        <time>2008-04-06T12:13:43.000Z</time>
      </trkpt>
      <trkpt lat="48.69487" lon="1.90868">
        <ele>129.43</ele>
        <time>2008-04-06T12:13:47.000Z</time>
      </trkpt>
      <trkpt lat="48.69497" lon="1.9085">
        <ele>130.4</ele>
        <time>2008-04-06T12:13:53.000Z</time>
      </trkpt>
      <trkpt lat="48.69506" lon="1.90842">
        <ele>132.8</ele>
        <time>2008-04-06T12:13:58.000Z</time>
      </trkpt>
      <trkpt lat="48.69518" lon="1.90835">
        <ele>134.24</ele>
        <time>2008-04-06T12:14:04.000Z</time>
      </trkpt>
      <trkpt lat="48.69533" lon="1.90831">
        <ele>137.61</ele>
        <time>2008-04-06T12:14:10.000Z</time>
      </trkpt>
      <trkpt lat="48.69542" lon="1.90831">
        <ele>137.13</ele>
        <time>2008-04-06T12:14:14.000Z</time>
      </trkpt>
      <trkpt lat="48.69549" lon="1.90828">
        <ele>134.72</ele>
        <time>2008-04-06T12:14:18.000Z</time>
      </trkpt>
      <trkpt lat="48.69559" lon="1.90815">
        <ele>138.09</ele>
        <time>2008-04-06T12:14:24.000Z</time>
      </trkpt>
      <trkpt lat="48.69567" lon="1.90815">
        <ele>134.72</ele>
        <time>2008-04-06T12:14:28.000Z</time>
      </trkpt>
      <trkpt lat="48.69576" lon="1.90807">
        <ele>136.16</ele>
        <time>2008-04-06T12:14:33.000Z</time>
      </trkpt>
      <trkpt lat="48.69578" lon="1.90805">
        <ele>137.61</ele>
        <time>2008-04-06T12:14:34.000Z</time>
      </trkpt>
      <trkpt lat="48.69586" lon="1.90798">
        <ele>140.97</ele>
        <time>2008-04-06T12:14:38.000Z</time>
      </trkpt>
      <trkpt lat="48.69596" lon="1.90801">
        <ele>133.28</ele>
        <time>2008-04-06T12:14:43.000Z</time>
      </trkpt>
      <trkpt lat="48.69603" lon="1.90799">
        <ele>129.43</ele>
        <time>2008-04-06T12:14:47.000Z</time>
      </trkpt>
      <trkpt lat="48.69603" lon="1.90796">
        <ele>129.43</ele>
        <time>2008-04-06T12:14:48.000Z</time>
      </trkpt>
      <trkpt lat="48.69604" lon="1.90771">
        <ele>131.84</ele>
        <time>2008-04-06T12:14:55.000Z</time>
      </trkpt>
      <trkpt lat="48.69605" lon="1.90757">
        <ele>131.36</ele>
        <time>2008-04-06T12:15:00.000Z</time>
      </trkpt>
      <trkpt lat="48.69606" lon="1.90747">
        <ele>131.84</ele>
        <time>2008-04-06T12:15:03.000Z</time>
      </trkpt>
      <trkpt lat="48.69611" lon="1.90731">
        <ele>131.84</ele>
        <time>2008-04-06T12:15:09.000Z</time>
      </trkpt>
      <trkpt lat="48.69614" lon="1.9072">
        <ele>129.92</ele>
        <time>2008-04-06T12:15:13.000Z</time>
      </trkpt>
      <trkpt lat="48.69616" lon="1.90701">
        <ele>127.99</ele>
        <time>2008-04-06T12:15:19.000Z</time>
      </trkpt>
      <trkpt lat="48.69614" lon="1.90678">
        <ele>127.51</ele>
        <time>2008-04-06T12:15:26.000Z</time>
      </trkpt>
      <trkpt lat="48.69614" lon="1.90668">
        <ele>126.07</ele>
        <time>2008-04-06T12:15:30.000Z</time>
      </trkpt>
      <trkpt lat="48.69618" lon="1.90654">
        <ele>127.99</ele>
        <time>2008-04-06T12:15:35.000Z</time>
      </trkpt>
      <trkpt lat="48.69619" lon="1.90649">
        <ele>130.4</ele>
        <time>2008-04-06T12:15:37.000Z</time>
      </trkpt>
      <trkpt lat="48.69625" lon="1.90633">
        <ele>135.68</ele>
        <time>2008-04-06T12:15:45.000Z</time>
      </trkpt>
      <trkpt lat="48.69628" lon="1.90627">
        <ele>136.16</ele>
        <time>2008-04-06T12:15:48.000Z</time>
      </trkpt>
      <trkpt lat="48.69629" lon="1.90616">
        <ele>134.72</ele>
        <time>2008-04-06T12:15:53.000Z</time>
      </trkpt>
      <trkpt lat="48.69631" lon="1.90606">
        <ele>130.88</ele>
        <time>2008-04-06T12:15:58.000Z</time>
      </trkpt>
      <trkpt lat="48.69635" lon="1.90598">
        <ele>132.32</ele>
        <time>2008-04-06T12:16:02.000Z</time>
      </trkpt>
      <trkpt lat="48.69638" lon="1.90588">
        <ele>132.32</ele>
        <time>2008-04-06T12:16:07.000Z</time>
      </trkpt>
      <trkpt lat="48.69642" lon="1.90578">
        <ele>131.84</ele>
        <time>2008-04-06T12:16:12.000Z</time>
      </trkpt>
      <trkpt lat="48.69646" lon="1.9057">
        <ele>130.4</ele>
        <time>2008-04-06T12:16:17.000Z</time>
      </trkpt>
      <trkpt lat="48.69649" lon="1.90564">
        <ele>130.4</ele>
        <time>2008-04-06T12:16:20.000Z</time>
      </trkpt>
      <trkpt lat="48.69657" lon="1.90551">
        <ele>128.47</ele>
        <time>2008-04-06T12:16:28.000Z</time>
      </trkpt>
      <trkpt lat="48.69662" lon="1.90543">
        <ele>130.88</ele>
        <time>2008-04-06T12:16:33.000Z</time>
      </trkpt>
      <trkpt lat="48.69672" lon="1.90532">
        <ele>130.88</ele>
        <time>2008-04-06T12:16:39.000Z</time>
      </trkpt>
      <trkpt lat="48.69681" lon="1.90522">
        <ele>131.84</ele>
        <time>2008-04-06T12:16:44.000Z</time>
      </trkpt>
      <trkpt lat="48.69691" lon="1.9051">
        <ele>131.36</ele>
        <time>2008-04-06T12:16:50.000Z</time>
      </trkpt>
      <trkpt lat="48.69702" lon="1.90497">
        <ele>131.84</ele>
        <time>2008-04-06T12:16:56.000Z</time>
      </trkpt>
      <trkpt lat="48.69711" lon="1.90489">
        <ele>133.28</ele>
        <time>2008-04-06T12:17:01.000Z</time>
      </trkpt>
      <trkpt lat="48.69722" lon="1.9048">
        <ele>133.76</ele>
        <time>2008-04-06T12:17:06.000Z</time>
      </trkpt>
      <trkpt lat="48.6973" lon="1.90473">
        <ele>135.68</ele>
        <time>2008-04-06T12:17:11.000Z</time>
      </trkpt>
      <trkpt lat="48.69742" lon="1.90465">
        <ele>140.01</ele>
        <time>2008-04-06T12:17:16.000Z</time>
      </trkpt>
      <trkpt lat="48.69752" lon="1.90458">
        <ele>140.97</ele>
        <time>2008-04-06T12:17:21.000Z</time>
      </trkpt>
      <trkpt lat="48.69766" lon="1.90452">
        <ele>140.01</ele>
        <time>2008-04-06T12:17:28.000Z</time>
      </trkpt>
      <trkpt lat="48.6978" lon="1.90449">
        <ele>143.85</ele>
        <time>2008-04-06T12:17:33.000Z</time>
      </trkpt>
      <trkpt lat="48.69791" lon="1.90453">
        <ele>140.01</ele>
        <time>2008-04-06T12:17:38.000Z</time>
      </trkpt>
      <trkpt lat="48.69802" lon="1.90455">
        <ele>142.41</ele>
        <time>2008-04-06T12:17:43.000Z</time>
      </trkpt>
      <trkpt lat="48.69819" lon="1.90459">
        <ele>144.34</ele>
        <time>2008-04-06T12:17:49.000Z</time>
      </trkpt>
      <trkpt lat="48.69829" lon="1.90463">
        <ele>144.34</ele>
        <time>2008-04-06T12:17:54.000Z</time>
      </trkpt>
      <trkpt lat="48.69835" lon="1.90463">
        <ele>149.14</ele>
        <time>2008-04-06T12:17:56.000Z</time>
      </trkpt>
      <trkpt lat="48.69849" lon="1.90466">
        <ele>153.95</ele>
        <time>2008-04-06T12:18:02.000Z</time>
      </trkpt>
      <trkpt lat="48.6986" lon="1.9047">
        <ele>152.99</ele>
        <time>2008-04-06T12:18:07.000Z</time>
      </trkpt>
      <trkpt lat="48.69862" lon="1.90471">
        <ele>152.03</ele>
        <time>2008-04-06T12:18:08.000Z</time>
      </trkpt>
      <trkpt lat="48.69877" lon="1.90476">
        <ele>152.51</ele>
        <time>2008-04-06T12:18:14.000Z</time>
      </trkpt>
      <trkpt lat="48.69891" lon="1.90481">
        <ele>155.87</ele>
        <time>2008-04-06T12:18:19.000Z</time>
      </trkpt>
      <trkpt lat="48.699" lon="1.90487">
        <ele>150.1</ele>
        <time>2008-04-06T12:18:23.000Z</time>
      </trkpt>
      <trkpt lat="48.69906" lon="1.90496">
        <ele>142.89</ele>
        <time>2008-04-06T12:18:28.000Z</time>
      </trkpt>
      <trkpt lat="48.6991" lon="1.90497">
        <ele>140.97</ele>
        <time>2008-04-06T12:18:30.000Z</time>
      </trkpt>
      <trkpt lat="48.69922" lon="1.90503">
        <ele>133.28</ele>
        <time>2008-04-06T12:18:36.000Z</time>
      </trkpt>
      <trkpt lat="48.69927" lon="1.90501">
        <ele>133.76</ele>
        <time>2008-04-06T12:18:38.000Z</time>
      </trkpt>
      <trkpt lat="48.6994" lon="1.90509">
        <ele>132.32</ele>
        <time>2008-04-06T12:18:44.000Z</time>
      </trkpt>
      <trkpt lat="48.69946" lon="1.90513">
        <ele>130.4</ele>
        <time>2008-04-06T12:18:47.000Z</time>
      </trkpt>
      <trkpt lat="48.69958" lon="1.90523">
        <ele>130.88</ele>
        <time>2008-04-06T12:18:52.000Z</time>
      </trkpt>
      <trkpt lat="48.69962" lon="1.90525">
        <ele>131.84</ele>
        <time>2008-04-06T12:18:53.000Z</time>
      </trkpt>
      <trkpt lat="48.69979" lon="1.90539">
        <ele>133.28</ele>
        <time>2008-04-06T12:19:00.000Z</time>
      </trkpt>
      <trkpt lat="48.69985" lon="1.90546">
        <ele>131.36</ele>
        <time>2008-04-06T12:19:03.000Z</time>
      </trkpt>
      <trkpt lat="48.69996" lon="1.90554">
        <ele>130.88</ele>
        <time>2008-04-06T12:19:08.000Z</time>
      </trkpt>
      <trkpt lat="48.70003" lon="1.90554">
        <ele>135.2</ele>
        <time>2008-04-06T12:19:11.000Z</time>
      </trkpt>
      <trkpt lat="48.70013" lon="1.90555">
        <ele>137.13</ele>
        <time>2008-04-06T12:19:17.000Z</time>
      </trkpt>
      <trkpt lat="48.70015" lon="1.90556">
        <ele>137.61</ele>
        <time>2008-04-06T12:19:18.000Z</time>
      </trkpt>
      <trkpt lat="48.70027" lon="1.90559">
        <ele>137.61</ele>
        <time>2008-04-06T12:19:24.000Z</time>
      </trkpt>
      <trkpt lat="48.70035" lon="1.90561">
        <ele>139.05</ele>
        <time>2008-04-06T12:19:28.000Z</time>
      </trkpt>
      <trkpt lat="48.70039" lon="1.9055">
        <ele>139.05</ele>
        <time>2008-04-06T12:19:33.000Z</time>
      </trkpt>
      <trkpt lat="48.70037" lon="1.90537">
        <ele>135.2</ele>
        <time>2008-04-06T12:19:38.000Z</time>
      </trkpt>
      <trkpt lat="48.70034" lon="1.90528">
        <ele>131.84</ele>
        <time>2008-04-06T12:19:42.000Z</time>
      </trkpt>
      <trkpt lat="48.70034" lon="1.90516">
        <ele>128.95</ele>
        <time>2008-04-06T12:19:48.000Z</time>
      </trkpt>
      <trkpt lat="48.70031" lon="1.90508">
        <ele>127.99</ele>
        <time>2008-04-06T12:19:52.000Z</time>
      </trkpt>
      <trkpt lat="48.70026" lon="1.90504">
        <ele>131.84</ele>
        <time>2008-04-06T12:19:57.000Z</time>
      </trkpt>
      <trkpt lat="48.70027" lon="1.90499">
        <ele>132.32</ele>
        <time>2008-04-06T12:19:59.000Z</time>
      </trkpt>
      <trkpt lat="48.70026" lon="1.90489">
        <ele>128.95</ele>
        <time>2008-04-06T12:20:06.000Z</time>
      </trkpt>
      <trkpt lat="48.70026" lon="1.90473">
        <ele>126.55</ele>
        <time>2008-04-06T12:20:13.000Z</time>
      </trkpt>
      <trkpt lat="48.70026" lon="1.90471">
        <ele>126.55</ele>
        <time>2008-04-06T12:20:14.000Z</time>
      </trkpt>
      <trkpt lat="48.70026" lon="1.90459">
        <ele>125.11</ele>
        <time>2008-04-06T12:20:20.000Z</time>
      </trkpt>
      <trkpt lat="48.70027" lon="1.9045">
        <ele>123.19</ele>
        <time>2008-04-06T12:20:24.000Z</time>
      </trkpt>
      <trkpt lat="48.70027" lon="1.90448">
        <ele>122.71</ele>
        <time>2008-04-06T12:20:25.000Z</time>
      </trkpt>
      <trkpt lat="48.70026" lon="1.90444">
        <ele>121.26</ele>
        <time>2008-04-06T12:20:27.000Z</time>
      </trkpt>
      <trkpt lat="48.70025" lon="1.90431">
        <ele>120.78</ele>
        <time>2008-04-06T12:20:32.000Z</time>
      </trkpt>
      <trkpt lat="48.70022" lon="1.90408">
        <ele>123.19</ele>
        <time>2008-04-06T12:20:38.000Z</time>
      </trkpt>
      <trkpt lat="48.70013" lon="1.90385">
        <ele>124.63</ele>
        <time>2008-04-06T12:20:44.000Z</time>
      </trkpt>
      <trkpt lat="48.70007" lon="1.90366">
        <ele>127.03</ele>
        <time>2008-04-06T12:20:49.000Z</time>
      </trkpt>
      <trkpt lat="48.70002" lon="1.90346">
        <ele>131.36</ele>
        <time>2008-04-06T12:20:54.000Z</time>
      </trkpt>
      <trkpt lat="48.69999" lon="1.90327">
        <ele>131.84</ele>
        <time>2008-04-06T12:20:59.000Z</time>
      </trkpt>
      <trkpt lat="48.69998" lon="1.90308">
        <ele>133.28</ele>
        <time>2008-04-06T12:21:04.000Z</time>
      </trkpt>
      <trkpt lat="48.69997" lon="1.90288">
        <ele>138.09</ele>
        <time>2008-04-06T12:21:09.000Z</time>
      </trkpt>
      <trkpt lat="48.69998" lon="1.90281">
        <ele>137.61</ele>
        <time>2008-04-06T12:21:12.000Z</time>
      </trkpt>
      <trkpt lat="48.70001" lon="1.9027">
        <ele>134.72</ele>
        <time>2008-04-06T12:21:16.000Z</time>
      </trkpt>
      <trkpt lat="48.70005" lon="1.90247">
        <ele>131.36</ele>
        <time>2008-04-06T12:21:22.000Z</time>
      </trkpt>
      <trkpt lat="48.70008" lon="1.90229">
        <ele>125.11</ele>
        <time>2008-04-06T12:21:28.000Z</time>
      </trkpt>
      <trkpt lat="48.70009" lon="1.90208">
        <ele>120.3</ele>
        <time>2008-04-06T12:21:34.000Z</time>
      </trkpt>
      <trkpt lat="48.70013" lon="1.90188">
        <ele>117.42</ele>
        <time>2008-04-06T12:21:40.000Z</time>
      </trkpt>
      <trkpt lat="48.70014" lon="1.90173">
        <ele>117.42</ele>
        <time>2008-04-06T12:21:44.000Z</time>
      </trkpt>
      <trkpt lat="48.70015" lon="1.90151">
        <ele>118.86</ele>
        <time>2008-04-06T12:21:50.000Z</time>
      </trkpt>
      <trkpt lat="48.70015" lon="1.90132">
        <ele>120.3</ele>
        <time>2008-04-06T12:21:55.000Z</time>
      </trkpt>
      <trkpt lat="48.70015" lon="1.90115">
        <ele>120.3</ele>
        <time>2008-04-06T12:22:00.000Z</time>
      </trkpt>
      <trkpt lat="48.70015" lon="1.90099">
        <ele>122.22</ele>
        <time>2008-04-06T12:22:07.000Z</time>
      </trkpt>
      <trkpt lat="48.70013" lon="1.90086">
        <ele>122.71</ele>
        <time>2008-04-06T12:22:12.000Z</time>
      </trkpt>
      <trkpt lat="48.70013" lon="1.90073">
        <ele>121.74</ele>
        <time>2008-04-06T12:22:19.000Z</time>
      </trkpt>
      <trkpt lat="48.70013" lon="1.90071">
        <ele>123.19</ele>
        <time>2008-04-06T12:22:20.000Z</time>
      </trkpt>
      <trkpt lat="48.70011" lon="1.90059">
        <ele>124.15</ele>
        <time>2008-04-06T12:22:26.000Z</time>
      </trkpt>
      <trkpt lat="48.70011" lon="1.90048">
        <ele>126.07</ele>
        <time>2008-04-06T12:22:31.000Z</time>
      </trkpt>
      <trkpt lat="48.70007" lon="1.90032">
        <ele>123.67</ele>
        <time>2008-04-06T12:22:39.000Z</time>
      </trkpt>
      <trkpt lat="48.70007" lon="1.90014">
        <ele>124.15</ele>
        <time>2008-04-06T12:22:44.000Z</time>
      </trkpt>
      <trkpt lat="48.7001" lon="1.89996">
        <ele>125.11</ele>
        <time>2008-04-06T12:22:48.000Z</time>
      </trkpt>
      <trkpt lat="48.70011" lon="1.89985">
        <ele>126.55</ele>
        <time>2008-04-06T12:22:51.000Z</time>
      </trkpt>
      <trkpt lat="48.70012" lon="1.89966">
        <ele>127.99</ele>
        <time>2008-04-06T12:22:56.000Z</time>
      </trkpt>
      <trkpt lat="48.70012" lon="1.89947">
        <ele>126.55</ele>
        <time>2008-04-06T12:23:01.000Z</time>
      </trkpt>
      <trkpt lat="48.70011" lon="1.8993">
        <ele>126.55</ele>
        <time>2008-04-06T12:23:05.000Z</time>
      </trkpt>
      <trkpt lat="48.7001" lon="1.89915">
        <ele>127.99</ele>
        <time>2008-04-06T12:23:11.000Z</time>
      </trkpt>
      <trkpt lat="48.70013" lon="1.89899">
        <ele>129.43</ele>
        <time>2008-04-06T12:23:18.000Z</time>
      </trkpt>
      <trkpt lat="48.70016" lon="1.89894">
        <ele>129.92</ele>
        <time>2008-04-06T12:23:21.000Z</time>
      </trkpt>
      <trkpt lat="48.70028" lon="1.89885">
        <ele>128.95</ele>
        <time>2008-04-06T12:23:28.000Z</time>
      </trkpt>
      <trkpt lat="48.70039" lon="1.89877">
        <ele>128.95</ele>
        <time>2008-04-06T12:23:33.000Z</time>
      </trkpt>
      <trkpt lat="48.70051" lon="1.89872">
        <ele>129.92</ele>
        <time>2008-04-06T12:23:38.000Z</time>
      </trkpt>
      <trkpt lat="48.70064" lon="1.89863">
        <ele>131.36</ele>
        <time>2008-04-06T12:23:44.000Z</time>
      </trkpt>
      <trkpt lat="48.70073" lon="1.89854">
        <ele>131.84</ele>
        <time>2008-04-06T12:23:49.000Z</time>
      </trkpt>
      <trkpt lat="48.70082" lon="1.89847">
        <ele>132.32</ele>
        <time>2008-04-06T12:23:53.000Z</time>
      </trkpt>
      <trkpt lat="48.7009" lon="1.89834">
        <ele>132.32</ele>
        <time>2008-04-06T12:23:58.000Z</time>
      </trkpt>
      <trkpt lat="48.70093" lon="1.89824">
        <ele>130.88</ele>
        <time>2008-04-06T12:24:01.000Z</time>
      </trkpt>
      <trkpt lat="48.70096" lon="1.898">
        <ele>128.95</ele>
        <time>2008-04-06T12:24:08.000Z</time>
      </trkpt>
      <trkpt lat="48.70101" lon="1.89781">
        <ele>127.03</ele>
        <time>2008-04-06T12:24:14.000Z</time>
      </trkpt>
      <trkpt lat="48.70104" lon="1.8977">
        <ele>128.47</ele>
        <time>2008-04-06T12:24:17.000Z</time>
      </trkpt>
      <trkpt lat="48.7011" lon="1.89757">
        <ele>126.55</ele>
        <time>2008-04-06T12:24:22.000Z</time>
      </trkpt>
      <trkpt lat="48.70112" lon="1.89756">
        <ele>126.55</ele>
        <time>2008-04-06T12:24:23.000Z</time>
      </trkpt>
      <trkpt lat="48.70115" lon="1.89752">
        <ele>126.07</ele>
        <time>2008-04-06T12:24:25.000Z</time>
      </trkpt>
      <trkpt lat="48.70124" lon="1.89743">
        <ele>128.47</ele>
        <time>2008-04-06T12:24:30.000Z</time>
      </trkpt>
      <trkpt lat="48.70135" lon="1.8974">
        <ele>129.92</ele>
        <time>2008-04-06T12:24:36.000Z</time>
      </trkpt>
      <trkpt lat="48.70144" lon="1.89738">
        <ele>130.4</ele>
        <time>2008-04-06T12:24:40.000Z</time>
      </trkpt>
      <trkpt lat="48.70157" lon="1.89735">
        <ele>131.84</ele>
        <time>2008-04-06T12:24:46.000Z</time>
      </trkpt>
      <trkpt lat="48.70169" lon="1.89726">
        <ele>137.61</ele>
        <time>2008-04-06T12:24:52.000Z</time>
      </trkpt>
      <trkpt lat="48.70179" lon="1.89718">
        <ele>140.01</ele>
        <time>2008-04-06T12:24:57.000Z</time>
      </trkpt>
      <trkpt lat="48.70189" lon="1.89706">
        <ele>140.49</ele>
        <time>2008-04-06T12:25:02.000Z</time>
      </trkpt>
      <trkpt lat="48.70199" lon="1.89696">
        <ele>140.49</ele>
        <time>2008-04-06T12:25:07.000Z</time>
      </trkpt>
      <trkpt lat="48.70209" lon="1.89685">
        <ele>137.61</ele>
        <time>2008-04-06T12:25:12.000Z</time>
      </trkpt>
      <trkpt lat="48.70218" lon="1.89674">
        <ele>135.68</ele>
        <time>2008-04-06T12:25:17.000Z</time>
      </trkpt>
      <trkpt lat="48.70221" lon="1.89669">
        <ele>133.76</ele>
        <time>2008-04-06T12:25:19.000Z</time>
      </trkpt>
      <trkpt lat="48.7023" lon="1.89654">
        <ele>130.88</ele>
        <time>2008-04-06T12:25:25.000Z</time>
      </trkpt>
      <trkpt lat="48.70233" lon="1.89648">
        <ele>131.36</ele>
        <time>2008-04-06T12:25:27.000Z</time>
      </trkpt>
      <trkpt lat="48.70244" lon="1.89623">
        <ele>130.88</ele>
        <time>2008-04-06T12:25:35.000Z</time>
      </trkpt>
      <trkpt lat="48.7025" lon="1.89615">
        <ele>130.4</ele>
        <time>2008-04-06T12:25:39.000Z</time>
      </trkpt>
      <trkpt lat="48.7026" lon="1.89604">
        <ele>125.59</ele>
        <time>2008-04-06T12:25:45.000Z</time>
      </trkpt>
      <trkpt lat="48.70267" lon="1.89591">
        <ele>128.47</ele>
        <time>2008-04-06T12:25:50.000Z</time>
      </trkpt>
      <trkpt lat="48.70278" lon="1.89582">
        <ele>128.95</ele>
        <time>2008-04-06T12:25:55.000Z</time>
      </trkpt>
      <trkpt lat="48.70284" lon="1.89576">
        <ele>132.8</ele>
        <time>2008-04-06T12:25:58.000Z</time>
      </trkpt>
      <trkpt lat="48.70297" lon="1.8957">
        <ele>131.84</ele>
        <time>2008-04-06T12:26:04.000Z</time>
      </trkpt>
      <trkpt lat="48.70308" lon="1.89561">
        <ele>135.68</ele>
        <time>2008-04-06T12:26:09.000Z</time>
      </trkpt>
      <trkpt lat="48.70317" lon="1.89548">
        <ele>146.74</ele>
        <time>2008-04-06T12:26:14.000Z</time>
      </trkpt>
      <trkpt lat="48.70328" lon="1.89533">
        <ele>143.85</ele>
        <time>2008-04-06T12:26:21.000Z</time>
      </trkpt>
      <trkpt lat="48.70332" lon="1.89526">
        <ele>144.82</ele>
        <time>2008-04-06T12:26:24.000Z</time>
      </trkpt>
      <trkpt lat="48.70338" lon="1.89507">
        <ele>144.82</ele>
        <time>2008-04-06T12:26:31.000Z</time>
      </trkpt>
      <trkpt lat="48.70337" lon="1.89495">
        <ele>141.93</ele>
        <time>2008-04-06T12:26:35.000Z</time>
      </trkpt>
      <trkpt lat="48.70334" lon="1.89478">
        <ele>136.64</ele>
        <time>2008-04-06T12:26:40.000Z</time>
      </trkpt>
      <trkpt lat="48.70328" lon="1.89466">
        <ele>131.84</ele>
        <time>2008-04-06T12:26:45.000Z</time>
      </trkpt>
      <trkpt lat="48.70323" lon="1.89462">
        <ele>130.88</ele>
        <time>2008-04-06T12:26:47.000Z</time>
      </trkpt>
      <trkpt lat="48.70311" lon="1.89447">
        <ele>131.36</ele>
        <time>2008-04-06T12:26:53.000Z</time>
      </trkpt>
      <trkpt lat="48.70302" lon="1.89434">
        <ele>132.8</ele>
        <time>2008-04-06T12:26:58.000Z</time>
      </trkpt>
      <trkpt lat="48.70297" lon="1.89417">
        <ele>132.8</ele>
        <time>2008-04-06T12:27:04.000Z</time>
      </trkpt>
      <trkpt lat="48.70295" lon="1.89397">
        <ele>131.84</ele>
        <time>2008-04-06T12:27:10.000Z</time>
      </trkpt>
      <trkpt lat="48.70295" lon="1.89385">
        <ele>132.32</ele>
        <time>2008-04-06T12:27:13.000Z</time>
      </trkpt>
      <trkpt lat="48.70292" lon="1.89364">
        <ele>131.36</ele>
        <time>2008-04-06T12:27:19.000Z</time>
      </trkpt>
      <trkpt lat="48.70289" lon="1.89347">
        <ele>130.4</ele>
        <time>2008-04-06T12:27:24.000Z</time>
      </trkpt>
      <trkpt lat="48.70283" lon="1.89333">
        <ele>128.95</ele>
        <time>2008-04-06T12:27:29.000Z</time>
      </trkpt>
      <trkpt lat="48.70275" lon="1.8932">
        <ele>127.51</ele>
        <time>2008-04-06T12:27:34.000Z</time>
      </trkpt>
      <trkpt lat="48.70269" lon="1.89307">
        <ele>127.03</ele>
        <time>2008-04-06T12:27:39.000Z</time>
      </trkpt>
      <trkpt lat="48.7026" lon="1.89291">
        <ele>125.11</ele>
        <time>2008-04-06T12:27:45.000Z</time>
      </trkpt>
      <trkpt lat="48.7025" lon="1.89274">
        <ele>124.15</ele>
        <time>2008-04-06T12:27:52.000Z</time>
      </trkpt>
      <trkpt lat="48.70248" lon="1.89272">
        <ele>125.11</ele>
        <time>2008-04-06T12:27:53.000Z</time>
      </trkpt>
      <trkpt lat="48.70242" lon="1.89256">
        <ele>123.67</ele>
        <time>2008-04-06T12:27:59.000Z</time>
      </trkpt>
      <trkpt lat="48.70242" lon="1.8925">
        <ele>123.67</ele>
        <time>2008-04-06T12:28:01.000Z</time>
      </trkpt>
      <trkpt lat="48.70243" lon="1.89229">
        <ele>123.67</ele>
        <time>2008-04-06T12:28:07.000Z</time>
      </trkpt>
      <trkpt lat="48.70243" lon="1.89215">
        <ele>123.67</ele>
        <time>2008-04-06T12:28:12.000Z</time>
      </trkpt>
    </trkseg>
  </trk>
</gpx>